<?xml version='1.0' encoding='UTF-8'?><gpx version="1.1" creator="JPX - https://github.com/jenetics/jpx" xmlns="http://www.topografix.com/GPX/1/1"><trk><trkseg><trkpt lat="42.8087001" lon="11.2471062"><ele>27.0</ele><time>2026-04-12T07:13:18.305Z</time></trkpt><trkpt lat="42.8087918" lon="11.2470609"><ele>27.0</ele><time>2026-04-12T07:13:22.805Z</time></trkpt><trkpt lat="42.808751" lon="11.2469942"><ele>27.0</ele><time>2026-04-12T07:13:26.986Z</time></trkpt><trkpt lat="42.8086941" lon="11.2469482"><ele>27.0</ele><time>2026-04-12T07:13:29.987Z</time></trkpt><trkpt lat="42.8086094" lon="11.2469134"><ele>27.0</ele><time>2026-04-12T07:13:32.986Z</time></trkpt><trkpt lat="42.8085253" lon="11.2468883"><ele>27.0</ele><time>2026-04-12T07:13:35.987Z</time></trkpt><trkpt lat="42.8084483" lon="11.2468717"><ele>27.333333333333332</ele><time>2026-04-12T07:13:38.987Z</time></trkpt><trkpt lat="42.8083833" lon="11.2468683"><ele>27.666666666666664</ele><time>2026-04-12T07:13:41.987Z</time></trkpt><trkpt lat="42.8083067" lon="11.2468467"><ele>28.0</ele><time>2026-04-12T07:13:44.987Z</time></trkpt><trkpt lat="42.8082267" lon="11.246815"><ele>28.333333333333332</ele><time>2026-04-12T07:13:47.987Z</time></trkpt><trkpt lat="42.80814" lon="11.2468033"><ele>28.666666666666664</ele><time>2026-04-12T07:13:50.988Z</time></trkpt><trkpt lat="42.808055" lon="11.246785"><ele>29.0</ele><time>2026-04-12T07:13:53.987Z</time></trkpt><trkpt lat="42.80797" lon="11.2467667"><ele>29.000000000000004</ele><time>2026-04-12T07:13:56.987Z</time></trkpt><trkpt lat="42.8078833" lon="11.2467467"><ele>29.0</ele><time>2026-04-12T07:13:59.987Z</time></trkpt><trkpt lat="42.80779" lon="11.2467217"><ele>29.000000000000004</ele><time>2026-04-12T07:14:02.988Z</time></trkpt><trkpt lat="42.8077233" lon="11.24671"><ele>29.000000000000004</ele><time>2026-04-12T07:14:04.988Z</time></trkpt><trkpt lat="42.80766" lon="11.2467"><ele>29.0</ele><time>2026-04-12T07:14:06.988Z</time></trkpt><trkpt lat="42.807595" lon="11.2466817"><ele>29.000000000000004</ele><time>2026-04-12T07:14:08.987Z</time></trkpt><trkpt lat="42.80753" lon="11.2466717"><ele>29.000000000000004</ele><time>2026-04-12T07:14:10.987Z</time></trkpt><trkpt lat="42.8074533" lon="11.2467083"><ele>29.142857142857146</ele><time>2026-04-12T07:14:13.987Z</time></trkpt><trkpt lat="42.8074167" lon="11.2467883"><ele>29.285714285714285</ele><time>2026-04-12T07:14:15.987Z</time></trkpt><trkpt lat="42.8073833" lon="11.24687"><ele>29.42857142857143</ele><time>2026-04-12T07:14:17.987Z</time></trkpt><trkpt lat="42.8073567" lon="11.2469533"><ele>29.571428571428573</ele><time>2026-04-12T07:14:19.988Z</time></trkpt><trkpt lat="42.8073317" lon="11.2470433"><ele>29.714285714285715</ele><time>2026-04-12T07:14:21.987Z</time></trkpt><trkpt lat="42.8073033" lon="11.24712"><ele>29.857142857142858</ele><time>2026-04-12T07:14:23.987Z</time></trkpt><trkpt lat="42.8072783" lon="11.2472033"><ele>30.0</ele><time>2026-04-12T07:14:25.987Z</time></trkpt><trkpt lat="42.80725" lon="11.247285"><ele>29.833333333333332</ele><time>2026-04-12T07:14:27.988Z</time></trkpt><trkpt lat="42.8072083" lon="11.2473633"><ele>29.666666666666664</ele><time>2026-04-12T07:14:29.987Z</time></trkpt><trkpt lat="42.80714" lon="11.247415"><ele>29.5</ele><time>2026-04-12T07:14:31.987Z</time></trkpt><trkpt lat="42.8070733" lon="11.2474383"><ele>29.333333333333332</ele><time>2026-04-12T07:14:33.987Z</time></trkpt><trkpt lat="42.806995" lon="11.2474467"><ele>29.166666666666664</ele><time>2026-04-12T07:14:35.987Z</time></trkpt><trkpt lat="42.8069133" lon="11.247435"><ele>29.0</ele><time>2026-04-12T07:14:37.987Z</time></trkpt><trkpt lat="42.80684" lon="11.247405"><ele>29.000000000000004</ele><time>2026-04-12T07:14:39.988Z</time></trkpt><trkpt lat="42.806775" lon="11.247365"><ele>29.0</ele><time>2026-04-12T07:14:41.988Z</time></trkpt><trkpt lat="42.80671" lon="11.2473217"><ele>29.000000000000004</ele><time>2026-04-12T07:14:43.987Z</time></trkpt><trkpt lat="42.8066467" lon="11.2472783"><ele>29.000000000000004</ele><time>2026-04-12T07:14:45.987Z</time></trkpt><trkpt lat="42.80658" lon="11.247235"><ele>29.0</ele><time>2026-04-12T07:14:47.987Z</time></trkpt><trkpt lat="42.80651" lon="11.2471883"><ele>29.000000000000004</ele><time>2026-04-12T07:14:49.987Z</time></trkpt><trkpt lat="42.80644" lon="11.247145"><ele>29.000000000000004</ele><time>2026-04-12T07:14:51.988Z</time></trkpt><trkpt lat="42.8063683" lon="11.2470983"><ele>28.999999999999996</ele><time>2026-04-12T07:14:53.987Z</time></trkpt><trkpt lat="42.8063" lon="11.2470583"><ele>29.0</ele><time>2026-04-12T07:14:55.987Z</time></trkpt><trkpt lat="42.806235" lon="11.2470167"><ele>29.0</ele><time>2026-04-12T07:14:57.988Z</time></trkpt><trkpt lat="42.8061683" lon="11.246975"><ele>29.0</ele><time>2026-04-12T07:14:59.987Z</time></trkpt><trkpt lat="42.8061033" lon="11.246925"><ele>28.999999999999996</ele><time>2026-04-12T07:15:01.988Z</time></trkpt><trkpt lat="42.8060333" lon="11.246875"><ele>29.0</ele><time>2026-04-12T07:15:03.987Z</time></trkpt><trkpt lat="42.80596" lon="11.2468283"><ele>29.166666666666664</ele><time>2026-04-12T07:15:05.987Z</time></trkpt><trkpt lat="42.8058867" lon="11.24678"><ele>29.333333333333332</ele><time>2026-04-12T07:15:07.987Z</time></trkpt><trkpt lat="42.8058083" lon="11.2467317"><ele>29.5</ele><time>2026-04-12T07:15:09.987Z</time></trkpt><trkpt lat="42.80574" lon="11.24668"><ele>29.666666666666664</ele><time>2026-04-12T07:15:11.987Z</time></trkpt><trkpt lat="42.8056733" lon="11.246635"><ele>29.833333333333332</ele><time>2026-04-12T07:15:13.987Z</time></trkpt><trkpt lat="42.8056033" lon="11.2465917"><ele>30.0</ele><time>2026-04-12T07:15:15.987Z</time></trkpt><trkpt lat="42.80553" lon="11.2465383"><ele>30.0</ele><time>2026-04-12T07:15:17.987Z</time></trkpt><trkpt lat="42.8054583" lon="11.2464967"><ele>30.0</ele><time>2026-04-12T07:15:19.988Z</time></trkpt><trkpt lat="42.80539" lon="11.2464467"><ele>30.0</ele><time>2026-04-12T07:15:21.987Z</time></trkpt><trkpt lat="42.8053217" lon="11.246405"><ele>30.0</ele><time>2026-04-12T07:15:23.988Z</time></trkpt><trkpt lat="42.805255" lon="11.2463633"><ele>30.0</ele><time>2026-04-12T07:15:25.987Z</time></trkpt><trkpt lat="42.8051833" lon="11.2463167"><ele>30.0</ele><time>2026-04-12T07:15:27.987Z</time></trkpt><trkpt lat="42.8051117" lon="11.2462683"><ele>29.5</ele><time>2026-04-12T07:15:29.988Z</time></trkpt><trkpt lat="42.80504" lon="11.2462183"><ele>29.0</ele><time>2026-04-12T07:15:31.987Z</time></trkpt><trkpt lat="42.8049683" lon="11.246175"><ele>28.5</ele><time>2026-04-12T07:15:33.987Z</time></trkpt><trkpt lat="42.804895" lon="11.2461283"><ele>28.0</ele><time>2026-04-12T07:15:35.987Z</time></trkpt><trkpt lat="42.8048233" lon="11.2460817"><ele>27.5</ele><time>2026-04-12T07:15:37.988Z</time></trkpt><trkpt lat="42.8047567" lon="11.2460417"><ele>27.0</ele><time>2026-04-12T07:15:39.987Z</time></trkpt><trkpt lat="42.8046933" lon="11.245995"><ele>27.0</ele><time>2026-04-12T07:15:41.988Z</time></trkpt><trkpt lat="42.80463" lon="11.2459567"><ele>27.0</ele><time>2026-04-12T07:15:43.988Z</time></trkpt><trkpt lat="42.8045567" lon="11.245915"><ele>27.0</ele><time>2026-04-12T07:15:45.988Z</time></trkpt><trkpt lat="42.804495" lon="11.2458717"><ele>27.0</ele><time>2026-04-12T07:15:47.987Z</time></trkpt><trkpt lat="42.8044333" lon="11.2458367"><ele>27.0</ele><time>2026-04-12T07:15:49.988Z</time></trkpt><trkpt lat="42.8043683" lon="11.2458"><ele>27.0</ele><time>2026-04-12T07:15:51.987Z</time></trkpt><trkpt lat="42.8043083" lon="11.2457583"><ele>27.0</ele><time>2026-04-12T07:15:53.987Z</time></trkpt><trkpt lat="42.80425" lon="11.2457217"><ele>27.0</ele><time>2026-04-12T07:15:55.987Z</time></trkpt><trkpt lat="42.8041883" lon="11.2456833"><ele>27.0</ele><time>2026-04-12T07:15:57.988Z</time></trkpt><trkpt lat="42.8041183" lon="11.24566"><ele>27.0</ele><time>2026-04-12T07:15:59.987Z</time></trkpt><trkpt lat="42.8040533" lon="11.24565"><ele>27.0</ele><time>2026-04-12T07:16:01.987Z</time></trkpt><trkpt lat="42.8039667" lon="11.2456883"><ele>27.0</ele><time>2026-04-12T07:16:04.987Z</time></trkpt><trkpt lat="42.803915" lon="11.24574"><ele>27.0</ele><time>2026-04-12T07:16:06.987Z</time></trkpt><trkpt lat="42.80384" lon="11.24582"><ele>27.0</ele><time>2026-04-12T07:16:09.987Z</time></trkpt><trkpt lat="42.80377" lon="11.2458933"><ele>27.0</ele><time>2026-04-12T07:16:12.988Z</time></trkpt><trkpt lat="42.8037067" lon="11.2459633"><ele>27.0</ele><time>2026-04-12T07:16:15.987Z</time></trkpt><trkpt lat="42.803655" lon="11.2460217"><ele>27.0</ele><time>2026-04-12T07:16:18.988Z</time></trkpt><trkpt lat="42.8035883" lon="11.246085"><ele>27.0</ele><time>2026-04-12T07:16:21.988Z</time></trkpt><trkpt lat="42.8035283" lon="11.2461567"><ele>27.0</ele><time>2026-04-12T07:16:24.987Z</time></trkpt><trkpt lat="42.8034667" lon="11.2462233"><ele>27.0</ele><time>2026-04-12T07:16:27.987Z</time></trkpt><trkpt lat="42.8034" lon="11.24631"><ele>27.0</ele><time>2026-04-12T07:16:30.987Z</time></trkpt><trkpt lat="42.8033383" lon="11.2463783"><ele>27.0</ele><time>2026-04-12T07:16:33.987Z</time></trkpt><trkpt lat="42.8032767" lon="11.2464367"><ele>27.0</ele><time>2026-04-12T07:16:36.987Z</time></trkpt><trkpt lat="42.8032183" lon="11.2465033"><ele>27.0</ele><time>2026-04-12T07:16:39.987Z</time></trkpt><trkpt lat="42.8031567" lon="11.2465717"><ele>27.0</ele><time>2026-04-12T07:16:42.987Z</time></trkpt><trkpt lat="42.8030933" lon="11.24664"><ele>27.5</ele><time>2026-04-12T07:16:45.988Z</time></trkpt><trkpt lat="42.8030283" lon="11.2467167"><ele>28.0</ele><time>2026-04-12T07:16:48.987Z</time></trkpt><trkpt lat="42.80296" lon="11.2467883"><ele>28.5</ele><time>2026-04-12T07:16:51.987Z</time></trkpt><trkpt lat="42.8028983" lon="11.2468667"><ele>29.0</ele><time>2026-04-12T07:16:54.987Z</time></trkpt><trkpt lat="42.802825" lon="11.2469467"><ele>29.5</ele><time>2026-04-12T07:16:57.988Z</time></trkpt><trkpt lat="42.80275" lon="11.24703"><ele>30.0</ele><time>2026-04-12T07:17:00.987Z</time></trkpt><trkpt lat="42.8026933" lon="11.2470733"><ele>30.833333333333332</ele><time>2026-04-12T07:17:02.987Z</time></trkpt><trkpt lat="42.8026317" lon="11.24716"><ele>31.666666666666664</ele><time>2026-04-12T07:17:05.987Z</time></trkpt><trkpt lat="42.802585" lon="11.2472183"><ele>32.5</ele><time>2026-04-12T07:17:07.987Z</time></trkpt><trkpt lat="42.802535" lon="11.24728"><ele>33.33333333333333</ele><time>2026-04-12T07:17:09.987Z</time></trkpt><trkpt lat="42.8024617" lon="11.2473567"><ele>34.166666666666664</ele><time>2026-04-12T07:17:12.987Z</time></trkpt><trkpt lat="42.8023867" lon="11.2474333"><ele>35.0</ele><time>2026-04-12T07:17:15.987Z</time></trkpt><trkpt lat="42.8023317" lon="11.2474867"><ele>35.42857142857143</ele><time>2026-04-12T07:17:17.988Z</time></trkpt><trkpt lat="42.80228" lon="11.2475383"><ele>35.85714285714286</ele><time>2026-04-12T07:17:19.987Z</time></trkpt><trkpt lat="42.8022283" lon="11.2475983"><ele>36.285714285714285</ele><time>2026-04-12T07:17:21.987Z</time></trkpt><trkpt lat="42.8021767" lon="11.24766"><ele>36.714285714285715</ele><time>2026-04-12T07:17:23.987Z</time></trkpt><trkpt lat="42.802125" lon="11.2477267"><ele>37.142857142857146</ele><time>2026-04-12T07:17:25.987Z</time></trkpt><trkpt lat="42.8020683" lon="11.2477783"><ele>37.57142857142857</ele><time>2026-04-12T07:17:27.987Z</time></trkpt><trkpt lat="42.8020083" lon="11.2478317"><ele>38.0</ele><time>2026-04-12T07:17:29.988Z</time></trkpt><trkpt lat="42.8019517" lon="11.2478917"><ele>38.0</ele><time>2026-04-12T07:17:31.988Z</time></trkpt><trkpt lat="42.8018933" lon="11.2479533"><ele>38.0</ele><time>2026-04-12T07:17:33.987Z</time></trkpt><trkpt lat="42.8018333" lon="11.2480067"><ele>38.0</ele><time>2026-04-12T07:17:35.987Z</time></trkpt><trkpt lat="42.8017783" lon="11.248065"><ele>38.0</ele><time>2026-04-12T07:17:37.987Z</time></trkpt><trkpt lat="42.8017267" lon="11.2481267"><ele>38.0</ele><time>2026-04-12T07:17:39.988Z</time></trkpt><trkpt lat="42.8016783" lon="11.24819"><ele>38.0</ele><time>2026-04-12T07:17:41.987Z</time></trkpt><trkpt lat="42.8016317" lon="11.2482483"><ele>38.0</ele><time>2026-04-12T07:17:43.988Z</time></trkpt><trkpt lat="42.801585" lon="11.2483067"><ele>38.14285714285714</ele><time>2026-04-12T07:17:45.987Z</time></trkpt><trkpt lat="42.8015333" lon="11.2483667"><ele>38.28571428571429</ele><time>2026-04-12T07:17:47.987Z</time></trkpt><trkpt lat="42.8014817" lon="11.2484283"><ele>38.42857142857143</ele><time>2026-04-12T07:17:49.988Z</time></trkpt><trkpt lat="42.8014283" lon="11.2484867"><ele>38.57142857142857</ele><time>2026-04-12T07:17:51.987Z</time></trkpt><trkpt lat="42.80137" lon="11.2485467"><ele>38.71428571428571</ele><time>2026-04-12T07:17:53.988Z</time></trkpt><trkpt lat="42.8013183" lon="11.24861"><ele>38.85714285714286</ele><time>2026-04-12T07:17:55.987Z</time></trkpt><trkpt lat="42.8012583" lon="11.2486783"><ele>39.0</ele><time>2026-04-12T07:17:57.987Z</time></trkpt><trkpt lat="42.8012" lon="11.24874"><ele>39.0</ele><time>2026-04-12T07:17:59.987Z</time></trkpt><trkpt lat="42.8011383" lon="11.2488017"><ele>39.0</ele><time>2026-04-12T07:18:01.987Z</time></trkpt><trkpt lat="42.8010833" lon="11.248855"><ele>39.0</ele><time>2026-04-12T07:18:03.987Z</time></trkpt><trkpt lat="42.801035" lon="11.2489117"><ele>39.0</ele><time>2026-04-12T07:18:05.987Z</time></trkpt><trkpt lat="42.8009867" lon="11.2489717"><ele>39.0</ele><time>2026-04-12T07:18:07.987Z</time></trkpt><trkpt lat="42.8009317" lon="11.249035"><ele>39.0</ele><time>2026-04-12T07:18:09.987Z</time></trkpt><trkpt lat="42.8008733" lon="11.2490967"><ele>39.0</ele><time>2026-04-12T07:18:11.987Z</time></trkpt><trkpt lat="42.8008133" lon="11.2491583"><ele>38.85714285714286</ele><time>2026-04-12T07:18:13.987Z</time></trkpt><trkpt lat="42.8007583" lon="11.24922"><ele>38.71428571428571</ele><time>2026-04-12T07:18:15.987Z</time></trkpt><trkpt lat="42.800705" lon="11.2492767"><ele>38.57142857142857</ele><time>2026-04-12T07:18:17.987Z</time></trkpt><trkpt lat="42.800645" lon="11.2493333"><ele>38.42857142857143</ele><time>2026-04-12T07:18:19.987Z</time></trkpt><trkpt lat="42.8005883" lon="11.249395"><ele>38.28571428571429</ele><time>2026-04-12T07:18:21.987Z</time></trkpt><trkpt lat="42.8005317" lon="11.249455"><ele>38.14285714285714</ele><time>2026-04-12T07:18:23.988Z</time></trkpt><trkpt lat="42.8004733" lon="11.24952"><ele>38.0</ele><time>2026-04-12T07:18:25.987Z</time></trkpt><trkpt lat="42.8004167" lon="11.2495867"><ele>38.0</ele><time>2026-04-12T07:18:27.987Z</time></trkpt><trkpt lat="42.80036" lon="11.2496483"><ele>38.0</ele><time>2026-04-12T07:18:29.987Z</time></trkpt><trkpt lat="42.8003033" lon="11.24971"><ele>38.0</ele><time>2026-04-12T07:18:31.988Z</time></trkpt><trkpt lat="42.8002433" lon="11.249775"><ele>38.0</ele><time>2026-04-12T07:18:33.987Z</time></trkpt><trkpt lat="42.8001833" lon="11.2498417"><ele>38.0</ele><time>2026-04-12T07:18:35.987Z</time></trkpt><trkpt lat="42.800125" lon="11.2499033"><ele>38.0</ele><time>2026-04-12T07:18:37.987Z</time></trkpt><trkpt lat="42.800065" lon="11.2499617"><ele>38.0</ele><time>2026-04-12T07:18:39.987Z</time></trkpt><trkpt lat="42.8000067" lon="11.2500233"><ele>38.42857142857142</ele><time>2026-04-12T07:18:41.988Z</time></trkpt><trkpt lat="42.7999533" lon="11.2500867"><ele>38.85714285714286</ele><time>2026-04-12T07:18:43.988Z</time></trkpt><trkpt lat="42.7999017" lon="11.2501483"><ele>39.285714285714285</ele><time>2026-04-12T07:18:45.988Z</time></trkpt><trkpt lat="42.7998433" lon="11.250205"><ele>39.71428571428571</ele><time>2026-04-12T07:18:47.987Z</time></trkpt><trkpt lat="42.7997883" lon="11.2502633"><ele>40.14285714285714</ele><time>2026-04-12T07:18:49.987Z</time></trkpt><trkpt lat="42.7997383" lon="11.25032"><ele>40.57142857142857</ele><time>2026-04-12T07:18:51.988Z</time></trkpt><trkpt lat="42.7996867" lon="11.2503783"><ele>41.0</ele><time>2026-04-12T07:18:53.987Z</time></trkpt><trkpt lat="42.7996317" lon="11.2504383"><ele>40.99999999999999</ele><time>2026-04-12T07:18:55.987Z</time></trkpt><trkpt lat="42.7995817" lon="11.2505"><ele>41.0</ele><time>2026-04-12T07:18:57.987Z</time></trkpt><trkpt lat="42.7995283" lon="11.2505583"><ele>41.0</ele><time>2026-04-12T07:18:59.988Z</time></trkpt><trkpt lat="42.7994767" lon="11.2506183"><ele>41.0</ele><time>2026-04-12T07:19:01.987Z</time></trkpt><trkpt lat="42.7994233" lon="11.2506783"><ele>41.0</ele><time>2026-04-12T07:19:03.987Z</time></trkpt><trkpt lat="42.79937" lon="11.2507367"><ele>40.99999999999999</ele><time>2026-04-12T07:19:05.987Z</time></trkpt><trkpt lat="42.7993183" lon="11.2507933"><ele>41.0</ele><time>2026-04-12T07:19:07.987Z</time></trkpt><trkpt lat="42.79927" lon="11.2508517"><ele>41.285714285714285</ele><time>2026-04-12T07:19:09.987Z</time></trkpt><trkpt lat="42.7992167" lon="11.2509067"><ele>41.57142857142857</ele><time>2026-04-12T07:19:11.987Z</time></trkpt><trkpt lat="42.79916" lon="11.2509617"><ele>41.85714285714286</ele><time>2026-04-12T07:19:13.987Z</time></trkpt><trkpt lat="42.7991" lon="11.2510167"><ele>42.14285714285714</ele><time>2026-04-12T07:19:15.987Z</time></trkpt><trkpt lat="42.7990467" lon="11.25108"><ele>42.42857142857143</ele><time>2026-04-12T07:19:17.988Z</time></trkpt><trkpt lat="42.7989917" lon="11.2511467"><ele>42.714285714285715</ele><time>2026-04-12T07:19:19.987Z</time></trkpt><trkpt lat="42.7989367" lon="11.2512067"><ele>43.0</ele><time>2026-04-12T07:19:21.987Z</time></trkpt><trkpt lat="42.7988767" lon="11.25127"><ele>43.0</ele><time>2026-04-12T07:19:23.987Z</time></trkpt><trkpt lat="42.79882" lon="11.25134"><ele>43.0</ele><time>2026-04-12T07:19:25.987Z</time></trkpt><trkpt lat="42.7987533" lon="11.251405"><ele>43.0</ele><time>2026-04-12T07:19:27.987Z</time></trkpt><trkpt lat="42.798685" lon="11.2514717"><ele>43.0</ele><time>2026-04-12T07:19:29.987Z</time></trkpt><trkpt lat="42.7986117" lon="11.2515483"><ele>43.0</ele><time>2026-04-12T07:19:31.987Z</time></trkpt><trkpt lat="42.7985367" lon="11.251635"><ele>43.0</ele><time>2026-04-12T07:19:33.987Z</time></trkpt><trkpt lat="42.798465" lon="11.2517283"><ele>43.599999999999994</ele><time>2026-04-12T07:19:35.987Z</time></trkpt><trkpt lat="42.798385" lon="11.25182"><ele>44.199999999999996</ele><time>2026-04-12T07:19:37.987Z</time></trkpt><trkpt lat="42.7982967" lon="11.2519083"><ele>44.8</ele><time>2026-04-12T07:19:39.987Z</time></trkpt><trkpt lat="42.7982167" lon="11.2520017"><ele>45.4</ele><time>2026-04-12T07:19:41.987Z</time></trkpt><trkpt lat="42.798135" lon="11.2520867"><ele>46.0</ele><time>2026-04-12T07:19:43.987Z</time></trkpt><trkpt lat="42.7980567" lon="11.2521567"><ele>46.0</ele><time>2026-04-12T07:19:45.987Z</time></trkpt><trkpt lat="42.7979683" lon="11.2521917"><ele>46.0</ele><time>2026-04-12T07:19:47.987Z</time></trkpt><trkpt lat="42.79786" lon="11.2521767"><ele>46.0</ele><time>2026-04-12T07:19:49.988Z</time></trkpt><trkpt lat="42.7977517" lon="11.2521217"><ele>46.0</ele><time>2026-04-12T07:19:51.987Z</time></trkpt><trkpt lat="42.7976467" lon="11.2520517"><ele>46.0</ele><time>2026-04-12T07:19:53.987Z</time></trkpt><trkpt lat="42.79759" lon="11.2520117"><ele>45.16666666666667</ele><time>2026-04-12T07:19:54.988Z</time></trkpt><trkpt lat="42.797485" lon="11.25193"><ele>44.333333333333336</ele><time>2026-04-12T07:19:56.987Z</time></trkpt><trkpt lat="42.797425" lon="11.2518867"><ele>43.5</ele><time>2026-04-12T07:19:57.987Z</time></trkpt><trkpt lat="42.79736" lon="11.2518433"><ele>42.666666666666664</ele><time>2026-04-12T07:19:58.988Z</time></trkpt><trkpt lat="42.7972917" lon="11.2517933"><ele>41.83333333333333</ele><time>2026-04-12T07:19:59.988Z</time></trkpt><trkpt lat="42.797225" lon="11.2517433"><ele>41.0</ele><time>2026-04-12T07:20:00.987Z</time></trkpt><trkpt lat="42.7971567" lon="11.2517"><ele>40.99999999999999</ele><time>2026-04-12T07:20:01.988Z</time></trkpt><trkpt lat="42.7970983" lon="11.251655"><ele>41.0</ele><time>2026-04-12T07:20:02.987Z</time></trkpt><trkpt lat="42.7970367" lon="11.25161"><ele>41.0</ele><time>2026-04-12T07:20:03.987Z</time></trkpt><trkpt lat="42.796975" lon="11.2515667"><ele>41.0</ele><time>2026-04-12T07:20:04.987Z</time></trkpt><trkpt lat="42.796915" lon="11.251525"><ele>41.0</ele><time>2026-04-12T07:20:05.987Z</time></trkpt><trkpt lat="42.7968567" lon="11.2514817"><ele>40.99999999999999</ele><time>2026-04-12T07:20:06.987Z</time></trkpt><trkpt lat="42.796795" lon="11.25144"><ele>41.0</ele><time>2026-04-12T07:20:07.987Z</time></trkpt><trkpt lat="42.796735" lon="11.2513917"><ele>40.285714285714285</ele><time>2026-04-12T07:20:08.987Z</time></trkpt><trkpt lat="42.7966717" lon="11.2513433"><ele>39.57142857142857</ele><time>2026-04-12T07:20:09.987Z</time></trkpt><trkpt lat="42.7966067" lon="11.2513"><ele>38.85714285714286</ele><time>2026-04-12T07:20:10.987Z</time></trkpt><trkpt lat="42.796545" lon="11.2512583"><ele>38.14285714285714</ele><time>2026-04-12T07:20:11.987Z</time></trkpt><trkpt lat="42.79648" lon="11.2512183"><ele>37.42857142857143</ele><time>2026-04-12T07:20:12.987Z</time></trkpt><trkpt lat="42.7964217" lon="11.251175"><ele>36.714285714285715</ele><time>2026-04-12T07:20:13.988Z</time></trkpt><trkpt lat="42.7963567" lon="11.25113"><ele>36.0</ele><time>2026-04-12T07:20:14.987Z</time></trkpt><trkpt lat="42.7962933" lon="11.2510733"><ele>36.00000000000001</ele><time>2026-04-12T07:20:15.987Z</time></trkpt><trkpt lat="42.7962383" lon="11.2510167"><ele>36.0</ele><time>2026-04-12T07:20:16.988Z</time></trkpt><trkpt lat="42.796185" lon="11.2509583"><ele>36.0</ele><time>2026-04-12T07:20:17.988Z</time></trkpt><trkpt lat="42.796135" lon="11.2508883"><ele>36.0</ele><time>2026-04-12T07:20:18.988Z</time></trkpt><trkpt lat="42.7960883" lon="11.25082"><ele>36.0</ele><time>2026-04-12T07:20:19.987Z</time></trkpt><trkpt lat="42.7960467" lon="11.2507433"><ele>36.00000000000001</ele><time>2026-04-12T07:20:20.987Z</time></trkpt><trkpt lat="42.7960133" lon="11.250665"><ele>36.0</ele><time>2026-04-12T07:20:21.987Z</time></trkpt><trkpt lat="42.795955" lon="11.2505217"><ele>34.5</ele><time>2026-04-12T07:20:23.987Z</time></trkpt><trkpt lat="42.7959083" lon="11.25038"><ele>33.0</ele><time>2026-04-12T07:20:25.987Z</time></trkpt><trkpt lat="42.7958683" lon="11.250235"><ele>31.5</ele><time>2026-04-12T07:20:27.987Z</time></trkpt><trkpt lat="42.7958333" lon="11.250095"><ele>30.0</ele><time>2026-04-12T07:20:29.988Z</time></trkpt><trkpt lat="42.7957933" lon="11.2499467"><ele>30.0</ele><time>2026-04-12T07:20:31.987Z</time></trkpt><trkpt lat="42.795755" lon="11.2498067"><ele>30.0</ele><time>2026-04-12T07:20:33.987Z</time></trkpt><trkpt lat="42.7957217" lon="11.2496533"><ele>30.0</ele><time>2026-04-12T07:20:35.987Z</time></trkpt><trkpt lat="42.795675" lon="11.2495117"><ele>30.0</ele><time>2026-04-12T07:20:37.987Z</time></trkpt><trkpt lat="42.7956333" lon="11.24938"><ele>30.0</ele><time>2026-04-12T07:20:39.987Z</time></trkpt><trkpt lat="42.7955917" lon="11.24923"><ele>29.8</ele><time>2026-04-12T07:20:41.987Z</time></trkpt><trkpt lat="42.79555" lon="11.24909"><ele>29.6</ele><time>2026-04-12T07:20:43.987Z</time></trkpt><trkpt lat="42.7955067" lon="11.2489467"><ele>29.4</ele><time>2026-04-12T07:20:45.987Z</time></trkpt><trkpt lat="42.79546" lon="11.2488083"><ele>29.2</ele><time>2026-04-12T07:20:47.987Z</time></trkpt><trkpt lat="42.7954233" lon="11.2486733"><ele>29.0</ele><time>2026-04-12T07:20:49.987Z</time></trkpt><trkpt lat="42.79538" lon="11.2485317"><ele>28.799999999999997</ele><time>2026-04-12T07:20:51.987Z</time></trkpt><trkpt lat="42.7953483" lon="11.2483883"><ele>28.599999999999998</ele><time>2026-04-12T07:20:53.987Z</time></trkpt><trkpt lat="42.7953083" lon="11.2482483"><ele>28.4</ele><time>2026-04-12T07:20:55.987Z</time></trkpt><trkpt lat="42.795265" lon="11.2481117"><ele>28.2</ele><time>2026-04-12T07:20:57.987Z</time></trkpt><trkpt lat="42.7952267" lon="11.247975"><ele>28.0</ele><time>2026-04-12T07:20:59.988Z</time></trkpt><trkpt lat="42.7951917" lon="11.2478333"><ele>28.0</ele><time>2026-04-12T07:21:01.987Z</time></trkpt><trkpt lat="42.7951533" lon="11.2476917"><ele>27.999999999999996</ele><time>2026-04-12T07:21:03.987Z</time></trkpt><trkpt lat="42.7951183" lon="11.2475617"><ele>27.999999999999996</ele><time>2026-04-12T07:21:05.987Z</time></trkpt><trkpt lat="42.79508" lon="11.2474233"><ele>28.0</ele><time>2026-04-12T07:21:07.987Z</time></trkpt><trkpt lat="42.7950367" lon="11.2472967"><ele>28.0</ele><time>2026-04-12T07:21:09.988Z</time></trkpt><trkpt lat="42.7949967" lon="11.24717"><ele>27.799999999999997</ele><time>2026-04-12T07:21:11.987Z</time></trkpt><trkpt lat="42.7949567" lon="11.2470433"><ele>27.599999999999998</ele><time>2026-04-12T07:21:13.987Z</time></trkpt><trkpt lat="42.7949233" lon="11.2469117"><ele>27.400000000000002</ele><time>2026-04-12T07:21:15.987Z</time></trkpt><trkpt lat="42.7948833" lon="11.2467783"><ele>27.200000000000003</ele><time>2026-04-12T07:21:17.987Z</time></trkpt><trkpt lat="42.7948417" lon="11.2466483"><ele>27.0</ele><time>2026-04-12T07:21:19.987Z</time></trkpt><trkpt lat="42.7948117" lon="11.246515"><ele>26.6</ele><time>2026-04-12T07:21:21.987Z</time></trkpt><trkpt lat="42.7947717" lon="11.246385"><ele>26.200000000000003</ele><time>2026-04-12T07:21:23.988Z</time></trkpt><trkpt lat="42.7947333" lon="11.246245"><ele>25.8</ele><time>2026-04-12T07:21:25.987Z</time></trkpt><trkpt lat="42.794695" lon="11.2461117"><ele>25.4</ele><time>2026-04-12T07:21:27.987Z</time></trkpt><trkpt lat="42.7946583" lon="11.2459767"><ele>25.0</ele><time>2026-04-12T07:21:29.988Z</time></trkpt><trkpt lat="42.7946233" lon="11.2458417"><ele>25.0</ele><time>2026-04-12T07:21:31.987Z</time></trkpt><trkpt lat="42.79459" lon="11.2457217"><ele>25.0</ele><time>2026-04-12T07:21:33.987Z</time></trkpt><trkpt lat="42.79455" lon="11.2455967"><ele>25.0</ele><time>2026-04-12T07:21:35.988Z</time></trkpt><trkpt lat="42.7945183" lon="11.2454583"><ele>25.0</ele><time>2026-04-12T07:21:37.987Z</time></trkpt><trkpt lat="42.7944767" lon="11.2453267"><ele>25.0</ele><time>2026-04-12T07:21:39.987Z</time></trkpt><trkpt lat="42.7944367" lon="11.2452"><ele>25.2</ele><time>2026-04-12T07:21:41.987Z</time></trkpt><trkpt lat="42.7943983" lon="11.2450667"><ele>25.4</ele><time>2026-04-12T07:21:43.988Z</time></trkpt><trkpt lat="42.7943583" lon="11.244945"><ele>25.6</ele><time>2026-04-12T07:21:45.987Z</time></trkpt><trkpt lat="42.7943183" lon="11.2448183"><ele>25.8</ele><time>2026-04-12T07:21:47.988Z</time></trkpt><trkpt lat="42.7942817" lon="11.24468"><ele>26.0</ele><time>2026-04-12T07:21:49.987Z</time></trkpt><trkpt lat="42.794245" lon="11.24455"><ele>26.0</ele><time>2026-04-12T07:21:51.987Z</time></trkpt><trkpt lat="42.79421" lon="11.2444183"><ele>26.0</ele><time>2026-04-12T07:21:53.987Z</time></trkpt><trkpt lat="42.7941717" lon="11.24428"><ele>26.0</ele><time>2026-04-12T07:21:55.987Z</time></trkpt><trkpt lat="42.794135" lon="11.2441517"><ele>26.0</ele><time>2026-04-12T07:21:57.987Z</time></trkpt><trkpt lat="42.79409" lon="11.2440267"><ele>26.0</ele><time>2026-04-12T07:21:59.987Z</time></trkpt><trkpt lat="42.7940533" lon="11.2438933"><ele>26.0</ele><time>2026-04-12T07:22:01.987Z</time></trkpt><trkpt lat="42.7940133" lon="11.2437567"><ele>26.0</ele><time>2026-04-12T07:22:03.987Z</time></trkpt><trkpt lat="42.7939767" lon="11.2436167"><ele>26.0</ele><time>2026-04-12T07:22:05.988Z</time></trkpt><trkpt lat="42.7939383" lon="11.2434833"><ele>26.0</ele><time>2026-04-12T07:22:07.988Z</time></trkpt><trkpt lat="42.793905" lon="11.24335"><ele>26.0</ele><time>2026-04-12T07:22:09.988Z</time></trkpt><trkpt lat="42.793865" lon="11.2432167"><ele>25.8</ele><time>2026-04-12T07:22:11.987Z</time></trkpt><trkpt lat="42.7938267" lon="11.24308"><ele>25.6</ele><time>2026-04-12T07:22:13.987Z</time></trkpt><trkpt lat="42.793785" lon="11.2429567"><ele>25.4</ele><time>2026-04-12T07:22:15.987Z</time></trkpt><trkpt lat="42.7937517" lon="11.2428417"><ele>25.2</ele><time>2026-04-12T07:22:17.987Z</time></trkpt><trkpt lat="42.7937117" lon="11.2427167"><ele>25.0</ele><time>2026-04-12T07:22:19.987Z</time></trkpt><trkpt lat="42.7936767" lon="11.24259"><ele>25.0</ele><time>2026-04-12T07:22:21.987Z</time></trkpt><trkpt lat="42.7936433" lon="11.2424617"><ele>25.0</ele><time>2026-04-12T07:22:23.987Z</time></trkpt><trkpt lat="42.793615" lon="11.2423333"><ele>25.0</ele><time>2026-04-12T07:22:25.987Z</time></trkpt><trkpt lat="42.7935867" lon="11.2422067"><ele>25.0</ele><time>2026-04-12T07:22:27.987Z</time></trkpt><trkpt lat="42.7935683" lon="11.2420683"><ele>25.0</ele><time>2026-04-12T07:22:29.987Z</time></trkpt><trkpt lat="42.7935633" lon="11.24193"><ele>25.0</ele><time>2026-04-12T07:22:31.988Z</time></trkpt><trkpt lat="42.7935833" lon="11.2417933"><ele>25.0</ele><time>2026-04-12T07:22:33.987Z</time></trkpt><trkpt lat="42.7936233" lon="11.2416617"><ele>25.0</ele><time>2026-04-12T07:22:35.988Z</time></trkpt><trkpt lat="42.7936683" lon="11.24153"><ele>25.0</ele><time>2026-04-12T07:22:37.987Z</time></trkpt><trkpt lat="42.793715" lon="11.2414067"><ele>25.0</ele><time>2026-04-12T07:22:39.988Z</time></trkpt><trkpt lat="42.7937633" lon="11.2412917"><ele>25.0</ele><time>2026-04-12T07:22:41.987Z</time></trkpt><trkpt lat="42.7938133" lon="11.241175"><ele>25.0</ele><time>2026-04-12T07:22:43.987Z</time></trkpt><trkpt lat="42.7938667" lon="11.241055"><ele>25.0</ele><time>2026-04-12T07:22:45.987Z</time></trkpt><trkpt lat="42.7939167" lon="11.240925"><ele>25.0</ele><time>2026-04-12T07:22:47.987Z</time></trkpt><trkpt lat="42.7939683" lon="11.2407983"><ele>25.0</ele><time>2026-04-12T07:22:49.987Z</time></trkpt><trkpt lat="42.79402" lon="11.240675"><ele>25.4</ele><time>2026-04-12T07:22:51.987Z</time></trkpt><trkpt lat="42.79407" lon="11.2405483"><ele>25.8</ele><time>2026-04-12T07:22:53.987Z</time></trkpt><trkpt lat="42.7941117" lon="11.240425"><ele>26.200000000000003</ele><time>2026-04-12T07:22:55.987Z</time></trkpt><trkpt lat="42.794135" lon="11.24029"><ele>26.6</ele><time>2026-04-12T07:22:57.987Z</time></trkpt><trkpt lat="42.7941267" lon="11.24015"><ele>27.0</ele><time>2026-04-12T07:22:59.988Z</time></trkpt><trkpt lat="42.794105" lon="11.2400183"><ele>27.0</ele><time>2026-04-12T07:23:01.988Z</time></trkpt><trkpt lat="42.79406" lon="11.2399017"><ele>27.000000000000004</ele><time>2026-04-12T07:23:03.988Z</time></trkpt><trkpt lat="42.7939983" lon="11.2397983"><ele>27.000000000000004</ele><time>2026-04-12T07:23:05.987Z</time></trkpt><trkpt lat="42.79393" lon="11.2397133"><ele>27.0</ele><time>2026-04-12T07:23:07.987Z</time></trkpt><trkpt lat="42.793845" lon="11.2396433"><ele>27.0</ele><time>2026-04-12T07:23:09.987Z</time></trkpt><trkpt lat="42.7937383" lon="11.2395917"><ele>27.0</ele><time>2026-04-12T07:23:11.987Z</time></trkpt><trkpt lat="42.793635" lon="11.2395517"><ele>27.000000000000004</ele><time>2026-04-12T07:23:13.988Z</time></trkpt><trkpt lat="42.7935333" lon="11.2395117"><ele>27.000000000000004</ele><time>2026-04-12T07:23:15.987Z</time></trkpt><trkpt lat="42.79344" lon="11.2394667"><ele>27.0</ele><time>2026-04-12T07:23:17.987Z</time></trkpt><trkpt lat="42.793345" lon="11.2394217"><ele>27.0</ele><time>2026-04-12T07:23:19.988Z</time></trkpt><trkpt lat="42.7932567" lon="11.2393867"><ele>28.0</ele><time>2026-04-12T07:23:21.987Z</time></trkpt><trkpt lat="42.7931633" lon="11.23935"><ele>29.000000000000004</ele><time>2026-04-12T07:23:23.987Z</time></trkpt><trkpt lat="42.7930733" lon="11.2393233"><ele>30.000000000000004</ele><time>2026-04-12T07:23:25.988Z</time></trkpt><trkpt lat="42.7929833" lon="11.2392883"><ele>31.0</ele><time>2026-04-12T07:23:27.987Z</time></trkpt><trkpt lat="42.7928933" lon="11.239245"><ele>32.0</ele><time>2026-04-12T07:23:29.987Z</time></trkpt><trkpt lat="42.7928017" lon="11.239215"><ele>31.999999999999996</ele><time>2026-04-12T07:23:31.987Z</time></trkpt><trkpt lat="42.7927183" lon="11.23918"><ele>32.0</ele><time>2026-04-12T07:23:33.987Z</time></trkpt><trkpt lat="42.79264" lon="11.2391533"><ele>32.0</ele><time>2026-04-12T07:23:35.987Z</time></trkpt><trkpt lat="42.79256" lon="11.2391233"><ele>32.0</ele><time>2026-04-12T07:23:37.988Z</time></trkpt><trkpt lat="42.7924817" lon="11.239085"><ele>31.999999999999996</ele><time>2026-04-12T07:23:39.988Z</time></trkpt><trkpt lat="42.7924033" lon="11.239035"><ele>32.0</ele><time>2026-04-12T07:23:41.987Z</time></trkpt><trkpt lat="42.7923267" lon="11.2389733"><ele>32.5</ele><time>2026-04-12T07:23:43.987Z</time></trkpt><trkpt lat="42.7922617" lon="11.2389067"><ele>33.0</ele><time>2026-04-12T07:23:45.988Z</time></trkpt><trkpt lat="42.7921983" lon="11.2388433"><ele>33.5</ele><time>2026-04-12T07:23:47.988Z</time></trkpt><trkpt lat="42.7921317" lon="11.238775"><ele>34.0</ele><time>2026-04-12T07:23:49.987Z</time></trkpt><trkpt lat="42.79206" lon="11.238705"><ele>34.5</ele><time>2026-04-12T07:23:51.987Z</time></trkpt><trkpt lat="42.791995" lon="11.2386383"><ele>35.0</ele><time>2026-04-12T07:23:53.988Z</time></trkpt><trkpt lat="42.79193" lon="11.2385817"><ele>35.0</ele><time>2026-04-12T07:23:55.988Z</time></trkpt><trkpt lat="42.791865" lon="11.2385167"><ele>35.0</ele><time>2026-04-12T07:23:57.987Z</time></trkpt><trkpt lat="42.7917983" lon="11.2384533"><ele>35.0</ele><time>2026-04-12T07:23:59.987Z</time></trkpt><trkpt lat="42.7917417" lon="11.23839"><ele>35.0</ele><time>2026-04-12T07:24:01.988Z</time></trkpt><trkpt lat="42.7916817" lon="11.2383167"><ele>35.0</ele><time>2026-04-12T07:24:03.987Z</time></trkpt><trkpt lat="42.79161" lon="11.2382583"><ele>35.0</ele><time>2026-04-12T07:24:05.987Z</time></trkpt><trkpt lat="42.7915433" lon="11.2381817"><ele>36.2</ele><time>2026-04-12T07:24:07.987Z</time></trkpt><trkpt lat="42.7914733" lon="11.2381067"><ele>37.4</ele><time>2026-04-12T07:24:09.987Z</time></trkpt><trkpt lat="42.7914" lon="11.2380383"><ele>38.599999999999994</ele><time>2026-04-12T07:24:11.987Z</time></trkpt><trkpt lat="42.791335" lon="11.237965"><ele>39.8</ele><time>2026-04-12T07:24:13.987Z</time></trkpt><trkpt lat="42.7912633" lon="11.2378917"><ele>41.0</ele><time>2026-04-12T07:24:15.988Z</time></trkpt><trkpt lat="42.7911883" lon="11.2378"><ele>41.0</ele><time>2026-04-12T07:24:17.987Z</time></trkpt><trkpt lat="42.7911167" lon="11.2377167"><ele>41.0</ele><time>2026-04-12T07:24:19.988Z</time></trkpt><trkpt lat="42.7910433" lon="11.2376533"><ele>41.0</ele><time>2026-04-12T07:24:21.987Z</time></trkpt><trkpt lat="42.79097" lon="11.2375833"><ele>41.0</ele><time>2026-04-12T07:24:23.988Z</time></trkpt><trkpt lat="42.790895" lon="11.2375167"><ele>41.0</ele><time>2026-04-12T07:24:25.987Z</time></trkpt><trkpt lat="42.7908183" lon="11.237455"><ele>41.0</ele><time>2026-04-12T07:24:27.987Z</time></trkpt><trkpt lat="42.79074" lon="11.2374617"><ele>41.33333333333333</ele><time>2026-04-12T07:24:29.988Z</time></trkpt><trkpt lat="42.79067" lon="11.23751"><ele>41.666666666666664</ele><time>2026-04-12T07:24:31.987Z</time></trkpt><trkpt lat="42.7906017" lon="11.237575"><ele>42.0</ele><time>2026-04-12T07:24:33.987Z</time></trkpt><trkpt lat="42.7905383" lon="11.2376417"><ele>42.333333333333336</ele><time>2026-04-12T07:24:35.987Z</time></trkpt><trkpt lat="42.7904667" lon="11.2376983"><ele>42.66666666666667</ele><time>2026-04-12T07:24:37.987Z</time></trkpt><trkpt lat="42.7903983" lon="11.237765"><ele>43.0</ele><time>2026-04-12T07:24:39.987Z</time></trkpt><trkpt lat="42.7903417" lon="11.23783"><ele>43.0</ele><time>2026-04-12T07:24:41.987Z</time></trkpt><trkpt lat="42.79028" lon="11.237885"><ele>43.0</ele><time>2026-04-12T07:24:43.987Z</time></trkpt><trkpt lat="42.7902183" lon="11.2379483"><ele>43.0</ele><time>2026-04-12T07:24:45.987Z</time></trkpt><trkpt lat="42.7901567" lon="11.2380067"><ele>43.0</ele><time>2026-04-12T07:24:47.987Z</time></trkpt><trkpt lat="42.7901067" lon="11.2380717"><ele>43.0</ele><time>2026-04-12T07:24:49.987Z</time></trkpt><trkpt lat="42.79004" lon="11.2381333"><ele>43.0</ele><time>2026-04-12T07:24:51.987Z</time></trkpt><trkpt lat="42.7899683" lon="11.2381933"><ele>43.333333333333336</ele><time>2026-04-12T07:24:53.988Z</time></trkpt><trkpt lat="42.7899033" lon="11.23826"><ele>43.66666666666667</ele><time>2026-04-12T07:24:55.988Z</time></trkpt><trkpt lat="42.7898317" lon="11.2383233"><ele>44.0</ele><time>2026-04-12T07:24:57.987Z</time></trkpt><trkpt lat="42.78976" lon="11.23839"><ele>44.333333333333336</ele><time>2026-04-12T07:24:59.987Z</time></trkpt><trkpt lat="42.7896817" lon="11.2384667"><ele>44.666666666666664</ele><time>2026-04-12T07:25:01.987Z</time></trkpt><trkpt lat="42.7896083" lon="11.238535"><ele>45.0</ele><time>2026-04-12T07:25:03.987Z</time></trkpt><trkpt lat="42.7895317" lon="11.2386167"><ele>45.0</ele><time>2026-04-12T07:25:05.987Z</time></trkpt><trkpt lat="42.789465" lon="11.238695"><ele>45.0</ele><time>2026-04-12T07:25:07.987Z</time></trkpt><trkpt lat="42.7893883" lon="11.2387683"><ele>45.0</ele><time>2026-04-12T07:25:09.987Z</time></trkpt><trkpt lat="42.7893183" lon="11.238835"><ele>45.0</ele><time>2026-04-12T07:25:11.987Z</time></trkpt><trkpt lat="42.7892417" lon="11.2389133"><ele>45.0</ele><time>2026-04-12T07:25:13.987Z</time></trkpt><trkpt lat="42.7891683" lon="11.2389867"><ele>45.0</ele><time>2026-04-12T07:25:15.987Z</time></trkpt><trkpt lat="42.789095" lon="11.2390567"><ele>45.0</ele><time>2026-04-12T07:25:17.988Z</time></trkpt><trkpt lat="42.7890233" lon="11.2391233"><ele>45.0</ele><time>2026-04-12T07:25:19.987Z</time></trkpt><trkpt lat="42.7889467" lon="11.2392033"><ele>45.0</ele><time>2026-04-12T07:25:21.987Z</time></trkpt><trkpt lat="42.7888583" lon="11.23928"><ele>45.0</ele><time>2026-04-12T07:25:23.987Z</time></trkpt><trkpt lat="42.7887817" lon="11.2393633"><ele>45.0</ele><time>2026-04-12T07:25:25.987Z</time></trkpt><trkpt lat="42.7887067" lon="11.2394433"><ele>45.0</ele><time>2026-04-12T07:25:27.987Z</time></trkpt><trkpt lat="42.7886383" lon="11.2395183"><ele>45.0</ele><time>2026-04-12T07:25:29.987Z</time></trkpt><trkpt lat="42.78858" lon="11.2395883"><ele>45.0</ele><time>2026-04-12T07:25:31.987Z</time></trkpt><trkpt lat="42.788515" lon="11.2396483"><ele>45.0</ele><time>2026-04-12T07:25:33.987Z</time></trkpt><trkpt lat="42.788445" lon="11.23973"><ele>45.0</ele><time>2026-04-12T07:25:35.987Z</time></trkpt><trkpt lat="42.7883767" lon="11.2397983"><ele>45.5</ele><time>2026-04-12T07:25:37.987Z</time></trkpt><trkpt lat="42.7883067" lon="11.2398667"><ele>46.0</ele><time>2026-04-12T07:25:39.987Z</time></trkpt><trkpt lat="42.7882417" lon="11.2399467"><ele>46.5</ele><time>2026-04-12T07:25:41.987Z</time></trkpt><trkpt lat="42.7881683" lon="11.24002"><ele>47.0</ele><time>2026-04-12T07:25:43.988Z</time></trkpt><trkpt lat="42.788105" lon="11.24009"><ele>47.5</ele><time>2026-04-12T07:25:45.987Z</time></trkpt><trkpt lat="42.7880367" lon="11.24016"><ele>48.0</ele><time>2026-04-12T07:25:47.987Z</time></trkpt><trkpt lat="42.7879683" lon="11.2402317"><ele>48.0</ele><time>2026-04-12T07:25:49.987Z</time></trkpt><trkpt lat="42.7878933" lon="11.240315"><ele>48.0</ele><time>2026-04-12T07:25:51.987Z</time></trkpt><trkpt lat="42.7878117" lon="11.24039"><ele>48.0</ele><time>2026-04-12T07:25:53.987Z</time></trkpt><trkpt lat="42.7877267" lon="11.2404717"><ele>48.0</ele><time>2026-04-12T07:25:55.987Z</time></trkpt><trkpt lat="42.787645" lon="11.24055"><ele>48.0</ele><time>2026-04-12T07:25:57.987Z</time></trkpt><trkpt lat="42.7875733" lon="11.2406233"><ele>48.8</ele><time>2026-04-12T07:25:59.987Z</time></trkpt><trkpt lat="42.7875" lon="11.240705"><ele>49.599999999999994</ele><time>2026-04-12T07:26:01.987Z</time></trkpt><trkpt lat="42.78742" lon="11.240785"><ele>50.400000000000006</ele><time>2026-04-12T07:26:03.987Z</time></trkpt><trkpt lat="42.7873433" lon="11.2408633"><ele>51.2</ele><time>2026-04-12T07:26:05.987Z</time></trkpt><trkpt lat="42.787265" lon="11.2409383"><ele>52.0</ele><time>2026-04-12T07:26:07.987Z</time></trkpt><trkpt lat="42.7871833" lon="11.2410133"><ele>52.0</ele><time>2026-04-12T07:26:09.987Z</time></trkpt><trkpt lat="42.7871083" lon="11.2410933"><ele>52.0</ele><time>2026-04-12T07:26:11.987Z</time></trkpt><trkpt lat="42.7870367" lon="11.24117"><ele>52.0</ele><time>2026-04-12T07:26:13.988Z</time></trkpt><trkpt lat="42.7869617" lon="11.2412517"><ele>52.0</ele><time>2026-04-12T07:26:15.988Z</time></trkpt><trkpt lat="42.78688" lon="11.2413283"><ele>52.0</ele><time>2026-04-12T07:26:17.988Z</time></trkpt><trkpt lat="42.7867967" lon="11.2414017"><ele>52.400000000000006</ele><time>2026-04-12T07:26:19.988Z</time></trkpt><trkpt lat="42.7867167" lon="11.2414817"><ele>52.800000000000004</ele><time>2026-04-12T07:26:21.988Z</time></trkpt><trkpt lat="42.7866333" lon="11.24157"><ele>53.2</ele><time>2026-04-12T07:26:23.987Z</time></trkpt><trkpt lat="42.78655" lon="11.241655"><ele>53.6</ele><time>2026-04-12T07:26:25.988Z</time></trkpt><trkpt lat="42.7864767" lon="11.2417383"><ele>54.0</ele><time>2026-04-12T07:26:27.987Z</time></trkpt><trkpt lat="42.786405" lon="11.2418133"><ele>54.0</ele><time>2026-04-12T07:26:29.988Z</time></trkpt><trkpt lat="42.7863417" lon="11.2418933"><ele>54.00000000000001</ele><time>2026-04-12T07:26:31.987Z</time></trkpt><trkpt lat="42.7862683" lon="11.2419733"><ele>54.00000000000001</ele><time>2026-04-12T07:26:33.988Z</time></trkpt><trkpt lat="42.7861933" lon="11.2420433"><ele>54.0</ele><time>2026-04-12T07:26:35.987Z</time></trkpt><trkpt lat="42.7861167" lon="11.24213"><ele>54.0</ele><time>2026-04-12T07:26:37.987Z</time></trkpt><trkpt lat="42.7860383" lon="11.2422067"><ele>54.0</ele><time>2026-04-12T07:26:39.987Z</time></trkpt><trkpt lat="42.7859633" lon="11.242285"><ele>54.00000000000001</ele><time>2026-04-12T07:26:41.987Z</time></trkpt><trkpt lat="42.7858817" lon="11.2423667"><ele>54.00000000000001</ele><time>2026-04-12T07:26:43.987Z</time></trkpt><trkpt lat="42.7858067" lon="11.2424383"><ele>54.0</ele><time>2026-04-12T07:26:45.987Z</time></trkpt><trkpt lat="42.7857233" lon="11.2425167"><ele>54.0</ele><time>2026-04-12T07:26:47.987Z</time></trkpt><trkpt lat="42.78565" lon="11.2425967"><ele>54.2</ele><time>2026-04-12T07:26:49.988Z</time></trkpt><trkpt lat="42.7855733" lon="11.24267"><ele>54.400000000000006</ele><time>2026-04-12T07:26:51.987Z</time></trkpt><trkpt lat="42.7855033" lon="11.2427533"><ele>54.6</ele><time>2026-04-12T07:26:53.988Z</time></trkpt><trkpt lat="42.785425" lon="11.242835"><ele>54.8</ele><time>2026-04-12T07:26:55.987Z</time></trkpt><trkpt lat="42.785345" lon="11.2429083"><ele>55.0</ele><time>2026-04-12T07:26:57.988Z</time></trkpt><trkpt lat="42.7852667" lon="11.2429833"><ele>55.0</ele><time>2026-04-12T07:26:59.987Z</time></trkpt><trkpt lat="42.78519" lon="11.2430667"><ele>55.0</ele><time>2026-04-12T07:27:01.988Z</time></trkpt><trkpt lat="42.7851133" lon="11.2431483"><ele>55.0</ele><time>2026-04-12T07:27:03.988Z</time></trkpt><trkpt lat="42.78503" lon="11.2432283"><ele>55.0</ele><time>2026-04-12T07:27:05.987Z</time></trkpt><trkpt lat="42.78496" lon="11.2433067"><ele>55.0</ele><time>2026-04-12T07:27:07.987Z</time></trkpt><trkpt lat="42.7848883" lon="11.24339"><ele>55.8</ele><time>2026-04-12T07:27:09.987Z</time></trkpt><trkpt lat="42.7848183" lon="11.2434633"><ele>56.6</ele><time>2026-04-12T07:27:11.987Z</time></trkpt><trkpt lat="42.78475" lon="11.24355"><ele>57.400000000000006</ele><time>2026-04-12T07:27:13.987Z</time></trkpt><trkpt lat="42.7846867" lon="11.2436483"><ele>58.2</ele><time>2026-04-12T07:27:15.988Z</time></trkpt><trkpt lat="42.7846417" lon="11.2437633"><ele>59.0</ele><time>2026-04-12T07:27:17.987Z</time></trkpt><trkpt lat="42.7846" lon="11.2438833"><ele>59.2</ele><time>2026-04-12T07:27:19.988Z</time></trkpt><trkpt lat="42.7845483" lon="11.2440033"><ele>59.400000000000006</ele><time>2026-04-12T07:27:21.987Z</time></trkpt><trkpt lat="42.784495" lon="11.2441133"><ele>59.6</ele><time>2026-04-12T07:27:23.987Z</time></trkpt><trkpt lat="42.7844417" lon="11.2442433"><ele>59.8</ele><time>2026-04-12T07:27:25.987Z</time></trkpt><trkpt lat="42.7843917" lon="11.24436"><ele>60.0</ele><time>2026-04-12T07:27:27.987Z</time></trkpt><trkpt lat="42.7843467" lon="11.2444783"><ele>60.0</ele><time>2026-04-12T07:27:29.987Z</time></trkpt><trkpt lat="42.7843" lon="11.2445967"><ele>60.0</ele><time>2026-04-12T07:27:31.988Z</time></trkpt><trkpt lat="42.7842483" lon="11.2447217"><ele>60.0</ele><time>2026-04-12T07:27:33.988Z</time></trkpt><trkpt lat="42.7842033" lon="11.2448433"><ele>60.0</ele><time>2026-04-12T07:27:35.988Z</time></trkpt><trkpt lat="42.78415" lon="11.2449583"><ele>60.0</ele><time>2026-04-12T07:27:37.987Z</time></trkpt><trkpt lat="42.7841033" lon="11.245075"><ele>60.0</ele><time>2026-04-12T07:27:39.987Z</time></trkpt><trkpt lat="42.78405" lon="11.2451867"><ele>60.0</ele><time>2026-04-12T07:27:41.987Z</time></trkpt><trkpt lat="42.7839867" lon="11.2453"><ele>60.0</ele><time>2026-04-12T07:27:43.987Z</time></trkpt><trkpt lat="42.7839133" lon="11.2454"><ele>60.0</ele><time>2026-04-12T07:27:45.987Z</time></trkpt><trkpt lat="42.7838317" lon="11.2454867"><ele>60.0</ele><time>2026-04-12T07:27:47.987Z</time></trkpt><trkpt lat="42.7837417" lon="11.2455667"><ele>60.0</ele><time>2026-04-12T07:27:49.987Z</time></trkpt><trkpt lat="42.783655" lon="11.2456217"><ele>60.0</ele><time>2026-04-12T07:27:51.987Z</time></trkpt><trkpt lat="42.7835633" lon="11.245675"><ele>60.0</ele><time>2026-04-12T07:27:53.987Z</time></trkpt><trkpt lat="42.783465" lon="11.2457317"><ele>60.0</ele><time>2026-04-12T07:27:55.987Z</time></trkpt><trkpt lat="42.7833767" lon="11.2457933"><ele>60.0</ele><time>2026-04-12T07:27:57.988Z</time></trkpt><trkpt lat="42.7832833" lon="11.2458367"><ele>59.8</ele><time>2026-04-12T07:27:59.987Z</time></trkpt><trkpt lat="42.78318" lon="11.245875"><ele>59.6</ele><time>2026-04-12T07:28:01.987Z</time></trkpt><trkpt lat="42.7830817" lon="11.2459083"><ele>59.400000000000006</ele><time>2026-04-12T07:28:03.987Z</time></trkpt><trkpt lat="42.7829817" lon="11.2459083"><ele>59.2</ele><time>2026-04-12T07:28:05.987Z</time></trkpt><trkpt lat="42.782885" lon="11.245895"><ele>59.0</ele><time>2026-04-12T07:28:07.987Z</time></trkpt><trkpt lat="42.7827967" lon="11.24588"><ele>59.0</ele><time>2026-04-12T07:28:09.987Z</time></trkpt><trkpt lat="42.782705" lon="11.2458683"><ele>59.00000000000001</ele><time>2026-04-12T07:28:11.988Z</time></trkpt><trkpt lat="42.7826117" lon="11.2458533"><ele>59.00000000000001</ele><time>2026-04-12T07:28:13.988Z</time></trkpt><trkpt lat="42.7825167" lon="11.245845"><ele>59.0</ele><time>2026-04-12T07:28:15.987Z</time></trkpt><trkpt lat="42.7824217" lon="11.2458383"><ele>59.0</ele><time>2026-04-12T07:28:17.988Z</time></trkpt><trkpt lat="42.7823317" lon="11.2458317"><ele>59.16666666666667</ele><time>2026-04-12T07:28:19.988Z</time></trkpt><trkpt lat="42.7822417" lon="11.2458267"><ele>59.333333333333336</ele><time>2026-04-12T07:28:21.987Z</time></trkpt><trkpt lat="42.7821617" lon="11.2458383"><ele>59.5</ele><time>2026-04-12T07:28:23.987Z</time></trkpt><trkpt lat="42.7820783" lon="11.2458567"><ele>59.66666666666667</ele><time>2026-04-12T07:28:25.987Z</time></trkpt><trkpt lat="42.78199" lon="11.2458817"><ele>59.833333333333336</ele><time>2026-04-12T07:28:27.987Z</time></trkpt><trkpt lat="42.7819133" lon="11.2459017"><ele>60.0</ele><time>2026-04-12T07:28:29.987Z</time></trkpt><trkpt lat="42.7818333" lon="11.2459483"><ele>60.8</ele><time>2026-04-12T07:28:31.988Z</time></trkpt><trkpt lat="42.7817617" lon="11.2460067"><ele>61.6</ele><time>2026-04-12T07:28:33.987Z</time></trkpt><trkpt lat="42.78167" lon="11.2460583"><ele>62.400000000000006</ele><time>2026-04-12T07:28:35.987Z</time></trkpt><trkpt lat="42.781585" lon="11.24611"><ele>63.2</ele><time>2026-04-12T07:28:37.987Z</time></trkpt><trkpt lat="42.7815033" lon="11.2461683"><ele>64.0</ele><time>2026-04-12T07:28:39.987Z</time></trkpt><trkpt lat="42.7814233" lon="11.2462367"><ele>63.99999999999999</ele><time>2026-04-12T07:28:41.988Z</time></trkpt><trkpt lat="42.7813533" lon="11.2462983"><ele>64.0</ele><time>2026-04-12T07:28:43.987Z</time></trkpt><trkpt lat="42.781285" lon="11.2463617"><ele>64.0</ele><time>2026-04-12T07:28:45.987Z</time></trkpt><trkpt lat="42.7812183" lon="11.2464333"><ele>64.0</ele><time>2026-04-12T07:28:47.987Z</time></trkpt><trkpt lat="42.7811433" lon="11.2465033"><ele>63.99999999999999</ele><time>2026-04-12T07:28:49.987Z</time></trkpt><trkpt lat="42.7810783" lon="11.2465767"><ele>64.0</ele><time>2026-04-12T07:28:51.988Z</time></trkpt><trkpt lat="42.7810117" lon="11.2466583"><ele>64.8</ele><time>2026-04-12T07:28:53.987Z</time></trkpt><trkpt lat="42.780955" lon="11.2467567"><ele>65.60000000000001</ele><time>2026-04-12T07:28:55.987Z</time></trkpt><trkpt lat="42.7808933" lon="11.2468617"><ele>66.4</ele><time>2026-04-12T07:28:57.987Z</time></trkpt><trkpt lat="42.78084" lon="11.246965"><ele>67.2</ele><time>2026-04-12T07:28:59.987Z</time></trkpt><trkpt lat="42.7807833" lon="11.2470617"><ele>68.0</ele><time>2026-04-12T07:29:01.986Z</time></trkpt><trkpt lat="42.7807283" lon="11.24716"><ele>68.0</ele><time>2026-04-12T07:29:03.987Z</time></trkpt><trkpt lat="42.78068" lon="11.2472683"><ele>68.0</ele><time>2026-04-12T07:29:05.985Z</time></trkpt><trkpt lat="42.7806267" lon="11.247375"><ele>68.0</ele><time>2026-04-12T07:29:07.986Z</time></trkpt><trkpt lat="42.7805717" lon="11.2474783"><ele>68.0</ele><time>2026-04-12T07:29:09.986Z</time></trkpt><trkpt lat="42.7805133" lon="11.2475867"><ele>68.0</ele><time>2026-04-12T07:29:11.987Z</time></trkpt><trkpt lat="42.7804667" lon="11.2477"><ele>68.0</ele><time>2026-04-12T07:29:13.987Z</time></trkpt><trkpt lat="42.780415" lon="11.2478117"><ele>68.0</ele><time>2026-04-12T07:29:15.986Z</time></trkpt><trkpt lat="42.780355" lon="11.247915"><ele>68.0</ele><time>2026-04-12T07:29:17.986Z</time></trkpt><trkpt lat="42.7803033" lon="11.24802"><ele>68.0</ele><time>2026-04-12T07:29:19.987Z</time></trkpt><trkpt lat="42.7802433" lon="11.2481333"><ele>68.0</ele><time>2026-04-12T07:29:21.986Z</time></trkpt><trkpt lat="42.780185" lon="11.2482317"><ele>68.0</ele><time>2026-04-12T07:29:23.987Z</time></trkpt><trkpt lat="42.78013" lon="11.24834"><ele>68.0</ele><time>2026-04-12T07:29:25.986Z</time></trkpt><trkpt lat="42.78008" lon="11.2484533"><ele>68.0</ele><time>2026-04-12T07:29:27.987Z</time></trkpt><trkpt lat="42.7800383" lon="11.2485633"><ele>68.0</ele><time>2026-04-12T07:29:29.986Z</time></trkpt><trkpt lat="42.7800033" lon="11.24867"><ele>68.0</ele><time>2026-04-12T07:29:31.987Z</time></trkpt><trkpt lat="42.7799733" lon="11.2487883"><ele>68.0</ele><time>2026-04-12T07:29:33.986Z</time></trkpt><trkpt lat="42.7799417" lon="11.2489083"><ele>68.0</ele><time>2026-04-12T07:29:35.986Z</time></trkpt><trkpt lat="42.7799133" lon="11.2490233"><ele>68.0</ele><time>2026-04-12T07:29:37.986Z</time></trkpt><trkpt lat="42.7798967" lon="11.2491333"><ele>68.0</ele><time>2026-04-12T07:29:39.986Z</time></trkpt><trkpt lat="42.779865" lon="11.24926"><ele>68.0</ele><time>2026-04-12T07:29:41.986Z</time></trkpt><trkpt lat="42.7798317" lon="11.2493933"><ele>68.4</ele><time>2026-04-12T07:29:43.987Z</time></trkpt><trkpt lat="42.7798033" lon="11.249525"><ele>68.8</ele><time>2026-04-12T07:29:45.986Z</time></trkpt><trkpt lat="42.7797783" lon="11.24966"><ele>69.2</ele><time>2026-04-12T07:29:47.986Z</time></trkpt><trkpt lat="42.77976" lon="11.24978"><ele>69.6</ele><time>2026-04-12T07:29:49.987Z</time></trkpt><trkpt lat="42.77974" lon="11.2499067"><ele>70.0</ele><time>2026-04-12T07:29:51.987Z</time></trkpt><trkpt lat="42.7797233" lon="11.25003"><ele>70.2</ele><time>2026-04-12T07:29:53.986Z</time></trkpt><trkpt lat="42.779705" lon="11.2501433"><ele>70.4</ele><time>2026-04-12T07:29:55.986Z</time></trkpt><trkpt lat="42.7796867" lon="11.250275"><ele>70.6</ele><time>2026-04-12T07:29:57.986Z</time></trkpt><trkpt lat="42.77966" lon="11.250395"><ele>70.8</ele><time>2026-04-12T07:29:59.986Z</time></trkpt><trkpt lat="42.7796317" lon="11.25051"><ele>71.0</ele><time>2026-04-12T07:30:01.987Z</time></trkpt><trkpt lat="42.7796117" lon="11.25063"><ele>71.2</ele><time>2026-04-12T07:30:03.986Z</time></trkpt><trkpt lat="42.7795867" lon="11.2507417"><ele>71.39999999999999</ele><time>2026-04-12T07:30:05.986Z</time></trkpt><trkpt lat="42.7795633" lon="11.2508583"><ele>71.6</ele><time>2026-04-12T07:30:07.986Z</time></trkpt><trkpt lat="42.7795433" lon="11.2509817"><ele>71.8</ele><time>2026-04-12T07:30:09.986Z</time></trkpt><trkpt lat="42.7795217" lon="11.25111"><ele>72.0</ele><time>2026-04-12T07:30:11.986Z</time></trkpt><trkpt lat="42.7795033" lon="11.2512317"><ele>72.0</ele><time>2026-04-12T07:30:13.986Z</time></trkpt><trkpt lat="42.779475" lon="11.2513483"><ele>72.0</ele><time>2026-04-12T07:30:15.986Z</time></trkpt><trkpt lat="42.779445" lon="11.2514767"><ele>72.0</ele><time>2026-04-12T07:30:17.986Z</time></trkpt><trkpt lat="42.77942" lon="11.251605"><ele>72.0</ele><time>2026-04-12T07:30:19.987Z</time></trkpt><trkpt lat="42.779395" lon="11.2517167"><ele>72.0</ele><time>2026-04-12T07:30:21.986Z</time></trkpt><trkpt lat="42.779375" lon="11.2518417"><ele>73.0</ele><time>2026-04-12T07:30:23.986Z</time></trkpt><trkpt lat="42.7793467" lon="11.2519667"><ele>74.0</ele><time>2026-04-12T07:30:25.987Z</time></trkpt><trkpt lat="42.779325" lon="11.2520833"><ele>75.0</ele><time>2026-04-12T07:30:27.986Z</time></trkpt><trkpt lat="42.7793067" lon="11.252205"><ele>76.0</ele><time>2026-04-12T07:30:29.986Z</time></trkpt><trkpt lat="42.7792833" lon="11.2523367"><ele>77.0</ele><time>2026-04-12T07:30:31.986Z</time></trkpt><trkpt lat="42.7792583" lon="11.25246"><ele>77.0</ele><time>2026-04-12T07:30:33.986Z</time></trkpt><trkpt lat="42.7792317" lon="11.252585"><ele>77.0</ele><time>2026-04-12T07:30:35.986Z</time></trkpt><trkpt lat="42.779205" lon="11.2527033"><ele>77.0</ele><time>2026-04-12T07:30:37.986Z</time></trkpt><trkpt lat="42.779185" lon="11.2528183"><ele>77.0</ele><time>2026-04-12T07:30:39.986Z</time></trkpt><trkpt lat="42.779165" lon="11.2529367"><ele>77.0</ele><time>2026-04-12T07:30:41.986Z</time></trkpt><trkpt lat="42.7791417" lon="11.2530617"><ele>77.16666666666667</ele><time>2026-04-12T07:30:43.986Z</time></trkpt><trkpt lat="42.7791233" lon="11.2531833"><ele>77.33333333333334</ele><time>2026-04-12T07:30:45.986Z</time></trkpt><trkpt lat="42.7791" lon="11.25331"><ele>77.5</ele><time>2026-04-12T07:30:47.987Z</time></trkpt><trkpt lat="42.77907" lon="11.25343"><ele>77.66666666666667</ele><time>2026-04-12T07:30:49.986Z</time></trkpt><trkpt lat="42.7790483" lon="11.2535433"><ele>77.83333333333333</ele><time>2026-04-12T07:30:51.987Z</time></trkpt><trkpt lat="42.7790283" lon="11.253645"><ele>78.0</ele><time>2026-04-12T07:30:53.986Z</time></trkpt><trkpt lat="42.7790033" lon="11.25376"><ele>78.0</ele><time>2026-04-12T07:30:55.986Z</time></trkpt><trkpt lat="42.7789833" lon="11.2538783"><ele>78.0</ele><time>2026-04-12T07:30:57.986Z</time></trkpt><trkpt lat="42.7789583" lon="11.2540017"><ele>78.0</ele><time>2026-04-12T07:30:59.986Z</time></trkpt><trkpt lat="42.778935" lon="11.2541233"><ele>78.0</ele><time>2026-04-12T07:31:01.986Z</time></trkpt><trkpt lat="42.7789083" lon="11.2542433"><ele>78.0</ele><time>2026-04-12T07:31:03.987Z</time></trkpt><trkpt lat="42.7788883" lon="11.2543633"><ele>78.4</ele><time>2026-04-12T07:31:05.986Z</time></trkpt><trkpt lat="42.7788617" lon="11.2544783"><ele>78.8</ele><time>2026-04-12T07:31:07.987Z</time></trkpt><trkpt lat="42.77884" lon="11.2545917"><ele>79.2</ele><time>2026-04-12T07:31:09.987Z</time></trkpt><trkpt lat="42.7788183" lon="11.25471"><ele>79.6</ele><time>2026-04-12T07:31:11.986Z</time></trkpt><trkpt lat="42.7787933" lon="11.2548367"><ele>80.0</ele><time>2026-04-12T07:31:13.987Z</time></trkpt><trkpt lat="42.7787683" lon="11.2549633"><ele>80.4</ele><time>2026-04-12T07:31:15.986Z</time></trkpt><trkpt lat="42.7787467" lon="11.25509"><ele>80.8</ele><time>2026-04-12T07:31:17.986Z</time></trkpt><trkpt lat="42.7787383" lon="11.2552117"><ele>81.19999999999999</ele><time>2026-04-12T07:31:19.987Z</time></trkpt><trkpt lat="42.7787183" lon="11.25534"><ele>81.6</ele><time>2026-04-12T07:31:21.986Z</time></trkpt><trkpt lat="42.778695" lon="11.25547"><ele>82.0</ele><time>2026-04-12T07:31:23.986Z</time></trkpt><trkpt lat="42.778675" lon="11.2555967"><ele>81.6</ele><time>2026-04-12T07:31:25.986Z</time></trkpt><trkpt lat="42.7786517" lon="11.25573"><ele>81.19999999999999</ele><time>2026-04-12T07:31:27.987Z</time></trkpt><trkpt lat="42.778635" lon="11.2558583"><ele>80.8</ele><time>2026-04-12T07:31:29.987Z</time></trkpt><trkpt lat="42.778625" lon="11.25599"><ele>80.4</ele><time>2026-04-12T07:31:31.987Z</time></trkpt><trkpt lat="42.7786133" lon="11.25612"><ele>80.0</ele><time>2026-04-12T07:31:33.987Z</time></trkpt><trkpt lat="42.7786033" lon="11.25624"><ele>80.0</ele><time>2026-04-12T07:31:35.987Z</time></trkpt><trkpt lat="42.7786" lon="11.2563717"><ele>80.0</ele><time>2026-04-12T07:31:37.986Z</time></trkpt><trkpt lat="42.7785883" lon="11.25651"><ele>80.0</ele><time>2026-04-12T07:31:39.986Z</time></trkpt><trkpt lat="42.778575" lon="11.25664"><ele>80.0</ele><time>2026-04-12T07:31:41.986Z</time></trkpt><trkpt lat="42.7785683" lon="11.2567683"><ele>80.0</ele><time>2026-04-12T07:31:43.987Z</time></trkpt><trkpt lat="42.77857" lon="11.256895"><ele>79.6</ele><time>2026-04-12T07:31:45.987Z</time></trkpt><trkpt lat="42.778565" lon="11.2570367"><ele>79.2</ele><time>2026-04-12T07:31:47.986Z</time></trkpt><trkpt lat="42.7785617" lon="11.2571667"><ele>78.8</ele><time>2026-04-12T07:31:49.986Z</time></trkpt><trkpt lat="42.7785583" lon="11.2572867"><ele>78.4</ele><time>2026-04-12T07:31:51.986Z</time></trkpt><trkpt lat="42.7785567" lon="11.25742"><ele>78.0</ele><time>2026-04-12T07:31:53.986Z</time></trkpt><trkpt lat="42.7785483" lon="11.2575517"><ele>77.8</ele><time>2026-04-12T07:31:55.987Z</time></trkpt><trkpt lat="42.77855" lon="11.257685"><ele>77.6</ele><time>2026-04-12T07:31:57.986Z</time></trkpt><trkpt lat="42.7785467" lon="11.257815"><ele>77.4</ele><time>2026-04-12T07:31:59.986Z</time></trkpt><trkpt lat="42.77854" lon="11.2579383"><ele>77.2</ele><time>2026-04-12T07:32:01.986Z</time></trkpt><trkpt lat="42.7785333" lon="11.2580733"><ele>77.0</ele><time>2026-04-12T07:32:03.986Z</time></trkpt><trkpt lat="42.7785367" lon="11.2581967"><ele>77.66666666666667</ele><time>2026-04-12T07:32:05.987Z</time></trkpt><trkpt lat="42.77853" lon="11.2583167"><ele>78.33333333333334</ele><time>2026-04-12T07:32:07.986Z</time></trkpt><trkpt lat="42.77852" lon="11.25843"><ele>79.0</ele><time>2026-04-12T07:32:09.986Z</time></trkpt><trkpt lat="42.778515" lon="11.2585417"><ele>79.66666666666667</ele><time>2026-04-12T07:32:11.986Z</time></trkpt><trkpt lat="42.7785067" lon="11.25864"><ele>80.33333333333333</ele><time>2026-04-12T07:32:13.986Z</time></trkpt><trkpt lat="42.7785" lon="11.2587383"><ele>81.0</ele><time>2026-04-12T07:32:15.987Z</time></trkpt><trkpt lat="42.778485" lon="11.25883"><ele>82.16666666666667</ele><time>2026-04-12T07:32:17.986Z</time></trkpt><trkpt lat="42.7784733" lon="11.2589517"><ele>83.33333333333333</ele><time>2026-04-12T07:32:20.987Z</time></trkpt><trkpt lat="42.77846" lon="11.2590367"><ele>84.5</ele><time>2026-04-12T07:32:22.987Z</time></trkpt><trkpt lat="42.778455" lon="11.259165"><ele>85.66666666666666</ele><time>2026-04-12T07:32:25.986Z</time></trkpt><trkpt lat="42.7784417" lon="11.2592817"><ele>86.83333333333333</ele><time>2026-04-12T07:32:28.986Z</time></trkpt><trkpt lat="42.77843" lon="11.259395"><ele>88.0</ele><time>2026-04-12T07:32:31.987Z</time></trkpt><trkpt lat="42.7784133" lon="11.2595067"><ele>88.0</ele><time>2026-04-12T07:32:34.987Z</time></trkpt><trkpt lat="42.7783983" lon="11.259615"><ele>88.0</ele><time>2026-04-12T07:32:37.986Z</time></trkpt><trkpt lat="42.778385" lon="11.2597217"><ele>88.0</ele><time>2026-04-12T07:32:40.986Z</time></trkpt><trkpt lat="42.7783633" lon="11.259835"><ele>88.0</ele><time>2026-04-12T07:32:43.986Z</time></trkpt><trkpt lat="42.7783533" lon="11.25995"><ele>88.0</ele><time>2026-04-12T07:32:46.986Z</time></trkpt><trkpt lat="42.7783367" lon="11.2600567"><ele>88.0</ele><time>2026-04-12T07:32:49.987Z</time></trkpt><trkpt lat="42.77833" lon="11.2601717"><ele>89.0</ele><time>2026-04-12T07:32:52.986Z</time></trkpt><trkpt lat="42.7783267" lon="11.2602867"><ele>90.0</ele><time>2026-04-12T07:32:55.987Z</time></trkpt><trkpt lat="42.7783183" lon="11.2603933"><ele>91.0</ele><time>2026-04-12T07:32:58.987Z</time></trkpt><trkpt lat="42.7783067" lon="11.260495"><ele>92.0</ele><time>2026-04-12T07:33:01.986Z</time></trkpt><trkpt lat="42.7782917" lon="11.2606067"><ele>93.0</ele><time>2026-04-12T07:33:04.986Z</time></trkpt><trkpt lat="42.778265" lon="11.2607117"><ele>94.0</ele><time>2026-04-12T07:33:07.987Z</time></trkpt><trkpt lat="42.7782383" lon="11.26083"><ele>94.85714285714286</ele><time>2026-04-12T07:33:10.986Z</time></trkpt><trkpt lat="42.7782017" lon="11.2609417"><ele>95.71428571428571</ele><time>2026-04-12T07:33:13.986Z</time></trkpt><trkpt lat="42.778155" lon="11.2610367"><ele>96.57142857142858</ele><time>2026-04-12T07:33:16.986Z</time></trkpt><trkpt lat="42.7781133" lon="11.261105"><ele>97.42857142857143</ele><time>2026-04-12T07:33:18.986Z</time></trkpt><trkpt lat="42.7780667" lon="11.2611667"><ele>98.28571428571429</ele><time>2026-04-12T07:33:20.986Z</time></trkpt><trkpt lat="42.7780133" lon="11.26122"><ele>99.14285714285715</ele><time>2026-04-12T07:33:22.986Z</time></trkpt><trkpt lat="42.7779567" lon="11.2612733"><ele>100.0</ele><time>2026-04-12T07:33:24.986Z</time></trkpt><trkpt lat="42.7778917" lon="11.2613233"><ele>100.00000000000001</ele><time>2026-04-12T07:33:26.986Z</time></trkpt><trkpt lat="42.7778267" lon="11.26136"><ele>100.0</ele><time>2026-04-12T07:33:28.986Z</time></trkpt><trkpt lat="42.7777583" lon="11.2614067"><ele>100.0</ele><time>2026-04-12T07:33:30.986Z</time></trkpt><trkpt lat="42.7777" lon="11.261455"><ele>100.0</ele><time>2026-04-12T07:33:32.987Z</time></trkpt><trkpt lat="42.7776433" lon="11.26151"><ele>100.0</ele><time>2026-04-12T07:33:34.987Z</time></trkpt><trkpt lat="42.7775817" lon="11.2615567"><ele>100.00000000000001</ele><time>2026-04-12T07:33:36.987Z</time></trkpt><trkpt lat="42.7775283" lon="11.261615"><ele>100.0</ele><time>2026-04-12T07:33:38.986Z</time></trkpt><trkpt lat="42.7774683" lon="11.2616567"><ele>100.50000000000001</ele><time>2026-04-12T07:33:40.986Z</time></trkpt><trkpt lat="42.7774033" lon="11.2617067"><ele>101.0</ele><time>2026-04-12T07:33:42.986Z</time></trkpt><trkpt lat="42.77734" lon="11.2617567"><ele>101.5</ele><time>2026-04-12T07:33:44.986Z</time></trkpt><trkpt lat="42.77727" lon="11.261805"><ele>102.0</ele><time>2026-04-12T07:33:46.986Z</time></trkpt><trkpt lat="42.7772083" lon="11.2618667"><ele>102.50000000000001</ele><time>2026-04-12T07:33:48.986Z</time></trkpt><trkpt lat="42.77714" lon="11.2619033"><ele>103.0</ele><time>2026-04-12T07:33:50.986Z</time></trkpt><trkpt lat="42.7770717" lon="11.2619467"><ele>103.00000000000001</ele><time>2026-04-12T07:33:52.986Z</time></trkpt><trkpt lat="42.7770033" lon="11.26201"><ele>103.0</ele><time>2026-04-12T07:33:54.986Z</time></trkpt><trkpt lat="42.77694" lon="11.26207"><ele>103.0</ele><time>2026-04-12T07:33:56.986Z</time></trkpt><trkpt lat="42.7768767" lon="11.26212"><ele>103.0</ele><time>2026-04-12T07:33:58.986Z</time></trkpt><trkpt lat="42.776805" lon="11.26217"><ele>103.00000000000001</ele><time>2026-04-12T07:34:00.986Z</time></trkpt><trkpt lat="42.7767383" lon="11.262215"><ele>103.0</ele><time>2026-04-12T07:34:02.987Z</time></trkpt><trkpt lat="42.7766633" lon="11.26226"><ele>103.28571428571428</ele><time>2026-04-12T07:34:04.986Z</time></trkpt><trkpt lat="42.7765933" lon="11.2622933"><ele>103.57142857142857</ele><time>2026-04-12T07:34:06.986Z</time></trkpt><trkpt lat="42.776525" lon="11.2623333"><ele>103.85714285714286</ele><time>2026-04-12T07:34:08.986Z</time></trkpt><trkpt lat="42.776455" lon="11.2623717"><ele>104.14285714285714</ele><time>2026-04-12T07:34:10.987Z</time></trkpt><trkpt lat="42.7763883" lon="11.262415"><ele>104.42857142857143</ele><time>2026-04-12T07:34:12.986Z</time></trkpt><trkpt lat="42.7763217" lon="11.26245"><ele>104.71428571428571</ele><time>2026-04-12T07:34:14.987Z</time></trkpt><trkpt lat="42.7762517" lon="11.262485"><ele>105.0</ele><time>2026-04-12T07:34:16.986Z</time></trkpt><trkpt lat="42.7761833" lon="11.2625317"><ele>105.0</ele><time>2026-04-12T07:34:18.986Z</time></trkpt><trkpt lat="42.7761167" lon="11.2625717"><ele>105.0</ele><time>2026-04-12T07:34:20.986Z</time></trkpt><trkpt lat="42.7760483" lon="11.262605"><ele>105.0</ele><time>2026-04-12T07:34:22.987Z</time></trkpt><trkpt lat="42.775985" lon="11.2626383"><ele>105.0</ele><time>2026-04-12T07:34:24.987Z</time></trkpt><trkpt lat="42.775925" lon="11.2626733"><ele>105.0</ele><time>2026-04-12T07:34:26.987Z</time></trkpt><trkpt lat="42.7758383" lon="11.2627233"><ele>105.0</ele><time>2026-04-12T07:34:29.986Z</time></trkpt><trkpt lat="42.77575" lon="11.2627617"><ele>105.83333333333333</ele><time>2026-04-12T07:34:32.986Z</time></trkpt><trkpt lat="42.7756683" lon="11.2628083"><ele>106.66666666666666</ele><time>2026-04-12T07:34:35.987Z</time></trkpt><trkpt lat="42.7756067" lon="11.2628417"><ele>107.5</ele><time>2026-04-12T07:34:37.986Z</time></trkpt><trkpt lat="42.77554" lon="11.262875"><ele>108.33333333333333</ele><time>2026-04-12T07:34:39.987Z</time></trkpt><trkpt lat="42.775475" lon="11.2628883"><ele>109.16666666666666</ele><time>2026-04-12T07:34:41.987Z</time></trkpt><trkpt lat="42.775385" lon="11.2629183"><ele>110.0</ele><time>2026-04-12T07:34:44.986Z</time></trkpt><trkpt lat="42.775315" lon="11.2629583"><ele>109.99999999999999</ele><time>2026-04-12T07:34:46.986Z</time></trkpt><trkpt lat="42.7752533" lon="11.26299"><ele>110.0</ele><time>2026-04-12T07:34:48.986Z</time></trkpt><trkpt lat="42.77519" lon="11.263025"><ele>110.0</ele><time>2026-04-12T07:34:50.987Z</time></trkpt><trkpt lat="42.77512" lon="11.2630467"><ele>110.0</ele><time>2026-04-12T07:34:52.986Z</time></trkpt><trkpt lat="42.775055" lon="11.2630833"><ele>110.0</ele><time>2026-04-12T07:34:54.986Z</time></trkpt><trkpt lat="42.774985" lon="11.2631083"><ele>109.99999999999999</ele><time>2026-04-12T07:34:56.987Z</time></trkpt><trkpt lat="42.77492" lon="11.2631367"><ele>110.0</ele><time>2026-04-12T07:34:58.986Z</time></trkpt><trkpt lat="42.7748567" lon="11.2631683"><ele>110.85714285714285</ele><time>2026-04-12T07:35:00.986Z</time></trkpt><trkpt lat="42.7747917" lon="11.2631917"><ele>111.71428571428572</ele><time>2026-04-12T07:35:02.986Z</time></trkpt><trkpt lat="42.7747233" lon="11.2632233"><ele>112.57142857142858</ele><time>2026-04-12T07:35:04.986Z</time></trkpt><trkpt lat="42.774645" lon="11.2632483"><ele>113.42857142857143</ele><time>2026-04-12T07:35:06.986Z</time></trkpt><trkpt lat="42.7745733" lon="11.2632683"><ele>114.28571428571429</ele><time>2026-04-12T07:35:08.987Z</time></trkpt><trkpt lat="42.7745067" lon="11.2632967"><ele>115.14285714285715</ele><time>2026-04-12T07:35:10.987Z</time></trkpt><trkpt lat="42.7744383" lon="11.2633217"><ele>116.00000000000001</ele><time>2026-04-12T07:35:12.986Z</time></trkpt><trkpt lat="42.7743533" lon="11.26337"><ele>117.00000000000001</ele><time>2026-04-12T07:35:15.987Z</time></trkpt><trkpt lat="42.7742683" lon="11.2634083"><ele>118.0</ele><time>2026-04-12T07:35:18.986Z</time></trkpt><trkpt lat="42.7741983" lon="11.2634233"><ele>119.00000000000001</ele><time>2026-04-12T07:35:20.987Z</time></trkpt><trkpt lat="42.77413" lon="11.2634467"><ele>120.00000000000001</ele><time>2026-04-12T07:35:22.987Z</time></trkpt><trkpt lat="42.7740617" lon="11.263475"><ele>121.0</ele><time>2026-04-12T07:35:24.986Z</time></trkpt><trkpt lat="42.7739933" lon="11.2634867"><ele>122.00000000000001</ele><time>2026-04-12T07:35:26.986Z</time></trkpt><trkpt lat="42.77393" lon="11.2634967"><ele>123.00000000000001</ele><time>2026-04-12T07:35:28.987Z</time></trkpt><trkpt lat="42.7738433" lon="11.2635017"><ele>123.00000000000001</ele><time>2026-04-12T07:35:31.987Z</time></trkpt><trkpt lat="42.7737767" lon="11.2635033"><ele>123.0</ele><time>2026-04-12T07:35:33.987Z</time></trkpt><trkpt lat="42.7737067" lon="11.263515"><ele>123.00000000000001</ele><time>2026-04-12T07:35:35.986Z</time></trkpt><trkpt lat="42.7736383" lon="11.2635267"><ele>123.00000000000001</ele><time>2026-04-12T07:35:37.986Z</time></trkpt><trkpt lat="42.7735733" lon="11.26353"><ele>123.0</ele><time>2026-04-12T07:35:39.987Z</time></trkpt><trkpt lat="42.7735083" lon="11.26354"><ele>123.00000000000001</ele><time>2026-04-12T07:35:41.987Z</time></trkpt><trkpt lat="42.7734117" lon="11.2635533"><ele>123.00000000000001</ele><time>2026-04-12T07:35:44.986Z</time></trkpt><trkpt lat="42.7733467" lon="11.2635467"><ele>123.83333333333333</ele><time>2026-04-12T07:35:46.987Z</time></trkpt><trkpt lat="42.7732767" lon="11.2635517"><ele>124.66666666666666</ele><time>2026-04-12T07:35:48.986Z</time></trkpt><trkpt lat="42.7731933" lon="11.263565"><ele>125.5</ele><time>2026-04-12T07:35:50.986Z</time></trkpt><trkpt lat="42.7731033" lon="11.2635733"><ele>126.33333333333333</ele><time>2026-04-12T07:35:52.986Z</time></trkpt><trkpt lat="42.7730217" lon="11.263585"><ele>127.16666666666666</ele><time>2026-04-12T07:35:54.987Z</time></trkpt><trkpt lat="42.7729433" lon="11.2635933"><ele>128.0</ele><time>2026-04-12T07:35:56.986Z</time></trkpt><trkpt lat="42.772865" lon="11.2635917"><ele>127.99999999999999</ele><time>2026-04-12T07:35:58.986Z</time></trkpt><trkpt lat="42.7727833" lon="11.2636"><ele>128.0</ele><time>2026-04-12T07:36:00.986Z</time></trkpt><trkpt lat="42.7727017" lon="11.2636133"><ele>128.0</ele><time>2026-04-12T07:36:02.986Z</time></trkpt><trkpt lat="42.7726333" lon="11.2636167"><ele>128.0</ele><time>2026-04-12T07:36:04.986Z</time></trkpt><trkpt lat="42.7725517" lon="11.263625"><ele>127.99999999999999</ele><time>2026-04-12T07:36:06.986Z</time></trkpt><trkpt lat="42.7724717" lon="11.2636383"><ele>128.0</ele><time>2026-04-12T07:36:08.986Z</time></trkpt><trkpt lat="42.7723883" lon="11.2636567"><ele>128.5</ele><time>2026-04-12T07:36:10.986Z</time></trkpt><trkpt lat="42.7723083" lon="11.2636717"><ele>129.0</ele><time>2026-04-12T07:36:12.986Z</time></trkpt><trkpt lat="42.7722233" lon="11.2636733"><ele>129.5</ele><time>2026-04-12T07:36:14.987Z</time></trkpt><trkpt lat="42.7721433" lon="11.2636833"><ele>130.0</ele><time>2026-04-12T07:36:16.986Z</time></trkpt><trkpt lat="42.7720667" lon="11.263695"><ele>130.5</ele><time>2026-04-12T07:36:18.986Z</time></trkpt><trkpt lat="42.7719767" lon="11.26371"><ele>131.0</ele><time>2026-04-12T07:36:20.986Z</time></trkpt><trkpt lat="42.7718983" lon="11.2637317"><ele>131.0</ele><time>2026-04-12T07:36:22.986Z</time></trkpt><trkpt lat="42.7718183" lon="11.2637483"><ele>131.0</ele><time>2026-04-12T07:36:24.987Z</time></trkpt><trkpt lat="42.7717283" lon="11.2637767"><ele>131.0</ele><time>2026-04-12T07:36:26.986Z</time></trkpt><trkpt lat="42.7716383" lon="11.263785"><ele>131.0</ele><time>2026-04-12T07:36:28.986Z</time></trkpt><trkpt lat="42.77155" lon="11.2637967"><ele>131.0</ele><time>2026-04-12T07:36:30.986Z</time></trkpt><trkpt lat="42.7714683" lon="11.2638117"><ele>131.0</ele><time>2026-04-12T07:36:32.987Z</time></trkpt><trkpt lat="42.7713983" lon="11.2638183"><ele>131.0</ele><time>2026-04-12T07:36:34.987Z</time></trkpt><trkpt lat="42.7713183" lon="11.263815"><ele>131.0</ele><time>2026-04-12T07:36:36.986Z</time></trkpt><trkpt lat="42.771245" lon="11.263805"><ele>131.0</ele><time>2026-04-12T07:36:38.986Z</time></trkpt><trkpt lat="42.771165" lon="11.2637933"><ele>131.0</ele><time>2026-04-12T07:36:40.987Z</time></trkpt><trkpt lat="42.77108" lon="11.2637733"><ele>131.0</ele><time>2026-04-12T07:36:42.986Z</time></trkpt><trkpt lat="42.7709933" lon="11.2637567"><ele>131.0</ele><time>2026-04-12T07:36:44.986Z</time></trkpt><trkpt lat="42.7709033" lon="11.2637467"><ele>131.2</ele><time>2026-04-12T07:36:46.986Z</time></trkpt><trkpt lat="42.7708133" lon="11.2637183"><ele>131.39999999999998</ele><time>2026-04-12T07:36:48.986Z</time></trkpt><trkpt lat="42.77072" lon="11.26369"><ele>131.6</ele><time>2026-04-12T07:36:50.987Z</time></trkpt><trkpt lat="42.770615" lon="11.2636567"><ele>131.79999999999998</ele><time>2026-04-12T07:36:52.987Z</time></trkpt><trkpt lat="42.7705067" lon="11.2636267"><ele>132.0</ele><time>2026-04-12T07:36:54.986Z</time></trkpt><trkpt lat="42.7703967" lon="11.2635917"><ele>132.0</ele><time>2026-04-12T07:36:56.987Z</time></trkpt><trkpt lat="42.7702717" lon="11.26357"><ele>132.0</ele><time>2026-04-12T07:36:58.986Z</time></trkpt><trkpt lat="42.7702083" lon="11.2635567"><ele>132.0</ele><time>2026-04-12T07:36:59.986Z</time></trkpt><trkpt lat="42.7701433" lon="11.26355"><ele>132.0</ele><time>2026-04-12T07:37:00.986Z</time></trkpt><trkpt lat="42.7700717" lon="11.2635533"><ele>132.0</ele><time>2026-04-12T07:37:01.986Z</time></trkpt><trkpt lat="42.7700033" lon="11.2635517"><ele>132.0</ele><time>2026-04-12T07:37:02.987Z</time></trkpt><trkpt lat="42.7699383" lon="11.2635483"><ele>131.71428571428572</ele><time>2026-04-12T07:37:03.987Z</time></trkpt><trkpt lat="42.769875" lon="11.26355"><ele>131.42857142857144</ele><time>2026-04-12T07:37:04.986Z</time></trkpt><trkpt lat="42.76981" lon="11.263545"><ele>131.14285714285717</ele><time>2026-04-12T07:37:05.986Z</time></trkpt><trkpt lat="42.7697433" lon="11.2635417"><ele>130.85714285714286</ele><time>2026-04-12T07:37:06.986Z</time></trkpt><trkpt lat="42.76968" lon="11.263545"><ele>130.57142857142858</ele><time>2026-04-12T07:37:07.986Z</time></trkpt><trkpt lat="42.7696167" lon="11.2635483"><ele>130.2857142857143</ele><time>2026-04-12T07:37:08.987Z</time></trkpt><trkpt lat="42.7695517" lon="11.2635533"><ele>130.0</ele><time>2026-04-12T07:37:09.986Z</time></trkpt><trkpt lat="42.769435" lon="11.2635533"><ele>130.0</ele><time>2026-04-12T07:37:11.986Z</time></trkpt><trkpt lat="42.7693717" lon="11.2635567"><ele>130.0</ele><time>2026-04-12T07:37:12.986Z</time></trkpt><trkpt lat="42.76925" lon="11.2635617"><ele>130.0</ele><time>2026-04-12T07:37:14.986Z</time></trkpt><trkpt lat="42.76914" lon="11.2635617"><ele>130.0</ele><time>2026-04-12T07:37:16.986Z</time></trkpt><trkpt lat="42.7690267" lon="11.2635617"><ele>130.0</ele><time>2026-04-12T07:37:18.987Z</time></trkpt><trkpt lat="42.7689183" lon="11.2635767"><ele>129.83333333333334</ele><time>2026-04-12T07:37:20.986Z</time></trkpt><trkpt lat="42.76881" lon="11.26357"><ele>129.66666666666669</ele><time>2026-04-12T07:37:22.986Z</time></trkpt><trkpt lat="42.7686817" lon="11.2635783"><ele>129.5</ele><time>2026-04-12T07:37:24.986Z</time></trkpt><trkpt lat="42.7686183" lon="11.26358"><ele>129.33333333333334</ele><time>2026-04-12T07:37:25.986Z</time></trkpt><trkpt lat="42.7685467" lon="11.2635917"><ele>129.16666666666666</ele><time>2026-04-12T07:37:26.986Z</time></trkpt><trkpt lat="42.7684767" lon="11.2635967"><ele>129.0</ele><time>2026-04-12T07:37:27.987Z</time></trkpt><trkpt lat="42.7684067" lon="11.263605"><ele>128.7142857142857</ele><time>2026-04-12T07:37:28.986Z</time></trkpt><trkpt lat="42.7683333" lon="11.26361"><ele>128.42857142857142</ele><time>2026-04-12T07:37:29.986Z</time></trkpt><trkpt lat="42.7682617" lon="11.2636133"><ele>128.14285714285714</ele><time>2026-04-12T07:37:30.986Z</time></trkpt><trkpt lat="42.7681883" lon="11.2636117"><ele>127.85714285714285</ele><time>2026-04-12T07:37:31.986Z</time></trkpt><trkpt lat="42.768115" lon="11.2636067"><ele>127.57142857142856</ele><time>2026-04-12T07:37:32.986Z</time></trkpt><trkpt lat="42.76805" lon="11.263595"><ele>127.28571428571429</ele><time>2026-04-12T07:37:33.986Z</time></trkpt><trkpt lat="42.7679817" lon="11.2635783"><ele>127.0</ele><time>2026-04-12T07:37:34.986Z</time></trkpt><trkpt lat="42.76791" lon="11.26356"><ele>127.0</ele><time>2026-04-12T07:37:35.986Z</time></trkpt><trkpt lat="42.76784" lon="11.2635433"><ele>127.0</ele><time>2026-04-12T07:37:36.986Z</time></trkpt><trkpt lat="42.7677717" lon="11.263525"><ele>127.0</ele><time>2026-04-12T07:37:37.986Z</time></trkpt><trkpt lat="42.7677033" lon="11.2635017"><ele>127.0</ele><time>2026-04-12T07:37:38.986Z</time></trkpt><trkpt lat="42.7676333" lon="11.2634733"><ele>127.0</ele><time>2026-04-12T07:37:39.986Z</time></trkpt><trkpt lat="42.7675567" lon="11.2634417"><ele>127.0</ele><time>2026-04-12T07:37:40.987Z</time></trkpt><trkpt lat="42.76748" lon="11.2634017"><ele>127.0</ele><time>2026-04-12T07:37:41.986Z</time></trkpt><trkpt lat="42.7674" lon="11.26337"><ele>126.39999999999999</ele><time>2026-04-12T07:37:42.987Z</time></trkpt><trkpt lat="42.767315" lon="11.2633383"><ele>125.79999999999998</ele><time>2026-04-12T07:37:43.987Z</time></trkpt><trkpt lat="42.7672267" lon="11.2633033"><ele>125.2</ele><time>2026-04-12T07:37:44.986Z</time></trkpt><trkpt lat="42.767145" lon="11.2632633"><ele>124.6</ele><time>2026-04-12T07:37:45.987Z</time></trkpt><trkpt lat="42.7670583" lon="11.2632233"><ele>124.0</ele><time>2026-04-12T07:37:46.986Z</time></trkpt><trkpt lat="42.766965" lon="11.2631833"><ele>124.0</ele><time>2026-04-12T07:37:47.986Z</time></trkpt><trkpt lat="42.7668733" lon="11.2631433"><ele>124.0</ele><time>2026-04-12T07:37:48.986Z</time></trkpt><trkpt lat="42.7667817" lon="11.2631"><ele>124.0</ele><time>2026-04-12T07:37:49.986Z</time></trkpt><trkpt lat="42.76669" lon="11.2630617"><ele>124.0</ele><time>2026-04-12T07:37:50.986Z</time></trkpt><trkpt lat="42.7666033" lon="11.26303"><ele>124.0</ele><time>2026-04-12T07:37:51.986Z</time></trkpt><trkpt lat="42.76652" lon="11.262995"><ele>121.66666666666667</ele><time>2026-04-12T07:37:52.986Z</time></trkpt><trkpt lat="42.76644" lon="11.2629667"><ele>119.33333333333334</ele><time>2026-04-12T07:37:53.986Z</time></trkpt><trkpt lat="42.7663633" lon="11.2629367"><ele>117.0</ele><time>2026-04-12T07:37:54.987Z</time></trkpt><trkpt lat="42.7662833" lon="11.2629067"><ele>114.66666666666666</ele><time>2026-04-12T07:37:55.987Z</time></trkpt><trkpt lat="42.7662033" lon="11.262875"><ele>112.33333333333333</ele><time>2026-04-12T07:37:56.985Z</time></trkpt><trkpt lat="42.7661233" lon="11.262835"><ele>110.0</ele><time>2026-04-12T07:37:57.986Z</time></trkpt><trkpt lat="42.7660333" lon="11.2628033"><ele>109.99999999999999</ele><time>2026-04-12T07:37:58.986Z</time></trkpt><trkpt lat="42.7659483" lon="11.2627667"><ele>110.0</ele><time>2026-04-12T07:37:59.986Z</time></trkpt><trkpt lat="42.7658617" lon="11.262735"><ele>110.0</ele><time>2026-04-12T07:38:00.986Z</time></trkpt><trkpt lat="42.7657767" lon="11.2627"><ele>110.0</ele><time>2026-04-12T07:38:01.986Z</time></trkpt><trkpt lat="42.7656933" lon="11.2626633"><ele>109.99999999999999</ele><time>2026-04-12T07:38:02.986Z</time></trkpt><trkpt lat="42.765615" lon="11.2626217"><ele>110.0</ele><time>2026-04-12T07:38:03.987Z</time></trkpt><trkpt lat="42.7655367" lon="11.2625833"><ele>109.99999999999999</ele><time>2026-04-12T07:38:04.987Z</time></trkpt><trkpt lat="42.7654567" lon="11.2625417"><ele>110.0</ele><time>2026-04-12T07:38:05.986Z</time></trkpt><trkpt lat="42.7653767" lon="11.2625067"><ele>110.0</ele><time>2026-04-12T07:38:06.987Z</time></trkpt><trkpt lat="42.765295" lon="11.2624667"><ele>110.0</ele><time>2026-04-12T07:38:07.987Z</time></trkpt><trkpt lat="42.7652117" lon="11.2624233"><ele>109.99999999999999</ele><time>2026-04-12T07:38:08.986Z</time></trkpt><trkpt lat="42.7651283" lon="11.2623767"><ele>110.0</ele><time>2026-04-12T07:38:09.986Z</time></trkpt><trkpt lat="42.7650467" lon="11.262335"><ele>109.6</ele><time>2026-04-12T07:38:10.987Z</time></trkpt><trkpt lat="42.76496" lon="11.2622917"><ele>109.2</ele><time>2026-04-12T07:38:11.987Z</time></trkpt><trkpt lat="42.7648733" lon="11.2622517"><ele>108.80000000000001</ele><time>2026-04-12T07:38:12.986Z</time></trkpt><trkpt lat="42.7647883" lon="11.26221"><ele>108.4</ele><time>2026-04-12T07:38:13.986Z</time></trkpt><trkpt lat="42.7646933" lon="11.2621733"><ele>108.0</ele><time>2026-04-12T07:38:14.986Z</time></trkpt><trkpt lat="42.7645933" lon="11.26214"><ele>106.60000000000001</ele><time>2026-04-12T07:38:15.987Z</time></trkpt><trkpt lat="42.7644867" lon="11.2621067"><ele>105.20000000000002</ele><time>2026-04-12T07:38:16.986Z</time></trkpt><trkpt lat="42.7643817" lon="11.26208"><ele>103.8</ele><time>2026-04-12T07:38:17.987Z</time></trkpt><trkpt lat="42.7642717" lon="11.26207"><ele>102.4</ele><time>2026-04-12T07:38:18.986Z</time></trkpt><trkpt lat="42.7641617" lon="11.2620767"><ele>101.0</ele><time>2026-04-12T07:38:19.986Z</time></trkpt><trkpt lat="42.7640483" lon="11.2621017"><ele>99.0</ele><time>2026-04-12T07:38:20.986Z</time></trkpt><trkpt lat="42.763935" lon="11.2621383"><ele>97.0</ele><time>2026-04-12T07:38:21.986Z</time></trkpt><trkpt lat="42.763815" lon="11.2621817"><ele>95.0</ele><time>2026-04-12T07:38:22.987Z</time></trkpt><trkpt lat="42.7637083" lon="11.2622183"><ele>93.0</ele><time>2026-04-12T07:38:23.987Z</time></trkpt><trkpt lat="42.7636017" lon="11.2622567"><ele>93.5</ele><time>2026-04-12T07:38:24.986Z</time></trkpt><trkpt lat="42.7634933" lon="11.262295"><ele>94.0</ele><time>2026-04-12T07:38:25.986Z</time></trkpt><trkpt lat="42.7633833" lon="11.2623417"><ele>94.5</ele><time>2026-04-12T07:38:26.986Z</time></trkpt><trkpt lat="42.7632683" lon="11.2623833"><ele>95.0</ele><time>2026-04-12T07:38:27.986Z</time></trkpt><trkpt lat="42.7631533" lon="11.2624233"><ele>95.0</ele><time>2026-04-12T07:38:28.986Z</time></trkpt><trkpt lat="42.7630483" lon="11.2624733"><ele>95.0</ele><time>2026-04-12T07:38:29.987Z</time></trkpt><trkpt lat="42.7629433" lon="11.26252"><ele>95.0</ele><time>2026-04-12T07:38:30.986Z</time></trkpt><trkpt lat="42.7628433" lon="11.2625517"><ele>95.0</ele><time>2026-04-12T07:38:31.987Z</time></trkpt><trkpt lat="42.7627367" lon="11.2625533"><ele>95.0</ele><time>2026-04-12T07:38:32.986Z</time></trkpt><trkpt lat="42.76263" lon="11.2625083"><ele>94.4</ele><time>2026-04-12T07:38:33.986Z</time></trkpt><trkpt lat="42.76253" lon="11.2624317"><ele>93.8</ele><time>2026-04-12T07:38:34.986Z</time></trkpt><trkpt lat="42.7624433" lon="11.26232"><ele>93.19999999999999</ele><time>2026-04-12T07:38:35.986Z</time></trkpt><trkpt lat="42.7623867" lon="11.2621967"><ele>92.6</ele><time>2026-04-12T07:38:36.986Z</time></trkpt><trkpt lat="42.7623783" lon="11.2620617"><ele>92.0</ele><time>2026-04-12T07:38:37.987Z</time></trkpt><trkpt lat="42.7624133" lon="11.261935"><ele>92.0</ele><time>2026-04-12T07:38:38.986Z</time></trkpt><trkpt lat="42.7624617" lon="11.2618417"><ele>92.0</ele><time>2026-04-12T07:38:39.986Z</time></trkpt><trkpt lat="42.762515" lon="11.2617717"><ele>92.0</ele><time>2026-04-12T07:38:40.986Z</time></trkpt><trkpt lat="42.7625567" lon="11.2617067"><ele>92.0</ele><time>2026-04-12T07:38:41.986Z</time></trkpt><trkpt lat="42.7626017" lon="11.26159"><ele>92.0</ele><time>2026-04-12T07:38:43.986Z</time></trkpt><trkpt lat="42.7626033" lon="11.2614867"><ele>92.0</ele><time>2026-04-12T07:38:45.987Z</time></trkpt><trkpt lat="42.7625417" lon="11.2614067"><ele>93.0</ele><time>2026-04-12T07:38:48.986Z</time></trkpt><trkpt lat="42.7624617" lon="11.2613767"><ele>94.0</ele><time>2026-04-12T07:38:51.986Z</time></trkpt><trkpt lat="42.76238" lon="11.2613317"><ele>95.0</ele><time>2026-04-12T07:38:54.986Z</time></trkpt><trkpt lat="42.7622933" lon="11.2613167"><ele>96.0</ele><time>2026-04-12T07:38:58.986Z</time></trkpt><trkpt lat="42.762225" lon="11.2613"><ele>96.99999999999999</ele><time>2026-04-12T07:39:01.986Z</time></trkpt><trkpt lat="42.7621417" lon="11.2613167"><ele>98.0</ele><time>2026-04-12T07:39:05.986Z</time></trkpt><trkpt lat="42.7620633" lon="11.2613233"><ele>97.99999999999999</ele><time>2026-04-12T07:39:09.986Z</time></trkpt><trkpt lat="42.76198" lon="11.2613167"><ele>98.0</ele><time>2026-04-12T07:39:12.986Z</time></trkpt><trkpt lat="42.7619033" lon="11.261315"><ele>98.0</ele><time>2026-04-12T07:39:15.986Z</time></trkpt><trkpt lat="42.761825" lon="11.2613217"><ele>98.0</ele><time>2026-04-12T07:39:19.986Z</time></trkpt><trkpt lat="42.7617567" lon="11.2613333"><ele>97.99999999999999</ele><time>2026-04-12T07:39:22.986Z</time></trkpt><trkpt lat="42.761685" lon="11.2613383"><ele>98.0</ele><time>2026-04-12T07:39:25.987Z</time></trkpt><trkpt lat="42.7616083" lon="11.2613433"><ele>99.16666666666666</ele><time>2026-04-12T07:39:28.987Z</time></trkpt><trkpt lat="42.761535" lon="11.2613367"><ele>100.33333333333333</ele><time>2026-04-12T07:39:31.986Z</time></trkpt><trkpt lat="42.7614533" lon="11.2613367"><ele>101.5</ele><time>2026-04-12T07:39:35.987Z</time></trkpt><trkpt lat="42.76138" lon="11.2613383"><ele>102.66666666666666</ele><time>2026-04-12T07:39:38.986Z</time></trkpt><trkpt lat="42.7613017" lon="11.261325"><ele>103.83333333333333</ele><time>2026-04-12T07:39:41.986Z</time></trkpt><trkpt lat="42.76124" lon="11.26129"><ele>105.0</ele><time>2026-04-12T07:39:44.986Z</time></trkpt><trkpt lat="42.761165" lon="11.2612333"><ele>105.0</ele><time>2026-04-12T07:39:48.987Z</time></trkpt><trkpt lat="42.7611033" lon="11.26117"><ele>105.0</ele><time>2026-04-12T07:39:52.986Z</time></trkpt><trkpt lat="42.7610517" lon="11.2611167"><ele>105.0</ele><time>2026-04-12T07:39:55.986Z</time></trkpt><trkpt lat="42.761" lon="11.2610533"><ele>105.0</ele><time>2026-04-12T07:39:58.986Z</time></trkpt><trkpt lat="42.760945" lon="11.2609817"><ele>105.0</ele><time>2026-04-12T07:40:01.986Z</time></trkpt><trkpt lat="42.7608833" lon="11.2609283"><ele>105.0</ele><time>2026-04-12T07:40:04.986Z</time></trkpt><trkpt lat="42.760825" lon="11.2608633"><ele>105.0</ele><time>2026-04-12T07:40:07.986Z</time></trkpt><trkpt lat="42.7607633" lon="11.2607933"><ele>106.83333333333333</ele><time>2026-04-12T07:40:10.986Z</time></trkpt><trkpt lat="42.7607083" lon="11.260725"><ele>108.66666666666666</ele><time>2026-04-12T07:40:13.986Z</time></trkpt><trkpt lat="42.7606517" lon="11.2606433"><ele>110.5</ele><time>2026-04-12T07:40:16.986Z</time></trkpt><trkpt lat="42.7605883" lon="11.260575"><ele>112.33333333333333</ele><time>2026-04-12T07:40:19.987Z</time></trkpt><trkpt lat="42.7605233" lon="11.2605133"><ele>114.16666666666666</ele><time>2026-04-12T07:40:22.986Z</time></trkpt><trkpt lat="42.7604517" lon="11.260435"><ele>116.0</ele><time>2026-04-12T07:40:25.986Z</time></trkpt><trkpt lat="42.76038" lon="11.26037"><ele>115.99999999999999</ele><time>2026-04-12T07:40:28.987Z</time></trkpt><trkpt lat="42.7603083" lon="11.2602917"><ele>116.0</ele><time>2026-04-12T07:40:31.986Z</time></trkpt><trkpt lat="42.760245" lon="11.2602133"><ele>116.0</ele><time>2026-04-12T07:40:34.986Z</time></trkpt><trkpt lat="42.7601917" lon="11.2601667"><ele>116.0</ele><time>2026-04-12T07:40:36.986Z</time></trkpt><trkpt lat="42.7601183" lon="11.2600917"><ele>115.99999999999999</ele><time>2026-04-12T07:40:39.986Z</time></trkpt><trkpt lat="42.7600383" lon="11.26002"><ele>116.0</ele><time>2026-04-12T07:40:42.986Z</time></trkpt><trkpt lat="42.759965" lon="11.259955"><ele>117.8</ele><time>2026-04-12T07:40:45.986Z</time></trkpt><trkpt lat="42.759895" lon="11.25988"><ele>119.6</ele><time>2026-04-12T07:40:48.986Z</time></trkpt><trkpt lat="42.75982" lon="11.259805"><ele>121.4</ele><time>2026-04-12T07:40:51.987Z</time></trkpt><trkpt lat="42.759745" lon="11.259735"><ele>123.2</ele><time>2026-04-12T07:40:54.986Z</time></trkpt><trkpt lat="42.7596667" lon="11.2596633"><ele>125.0</ele><time>2026-04-12T07:40:57.986Z</time></trkpt><trkpt lat="42.759595" lon="11.2595983"><ele>125.49999999999999</ele><time>2026-04-12T07:41:00.987Z</time></trkpt><trkpt lat="42.7595367" lon="11.2595167"><ele>126.0</ele><time>2026-04-12T07:41:03.986Z</time></trkpt><trkpt lat="42.759475" lon="11.259455"><ele>126.5</ele><time>2026-04-12T07:41:06.986Z</time></trkpt><trkpt lat="42.7594017" lon="11.259395"><ele>127.0</ele><time>2026-04-12T07:41:09.986Z</time></trkpt><trkpt lat="42.75935" lon="11.2593317"><ele>127.49999999999999</ele><time>2026-04-12T07:41:12.987Z</time></trkpt><trkpt lat="42.7592867" lon="11.259265"><ele>128.0</ele><time>2026-04-12T07:41:15.986Z</time></trkpt><trkpt lat="42.7592233" lon="11.2592167"><ele>128.28571428571428</ele><time>2026-04-12T07:41:18.986Z</time></trkpt><trkpt lat="42.759165" lon="11.2591433"><ele>128.57142857142856</ele><time>2026-04-12T07:41:21.987Z</time></trkpt><trkpt lat="42.7591383" lon="11.2590483"><ele>128.85714285714286</ele><time>2026-04-12T07:41:26.987Z</time></trkpt><trkpt lat="42.75916" lon="11.2589633"><ele>129.14285714285714</ele><time>2026-04-12T07:41:29.986Z</time></trkpt><trkpt lat="42.7590967" lon="11.2590267"><ele>129.42857142857144</ele><time>2026-04-12T07:41:35.986Z</time></trkpt><trkpt lat="42.7590517" lon="11.259115"><ele>129.71428571428572</ele><time>2026-04-12T07:41:37.986Z</time></trkpt><trkpt lat="42.7590167" lon="11.2591967"><ele>130.0</ele><time>2026-04-12T07:41:39.986Z</time></trkpt><trkpt lat="42.75897" lon="11.2593033"><ele>130.0</ele><time>2026-04-12T07:41:42.986Z</time></trkpt><trkpt lat="42.7589467" lon="11.2593883"><ele>130.0</ele><time>2026-04-12T07:41:44.987Z</time></trkpt><trkpt lat="42.758915" lon="11.2594917"><ele>130.0</ele><time>2026-04-12T07:41:47.986Z</time></trkpt><trkpt lat="42.758885" lon="11.2596"><ele>130.0</ele><time>2026-04-12T07:41:50.987Z</time></trkpt><trkpt lat="42.7588617" lon="11.259705"><ele>130.0</ele><time>2026-04-12T07:41:53.986Z</time></trkpt><trkpt lat="42.7588333" lon="11.25981"><ele>130.0</ele><time>2026-04-12T07:41:56.986Z</time></trkpt><trkpt lat="42.7588" lon="11.2599117"><ele>130.33333333333334</ele><time>2026-04-12T07:41:59.986Z</time></trkpt><trkpt lat="42.758765" lon="11.260015"><ele>130.66666666666669</ele><time>2026-04-12T07:42:02.986Z</time></trkpt><trkpt lat="42.7587333" lon="11.2601183"><ele>131.0</ele><time>2026-04-12T07:42:05.986Z</time></trkpt><trkpt lat="42.75869" lon="11.2602117"><ele>131.33333333333334</ele><time>2026-04-12T07:42:08.986Z</time></trkpt><trkpt lat="42.75865" lon="11.2603183"><ele>131.66666666666666</ele><time>2026-04-12T07:42:11.986Z</time></trkpt><trkpt lat="42.7586117" lon="11.2604233"><ele>132.0</ele><time>2026-04-12T07:42:14.986Z</time></trkpt><trkpt lat="42.758565" lon="11.2605117"><ele>132.0</ele><time>2026-04-12T07:42:17.986Z</time></trkpt><trkpt lat="42.7585367" lon="11.260615"><ele>132.0</ele><time>2026-04-12T07:42:20.986Z</time></trkpt><trkpt lat="42.7585033" lon="11.26073"><ele>132.0</ele><time>2026-04-12T07:42:23.986Z</time></trkpt><trkpt lat="42.75848" lon="11.2608117"><ele>132.0</ele><time>2026-04-12T07:42:25.986Z</time></trkpt><trkpt lat="42.7584483" lon="11.26093"><ele>132.0</ele><time>2026-04-12T07:42:28.986Z</time></trkpt><trkpt lat="42.758415" lon="11.2610167"><ele>132.0</ele><time>2026-04-12T07:42:30.986Z</time></trkpt><trkpt lat="42.7583967" lon="11.2611017"><ele>133.16666666666666</ele><time>2026-04-12T07:42:32.986Z</time></trkpt><trkpt lat="42.758375" lon="11.2611867"><ele>134.33333333333334</ele><time>2026-04-12T07:42:34.986Z</time></trkpt><trkpt lat="42.7583433" lon="11.2612817"><ele>135.5</ele><time>2026-04-12T07:42:36.986Z</time></trkpt><trkpt lat="42.75831" lon="11.2613783"><ele>136.66666666666669</ele><time>2026-04-12T07:42:38.986Z</time></trkpt><trkpt lat="42.7582717" lon="11.26148"><ele>137.83333333333334</ele><time>2026-04-12T07:42:40.986Z</time></trkpt><trkpt lat="42.758235" lon="11.2615767"><ele>139.0</ele><time>2026-04-12T07:42:42.986Z</time></trkpt><trkpt lat="42.7582" lon="11.2616733"><ele>139.4</ele><time>2026-04-12T07:42:44.987Z</time></trkpt><trkpt lat="42.7581633" lon="11.2617667"><ele>139.8</ele><time>2026-04-12T07:42:46.986Z</time></trkpt><trkpt lat="42.7581317" lon="11.2618783"><ele>140.2</ele><time>2026-04-12T07:42:48.987Z</time></trkpt><trkpt lat="42.758085" lon="11.2619917"><ele>140.6</ele><time>2026-04-12T07:42:50.987Z</time></trkpt><trkpt lat="42.75804" lon="11.2621167"><ele>141.0</ele><time>2026-04-12T07:42:52.986Z</time></trkpt><trkpt lat="42.758005" lon="11.2622483"><ele>140.5</ele><time>2026-04-12T07:42:54.987Z</time></trkpt><trkpt lat="42.7579483" lon="11.2623833"><ele>140.0</ele><time>2026-04-12T07:42:56.987Z</time></trkpt><trkpt lat="42.7578967" lon="11.2625267"><ele>139.5</ele><time>2026-04-12T07:42:58.986Z</time></trkpt><trkpt lat="42.7578383" lon="11.2626633"><ele>139.0</ele><time>2026-04-12T07:43:00.986Z</time></trkpt><trkpt lat="42.7577917" lon="11.26281"><ele>139.0</ele><time>2026-04-12T07:43:02.986Z</time></trkpt><trkpt lat="42.7577467" lon="11.2629517"><ele>139.0</ele><time>2026-04-12T07:43:04.986Z</time></trkpt><trkpt lat="42.75769" lon="11.2630917"><ele>139.0</ele><time>2026-04-12T07:43:06.986Z</time></trkpt><trkpt lat="42.757635" lon="11.2632367"><ele>139.0</ele><time>2026-04-12T07:43:08.987Z</time></trkpt><trkpt lat="42.7575833" lon="11.2633783"><ele>139.5</ele><time>2026-04-12T07:43:10.987Z</time></trkpt><trkpt lat="42.75753" lon="11.2635033"><ele>140.0</ele><time>2026-04-12T07:43:12.986Z</time></trkpt><trkpt lat="42.7574867" lon="11.2636083"><ele>140.5</ele><time>2026-04-12T07:43:14.987Z</time></trkpt><trkpt lat="42.7574533" lon="11.2636967"><ele>141.0</ele><time>2026-04-12T07:43:16.986Z</time></trkpt><trkpt lat="42.75744" lon="11.2637967"><ele>141.5</ele><time>2026-04-12T07:43:18.986Z</time></trkpt><trkpt lat="42.7574117" lon="11.2638767"><ele>142.0</ele><time>2026-04-12T07:43:20.987Z</time></trkpt><trkpt lat="42.7573867" lon="11.2639667"><ele>142.83333333333334</ele><time>2026-04-12T07:43:22.987Z</time></trkpt><trkpt lat="42.7573667" lon="11.2640817"><ele>143.66666666666669</ele><time>2026-04-12T07:43:25.986Z</time></trkpt><trkpt lat="42.7573517" lon="11.26419"><ele>144.5</ele><time>2026-04-12T07:43:28.986Z</time></trkpt><trkpt lat="42.75735" lon="11.264305"><ele>145.33333333333334</ele><time>2026-04-12T07:43:31.986Z</time></trkpt><trkpt lat="42.7573433" lon="11.26441"><ele>146.16666666666666</ele><time>2026-04-12T07:43:34.986Z</time></trkpt><trkpt lat="42.7573383" lon="11.264515"><ele>147.0</ele><time>2026-04-12T07:43:37.986Z</time></trkpt><trkpt lat="42.7573217" lon="11.2646317"><ele>147.0</ele><time>2026-04-12T07:43:40.987Z</time></trkpt><trkpt lat="42.75729" lon="11.2647367"><ele>147.0</ele><time>2026-04-12T07:43:43.987Z</time></trkpt><trkpt lat="42.7572433" lon="11.2648383"><ele>147.0</ele><time>2026-04-12T07:43:46.986Z</time></trkpt><trkpt lat="42.7571833" lon="11.26492"><ele>147.0</ele><time>2026-04-12T07:43:49.986Z</time></trkpt><trkpt lat="42.75711" lon="11.264965"><ele>147.0</ele><time>2026-04-12T07:43:52.986Z</time></trkpt><trkpt lat="42.75703" lon="11.2649883"><ele>147.0</ele><time>2026-04-12T07:43:55.986Z</time></trkpt><trkpt lat="42.7569667" lon="11.2649967"><ele>146.85714285714286</ele><time>2026-04-12T07:43:57.986Z</time></trkpt><trkpt lat="42.7569" lon="11.265015"><ele>146.71428571428572</ele><time>2026-04-12T07:43:59.986Z</time></trkpt><trkpt lat="42.7568317" lon="11.2650233"><ele>146.57142857142856</ele><time>2026-04-12T07:44:01.986Z</time></trkpt><trkpt lat="42.756765" lon="11.2650433"><ele>146.42857142857144</ele><time>2026-04-12T07:44:03.986Z</time></trkpt><trkpt lat="42.7566933" lon="11.2650567"><ele>146.28571428571428</ele><time>2026-04-12T07:44:05.986Z</time></trkpt><trkpt lat="42.7566233" lon="11.2650767"><ele>146.14285714285714</ele><time>2026-04-12T07:44:07.986Z</time></trkpt><trkpt lat="42.7565633" lon="11.2651033"><ele>146.0</ele><time>2026-04-12T07:44:09.987Z</time></trkpt><trkpt lat="42.7564733" lon="11.26514"><ele>147.85714285714286</ele><time>2026-04-12T07:44:12.987Z</time></trkpt><trkpt lat="42.7564067" lon="11.26517"><ele>149.71428571428572</ele><time>2026-04-12T07:44:14.986Z</time></trkpt><trkpt lat="42.756335" lon="11.2652067"><ele>151.57142857142856</ele><time>2026-04-12T07:44:16.986Z</time></trkpt><trkpt lat="42.7562667" lon="11.26525"><ele>153.42857142857144</ele><time>2026-04-12T07:44:18.986Z</time></trkpt><trkpt lat="42.7562017" lon="11.2652867"><ele>155.2857142857143</ele><time>2026-04-12T07:44:20.986Z</time></trkpt><trkpt lat="42.7561383" lon="11.2653333"><ele>157.14285714285714</ele><time>2026-04-12T07:44:22.986Z</time></trkpt><trkpt lat="42.7560717" lon="11.265385"><ele>159.0</ele><time>2026-04-12T07:44:24.986Z</time></trkpt><trkpt lat="42.7560017" lon="11.2654283"><ele>158.83333333333334</ele><time>2026-04-12T07:44:26.986Z</time></trkpt><trkpt lat="42.75593" lon="11.265465"><ele>158.66666666666666</ele><time>2026-04-12T07:44:28.986Z</time></trkpt><trkpt lat="42.75586" lon="11.265495"><ele>158.5</ele><time>2026-04-12T07:44:30.986Z</time></trkpt><trkpt lat="42.755785" lon="11.2655217"><ele>158.33333333333331</ele><time>2026-04-12T07:44:32.986Z</time></trkpt><trkpt lat="42.7557067" lon="11.2655483"><ele>158.16666666666666</ele><time>2026-04-12T07:44:34.986Z</time></trkpt><trkpt lat="42.7556367" lon="11.2655867"><ele>158.0</ele><time>2026-04-12T07:44:36.986Z</time></trkpt><trkpt lat="42.7555683" lon="11.2656267"><ele>158.0</ele><time>2026-04-12T07:44:38.986Z</time></trkpt><trkpt lat="42.7554967" lon="11.26567"><ele>158.0</ele><time>2026-04-12T07:44:40.987Z</time></trkpt><trkpt lat="42.755425" lon="11.2657217"><ele>158.0</ele><time>2026-04-12T07:44:42.986Z</time></trkpt><trkpt lat="42.7553567" lon="11.26576"><ele>158.0</ele><time>2026-04-12T07:44:44.987Z</time></trkpt><trkpt lat="42.75528" lon="11.2657967"><ele>158.0</ele><time>2026-04-12T07:44:46.986Z</time></trkpt><trkpt lat="42.7552033" lon="11.2658167"><ele>158.0</ele><time>2026-04-12T07:44:48.987Z</time></trkpt><trkpt lat="42.7551217" lon="11.2658283"><ele>159.33333333333331</ele><time>2026-04-12T07:44:50.986Z</time></trkpt><trkpt lat="42.75504" lon="11.26583"><ele>160.66666666666666</ele><time>2026-04-12T07:44:52.986Z</time></trkpt><trkpt lat="42.754955" lon="11.2658133"><ele>162.0</ele><time>2026-04-12T07:44:54.986Z</time></trkpt><trkpt lat="42.7548633" lon="11.2658083"><ele>163.33333333333334</ele><time>2026-04-12T07:44:56.986Z</time></trkpt><trkpt lat="42.75478" lon="11.265805"><ele>164.66666666666669</ele><time>2026-04-12T07:44:58.986Z</time></trkpt><trkpt lat="42.7547" lon="11.265795"><ele>166.0</ele><time>2026-04-12T07:45:00.986Z</time></trkpt><trkpt lat="42.7546233" lon="11.2657933"><ele>166.0</ele><time>2026-04-12T07:45:02.986Z</time></trkpt><trkpt lat="42.7545483" lon="11.2658033"><ele>166.0</ele><time>2026-04-12T07:45:04.986Z</time></trkpt><trkpt lat="42.754475" lon="11.265785"><ele>166.0</ele><time>2026-04-12T07:45:06.986Z</time></trkpt><trkpt lat="42.7543967" lon="11.2657683"><ele>166.0</ele><time>2026-04-12T07:45:08.986Z</time></trkpt><trkpt lat="42.7543133" lon="11.265745"><ele>166.0</ele><time>2026-04-12T07:45:10.986Z</time></trkpt><trkpt lat="42.7542283" lon="11.2657117"><ele>166.0</ele><time>2026-04-12T07:45:12.986Z</time></trkpt><trkpt lat="42.7541367" lon="11.2656783"><ele>165.83333333333334</ele><time>2026-04-12T07:45:14.987Z</time></trkpt><trkpt lat="42.7540483" lon="11.2656367"><ele>165.66666666666669</ele><time>2026-04-12T07:45:16.986Z</time></trkpt><trkpt lat="42.753965" lon="11.2656083"><ele>165.5</ele><time>2026-04-12T07:45:18.987Z</time></trkpt><trkpt lat="42.7538867" lon="11.2655783"><ele>165.33333333333334</ele><time>2026-04-12T07:45:20.986Z</time></trkpt><trkpt lat="42.753815" lon="11.2655567"><ele>165.16666666666666</ele><time>2026-04-12T07:45:22.986Z</time></trkpt><trkpt lat="42.7537367" lon="11.2655283"><ele>165.0</ele><time>2026-04-12T07:45:24.986Z</time></trkpt><trkpt lat="42.753655" lon="11.2654983"><ele>167.4</ele><time>2026-04-12T07:45:26.987Z</time></trkpt><trkpt lat="42.753565" lon="11.2654633"><ele>169.8</ele><time>2026-04-12T07:45:28.986Z</time></trkpt><trkpt lat="42.753475" lon="11.2654217"><ele>172.2</ele><time>2026-04-12T07:45:30.986Z</time></trkpt><trkpt lat="42.7533967" lon="11.2653667"><ele>174.6</ele><time>2026-04-12T07:45:32.986Z</time></trkpt><trkpt lat="42.753315" lon="11.26531"><ele>177.0</ele><time>2026-04-12T07:45:34.986Z</time></trkpt><trkpt lat="42.7532383" lon="11.2652433"><ele>177.0</ele><time>2026-04-12T07:45:36.987Z</time></trkpt><trkpt lat="42.753155" lon="11.2651817"><ele>177.0</ele><time>2026-04-12T07:45:38.986Z</time></trkpt><trkpt lat="42.75307" lon="11.26511"><ele>177.0</ele><time>2026-04-12T07:45:40.987Z</time></trkpt><trkpt lat="42.7529917" lon="11.2650267"><ele>177.0</ele><time>2026-04-12T07:45:42.986Z</time></trkpt><trkpt lat="42.7529117" lon="11.264965"><ele>177.0</ele><time>2026-04-12T07:45:44.986Z</time></trkpt><trkpt lat="42.75283" lon="11.264905"><ele>177.0</ele><time>2026-04-12T07:45:46.986Z</time></trkpt><trkpt lat="42.7527533" lon="11.2648433"><ele>177.0</ele><time>2026-04-12T07:45:48.986Z</time></trkpt><trkpt lat="42.7526667" lon="11.26478"><ele>177.0</ele><time>2026-04-12T07:45:50.986Z</time></trkpt><trkpt lat="42.752585" lon="11.26472"><ele>177.0</ele><time>2026-04-12T07:45:52.986Z</time></trkpt><trkpt lat="42.7525" lon="11.2646633"><ele>177.0</ele><time>2026-04-12T07:45:54.986Z</time></trkpt><trkpt lat="42.752415" lon="11.2645933"><ele>177.0</ele><time>2026-04-12T07:45:56.986Z</time></trkpt><trkpt lat="42.7523317" lon="11.264535"><ele>177.0</ele><time>2026-04-12T07:45:58.986Z</time></trkpt><trkpt lat="42.752255" lon="11.26448"><ele>177.0</ele><time>2026-04-12T07:46:00.986Z</time></trkpt><trkpt lat="42.7521617" lon="11.2644283"><ele>177.0</ele><time>2026-04-12T07:46:02.986Z</time></trkpt><trkpt lat="42.7520733" lon="11.264395"><ele>177.0</ele><time>2026-04-12T07:46:04.986Z</time></trkpt><trkpt lat="42.7519683" lon="11.2643767"><ele>177.0</ele><time>2026-04-12T07:46:06.986Z</time></trkpt><trkpt lat="42.751875" lon="11.26435"><ele>177.0</ele><time>2026-04-12T07:46:08.987Z</time></trkpt><trkpt lat="42.7517817" lon="11.2643433"><ele>177.0</ele><time>2026-04-12T07:46:10.986Z</time></trkpt><trkpt lat="42.7517017" lon="11.2643183"><ele>177.0</ele><time>2026-04-12T07:46:12.986Z</time></trkpt><trkpt lat="42.7516167" lon="11.2643067"><ele>177.0</ele><time>2026-04-12T07:46:14.987Z</time></trkpt><trkpt lat="42.7515317" lon="11.264295"><ele>177.0</ele><time>2026-04-12T07:46:16.986Z</time></trkpt><trkpt lat="42.7514467" lon="11.26428"><ele>175.6</ele><time>2026-04-12T07:46:18.986Z</time></trkpt><trkpt lat="42.751355" lon="11.2642567"><ele>174.2</ele><time>2026-04-12T07:46:20.987Z</time></trkpt><trkpt lat="42.7512683" lon="11.2642433"><ele>172.8</ele><time>2026-04-12T07:46:22.987Z</time></trkpt><trkpt lat="42.7511717" lon="11.2642467"><ele>171.4</ele><time>2026-04-12T07:46:24.986Z</time></trkpt><trkpt lat="42.751085" lon="11.2642867"><ele>170.0</ele><time>2026-04-12T07:46:26.986Z</time></trkpt><trkpt lat="42.7510133" lon="11.26437"><ele>170.0</ele><time>2026-04-12T07:46:28.987Z</time></trkpt><trkpt lat="42.7509717" lon="11.26448"><ele>170.0</ele><time>2026-04-12T07:46:30.986Z</time></trkpt><trkpt lat="42.7509317" lon="11.2646017"><ele>170.0</ele><time>2026-04-12T07:46:32.986Z</time></trkpt><trkpt lat="42.750895" lon="11.264715"><ele>170.0</ele><time>2026-04-12T07:46:34.986Z</time></trkpt><trkpt lat="42.7508583" lon="11.2648267"><ele>170.0</ele><time>2026-04-12T07:46:36.986Z</time></trkpt><trkpt lat="42.7508167" lon="11.2649433"><ele>169.83333333333331</ele><time>2026-04-12T07:46:38.986Z</time></trkpt><trkpt lat="42.7507833" lon="11.2650517"><ele>169.66666666666666</ele><time>2026-04-12T07:46:40.986Z</time></trkpt><trkpt lat="42.75075" lon="11.2651583"><ele>169.5</ele><time>2026-04-12T07:46:42.987Z</time></trkpt><trkpt lat="42.7507167" lon="11.2652717"><ele>169.33333333333334</ele><time>2026-04-12T07:46:44.986Z</time></trkpt><trkpt lat="42.7506833" lon="11.26537"><ele>169.16666666666669</ele><time>2026-04-12T07:46:46.986Z</time></trkpt><trkpt lat="42.7506517" lon="11.265475"><ele>169.0</ele><time>2026-04-12T07:46:48.986Z</time></trkpt><trkpt lat="42.750625" lon="11.2655867"><ele>169.0</ele><time>2026-04-12T07:46:50.986Z</time></trkpt><trkpt lat="42.7505883" lon="11.2656917"><ele>169.0</ele><time>2026-04-12T07:46:52.986Z</time></trkpt><trkpt lat="42.7505483" lon="11.265805"><ele>169.0</ele><time>2026-04-12T07:46:54.986Z</time></trkpt><trkpt lat="42.75051" lon="11.265915"><ele>169.0</ele><time>2026-04-12T07:46:56.987Z</time></trkpt><trkpt lat="42.7504667" lon="11.26601"><ele>169.0</ele><time>2026-04-12T07:46:58.986Z</time></trkpt><trkpt lat="42.75043" lon="11.266115"><ele>169.0</ele><time>2026-04-12T07:47:00.987Z</time></trkpt><trkpt lat="42.750405" lon="11.2662167"><ele>169.0</ele><time>2026-04-12T07:47:02.986Z</time></trkpt><trkpt lat="42.7503783" lon="11.266315"><ele>169.0</ele><time>2026-04-12T07:47:04.986Z</time></trkpt><trkpt lat="42.7503583" lon="11.266405"><ele>169.0</ele><time>2026-04-12T07:47:06.987Z</time></trkpt><trkpt lat="42.7503233" lon="11.2664883"><ele>169.0</ele><time>2026-04-12T07:47:08.987Z</time></trkpt><trkpt lat="42.7502833" lon="11.26657"><ele>169.0</ele><time>2026-04-12T07:47:10.987Z</time></trkpt><trkpt lat="42.7502383" lon="11.266655"><ele>169.0</ele><time>2026-04-12T07:47:12.987Z</time></trkpt><trkpt lat="42.7501967" lon="11.2667417"><ele>169.0</ele><time>2026-04-12T07:47:14.986Z</time></trkpt><trkpt lat="42.7501467" lon="11.2668217"><ele>170.66666666666669</ele><time>2026-04-12T07:47:16.987Z</time></trkpt><trkpt lat="42.7501017" lon="11.26689"><ele>172.33333333333334</ele><time>2026-04-12T07:47:18.986Z</time></trkpt><trkpt lat="42.7500483" lon="11.266965"><ele>174.0</ele><time>2026-04-12T07:47:20.986Z</time></trkpt><trkpt lat="42.7499867" lon="11.267055"><ele>175.66666666666666</ele><time>2026-04-12T07:47:22.986Z</time></trkpt><trkpt lat="42.749915" lon="11.2671417"><ele>177.33333333333331</ele><time>2026-04-12T07:47:24.986Z</time></trkpt><trkpt lat="42.7498517" lon="11.26723"><ele>179.0</ele><time>2026-04-12T07:47:26.986Z</time></trkpt><trkpt lat="42.7497833" lon="11.2673167"><ele>179.0</ele><time>2026-04-12T07:47:28.986Z</time></trkpt><trkpt lat="42.7497183" lon="11.267405"><ele>179.0</ele><time>2026-04-12T07:47:30.986Z</time></trkpt><trkpt lat="42.7496433" lon="11.267495"><ele>179.0</ele><time>2026-04-12T07:47:32.987Z</time></trkpt><trkpt lat="42.74957" lon="11.26759"><ele>179.0</ele><time>2026-04-12T07:47:34.987Z</time></trkpt><trkpt lat="42.7495067" lon="11.2676817"><ele>179.0</ele><time>2026-04-12T07:47:36.986Z</time></trkpt><trkpt lat="42.7494417" lon="11.26776"><ele>179.0</ele><time>2026-04-12T07:47:38.987Z</time></trkpt><trkpt lat="42.7493817" lon="11.267845"><ele>179.0</ele><time>2026-04-12T07:47:40.987Z</time></trkpt><trkpt lat="42.7493167" lon="11.26793"><ele>179.0</ele><time>2026-04-12T07:47:42.986Z</time></trkpt><trkpt lat="42.7492567" lon="11.2680083"><ele>179.0</ele><time>2026-04-12T07:47:44.986Z</time></trkpt><trkpt lat="42.7492067" lon="11.268095"><ele>179.0</ele><time>2026-04-12T07:47:46.987Z</time></trkpt><trkpt lat="42.7491583" lon="11.2681833"><ele>179.0</ele><time>2026-04-12T07:47:48.986Z</time></trkpt><trkpt lat="42.749105" lon="11.2682717"><ele>179.66666666666666</ele><time>2026-04-12T07:47:50.987Z</time></trkpt><trkpt lat="42.7490517" lon="11.2683617"><ele>180.33333333333331</ele><time>2026-04-12T07:47:52.986Z</time></trkpt><trkpt lat="42.7490083" lon="11.268445"><ele>181.0</ele><time>2026-04-12T07:47:54.986Z</time></trkpt><trkpt lat="42.748955" lon="11.2685383"><ele>181.66666666666666</ele><time>2026-04-12T07:47:56.986Z</time></trkpt><trkpt lat="42.74889" lon="11.2686233"><ele>182.33333333333334</ele><time>2026-04-12T07:47:58.987Z</time></trkpt><trkpt lat="42.7488283" lon="11.2687167"><ele>183.0</ele><time>2026-04-12T07:48:00.986Z</time></trkpt><trkpt lat="42.7487717" lon="11.2688033"><ele>183.0</ele><time>2026-04-12T07:48:02.986Z</time></trkpt><trkpt lat="42.748715" lon="11.268895"><ele>183.0</ele><time>2026-04-12T07:48:04.987Z</time></trkpt><trkpt lat="42.7486583" lon="11.26898"><ele>183.0</ele><time>2026-04-12T07:48:06.986Z</time></trkpt><trkpt lat="42.7486017" lon="11.2690783"><ele>183.0</ele><time>2026-04-12T07:48:08.986Z</time></trkpt><trkpt lat="42.7485467" lon="11.2691633"><ele>183.0</ele><time>2026-04-12T07:48:10.986Z</time></trkpt><trkpt lat="42.748495" lon="11.26925"><ele>183.0</ele><time>2026-04-12T07:48:12.986Z</time></trkpt><trkpt lat="42.7484483" lon="11.269335"><ele>183.57142857142858</ele><time>2026-04-12T07:48:14.986Z</time></trkpt><trkpt lat="42.7483967" lon="11.269415"><ele>184.14285714285717</ele><time>2026-04-12T07:48:16.986Z</time></trkpt><trkpt lat="42.7483483" lon="11.26949"><ele>184.71428571428572</ele><time>2026-04-12T07:48:18.986Z</time></trkpt><trkpt lat="42.748305" lon="11.26956"><ele>185.28571428571428</ele><time>2026-04-12T07:48:20.986Z</time></trkpt><trkpt lat="42.74826" lon="11.26962"><ele>185.85714285714286</ele><time>2026-04-12T07:48:22.986Z</time></trkpt><trkpt lat="42.7482183" lon="11.26969"><ele>186.42857142857142</ele><time>2026-04-12T07:48:24.986Z</time></trkpt><trkpt lat="42.7481717" lon="11.2697583"><ele>187.0</ele><time>2026-04-12T07:48:26.986Z</time></trkpt><trkpt lat="42.7481283" lon="11.2698233"><ele>187.16666666666669</ele><time>2026-04-12T07:48:28.986Z</time></trkpt><trkpt lat="42.74809" lon="11.2698917"><ele>187.33333333333334</ele><time>2026-04-12T07:48:30.986Z</time></trkpt><trkpt lat="42.7480283" lon="11.2699817"><ele>187.5</ele><time>2026-04-12T07:48:33.987Z</time></trkpt><trkpt lat="42.747985" lon="11.2700467"><ele>187.66666666666666</ele><time>2026-04-12T07:48:35.987Z</time></trkpt><trkpt lat="42.7479283" lon="11.2701517"><ele>187.83333333333331</ele><time>2026-04-12T07:48:38.987Z</time></trkpt><trkpt lat="42.7478883" lon="11.2702183"><ele>188.0</ele><time>2026-04-12T07:48:40.986Z</time></trkpt><trkpt lat="42.7478333" lon="11.27031"><ele>188.0</ele><time>2026-04-12T07:48:43.986Z</time></trkpt><trkpt lat="42.7477767" lon="11.2704017"><ele>188.0</ele><time>2026-04-12T07:48:46.986Z</time></trkpt><trkpt lat="42.7477317" lon="11.270475"><ele>188.0</ele><time>2026-04-12T07:48:48.986Z</time></trkpt><trkpt lat="42.7476733" lon="11.2705717"><ele>188.0</ele><time>2026-04-12T07:48:51.987Z</time></trkpt><trkpt lat="42.7476233" lon="11.27067"><ele>188.0</ele><time>2026-04-12T07:48:54.986Z</time></trkpt><trkpt lat="42.7475667" lon="11.2707633"><ele>188.0</ele><time>2026-04-12T07:48:57.986Z</time></trkpt><trkpt lat="42.74751" lon="11.2708483"><ele>189.66666666666666</ele><time>2026-04-12T07:49:00.986Z</time></trkpt><trkpt lat="42.74746" lon="11.27094"><ele>191.33333333333331</ele><time>2026-04-12T07:49:03.987Z</time></trkpt><trkpt lat="42.7474217" lon="11.2710467"><ele>193.0</ele><time>2026-04-12T07:49:06.987Z</time></trkpt><trkpt lat="42.7474017" lon="11.2711533"><ele>194.66666666666666</ele><time>2026-04-12T07:49:09.987Z</time></trkpt><trkpt lat="42.7473683" lon="11.2712633"><ele>196.33333333333334</ele><time>2026-04-12T07:49:12.987Z</time></trkpt><trkpt lat="42.7473383" lon="11.27137"><ele>198.0</ele><time>2026-04-12T07:49:15.986Z</time></trkpt><trkpt lat="42.747305" lon="11.271475"><ele>199.0</ele><time>2026-04-12T07:49:18.987Z</time></trkpt><trkpt lat="42.7472883" lon="11.27159"><ele>200.0</ele><time>2026-04-12T07:49:21.986Z</time></trkpt><trkpt lat="42.7472617" lon="11.2716883"><ele>201.0</ele><time>2026-04-12T07:49:24.986Z</time></trkpt><trkpt lat="42.74724" lon="11.2717967"><ele>202.0</ele><time>2026-04-12T07:49:27.986Z</time></trkpt><trkpt lat="42.7472067" lon="11.271895"><ele>203.0</ele><time>2026-04-12T07:49:30.986Z</time></trkpt><trkpt lat="42.7471717" lon="11.27199"><ele>204.0</ele><time>2026-04-12T07:49:33.986Z</time></trkpt><trkpt lat="42.7471433" lon="11.2720933"><ele>204.0</ele><time>2026-04-12T07:49:36.986Z</time></trkpt><trkpt lat="42.7471183" lon="11.2721983"><ele>204.0</ele><time>2026-04-12T07:49:39.986Z</time></trkpt><trkpt lat="42.74709" lon="11.2722917"><ele>204.0</ele><time>2026-04-12T07:49:42.986Z</time></trkpt><trkpt lat="42.7470583" lon="11.27239"><ele>204.0</ele><time>2026-04-12T07:49:45.987Z</time></trkpt><trkpt lat="42.7470317" lon="11.27249"><ele>204.0</ele><time>2026-04-12T07:49:48.986Z</time></trkpt><trkpt lat="42.747" lon="11.2725883"><ele>204.0</ele><time>2026-04-12T07:49:51.986Z</time></trkpt><trkpt lat="42.74697" lon="11.2726867"><ele>204.83333333333334</ele><time>2026-04-12T07:49:54.986Z</time></trkpt><trkpt lat="42.7469267" lon="11.2727917"><ele>205.66666666666669</ele><time>2026-04-12T07:49:57.986Z</time></trkpt><trkpt lat="42.7468767" lon="11.2728867"><ele>206.5</ele><time>2026-04-12T07:50:00.986Z</time></trkpt><trkpt lat="42.7468317" lon="11.2729767"><ele>207.33333333333334</ele><time>2026-04-12T07:50:03.986Z</time></trkpt><trkpt lat="42.74678" lon="11.2730617"><ele>208.16666666666669</ele><time>2026-04-12T07:50:06.986Z</time></trkpt><trkpt lat="42.7467317" lon="11.2731533"><ele>209.0</ele><time>2026-04-12T07:50:09.986Z</time></trkpt><trkpt lat="42.7466817" lon="11.2732433"><ele>210.16666666666669</ele><time>2026-04-12T07:50:12.986Z</time></trkpt><trkpt lat="42.746635" lon="11.2733333"><ele>211.33333333333334</ele><time>2026-04-12T07:50:15.986Z</time></trkpt><trkpt lat="42.7465917" lon="11.2734383"><ele>212.5</ele><time>2026-04-12T07:50:18.987Z</time></trkpt><trkpt lat="42.7465517" lon="11.27355"><ele>213.66666666666669</ele><time>2026-04-12T07:50:21.987Z</time></trkpt><trkpt lat="42.746515" lon="11.273665"><ele>214.83333333333334</ele><time>2026-04-12T07:50:24.987Z</time></trkpt><trkpt lat="42.74649" lon="11.2737467"><ele>216.0</ele><time>2026-04-12T07:50:26.986Z</time></trkpt><trkpt lat="42.7464667" lon="11.273835"><ele>216.0</ele><time>2026-04-12T07:50:28.986Z</time></trkpt><trkpt lat="42.74645" lon="11.273925"><ele>216.0</ele><time>2026-04-12T07:50:30.987Z</time></trkpt><trkpt lat="42.7464267" lon="11.2740233"><ele>216.0</ele><time>2026-04-12T07:50:32.987Z</time></trkpt><trkpt lat="42.7464117" lon="11.2741133"><ele>216.0</ele><time>2026-04-12T07:50:34.986Z</time></trkpt><trkpt lat="42.746405" lon="11.2742083"><ele>216.0</ele><time>2026-04-12T07:50:36.986Z</time></trkpt><trkpt lat="42.746395" lon="11.2743017"><ele>216.0</ele><time>2026-04-12T07:50:38.987Z</time></trkpt><trkpt lat="42.74638" lon="11.2744017"><ele>216.0</ele><time>2026-04-12T07:50:40.986Z</time></trkpt><trkpt lat="42.746365" lon="11.2745017"><ele>216.71428571428572</ele><time>2026-04-12T07:50:42.986Z</time></trkpt><trkpt lat="42.746345" lon="11.2745983"><ele>217.42857142857142</ele><time>2026-04-12T07:50:44.986Z</time></trkpt><trkpt lat="42.7463183" lon="11.27469"><ele>218.14285714285717</ele><time>2026-04-12T07:50:46.986Z</time></trkpt><trkpt lat="42.74628" lon="11.274775"><ele>218.85714285714286</ele><time>2026-04-12T07:50:48.986Z</time></trkpt><trkpt lat="42.7462433" lon="11.2748567"><ele>219.57142857142858</ele><time>2026-04-12T07:50:50.986Z</time></trkpt><trkpt lat="42.7462033" lon="11.2749333"><ele>220.2857142857143</ele><time>2026-04-12T07:50:52.987Z</time></trkpt><trkpt lat="42.746155" lon="11.275"><ele>221.0</ele><time>2026-04-12T07:50:54.986Z</time></trkpt><trkpt lat="42.7461067" lon="11.2750683"><ele>220.85714285714286</ele><time>2026-04-12T07:50:56.986Z</time></trkpt><trkpt lat="42.7460483" lon="11.275125"><ele>220.71428571428572</ele><time>2026-04-12T07:50:58.987Z</time></trkpt><trkpt lat="42.7459817" lon="11.2751717"><ele>220.57142857142856</ele><time>2026-04-12T07:51:00.986Z</time></trkpt><trkpt lat="42.7459133" lon="11.2752083"><ele>220.42857142857144</ele><time>2026-04-12T07:51:02.986Z</time></trkpt><trkpt lat="42.745845" lon="11.2752467"><ele>220.28571428571428</ele><time>2026-04-12T07:51:04.987Z</time></trkpt><trkpt lat="42.7457733" lon="11.27527"><ele>220.14285714285714</ele><time>2026-04-12T07:51:06.986Z</time></trkpt><trkpt lat="42.7457017" lon="11.27529"><ele>220.0</ele><time>2026-04-12T07:51:08.986Z</time></trkpt><trkpt lat="42.7456367" lon="11.27531"><ele>219.99999999999997</ele><time>2026-04-12T07:51:10.987Z</time></trkpt><trkpt lat="42.7455667" lon="11.2753183"><ele>220.0</ele><time>2026-04-12T07:51:12.986Z</time></trkpt><trkpt lat="42.7454967" lon="11.2753233"><ele>220.0</ele><time>2026-04-12T07:51:14.987Z</time></trkpt><trkpt lat="42.745425" lon="11.2753317"><ele>220.0</ele><time>2026-04-12T07:51:16.987Z</time></trkpt><trkpt lat="42.7453567" lon="11.2753417"><ele>220.0</ele><time>2026-04-12T07:51:18.986Z</time></trkpt><trkpt lat="42.7452867" lon="11.2753583"><ele>219.99999999999997</ele><time>2026-04-12T07:51:20.987Z</time></trkpt><trkpt lat="42.7452183" lon="11.2753733"><ele>220.0</ele><time>2026-04-12T07:51:22.986Z</time></trkpt><trkpt lat="42.745145" lon="11.27538"><ele>220.57142857142856</ele><time>2026-04-12T07:51:24.987Z</time></trkpt><trkpt lat="42.7450717" lon="11.275385"><ele>221.14285714285714</ele><time>2026-04-12T07:51:26.986Z</time></trkpt><trkpt lat="42.7450033" lon="11.2753883"><ele>221.71428571428572</ele><time>2026-04-12T07:51:28.986Z</time></trkpt><trkpt lat="42.7449383" lon="11.2754033"><ele>222.28571428571428</ele><time>2026-04-12T07:51:30.987Z</time></trkpt><trkpt lat="42.744865" lon="11.2754183"><ele>222.85714285714286</ele><time>2026-04-12T07:51:32.986Z</time></trkpt><trkpt lat="42.7447933" lon="11.27543"><ele>223.42857142857142</ele><time>2026-04-12T07:51:34.987Z</time></trkpt><trkpt lat="42.7447217" lon="11.2754433"><ele>224.0</ele><time>2026-04-12T07:51:36.986Z</time></trkpt><trkpt lat="42.74465" lon="11.27546"><ele>224.0</ele><time>2026-04-12T07:51:38.987Z</time></trkpt><trkpt lat="42.74458" lon="11.2754817"><ele>224.0</ele><time>2026-04-12T07:51:40.986Z</time></trkpt><trkpt lat="42.7445133" lon="11.2755167"><ele>224.0</ele><time>2026-04-12T07:51:42.986Z</time></trkpt><trkpt lat="42.74445" lon="11.2755517"><ele>224.0</ele><time>2026-04-12T07:51:44.986Z</time></trkpt><trkpt lat="42.7443867" lon="11.2755867"><ele>224.0</ele><time>2026-04-12T07:51:46.986Z</time></trkpt><trkpt lat="42.74432" lon="11.2756333"><ele>224.0</ele><time>2026-04-12T07:51:48.987Z</time></trkpt><trkpt lat="42.74426" lon="11.27567"><ele>224.0</ele><time>2026-04-12T07:51:50.987Z</time></trkpt><trkpt lat="42.7442017" lon="11.2757117"><ele>224.28571428571428</ele><time>2026-04-12T07:51:52.987Z</time></trkpt><trkpt lat="42.744145" lon="11.275755"><ele>224.57142857142856</ele><time>2026-04-12T07:51:54.986Z</time></trkpt><trkpt lat="42.7440883" lon="11.2757933"><ele>224.85714285714286</ele><time>2026-04-12T07:51:56.986Z</time></trkpt><trkpt lat="42.7440233" lon="11.27583"><ele>225.14285714285714</ele><time>2026-04-12T07:51:58.986Z</time></trkpt><trkpt lat="42.7439583" lon="11.2758717"><ele>225.42857142857142</ele><time>2026-04-12T07:52:00.986Z</time></trkpt><trkpt lat="42.7438983" lon="11.2759083"><ele>225.71428571428572</ele><time>2026-04-12T07:52:02.987Z</time></trkpt><trkpt lat="42.74384" lon="11.275955"><ele>226.0</ele><time>2026-04-12T07:52:04.986Z</time></trkpt><trkpt lat="42.7437633" lon="11.2760117"><ele>226.0</ele><time>2026-04-12T07:52:07.986Z</time></trkpt><trkpt lat="42.7437067" lon="11.2760583"><ele>226.0</ele><time>2026-04-12T07:52:09.986Z</time></trkpt><trkpt lat="42.743645" lon="11.2761083"><ele>226.0</ele><time>2026-04-12T07:52:11.987Z</time></trkpt><trkpt lat="42.7435717" lon="11.2761833"><ele>226.0</ele><time>2026-04-12T07:52:14.986Z</time></trkpt><trkpt lat="42.74352" lon="11.276245"><ele>226.0</ele><time>2026-04-12T07:52:16.986Z</time></trkpt><trkpt lat="42.74347" lon="11.2763033"><ele>226.0</ele><time>2026-04-12T07:52:18.986Z</time></trkpt><trkpt lat="42.7434267" lon="11.2763683"><ele>226.0</ele><time>2026-04-12T07:52:20.986Z</time></trkpt><trkpt lat="42.7433683" lon="11.2764617"><ele>227.16666666666666</ele><time>2026-04-12T07:52:23.986Z</time></trkpt><trkpt lat="42.7433167" lon="11.2765633"><ele>228.33333333333331</ele><time>2026-04-12T07:52:26.986Z</time></trkpt><trkpt lat="42.7432783" lon="11.276655"><ele>229.5</ele><time>2026-04-12T07:52:29.987Z</time></trkpt><trkpt lat="42.7432367" lon="11.2767567"><ele>230.66666666666669</ele><time>2026-04-12T07:52:32.987Z</time></trkpt><trkpt lat="42.7431933" lon="11.2768683"><ele>231.83333333333334</ele><time>2026-04-12T07:52:35.986Z</time></trkpt><trkpt lat="42.743155" lon="11.2769817"><ele>233.0</ele><time>2026-04-12T07:52:38.987Z</time></trkpt><trkpt lat="42.7431183" lon="11.2770833"><ele>233.00000000000003</ele><time>2026-04-12T07:52:41.987Z</time></trkpt><trkpt lat="42.7430817" lon="11.2771867"><ele>233.0</ele><time>2026-04-12T07:52:44.986Z</time></trkpt><trkpt lat="42.7430517" lon="11.277305"><ele>233.0</ele><time>2026-04-12T07:52:47.986Z</time></trkpt><trkpt lat="42.7430317" lon="11.2774267"><ele>233.0</ele><time>2026-04-12T07:52:50.987Z</time></trkpt><trkpt lat="42.7430183" lon="11.2775467"><ele>233.00000000000003</ele><time>2026-04-12T07:52:53.986Z</time></trkpt><trkpt lat="42.7430083" lon="11.27767"><ele>233.0</ele><time>2026-04-12T07:52:56.987Z</time></trkpt><trkpt lat="42.743005" lon="11.2777933"><ele>233.16666666666669</ele><time>2026-04-12T07:52:59.987Z</time></trkpt><trkpt lat="42.7430133" lon="11.277915"><ele>233.33333333333334</ele><time>2026-04-12T07:53:02.986Z</time></trkpt><trkpt lat="42.743025" lon="11.2780317"><ele>233.5</ele><time>2026-04-12T07:53:05.986Z</time></trkpt><trkpt lat="42.74302" lon="11.278155"><ele>233.66666666666669</ele><time>2026-04-12T07:53:08.986Z</time></trkpt><trkpt lat="42.7430267" lon="11.278275"><ele>233.83333333333334</ele><time>2026-04-12T07:53:11.986Z</time></trkpt><trkpt lat="42.7430333" lon="11.2783883"><ele>234.0</ele><time>2026-04-12T07:53:14.986Z</time></trkpt><trkpt lat="42.74303" lon="11.2785117"><ele>235.0</ele><time>2026-04-12T07:53:17.986Z</time></trkpt><trkpt lat="42.743015" lon="11.27863"><ele>235.99999999999997</ele><time>2026-04-12T07:53:20.986Z</time></trkpt><trkpt lat="42.7429833" lon="11.2787483"><ele>236.99999999999997</ele><time>2026-04-12T07:53:23.987Z</time></trkpt><trkpt lat="42.7429383" lon="11.2788517"><ele>238.0</ele><time>2026-04-12T07:53:26.986Z</time></trkpt><trkpt lat="42.7428767" lon="11.278945"><ele>239.0</ele><time>2026-04-12T07:53:29.987Z</time></trkpt><trkpt lat="42.742805" lon="11.2790167"><ele>239.00000000000003</ele><time>2026-04-12T07:53:32.986Z</time></trkpt><trkpt lat="42.742735" lon="11.2790833"><ele>239.0</ele><time>2026-04-12T07:53:35.986Z</time></trkpt><trkpt lat="42.7426617" lon="11.2791467"><ele>239.0</ele><time>2026-04-12T07:53:38.986Z</time></trkpt><trkpt lat="42.7426083" lon="11.2791933"><ele>239.0</ele><time>2026-04-12T07:53:40.987Z</time></trkpt><trkpt lat="42.7425283" lon="11.279255"><ele>239.00000000000003</ele><time>2026-04-12T07:53:43.986Z</time></trkpt><trkpt lat="42.7424567" lon="11.2793333"><ele>239.0</ele><time>2026-04-12T07:53:46.986Z</time></trkpt><trkpt lat="42.742405" lon="11.279415"><ele>241.50000000000003</ele><time>2026-04-12T07:53:49.986Z</time></trkpt><trkpt lat="42.7423617" lon="11.2795183"><ele>244.0</ele><time>2026-04-12T07:53:52.986Z</time></trkpt><trkpt lat="42.74232" lon="11.2795867"><ele>246.5</ele><time>2026-04-12T07:53:54.987Z</time></trkpt><trkpt lat="42.7422667" lon="11.2796933"><ele>249.0</ele><time>2026-04-12T07:53:57.986Z</time></trkpt><trkpt lat="42.74223" lon="11.27978"><ele>251.50000000000003</ele><time>2026-04-12T07:53:59.986Z</time></trkpt><trkpt lat="42.74221" lon="11.27987"><ele>254.0</ele><time>2026-04-12T07:54:01.986Z</time></trkpt><trkpt lat="42.742195" lon="11.2799583"><ele>254.0</ele><time>2026-04-12T07:54:03.986Z</time></trkpt><trkpt lat="42.7421783" lon="11.2800467"><ele>254.0</ele><time>2026-04-12T07:54:05.986Z</time></trkpt><trkpt lat="42.7421633" lon="11.2801417"><ele>254.0</ele><time>2026-04-12T07:54:07.986Z</time></trkpt><trkpt lat="42.7421533" lon="11.2802333"><ele>254.0</ele><time>2026-04-12T07:54:09.986Z</time></trkpt><trkpt lat="42.742145" lon="11.2803267"><ele>254.0</ele><time>2026-04-12T07:54:11.987Z</time></trkpt><trkpt lat="42.742145" lon="11.28044"><ele>254.0</ele><time>2026-04-12T07:54:14.986Z</time></trkpt><trkpt lat="42.7421467" lon="11.2805333"><ele>254.0</ele><time>2026-04-12T07:54:16.987Z</time></trkpt><trkpt lat="42.7421517" lon="11.2806233"><ele>255.00000000000003</ele><time>2026-04-12T07:54:18.987Z</time></trkpt><trkpt lat="42.7421483" lon="11.2807167"><ele>256.0</ele><time>2026-04-12T07:54:20.986Z</time></trkpt><trkpt lat="42.742145" lon="11.2808133"><ele>257.0</ele><time>2026-04-12T07:54:22.987Z</time></trkpt><trkpt lat="42.7421283" lon="11.2809067"><ele>258.0</ele><time>2026-04-12T07:54:24.987Z</time></trkpt><trkpt lat="42.7421117" lon="11.2810133"><ele>259.0</ele><time>2026-04-12T07:54:26.986Z</time></trkpt><trkpt lat="42.7420983" lon="11.2811233"><ele>260.0</ele><time>2026-04-12T07:54:28.986Z</time></trkpt><trkpt lat="42.7420933" lon="11.2812367"><ele>260.0</ele><time>2026-04-12T07:54:30.987Z</time></trkpt><trkpt lat="42.7420867" lon="11.2813517"><ele>260.0</ele><time>2026-04-12T07:54:32.987Z</time></trkpt><trkpt lat="42.742075" lon="11.2814567"><ele>260.0</ele><time>2026-04-12T07:54:34.987Z</time></trkpt><trkpt lat="42.7420683" lon="11.2815767"><ele>260.0</ele><time>2026-04-12T07:54:36.986Z</time></trkpt><trkpt lat="42.7420667" lon="11.281695"><ele>260.0</ele><time>2026-04-12T07:54:38.986Z</time></trkpt><trkpt lat="42.7420817" lon="11.281825"><ele>260.0</ele><time>2026-04-12T07:54:40.987Z</time></trkpt><trkpt lat="42.742095" lon="11.2819633"><ele>258.8</ele><time>2026-04-12T07:54:42.986Z</time></trkpt><trkpt lat="42.742125" lon="11.2820967"><ele>257.6</ele><time>2026-04-12T07:54:44.986Z</time></trkpt><trkpt lat="42.7421583" lon="11.2822233"><ele>256.4</ele><time>2026-04-12T07:54:46.987Z</time></trkpt><trkpt lat="42.7422" lon="11.282345"><ele>255.2</ele><time>2026-04-12T07:54:48.986Z</time></trkpt><trkpt lat="42.7422517" lon="11.2824483"><ele>254.0</ele><time>2026-04-12T07:54:50.986Z</time></trkpt><trkpt lat="42.742305" lon="11.2825567"><ele>253.79999999999998</ele><time>2026-04-12T07:54:52.986Z</time></trkpt><trkpt lat="42.742365" lon="11.2826517"><ele>253.59999999999997</ele><time>2026-04-12T07:54:54.987Z</time></trkpt><trkpt lat="42.74242" lon="11.2827717"><ele>253.4</ele><time>2026-04-12T07:54:56.986Z</time></trkpt><trkpt lat="42.742485" lon="11.2828817"><ele>253.2</ele><time>2026-04-12T07:54:58.986Z</time></trkpt><trkpt lat="42.74254" lon="11.2829867"><ele>253.0</ele><time>2026-04-12T07:55:00.986Z</time></trkpt><trkpt lat="42.7425983" lon="11.2830917"><ele>254.16666666666666</ele><time>2026-04-12T07:55:02.986Z</time></trkpt><trkpt lat="42.74265" lon="11.28318"><ele>255.33333333333331</ele><time>2026-04-12T07:55:04.986Z</time></trkpt><trkpt lat="42.7427033" lon="11.283265"><ele>256.5</ele><time>2026-04-12T07:55:06.986Z</time></trkpt><trkpt lat="42.7427483" lon="11.2833633"><ele>257.6666666666667</ele><time>2026-04-12T07:55:08.986Z</time></trkpt><trkpt lat="42.7427883" lon="11.2834633"><ele>258.83333333333337</ele><time>2026-04-12T07:55:10.986Z</time></trkpt><trkpt lat="42.742815" lon="11.2835783"><ele>260.0</ele><time>2026-04-12T07:55:12.986Z</time></trkpt><trkpt lat="42.7428383" lon="11.2836833"><ele>260.33333333333337</ele><time>2026-04-12T07:55:14.987Z</time></trkpt><trkpt lat="42.7428533" lon="11.283785"><ele>260.6666666666667</ele><time>2026-04-12T07:55:16.986Z</time></trkpt><trkpt lat="42.7428617" lon="11.2838967"><ele>261.0</ele><time>2026-04-12T07:55:18.986Z</time></trkpt><trkpt lat="42.7428533" lon="11.2840183"><ele>261.3333333333333</ele><time>2026-04-12T07:55:20.987Z</time></trkpt><trkpt lat="42.7428317" lon="11.28413"><ele>261.66666666666663</ele><time>2026-04-12T07:55:22.986Z</time></trkpt><trkpt lat="42.742795" lon="11.2842267"><ele>262.0</ele><time>2026-04-12T07:55:24.986Z</time></trkpt><trkpt lat="42.74274" lon="11.2843117"><ele>262.3333333333333</ele><time>2026-04-12T07:55:26.986Z</time></trkpt><trkpt lat="42.7426817" lon="11.284395"><ele>262.66666666666663</ele><time>2026-04-12T07:55:28.986Z</time></trkpt><trkpt lat="42.7426167" lon="11.28448"><ele>263.0</ele><time>2026-04-12T07:55:30.986Z</time></trkpt><trkpt lat="42.7425617" lon="11.2845467"><ele>263.3333333333333</ele><time>2026-04-12T07:55:32.986Z</time></trkpt><trkpt lat="42.7425033" lon="11.2846233"><ele>263.6666666666667</ele><time>2026-04-12T07:55:34.986Z</time></trkpt><trkpt lat="42.742445" lon="11.284695"><ele>264.0</ele><time>2026-04-12T07:55:36.986Z</time></trkpt><trkpt lat="42.74239" lon="11.2847767"><ele>265.5</ele><time>2026-04-12T07:55:38.986Z</time></trkpt><trkpt lat="42.74234" lon="11.284855"><ele>267.0</ele><time>2026-04-12T07:55:40.986Z</time></trkpt><trkpt lat="42.742295" lon="11.2849467"><ele>268.5</ele><time>2026-04-12T07:55:42.986Z</time></trkpt><trkpt lat="42.74225" lon="11.2850317"><ele>270.0</ele><time>2026-04-12T07:55:44.987Z</time></trkpt><trkpt lat="42.7422117" lon="11.285125"><ele>271.5</ele><time>2026-04-12T07:55:46.986Z</time></trkpt><trkpt lat="42.742175" lon="11.285215"><ele>273.0</ele><time>2026-04-12T07:55:48.986Z</time></trkpt><trkpt lat="42.7421517" lon="11.2853083"><ele>273.0</ele><time>2026-04-12T07:55:50.987Z</time></trkpt><trkpt lat="42.74212" lon="11.2853967"><ele>273.0</ele><time>2026-04-12T07:55:52.986Z</time></trkpt><trkpt lat="42.7420967" lon="11.2855017"><ele>273.0</ele><time>2026-04-12T07:55:54.986Z</time></trkpt><trkpt lat="42.742065" lon="11.2855983"><ele>273.0</ele><time>2026-04-12T07:55:56.986Z</time></trkpt><trkpt lat="42.7420333" lon="11.2856933"><ele>273.0</ele><time>2026-04-12T07:55:58.987Z</time></trkpt><trkpt lat="42.7419933" lon="11.2857883"><ele>273.0</ele><time>2026-04-12T07:56:00.986Z</time></trkpt><trkpt lat="42.7419617" lon="11.2858867"><ele>273.14285714285717</ele><time>2026-04-12T07:56:02.986Z</time></trkpt><trkpt lat="42.741935" lon="11.28598"><ele>273.2857142857143</ele><time>2026-04-12T07:56:04.986Z</time></trkpt><trkpt lat="42.74189" lon="11.28608"><ele>273.42857142857144</ele><time>2026-04-12T07:56:06.986Z</time></trkpt><trkpt lat="42.7418517" lon="11.2861683"><ele>273.57142857142856</ele><time>2026-04-12T07:56:08.986Z</time></trkpt><trkpt lat="42.741815" lon="11.2862517"><ele>273.7142857142857</ele><time>2026-04-12T07:56:10.986Z</time></trkpt><trkpt lat="42.7417817" lon="11.28633"><ele>273.8571428571429</ele><time>2026-04-12T07:56:12.987Z</time></trkpt><trkpt lat="42.741745" lon="11.28641"><ele>274.0</ele><time>2026-04-12T07:56:14.986Z</time></trkpt><trkpt lat="42.7417133" lon="11.2864933"><ele>275.5</ele><time>2026-04-12T07:56:16.987Z</time></trkpt><trkpt lat="42.7416783" lon="11.286585"><ele>277.0</ele><time>2026-04-12T07:56:18.986Z</time></trkpt><trkpt lat="42.7416433" lon="11.2866617"><ele>278.5</ele><time>2026-04-12T07:56:20.986Z</time></trkpt><trkpt lat="42.7416017" lon="11.2867417"><ele>280.0</ele><time>2026-04-12T07:56:22.986Z</time></trkpt><trkpt lat="42.7415333" lon="11.2868333"><ele>281.5</ele><time>2026-04-12T07:56:25.986Z</time></trkpt><trkpt lat="42.741465" lon="11.28687"><ele>283.0</ele><time>2026-04-12T07:56:27.986Z</time></trkpt><trkpt lat="42.7413967" lon="11.2868817"><ele>283.0</ele><time>2026-04-12T07:56:29.986Z</time></trkpt><trkpt lat="42.7413133" lon="11.28684"><ele>283.0</ele><time>2026-04-12T07:56:32.986Z</time></trkpt><trkpt lat="42.7412567" lon="11.286775"><ele>283.0</ele><time>2026-04-12T07:56:34.987Z</time></trkpt><trkpt lat="42.7412167" lon="11.286705"><ele>283.0</ele><time>2026-04-12T07:56:36.986Z</time></trkpt><trkpt lat="42.741165" lon="11.286605"><ele>283.0</ele><time>2026-04-12T07:56:39.986Z</time></trkpt><trkpt lat="42.741135" lon="11.2865283"><ele>283.0</ele><time>2026-04-12T07:56:41.985Z</time></trkpt><trkpt lat="42.7411183" lon="11.2864417"><ele>283.0</ele><time>2026-04-12T07:56:43.985Z</time></trkpt><trkpt lat="42.741125" lon="11.2863167"><ele>281.7142857142857</ele><time>2026-04-12T07:56:46.985Z</time></trkpt><trkpt lat="42.7411383" lon="11.2861933"><ele>280.42857142857144</ele><time>2026-04-12T07:56:49.986Z</time></trkpt><trkpt lat="42.74115" lon="11.286105"><ele>279.14285714285717</ele><time>2026-04-12T07:56:51.985Z</time></trkpt><trkpt lat="42.741155" lon="11.2860067"><ele>277.8571428571429</ele><time>2026-04-12T07:56:53.985Z</time></trkpt><trkpt lat="42.7411617" lon="11.2859117"><ele>276.57142857142856</ele><time>2026-04-12T07:56:55.985Z</time></trkpt><trkpt lat="42.741165" lon="11.28582"><ele>275.28571428571433</ele><time>2026-04-12T07:56:57.985Z</time></trkpt><trkpt lat="42.7411533" lon="11.2857117"><ele>274.0</ele><time>2026-04-12T07:57:00.986Z</time></trkpt><trkpt lat="42.7411333" lon="11.285585"><ele>272.66666666666663</ele><time>2026-04-12T07:57:03.986Z</time></trkpt><trkpt lat="42.741105" lon="11.2854683"><ele>271.3333333333333</ele><time>2026-04-12T07:57:06.985Z</time></trkpt><trkpt lat="42.7410667" lon="11.2853533"><ele>270.0</ele><time>2026-04-12T07:57:09.985Z</time></trkpt><trkpt lat="42.741045" lon="11.2852567"><ele>268.6666666666667</ele><time>2026-04-12T07:57:11.985Z</time></trkpt><trkpt lat="42.7410283" lon="11.2851517"><ele>267.33333333333337</ele><time>2026-04-12T07:57:13.985Z</time></trkpt><trkpt lat="42.7410033" lon="11.2850717"><ele>266.0</ele><time>2026-04-12T07:57:15.986Z</time></trkpt><trkpt lat="42.7409633" lon="11.2849683"><ele>267.1666666666667</ele><time>2026-04-12T07:57:18.985Z</time></trkpt><trkpt lat="42.7409183" lon="11.2848617"><ele>268.33333333333337</ele><time>2026-04-12T07:57:21.985Z</time></trkpt><trkpt lat="42.7408783" lon="11.2847933"><ele>269.5</ele><time>2026-04-12T07:57:23.985Z</time></trkpt><trkpt lat="42.7408333" lon="11.2847283"><ele>270.6666666666667</ele><time>2026-04-12T07:57:25.985Z</time></trkpt><trkpt lat="42.7407567" lon="11.28467"><ele>271.8333333333333</ele><time>2026-04-12T07:57:28.986Z</time></trkpt><trkpt lat="42.7406883" lon="11.2846617"><ele>273.0</ele><time>2026-04-12T07:57:30.985Z</time></trkpt><trkpt lat="42.74061" lon="11.2846733"><ele>273.0</ele><time>2026-04-12T07:57:33.985Z</time></trkpt><trkpt lat="42.7405417" lon="11.284755"><ele>273.0</ele><time>2026-04-12T07:57:36.985Z</time></trkpt><trkpt lat="42.74051" lon="11.28484"><ele>273.0</ele><time>2026-04-12T07:57:38.985Z</time></trkpt><trkpt lat="42.7404933" lon="11.284925"><ele>273.0</ele><time>2026-04-12T07:57:40.986Z</time></trkpt><trkpt lat="42.7404867" lon="11.285015"><ele>273.0</ele><time>2026-04-12T07:57:42.985Z</time></trkpt><trkpt lat="42.7404833" lon="11.2851017"><ele>273.0</ele><time>2026-04-12T07:57:44.985Z</time></trkpt><trkpt lat="42.7404683" lon="11.2851917"><ele>273.0</ele><time>2026-04-12T07:57:46.986Z</time></trkpt><trkpt lat="42.7404367" lon="11.2852733"><ele>274.14285714285717</ele><time>2026-04-12T07:57:48.985Z</time></trkpt><trkpt lat="42.7403983" lon="11.285345"><ele>275.2857142857143</ele><time>2026-04-12T07:57:50.986Z</time></trkpt><trkpt lat="42.7403483" lon="11.2853983"><ele>276.42857142857144</ele><time>2026-04-12T07:57:52.985Z</time></trkpt><trkpt lat="42.7402883" lon="11.28544"><ele>277.57142857142856</ele><time>2026-04-12T07:57:54.985Z</time></trkpt><trkpt lat="42.7402317" lon="11.2854917"><ele>278.7142857142857</ele><time>2026-04-12T07:57:56.985Z</time></trkpt><trkpt lat="42.7401783" lon="11.2855383"><ele>279.8571428571429</ele><time>2026-04-12T07:57:58.986Z</time></trkpt><trkpt lat="42.7401083" lon="11.2855833"><ele>281.0</ele><time>2026-04-12T07:58:00.985Z</time></trkpt><trkpt lat="42.7400417" lon="11.2856217"><ele>282.7142857142857</ele><time>2026-04-12T07:58:02.986Z</time></trkpt><trkpt lat="42.739975" lon="11.2856683"><ele>284.42857142857144</ele><time>2026-04-12T07:58:04.986Z</time></trkpt><trkpt lat="42.73992" lon="11.2857217"><ele>286.1428571428571</ele><time>2026-04-12T07:58:06.985Z</time></trkpt><trkpt lat="42.7398717" lon="11.285795"><ele>287.8571428571429</ele><time>2026-04-12T07:58:08.986Z</time></trkpt><trkpt lat="42.7398367" lon="11.2858683"><ele>289.57142857142856</ele><time>2026-04-12T07:58:10.985Z</time></trkpt><trkpt lat="42.7398167" lon="11.2859533"><ele>291.2857142857143</ele><time>2026-04-12T07:58:12.985Z</time></trkpt><trkpt lat="42.7398067" lon="11.28604"><ele>293.0</ele><time>2026-04-12T07:58:14.986Z</time></trkpt><trkpt lat="42.7398067" lon="11.2861633"><ele>293.0</ele><time>2026-04-12T07:58:17.985Z</time></trkpt><trkpt lat="42.7398183" lon="11.2862683"><ele>293.0</ele><time>2026-04-12T07:58:19.985Z</time></trkpt><trkpt lat="42.739825" lon="11.2863633"><ele>293.0</ele><time>2026-04-12T07:58:21.985Z</time></trkpt><trkpt lat="42.7398017" lon="11.2864917"><ele>293.0</ele><time>2026-04-12T07:58:24.985Z</time></trkpt><trkpt lat="42.739775" lon="11.2865733"><ele>293.0</ele><time>2026-04-12T07:58:26.986Z</time></trkpt><trkpt lat="42.7397117" lon="11.2866767"><ele>293.0</ele><time>2026-04-12T07:58:29.985Z</time></trkpt><trkpt lat="42.7396667" lon="11.2867683"><ele>294.1428571428571</ele><time>2026-04-12T07:58:31.985Z</time></trkpt><trkpt lat="42.7396367" lon="11.2868567"><ele>295.2857142857143</ele><time>2026-04-12T07:58:33.985Z</time></trkpt><trkpt lat="42.7396233" lon="11.2869483"><ele>296.42857142857144</ele><time>2026-04-12T07:58:35.985Z</time></trkpt><trkpt lat="42.7396333" lon="11.28704"><ele>297.57142857142856</ele><time>2026-04-12T07:58:37.985Z</time></trkpt><trkpt lat="42.7396533" lon="11.2871267"><ele>298.7142857142857</ele><time>2026-04-12T07:58:39.985Z</time></trkpt><trkpt lat="42.7397017" lon="11.2872317"><ele>299.85714285714283</ele><time>2026-04-12T07:58:42.985Z</time></trkpt><trkpt lat="42.7397517" lon="11.287305"><ele>301.0</ele><time>2026-04-12T07:58:44.985Z</time></trkpt><trkpt lat="42.7398083" lon="11.2873817"><ele>301.66666666666663</ele><time>2026-04-12T07:58:46.985Z</time></trkpt><trkpt lat="42.7398667" lon="11.2874617"><ele>302.3333333333333</ele><time>2026-04-12T07:58:48.986Z</time></trkpt><trkpt lat="42.73991" lon="11.28755"><ele>303.0</ele><time>2026-04-12T07:58:50.985Z</time></trkpt><trkpt lat="42.73992" lon="11.2876583"><ele>303.6666666666667</ele><time>2026-04-12T07:58:52.986Z</time></trkpt><trkpt lat="42.7399067" lon="11.28776"><ele>304.33333333333337</ele><time>2026-04-12T07:58:54.985Z</time></trkpt><trkpt lat="42.7398867" lon="11.2878533"><ele>305.0</ele><time>2026-04-12T07:58:56.986Z</time></trkpt><trkpt lat="42.739855" lon="11.2879467"><ele>305.0</ele><time>2026-04-12T07:58:58.986Z</time></trkpt><trkpt lat="42.73984" lon="11.28804"><ele>305.0</ele><time>2026-04-12T07:59:00.985Z</time></trkpt><trkpt lat="42.7398217" lon="11.2881367"><ele>305.0</ele><time>2026-04-12T07:59:02.986Z</time></trkpt><trkpt lat="42.7398083" lon="11.2882383"><ele>305.0</ele><time>2026-04-12T07:59:04.986Z</time></trkpt><trkpt lat="42.7398" lon="11.288345"><ele>305.0</ele><time>2026-04-12T07:59:06.985Z</time></trkpt><trkpt lat="42.7397817" lon="11.2884383"><ele>305.0</ele><time>2026-04-12T07:59:08.985Z</time></trkpt><trkpt lat="42.7397617" lon="11.2885383"><ele>305.0</ele><time>2026-04-12T07:59:10.985Z</time></trkpt><trkpt lat="42.7397467" lon="11.288635"><ele>305.2857142857143</ele><time>2026-04-12T07:59:12.986Z</time></trkpt><trkpt lat="42.73973" lon="11.28873"><ele>305.57142857142856</ele><time>2026-04-12T07:59:14.985Z</time></trkpt><trkpt lat="42.7396983" lon="11.28882"><ele>305.85714285714283</ele><time>2026-04-12T07:59:16.985Z</time></trkpt><trkpt lat="42.7396517" lon="11.2888983"><ele>306.1428571428571</ele><time>2026-04-12T07:59:18.986Z</time></trkpt><trkpt lat="42.7396083" lon="11.2889667"><ele>306.42857142857144</ele><time>2026-04-12T07:59:20.986Z</time></trkpt><trkpt lat="42.73955" lon="11.2890283"><ele>306.71428571428567</ele><time>2026-04-12T07:59:22.986Z</time></trkpt><trkpt lat="42.739485" lon="11.2890617"><ele>307.0</ele><time>2026-04-12T07:59:24.985Z</time></trkpt><trkpt lat="42.7394067" lon="11.2890567"><ele>306.8333333333333</ele><time>2026-04-12T07:59:26.985Z</time></trkpt><trkpt lat="42.73933" lon="11.2890133"><ele>306.66666666666663</ele><time>2026-04-12T07:59:28.986Z</time></trkpt><trkpt lat="42.7392767" lon="11.28894"><ele>306.5</ele><time>2026-04-12T07:59:30.986Z</time></trkpt><trkpt lat="42.7392433" lon="11.2888467"><ele>306.3333333333333</ele><time>2026-04-12T07:59:32.985Z</time></trkpt><trkpt lat="42.7392183" lon="11.2887617"><ele>306.1666666666667</ele><time>2026-04-12T07:59:34.985Z</time></trkpt><trkpt lat="42.739195" lon="11.2886617"><ele>306.0</ele><time>2026-04-12T07:59:36.985Z</time></trkpt><trkpt lat="42.73917" lon="11.28856"><ele>306.0</ele><time>2026-04-12T07:59:38.986Z</time></trkpt><trkpt lat="42.7391217" lon="11.2884767"><ele>306.0</ele><time>2026-04-12T07:59:40.985Z</time></trkpt><trkpt lat="42.7390533" lon="11.28841"><ele>306.0</ele><time>2026-04-12T07:59:42.985Z</time></trkpt><trkpt lat="42.7389817" lon="11.28834"><ele>306.0</ele><time>2026-04-12T07:59:44.985Z</time></trkpt><trkpt lat="42.7389133" lon="11.2882717"><ele>306.0</ele><time>2026-04-12T07:59:46.985Z</time></trkpt><trkpt lat="42.7388417" lon="11.2882167"><ele>306.0</ele><time>2026-04-12T07:59:48.985Z</time></trkpt><trkpt lat="42.7387683" lon="11.288165"><ele>306.0</ele><time>2026-04-12T07:59:50.985Z</time></trkpt><trkpt lat="42.7386783" lon="11.2881417"><ele>306.0</ele><time>2026-04-12T07:59:52.986Z</time></trkpt><trkpt lat="42.7385817" lon="11.2881417"><ele>306.0</ele><time>2026-04-12T07:59:54.985Z</time></trkpt><trkpt lat="42.7384967" lon="11.2881667"><ele>306.0</ele><time>2026-04-12T07:59:56.985Z</time></trkpt><trkpt lat="42.7384317" lon="11.288255"><ele>306.0</ele><time>2026-04-12T07:59:58.986Z</time></trkpt><trkpt lat="42.738385" lon="11.2883733"><ele>306.0</ele><time>2026-04-12T08:00:00.985Z</time></trkpt><trkpt lat="42.738365" lon="11.2885067"><ele>306.0</ele><time>2026-04-12T08:00:02.986Z</time></trkpt><trkpt lat="42.7383633" lon="11.2886383"><ele>306.0</ele><time>2026-04-12T08:00:04.985Z</time></trkpt><trkpt lat="42.7383767" lon="11.2887567"><ele>306.0</ele><time>2026-04-12T08:00:06.985Z</time></trkpt><trkpt lat="42.738395" lon="11.2888733"><ele>306.0</ele><time>2026-04-12T08:00:08.985Z</time></trkpt><trkpt lat="42.7384133" lon="11.28899"><ele>306.8333333333333</ele><time>2026-04-12T08:00:10.985Z</time></trkpt><trkpt lat="42.7384283" lon="11.289095"><ele>307.6666666666667</ele><time>2026-04-12T08:00:12.985Z</time></trkpt><trkpt lat="42.738435" lon="11.28922"><ele>308.5</ele><time>2026-04-12T08:00:14.986Z</time></trkpt><trkpt lat="42.7384383" lon="11.2893333"><ele>309.33333333333337</ele><time>2026-04-12T08:00:16.985Z</time></trkpt><trkpt lat="42.738425" lon="11.2894483"><ele>310.1666666666667</ele><time>2026-04-12T08:00:18.985Z</time></trkpt><trkpt lat="42.7383983" lon="11.2895667"><ele>311.0</ele><time>2026-04-12T08:00:20.985Z</time></trkpt><trkpt lat="42.7383733" lon="11.28969"><ele>312.5</ele><time>2026-04-12T08:00:22.985Z</time></trkpt><trkpt lat="42.7383533" lon="11.2898"><ele>314.0</ele><time>2026-04-12T08:00:24.985Z</time></trkpt><trkpt lat="42.7383133" lon="11.2899083"><ele>315.5</ele><time>2026-04-12T08:00:26.985Z</time></trkpt><trkpt lat="42.7382717" lon="11.2900183"><ele>317.0</ele><time>2026-04-12T08:00:28.985Z</time></trkpt><trkpt lat="42.738215" lon="11.29011"><ele>318.5</ele><time>2026-04-12T08:00:30.985Z</time></trkpt><trkpt lat="42.7381633" lon="11.2901867"><ele>320.0</ele><time>2026-04-12T08:00:32.985Z</time></trkpt><trkpt lat="42.7381017" lon="11.290255"><ele>320.0</ele><time>2026-04-12T08:00:34.985Z</time></trkpt><trkpt lat="42.73802" lon="11.2902867"><ele>320.0</ele><time>2026-04-12T08:00:36.985Z</time></trkpt><trkpt lat="42.7379433" lon="11.2902517"><ele>320.0</ele><time>2026-04-12T08:00:38.986Z</time></trkpt><trkpt lat="42.7378883" lon="11.29017"><ele>320.0</ele><time>2026-04-12T08:00:40.985Z</time></trkpt><trkpt lat="42.7378467" lon="11.2900633"><ele>320.0</ele><time>2026-04-12T08:00:42.985Z</time></trkpt><trkpt lat="42.7378117" lon="11.2899533"><ele>320.0</ele><time>2026-04-12T08:00:44.986Z</time></trkpt><trkpt lat="42.737765" lon="11.28985"><ele>321.2</ele><time>2026-04-12T08:00:46.985Z</time></trkpt><trkpt lat="42.737695" lon="11.28976"><ele>322.4</ele><time>2026-04-12T08:00:48.985Z</time></trkpt><trkpt lat="42.7376233" lon="11.28967"><ele>323.6</ele><time>2026-04-12T08:00:50.985Z</time></trkpt><trkpt lat="42.7375517" lon="11.2895983"><ele>324.8</ele><time>2026-04-12T08:00:52.986Z</time></trkpt><trkpt lat="42.73747" lon="11.289535"><ele>326.0</ele><time>2026-04-12T08:00:54.985Z</time></trkpt><trkpt lat="42.7373833" lon="11.289485"><ele>323.5</ele><time>2026-04-12T08:00:56.985Z</time></trkpt><trkpt lat="42.7372917" lon="11.2894533"><ele>321.0</ele><time>2026-04-12T08:00:58.985Z</time></trkpt><trkpt lat="42.7372067" lon="11.2894333"><ele>318.5</ele><time>2026-04-12T08:01:00.986Z</time></trkpt><trkpt lat="42.737115" lon="11.2894317"><ele>316.0</ele><time>2026-04-12T08:01:02.985Z</time></trkpt><trkpt lat="42.7370267" lon="11.2894517"><ele>313.5</ele><time>2026-04-12T08:01:04.985Z</time></trkpt><trkpt lat="42.7369417" lon="11.2894717"><ele>311.0</ele><time>2026-04-12T08:01:06.985Z</time></trkpt><trkpt lat="42.7368617" lon="11.28951"><ele>311.0</ele><time>2026-04-12T08:01:08.986Z</time></trkpt><trkpt lat="42.73679" lon="11.2895433"><ele>311.0</ele><time>2026-04-12T08:01:10.985Z</time></trkpt><trkpt lat="42.7367317" lon="11.289595"><ele>311.0</ele><time>2026-04-12T08:01:12.985Z</time></trkpt><trkpt lat="42.736665" lon="11.2896583"><ele>311.0</ele><time>2026-04-12T08:01:14.985Z</time></trkpt><trkpt lat="42.7366" lon="11.289745"><ele>311.0</ele><time>2026-04-12T08:01:16.985Z</time></trkpt><trkpt lat="42.736545" lon="11.289825"><ele>311.0</ele><time>2026-04-12T08:01:18.985Z</time></trkpt><trkpt lat="42.7364833" lon="11.28991"><ele>314.0</ele><time>2026-04-12T08:01:20.985Z</time></trkpt><trkpt lat="42.73641" lon="11.289985"><ele>317.0</ele><time>2026-04-12T08:01:22.985Z</time></trkpt><trkpt lat="42.7363433" lon="11.2900567"><ele>320.0</ele><time>2026-04-12T08:01:24.985Z</time></trkpt><trkpt lat="42.7362833" lon="11.29014"><ele>323.0</ele><time>2026-04-12T08:01:26.985Z</time></trkpt><trkpt lat="42.7362267" lon="11.2902233"><ele>326.0</ele><time>2026-04-12T08:01:28.985Z</time></trkpt><trkpt lat="42.7361633" lon="11.2903"><ele>329.0</ele><time>2026-04-12T08:01:30.985Z</time></trkpt><trkpt lat="42.7360967" lon="11.29036"><ele>327.6666666666667</ele><time>2026-04-12T08:01:32.985Z</time></trkpt><trkpt lat="42.73602" lon="11.2904067"><ele>326.33333333333337</ele><time>2026-04-12T08:01:34.985Z</time></trkpt><trkpt lat="42.735935" lon="11.2904567"><ele>325.0</ele><time>2026-04-12T08:01:36.985Z</time></trkpt><trkpt lat="42.7358483" lon="11.2904767"><ele>323.6666666666667</ele><time>2026-04-12T08:01:38.985Z</time></trkpt><trkpt lat="42.7357583" lon="11.2904883"><ele>322.3333333333333</ele><time>2026-04-12T08:01:40.985Z</time></trkpt><trkpt lat="42.7356683" lon="11.2905033"><ele>321.0</ele><time>2026-04-12T08:01:42.985Z</time></trkpt><trkpt lat="42.7355867" lon="11.2905067"><ele>321.0</ele><time>2026-04-12T08:01:44.985Z</time></trkpt><trkpt lat="42.7355017" lon="11.29051"><ele>321.0</ele><time>2026-04-12T08:01:46.985Z</time></trkpt><trkpt lat="42.7354117" lon="11.2905167"><ele>321.0</ele><time>2026-04-12T08:01:48.985Z</time></trkpt><trkpt lat="42.73533" lon="11.290515"><ele>321.0</ele><time>2026-04-12T08:01:50.985Z</time></trkpt><trkpt lat="42.7352617" lon="11.2905067"><ele>321.0</ele><time>2026-04-12T08:01:52.985Z</time></trkpt><trkpt lat="42.735195" lon="11.2904717"><ele>321.0</ele><time>2026-04-12T08:01:54.986Z</time></trkpt><trkpt lat="42.7351217" lon="11.2904283"><ele>322.6666666666667</ele><time>2026-04-12T08:01:56.985Z</time></trkpt><trkpt lat="42.7350567" lon="11.2903567"><ele>324.3333333333333</ele><time>2026-04-12T08:01:58.985Z</time></trkpt><trkpt lat="42.7350083" lon="11.290285"><ele>326.0</ele><time>2026-04-12T08:02:00.986Z</time></trkpt><trkpt lat="42.73494" lon="11.2901983"><ele>327.66666666666663</ele><time>2026-04-12T08:02:03.986Z</time></trkpt><trkpt lat="42.7348767" lon="11.2901933"><ele>329.3333333333333</ele><time>2026-04-12T08:02:05.985Z</time></trkpt><trkpt lat="42.7347883" lon="11.2902317"><ele>331.0</ele><time>2026-04-12T08:02:08.985Z</time></trkpt><trkpt lat="42.7347217" lon="11.2902617"><ele>331.0</ele><time>2026-04-12T08:02:10.986Z</time></trkpt><trkpt lat="42.7346417" lon="11.290285"><ele>331.0</ele><time>2026-04-12T08:02:12.985Z</time></trkpt><trkpt lat="42.7345617" lon="11.2903217"><ele>331.0</ele><time>2026-04-12T08:02:14.985Z</time></trkpt><trkpt lat="42.73447" lon="11.2903867"><ele>331.0</ele><time>2026-04-12T08:02:16.985Z</time></trkpt><trkpt lat="42.7343917" lon="11.29048"><ele>331.0</ele><time>2026-04-12T08:02:18.985Z</time></trkpt><trkpt lat="42.7343267" lon="11.29062"><ele>330.5</ele><time>2026-04-12T08:02:20.985Z</time></trkpt><trkpt lat="42.73427" lon="11.2907583"><ele>330.0</ele><time>2026-04-12T08:02:22.986Z</time></trkpt><trkpt lat="42.7341917" lon="11.290895"><ele>329.5</ele><time>2026-04-12T08:02:24.985Z</time></trkpt><trkpt lat="42.7341533" lon="11.2909633"><ele>329.0</ele><time>2026-04-12T08:02:25.985Z</time></trkpt><trkpt lat="42.73411" lon="11.29104"><ele>328.5</ele><time>2026-04-12T08:02:26.985Z</time></trkpt><trkpt lat="42.7340683" lon="11.2911083"><ele>328.0</ele><time>2026-04-12T08:02:27.985Z</time></trkpt><trkpt lat="42.7340233" lon="11.291185"><ele>328.0</ele><time>2026-04-12T08:02:28.985Z</time></trkpt><trkpt lat="42.733965" lon="11.2912583"><ele>328.0</ele><time>2026-04-12T08:02:29.986Z</time></trkpt><trkpt lat="42.7338933" lon="11.29131"><ele>328.0</ele><time>2026-04-12T08:02:30.985Z</time></trkpt><trkpt lat="42.7338183" lon="11.291345"><ele>328.0</ele><time>2026-04-12T08:02:31.986Z</time></trkpt><trkpt lat="42.733745" lon="11.2913567"><ele>328.0</ele><time>2026-04-12T08:02:32.985Z</time></trkpt><trkpt lat="42.7336667" lon="11.29134"><ele>328.0</ele><time>2026-04-12T08:02:33.985Z</time></trkpt><trkpt lat="42.7335817" lon="11.291305"><ele>327.3333333333333</ele><time>2026-04-12T08:02:34.986Z</time></trkpt><trkpt lat="42.733495" lon="11.2912783"><ele>326.66666666666663</ele><time>2026-04-12T08:02:35.985Z</time></trkpt><trkpt lat="42.7334133" lon="11.2912683"><ele>326.0</ele><time>2026-04-12T08:02:36.986Z</time></trkpt><trkpt lat="42.73334" lon="11.2912933"><ele>325.3333333333333</ele><time>2026-04-12T08:02:37.985Z</time></trkpt><trkpt lat="42.7332783" lon="11.29134"><ele>324.6666666666667</ele><time>2026-04-12T08:02:38.986Z</time></trkpt><trkpt lat="42.7332433" lon="11.29142"><ele>324.0</ele><time>2026-04-12T08:02:39.985Z</time></trkpt><trkpt lat="42.733265" lon="11.2916117"><ele>324.0</ele><time>2026-04-12T08:02:41.985Z</time></trkpt><trkpt lat="42.7333217" lon="11.2917317"><ele>324.0</ele><time>2026-04-12T08:02:42.985Z</time></trkpt><trkpt lat="42.7333533" lon="11.2918667"><ele>324.0</ele><time>2026-04-12T08:02:43.985Z</time></trkpt><trkpt lat="42.73341" lon="11.2920133"><ele>324.0</ele><time>2026-04-12T08:02:44.986Z</time></trkpt><trkpt lat="42.7334217" lon="11.2921483"><ele>324.0</ele><time>2026-04-12T08:02:45.985Z</time></trkpt><trkpt lat="42.7334033" lon="11.2923033"><ele>322.5</ele><time>2026-04-12T08:02:46.985Z</time></trkpt><trkpt lat="42.73337" lon="11.2924267"><ele>321.0</ele><time>2026-04-12T08:02:47.985Z</time></trkpt><trkpt lat="42.7333283" lon="11.2925267"><ele>319.5</ele><time>2026-04-12T08:02:48.985Z</time></trkpt><trkpt lat="42.7332633" lon="11.292605"><ele>318.0</ele><time>2026-04-12T08:02:49.986Z</time></trkpt><trkpt lat="42.733195" lon="11.2926783"><ele>316.5</ele><time>2026-04-12T08:02:50.985Z</time></trkpt><trkpt lat="42.7331317" lon="11.2927517"><ele>315.0</ele><time>2026-04-12T08:02:51.985Z</time></trkpt><trkpt lat="42.73307" lon="11.292845"><ele>315.0</ele><time>2026-04-12T08:02:52.985Z</time></trkpt><trkpt lat="42.733005" lon="11.2929383"><ele>315.0</ele><time>2026-04-12T08:02:53.985Z</time></trkpt><trkpt lat="42.73294" lon="11.2930183"><ele>315.0</ele><time>2026-04-12T08:02:54.985Z</time></trkpt><trkpt lat="42.7328667" lon="11.2930833"><ele>315.0</ele><time>2026-04-12T08:02:55.986Z</time></trkpt><trkpt lat="42.7328" lon="11.2931467"><ele>315.0</ele><time>2026-04-12T08:02:56.986Z</time></trkpt><trkpt lat="42.73274" lon="11.2932267"><ele>315.0</ele><time>2026-04-12T08:02:57.985Z</time></trkpt><trkpt lat="42.7326883" lon="11.2933283"><ele>316.0</ele><time>2026-04-12T08:02:58.985Z</time></trkpt><trkpt lat="42.7326467" lon="11.2934317"><ele>317.0</ele><time>2026-04-12T08:02:59.985Z</time></trkpt><trkpt lat="42.73261" lon="11.2935417"><ele>318.0</ele><time>2026-04-12T08:03:00.985Z</time></trkpt><trkpt lat="42.7325733" lon="11.2936483"><ele>319.0</ele><time>2026-04-12T08:03:01.986Z</time></trkpt><trkpt lat="42.732525" lon="11.2937483"><ele>320.0</ele><time>2026-04-12T08:03:02.985Z</time></trkpt><trkpt lat="42.7324717" lon="11.29384"><ele>321.0</ele><time>2026-04-12T08:03:03.985Z</time></trkpt><trkpt lat="42.7324217" lon="11.29393"><ele>318.1666666666667</ele><time>2026-04-12T08:03:04.985Z</time></trkpt><trkpt lat="42.7323733" lon="11.2940083"><ele>315.3333333333333</ele><time>2026-04-12T08:03:05.985Z</time></trkpt><trkpt lat="42.7323317" lon="11.294095"><ele>312.5</ele><time>2026-04-12T08:03:06.985Z</time></trkpt><trkpt lat="42.7322817" lon="11.294185"><ele>309.66666666666663</ele><time>2026-04-12T08:03:07.986Z</time></trkpt><trkpt lat="42.7322333" lon="11.2942783"><ele>306.8333333333333</ele><time>2026-04-12T08:03:08.985Z</time></trkpt><trkpt lat="42.732195" lon="11.2943717"><ele>304.0</ele><time>2026-04-12T08:03:09.986Z</time></trkpt><trkpt lat="42.7321533" lon="11.2944767"><ele>304.0</ele><time>2026-04-12T08:03:10.985Z</time></trkpt><trkpt lat="42.7321133" lon="11.294585"><ele>304.0</ele><time>2026-04-12T08:03:11.985Z</time></trkpt><trkpt lat="42.732085" lon="11.29469"><ele>304.0</ele><time>2026-04-12T08:03:12.985Z</time></trkpt><trkpt lat="42.7320483" lon="11.2948"><ele>304.0</ele><time>2026-04-12T08:03:13.985Z</time></trkpt><trkpt lat="42.7320067" lon="11.2949033"><ele>304.0</ele><time>2026-04-12T08:03:14.985Z</time></trkpt><trkpt lat="42.7319717" lon="11.2950017"><ele>304.0</ele><time>2026-04-12T08:03:15.985Z</time></trkpt><trkpt lat="42.7319467" lon="11.2950983"><ele>304.66666666666663</ele><time>2026-04-12T08:03:16.985Z</time></trkpt><trkpt lat="42.7319433" lon="11.295185"><ele>305.3333333333333</ele><time>2026-04-12T08:03:17.985Z</time></trkpt><trkpt lat="42.73201" lon="11.2953317"><ele>306.0</ele><time>2026-04-12T08:03:19.985Z</time></trkpt><trkpt lat="42.7320767" lon="11.2953567"><ele>306.6666666666667</ele><time>2026-04-12T08:03:20.986Z</time></trkpt><trkpt lat="42.7321583" lon="11.2953217"><ele>307.33333333333337</ele><time>2026-04-12T08:03:21.985Z</time></trkpt><trkpt lat="42.73224" lon="11.295265"><ele>308.0</ele><time>2026-04-12T08:03:22.985Z</time></trkpt><trkpt lat="42.7323083" lon="11.2952217"><ele>308.0</ele><time>2026-04-12T08:03:23.986Z</time></trkpt><trkpt lat="42.732375" lon="11.295185"><ele>308.0</ele><time>2026-04-12T08:03:24.986Z</time></trkpt><trkpt lat="42.7324617" lon="11.2951233"><ele>308.0</ele><time>2026-04-12T08:03:26.986Z</time></trkpt><trkpt lat="42.73254" lon="11.2950833"><ele>308.0</ele><time>2026-04-12T08:03:28.986Z</time></trkpt><trkpt lat="42.73262" lon="11.2950433"><ele>308.0</ele><time>2026-04-12T08:03:30.985Z</time></trkpt><trkpt lat="42.73269" lon="11.2950133"><ele>308.0</ele><time>2026-04-12T08:03:32.985Z</time></trkpt><trkpt lat="42.7327517" lon="11.294985"><ele>309.83333333333337</ele><time>2026-04-12T08:03:34.985Z</time></trkpt><trkpt lat="42.7328167" lon="11.29497"><ele>311.6666666666667</ele><time>2026-04-12T08:03:36.986Z</time></trkpt><trkpt lat="42.7328917" lon="11.29496"><ele>313.5</ele><time>2026-04-12T08:03:39.985Z</time></trkpt><trkpt lat="42.7329733" lon="11.29493"><ele>315.3333333333333</ele><time>2026-04-12T08:03:42.985Z</time></trkpt><trkpt lat="42.7330583" lon="11.294915"><ele>317.16666666666663</ele><time>2026-04-12T08:03:45.986Z</time></trkpt><trkpt lat="42.7331383" lon="11.2948767"><ele>319.0</ele><time>2026-04-12T08:03:48.985Z</time></trkpt><trkpt lat="42.7332183" lon="11.2948483"><ele>319.0</ele><time>2026-04-12T08:03:51.985Z</time></trkpt><trkpt lat="42.73329" lon="11.2948217"><ele>319.0</ele><time>2026-04-12T08:03:54.985Z</time></trkpt><trkpt lat="42.7333567" lon="11.294765"><ele>319.0</ele><time>2026-04-12T08:03:57.985Z</time></trkpt><trkpt lat="42.7334167" lon="11.2946917"><ele>319.0</ele><time>2026-04-12T08:04:00.986Z</time></trkpt><trkpt lat="42.7334933" lon="11.2946167"><ele>319.0</ele><time>2026-04-12T08:04:03.985Z</time></trkpt><trkpt lat="42.7335667" lon="11.2945383"><ele>319.0</ele><time>2026-04-12T08:04:06.985Z</time></trkpt><trkpt lat="42.7336267" lon="11.2945067"><ele>317.2857142857143</ele><time>2026-04-12T08:04:08.985Z</time></trkpt><trkpt lat="42.7337" lon="11.294505"><ele>315.57142857142856</ele><time>2026-04-12T08:04:11.985Z</time></trkpt><trkpt lat="42.7337483" lon="11.2945633"><ele>313.85714285714283</ele><time>2026-04-12T08:04:14.986Z</time></trkpt><trkpt lat="42.7337533" lon="11.2946633"><ele>312.1428571428571</ele><time>2026-04-12T08:04:17.985Z</time></trkpt><trkpt lat="42.7337567" lon="11.294765"><ele>310.42857142857144</ele><time>2026-04-12T08:04:20.986Z</time></trkpt><trkpt lat="42.7337533" lon="11.2948683"><ele>308.71428571428567</ele><time>2026-04-12T08:04:23.985Z</time></trkpt><trkpt lat="42.7337283" lon="11.29496"><ele>307.0</ele><time>2026-04-12T08:04:26.985Z</time></trkpt><trkpt lat="42.733715" lon="11.29508"><ele>307.0</ele><time>2026-04-12T08:04:29.985Z</time></trkpt><trkpt lat="42.7337183" lon="11.2951817"><ele>307.0</ele><time>2026-04-12T08:04:32.986Z</time></trkpt><trkpt lat="42.7337267" lon="11.2952983"><ele>307.0</ele><time>2026-04-12T08:04:36.985Z</time></trkpt><trkpt lat="42.733745" lon="11.295385"><ele>307.0</ele><time>2026-04-12T08:04:39.985Z</time></trkpt><trkpt lat="42.7337833" lon="11.2954583"><ele>307.0</ele><time>2026-04-12T08:04:42.985Z</time></trkpt><trkpt lat="42.7338583" lon="11.295515"><ele>307.0</ele><time>2026-04-12T08:04:46.986Z</time></trkpt><trkpt lat="42.7339467" lon="11.2955233"><ele>306.99999999999994</ele><time>2026-04-12T08:04:49.986Z</time></trkpt><trkpt lat="42.734035" lon="11.29551"><ele>307.0</ele><time>2026-04-12T08:04:52.985Z</time></trkpt><trkpt lat="42.7340983" lon="11.295525"><ele>307.0</ele><time>2026-04-12T08:04:54.986Z</time></trkpt><trkpt lat="42.7341683" lon="11.29555"><ele>307.0</ele><time>2026-04-12T08:04:56.985Z</time></trkpt><trkpt lat="42.7342283" lon="11.2955917"><ele>307.0</ele><time>2026-04-12T08:04:58.985Z</time></trkpt><trkpt lat="42.73429" lon="11.2956467"><ele>306.99999999999994</ele><time>2026-04-12T08:05:00.986Z</time></trkpt><trkpt lat="42.7343417" lon="11.2957217"><ele>307.0</ele><time>2026-04-12T08:05:02.985Z</time></trkpt><trkpt lat="42.73439" lon="11.2957967"><ele>308.57142857142856</ele><time>2026-04-12T08:05:04.985Z</time></trkpt><trkpt lat="42.73444" lon="11.2958583"><ele>310.1428571428571</ele><time>2026-04-12T08:05:06.985Z</time></trkpt><trkpt lat="42.7344733" lon="11.2959417"><ele>311.71428571428567</ele><time>2026-04-12T08:05:08.986Z</time></trkpt><trkpt lat="42.734535" lon="11.296025"><ele>313.2857142857143</ele><time>2026-04-12T08:05:11.985Z</time></trkpt><trkpt lat="42.7345967" lon="11.29607"><ele>314.8571428571429</ele><time>2026-04-12T08:05:13.986Z</time></trkpt><trkpt lat="42.7346683" lon="11.2961"><ele>316.4285714285714</ele><time>2026-04-12T08:05:15.985Z</time></trkpt><trkpt lat="42.7347433" lon="11.296095"><ele>318.0</ele><time>2026-04-12T08:05:17.985Z</time></trkpt><trkpt lat="42.7348217" lon="11.296065"><ele>318.0</ele><time>2026-04-12T08:05:19.985Z</time></trkpt><trkpt lat="42.734895" lon="11.29603"><ele>318.0</ele><time>2026-04-12T08:05:21.985Z</time></trkpt><trkpt lat="42.734965" lon="11.2960067"><ele>318.0</ele><time>2026-04-12T08:05:23.985Z</time></trkpt><trkpt lat="42.7350383" lon="11.2959733"><ele>318.0</ele><time>2026-04-12T08:05:25.986Z</time></trkpt><trkpt lat="42.7351167" lon="11.2959333"><ele>318.0</ele><time>2026-04-12T08:05:27.985Z</time></trkpt><trkpt lat="42.7352" lon="11.2959017"><ele>318.0</ele><time>2026-04-12T08:05:29.985Z</time></trkpt><trkpt lat="42.7352767" lon="11.2958583"><ele>318.6666666666667</ele><time>2026-04-12T08:05:31.986Z</time></trkpt><trkpt lat="42.735355" lon="11.295825"><ele>319.3333333333333</ele><time>2026-04-12T08:05:33.985Z</time></trkpt><trkpt lat="42.7354367" lon="11.2957983"><ele>320.0</ele><time>2026-04-12T08:05:35.985Z</time></trkpt><trkpt lat="42.735525" lon="11.2957767"><ele>320.66666666666663</ele><time>2026-04-12T08:05:37.986Z</time></trkpt><trkpt lat="42.7356133" lon="11.2957667"><ele>321.3333333333333</ele><time>2026-04-12T08:05:39.986Z</time></trkpt><trkpt lat="42.7357067" lon="11.2957667"><ele>322.0</ele><time>2026-04-12T08:05:41.985Z</time></trkpt><trkpt lat="42.735785" lon="11.2957883"><ele>322.0</ele><time>2026-04-12T08:05:43.985Z</time></trkpt><trkpt lat="42.7358617" lon="11.2958317"><ele>322.0</ele><time>2026-04-12T08:05:45.985Z</time></trkpt><trkpt lat="42.7359317" lon="11.2958933"><ele>322.0</ele><time>2026-04-12T08:05:47.985Z</time></trkpt><trkpt lat="42.7359917" lon="11.2959633"><ele>322.0</ele><time>2026-04-12T08:05:49.986Z</time></trkpt><trkpt lat="42.73605" lon="11.2960567"><ele>322.0</ele><time>2026-04-12T08:05:51.986Z</time></trkpt><trkpt lat="42.7360933" lon="11.296125"><ele>322.0</ele><time>2026-04-12T08:05:53.985Z</time></trkpt><trkpt lat="42.7361333" lon="11.2961983"><ele>320.57142857142856</ele><time>2026-04-12T08:05:55.985Z</time></trkpt><trkpt lat="42.736185" lon="11.2962817"><ele>319.1428571428571</ele><time>2026-04-12T08:05:57.986Z</time></trkpt><trkpt lat="42.7362333" lon="11.2963483"><ele>317.7142857142857</ele><time>2026-04-12T08:05:59.985Z</time></trkpt><trkpt lat="42.73628" lon="11.2964233"><ele>316.2857142857143</ele><time>2026-04-12T08:06:01.986Z</time></trkpt><trkpt lat="42.7363167" lon="11.2965133"><ele>314.85714285714283</ele><time>2026-04-12T08:06:03.985Z</time></trkpt><trkpt lat="42.7363567" lon="11.2966067"><ele>313.42857142857144</ele><time>2026-04-12T08:06:05.986Z</time></trkpt><trkpt lat="42.7363867" lon="11.2966933"><ele>312.0</ele><time>2026-04-12T08:06:07.985Z</time></trkpt><trkpt lat="42.7364033" lon="11.296785"><ele>312.0</ele><time>2026-04-12T08:06:09.986Z</time></trkpt><trkpt lat="42.7364167" lon="11.2968783"><ele>312.0</ele><time>2026-04-12T08:06:11.985Z</time></trkpt><trkpt lat="42.736435" lon="11.2969967"><ele>312.0</ele><time>2026-04-12T08:06:14.986Z</time></trkpt><trkpt lat="42.7364533" lon="11.2971033"><ele>312.0</ele><time>2026-04-12T08:06:18.985Z</time></trkpt><trkpt lat="42.7364567" lon="11.2972033"><ele>312.0</ele><time>2026-04-12T08:06:21.985Z</time></trkpt><trkpt lat="42.7364817" lon="11.2973183"><ele>312.0</ele><time>2026-04-12T08:06:24.985Z</time></trkpt><trkpt lat="42.73651" lon="11.2974333"><ele>314.6666666666667</ele><time>2026-04-12T08:06:27.985Z</time></trkpt><trkpt lat="42.7365283" lon="11.297535"><ele>317.3333333333333</ele><time>2026-04-12T08:06:30.985Z</time></trkpt><trkpt lat="42.736545" lon="11.2976317"><ele>320.0</ele><time>2026-04-12T08:06:33.986Z</time></trkpt><trkpt lat="42.736555" lon="11.2977533"><ele>322.66666666666663</ele><time>2026-04-12T08:06:37.985Z</time></trkpt><trkpt lat="42.7365533" lon="11.297845"><ele>325.3333333333333</ele><time>2026-04-12T08:06:40.985Z</time></trkpt><trkpt lat="42.73658" lon="11.2979483"><ele>328.0</ele><time>2026-04-12T08:06:43.986Z</time></trkpt><trkpt lat="42.736595" lon="11.2980483"><ele>328.5</ele><time>2026-04-12T08:06:47.985Z</time></trkpt><trkpt lat="42.736615" lon="11.2981317"><ele>329.0</ele><time>2026-04-12T08:06:52.986Z</time></trkpt><trkpt lat="42.7366683" lon="11.298185"><ele>329.5</ele><time>2026-04-12T08:07:36.985Z</time></trkpt><trkpt lat="42.7367333" lon="11.298195"><ele>330.0</ele><time>2026-04-12T08:07:38.985Z</time></trkpt><trkpt lat="42.736815" lon="11.2981867"><ele>330.5</ele><time>2026-04-12T08:07:40.985Z</time></trkpt><trkpt lat="42.7368983" lon="11.298205"><ele>331.0</ele><time>2026-04-12T08:07:42.985Z</time></trkpt><trkpt lat="42.7369883" lon="11.2982333"><ele>331.0</ele><time>2026-04-12T08:07:44.985Z</time></trkpt><trkpt lat="42.7370333" lon="11.2983433"><ele>331.0</ele><time>2026-04-12T08:07:46.985Z</time></trkpt><trkpt lat="42.7370017" lon="11.2984817"><ele>331.0</ele><time>2026-04-12T08:07:48.985Z</time></trkpt><trkpt lat="42.73697" lon="11.2985617"><ele>331.0</ele><time>2026-04-12T08:07:49.985Z</time></trkpt><trkpt lat="42.7369483" lon="11.29873"><ele>331.0</ele><time>2026-04-12T08:07:51.985Z</time></trkpt><trkpt lat="42.7369733" lon="11.29886"><ele>330.20000000000005</ele><time>2026-04-12T08:07:53.985Z</time></trkpt><trkpt lat="42.737055" lon="11.2989517"><ele>329.40000000000003</ele><time>2026-04-12T08:07:55.985Z</time></trkpt><trkpt lat="42.7371317" lon="11.29905"><ele>328.6</ele><time>2026-04-12T08:07:57.985Z</time></trkpt><trkpt lat="42.7372017" lon="11.2991817"><ele>327.8</ele><time>2026-04-12T08:07:59.985Z</time></trkpt><trkpt lat="42.7372317" lon="11.2992583"><ele>327.0</ele><time>2026-04-12T08:08:00.985Z</time></trkpt><trkpt lat="42.737285" lon="11.2993533"><ele>327.0</ele><time>2026-04-12T08:08:02.985Z</time></trkpt><trkpt lat="42.7373417" lon="11.29943"><ele>327.0</ele><time>2026-04-12T08:08:04.985Z</time></trkpt><trkpt lat="42.7374017" lon="11.2995083"><ele>327.0</ele><time>2026-04-12T08:08:06.985Z</time></trkpt><trkpt lat="42.73747" lon="11.2995817"><ele>327.0</ele><time>2026-04-12T08:08:08.985Z</time></trkpt><trkpt lat="42.73756" lon="11.29961"><ele>327.0</ele><time>2026-04-12T08:08:10.985Z</time></trkpt><trkpt lat="42.73766" lon="11.2996533"><ele>327.0</ele><time>2026-04-12T08:08:12.985Z</time></trkpt><trkpt lat="42.7377717" lon="11.2997283"><ele>323.7142857142857</ele><time>2026-04-12T08:08:14.985Z</time></trkpt><trkpt lat="42.7378283" lon="11.2997733"><ele>320.42857142857144</ele><time>2026-04-12T08:08:15.985Z</time></trkpt><trkpt lat="42.7378733" lon="11.2998483"><ele>317.1428571428571</ele><time>2026-04-12T08:08:16.985Z</time></trkpt><trkpt lat="42.7379133" lon="11.2999383"><ele>313.8571428571429</ele><time>2026-04-12T08:08:17.986Z</time></trkpt><trkpt lat="42.7379333" lon="11.3000333"><ele>310.5714285714286</ele><time>2026-04-12T08:08:18.985Z</time></trkpt><trkpt lat="42.7379517" lon="11.3001317"><ele>307.2857142857143</ele><time>2026-04-12T08:08:19.985Z</time></trkpt><trkpt lat="42.737965" lon="11.3002483"><ele>304.0</ele><time>2026-04-12T08:08:20.985Z</time></trkpt><trkpt lat="42.7379767" lon="11.3003767"><ele>304.0</ele><time>2026-04-12T08:08:21.986Z</time></trkpt><trkpt lat="42.73799" lon="11.3004983"><ele>304.0</ele><time>2026-04-12T08:08:22.985Z</time></trkpt><trkpt lat="42.7380067" lon="11.3006083"><ele>304.0</ele><time>2026-04-12T08:08:23.985Z</time></trkpt><trkpt lat="42.7380233" lon="11.30072"><ele>304.0</ele><time>2026-04-12T08:08:24.986Z</time></trkpt><trkpt lat="42.738025" lon="11.300845"><ele>304.0</ele><time>2026-04-12T08:08:25.986Z</time></trkpt><trkpt lat="42.7380117" lon="11.300975"><ele>304.0</ele><time>2026-04-12T08:08:26.985Z</time></trkpt><trkpt lat="42.7379783" lon="11.3011017"><ele>302.2</ele><time>2026-04-12T08:08:27.984Z</time></trkpt><trkpt lat="42.7379283" lon="11.3012267"><ele>300.4</ele><time>2026-04-12T08:08:28.984Z</time></trkpt><trkpt lat="42.7378933" lon="11.3013417"><ele>298.6</ele><time>2026-04-12T08:08:29.984Z</time></trkpt><trkpt lat="42.7378517" lon="11.301455"><ele>296.8</ele><time>2026-04-12T08:08:30.984Z</time></trkpt><trkpt lat="42.7378133" lon="11.301555"><ele>295.0</ele><time>2026-04-12T08:08:31.984Z</time></trkpt><trkpt lat="42.7377833" lon="11.30166"><ele>294.66666666666663</ele><time>2026-04-12T08:08:32.984Z</time></trkpt><trkpt lat="42.7377567" lon="11.301775"><ele>294.3333333333333</ele><time>2026-04-12T08:08:33.984Z</time></trkpt><trkpt lat="42.7377267" lon="11.3019"><ele>294.0</ele><time>2026-04-12T08:08:34.984Z</time></trkpt><trkpt lat="42.7377083" lon="11.30201"><ele>293.6666666666667</ele><time>2026-04-12T08:08:35.985Z</time></trkpt><trkpt lat="42.7376933" lon="11.3021183"><ele>293.33333333333337</ele><time>2026-04-12T08:08:36.985Z</time></trkpt><trkpt lat="42.7376833" lon="11.3022167"><ele>293.0</ele><time>2026-04-12T08:08:37.984Z</time></trkpt><trkpt lat="42.73768" lon="11.3023133"><ele>293.5</ele><time>2026-04-12T08:08:38.985Z</time></trkpt><trkpt lat="42.7376817" lon="11.3024"><ele>294.0</ele><time>2026-04-12T08:08:39.984Z</time></trkpt><trkpt lat="42.7376833" lon="11.30249"><ele>294.5</ele><time>2026-04-12T08:08:40.984Z</time></trkpt><trkpt lat="42.7377" lon="11.30258"><ele>295.0</ele><time>2026-04-12T08:08:41.985Z</time></trkpt><trkpt lat="42.7377217" lon="11.3026683"><ele>295.5</ele><time>2026-04-12T08:08:42.985Z</time></trkpt><trkpt lat="42.7377467" lon="11.30275"><ele>296.0</ele><time>2026-04-12T08:08:43.985Z</time></trkpt><trkpt lat="42.7378117" lon="11.302885"><ele>296.0</ele><time>2026-04-12T08:08:45.984Z</time></trkpt><trkpt lat="42.73789" lon="11.3029767"><ele>296.0</ele><time>2026-04-12T08:08:47.984Z</time></trkpt><trkpt lat="42.7379167" lon="11.302875"><ele>296.0</ele><time>2026-04-12T08:08:52.984Z</time></trkpt><trkpt lat="42.737915" lon="11.3027867"><ele>296.0</ele><time>2026-04-12T08:08:54.985Z</time></trkpt><trkpt lat="42.73789" lon="11.3026717"><ele>296.0</ele><time>2026-04-12T08:08:57.984Z</time></trkpt><trkpt lat="42.7378783" lon="11.3025517"><ele>296.0</ele><time>2026-04-12T08:09:00.984Z</time></trkpt><trkpt lat="42.73791" lon="11.302435"><ele>296.0</ele><time>2026-04-12T08:09:03.984Z</time></trkpt><trkpt lat="42.7379417" lon="11.302345"><ele>296.0</ele><time>2026-04-12T08:09:05.984Z</time></trkpt><trkpt lat="42.7379967" lon="11.3022483"><ele>296.0</ele><time>2026-04-12T08:09:07.984Z</time></trkpt><trkpt lat="42.7380417" lon="11.3021817"><ele>296.0</ele><time>2026-04-12T08:09:08.985Z</time></trkpt><trkpt lat="42.7381133" lon="11.30208"><ele>296.0</ele><time>2026-04-12T08:09:10.984Z</time></trkpt><trkpt lat="42.7381783" lon="11.302005"><ele>296.0</ele><time>2026-04-12T08:09:12.984Z</time></trkpt><trkpt lat="42.7382467" lon="11.301945"><ele>295.40000000000003</ele><time>2026-04-12T08:09:14.984Z</time></trkpt><trkpt lat="42.7383167" lon="11.3018883"><ele>294.8</ele><time>2026-04-12T08:09:16.984Z</time></trkpt><trkpt lat="42.7384" lon="11.30182"><ele>294.20000000000005</ele><time>2026-04-12T08:09:18.985Z</time></trkpt><trkpt lat="42.7384783" lon="11.30177"><ele>293.6</ele><time>2026-04-12T08:09:20.984Z</time></trkpt><trkpt lat="42.73857" lon="11.3017067"><ele>293.0</ele><time>2026-04-12T08:09:22.984Z</time></trkpt><trkpt lat="42.7386767" lon="11.3016467"><ele>293.0</ele><time>2026-04-12T08:09:24.984Z</time></trkpt><trkpt lat="42.7387817" lon="11.3015783"><ele>293.0</ele><time>2026-04-12T08:09:26.984Z</time></trkpt><trkpt lat="42.7388683" lon="11.301515"><ele>293.0</ele><time>2026-04-12T08:09:28.984Z</time></trkpt><trkpt lat="42.7389517" lon="11.3014517"><ele>293.0</ele><time>2026-04-12T08:09:30.984Z</time></trkpt><trkpt lat="42.7390283" lon="11.3013767"><ele>293.0</ele><time>2026-04-12T08:09:32.984Z</time></trkpt><trkpt lat="42.7390833" lon="11.3013"><ele>293.0</ele><time>2026-04-12T08:09:34.985Z</time></trkpt><trkpt lat="42.7391267" lon="11.30122"><ele>293.0</ele><time>2026-04-12T08:09:36.984Z</time></trkpt><trkpt lat="42.73916" lon="11.30111"><ele>293.0</ele><time>2026-04-12T08:09:38.984Z</time></trkpt><trkpt lat="42.7391883" lon="11.301015"><ele>293.0</ele><time>2026-04-12T08:09:40.984Z</time></trkpt><trkpt lat="42.7392133" lon="11.3009217"><ele>293.0</ele><time>2026-04-12T08:09:42.984Z</time></trkpt><trkpt lat="42.7392433" lon="11.30084"><ele>293.0</ele><time>2026-04-12T08:09:44.984Z</time></trkpt><trkpt lat="42.7392783" lon="11.300745"><ele>293.0</ele><time>2026-04-12T08:09:46.984Z</time></trkpt><trkpt lat="42.73932" lon="11.3006367"><ele>293.0</ele><time>2026-04-12T08:09:48.984Z</time></trkpt><trkpt lat="42.7393633" lon="11.3005283"><ele>293.0</ele><time>2026-04-12T08:09:50.985Z</time></trkpt><trkpt lat="42.7394183" lon="11.3004283"><ele>293.0</ele><time>2026-04-12T08:09:52.984Z</time></trkpt><trkpt lat="42.73948" lon="11.3003233"><ele>293.0</ele><time>2026-04-12T08:09:54.985Z</time></trkpt><trkpt lat="42.7395567" lon="11.3002283"><ele>291.6</ele><time>2026-04-12T08:09:56.984Z</time></trkpt><trkpt lat="42.7396517" lon="11.30017"><ele>290.20000000000005</ele><time>2026-04-12T08:09:58.984Z</time></trkpt><trkpt lat="42.7397617" lon="11.3001367"><ele>288.8</ele><time>2026-04-12T08:10:00.984Z</time></trkpt><trkpt lat="42.739825" lon="11.30014"><ele>287.40000000000003</ele><time>2026-04-12T08:10:01.984Z</time></trkpt><trkpt lat="42.7399417" lon="11.3001717"><ele>286.0</ele><time>2026-04-12T08:10:03.985Z</time></trkpt><trkpt lat="42.7400517" lon="11.3001867"><ele>286.0</ele><time>2026-04-12T08:10:05.984Z</time></trkpt><trkpt lat="42.7401667" lon="11.3002183"><ele>286.0</ele><time>2026-04-12T08:10:07.985Z</time></trkpt><trkpt lat="42.7402683" lon="11.3002483"><ele>286.0</ele><time>2026-04-12T08:10:09.985Z</time></trkpt><trkpt lat="42.7403633" lon="11.3002817"><ele>286.0</ele><time>2026-04-12T08:10:11.985Z</time></trkpt><trkpt lat="42.7404533" lon="11.30032"><ele>286.0</ele><time>2026-04-12T08:10:13.984Z</time></trkpt><trkpt lat="42.740545" lon="11.3003633"><ele>285.40000000000003</ele><time>2026-04-12T08:10:15.985Z</time></trkpt><trkpt lat="42.7406317" lon="11.300415"><ele>284.8</ele><time>2026-04-12T08:10:17.984Z</time></trkpt><trkpt lat="42.74072" lon="11.3004517"><ele>284.20000000000005</ele><time>2026-04-12T08:10:19.985Z</time></trkpt><trkpt lat="42.740805" lon="11.3004483"><ele>283.6</ele><time>2026-04-12T08:10:22.984Z</time></trkpt><trkpt lat="42.7408917" lon="11.3003867"><ele>283.0</ele><time>2026-04-12T08:10:24.985Z</time></trkpt><trkpt lat="42.740985" lon="11.30036"><ele>282.2</ele><time>2026-04-12T08:10:26.984Z</time></trkpt><trkpt lat="42.7410817" lon="11.3003833"><ele>281.4</ele><time>2026-04-12T08:10:28.985Z</time></trkpt><trkpt lat="42.741195" lon="11.30042"><ele>280.59999999999997</ele><time>2026-04-12T08:10:30.985Z</time></trkpt><trkpt lat="42.7412967" lon="11.3004633"><ele>279.8</ele><time>2026-04-12T08:10:32.984Z</time></trkpt><trkpt lat="42.7414067" lon="11.30046"><ele>279.0</ele><time>2026-04-12T08:10:34.985Z</time></trkpt><trkpt lat="42.741525" lon="11.3004417"><ele>279.0</ele><time>2026-04-12T08:10:36.984Z</time></trkpt><trkpt lat="42.74165" lon="11.3004233"><ele>279.0</ele><time>2026-04-12T08:10:38.984Z</time></trkpt><trkpt lat="42.7417233" lon="11.30042"><ele>279.0</ele><time>2026-04-12T08:10:39.984Z</time></trkpt><trkpt lat="42.741795" lon="11.30042"><ele>279.0</ele><time>2026-04-12T08:10:40.985Z</time></trkpt><trkpt lat="42.7418717" lon="11.300425"><ele>279.0</ele><time>2026-04-12T08:10:41.984Z</time></trkpt><trkpt lat="42.74195" lon="11.30044"><ele>279.0</ele><time>2026-04-12T08:10:42.984Z</time></trkpt><trkpt lat="42.742025" lon="11.3004733"><ele>278.99999999999994</ele><time>2026-04-12T08:10:43.984Z</time></trkpt><trkpt lat="42.7420983" lon="11.3005067"><ele>279.0</ele><time>2026-04-12T08:10:44.984Z</time></trkpt><trkpt lat="42.742165" lon="11.3005483"><ele>279.0</ele><time>2026-04-12T08:10:45.985Z</time></trkpt><trkpt lat="42.74223" lon="11.3005833"><ele>279.0</ele><time>2026-04-12T08:10:46.985Z</time></trkpt><trkpt lat="42.74229" lon="11.3006117"><ele>279.0</ele><time>2026-04-12T08:10:47.984Z</time></trkpt><trkpt lat="42.7423517" lon="11.3006333"><ele>278.99999999999994</ele><time>2026-04-12T08:10:48.984Z</time></trkpt><trkpt lat="42.7424433" lon="11.30067"><ele>279.0</ele><time>2026-04-12T08:10:50.984Z</time></trkpt><trkpt lat="42.742535" lon="11.3007233"><ele>281.0</ele><time>2026-04-12T08:10:52.984Z</time></trkpt><trkpt lat="42.7426217" lon="11.300765"><ele>283.0</ele><time>2026-04-12T08:10:54.984Z</time></trkpt><trkpt lat="42.7427017" lon="11.3008033"><ele>285.0</ele><time>2026-04-12T08:10:56.985Z</time></trkpt><trkpt lat="42.7427717" lon="11.3008417"><ele>287.0</ele><time>2026-04-12T08:10:58.985Z</time></trkpt><trkpt lat="42.7428367" lon="11.3008833"><ele>289.0</ele><time>2026-04-12T08:11:01.984Z</time></trkpt><trkpt lat="42.7428867" lon="11.30098"><ele>291.0</ele><time>2026-04-12T08:11:04.985Z</time></trkpt><trkpt lat="42.7429017" lon="11.301065"><ele>291.0</ele><time>2026-04-12T08:11:06.984Z</time></trkpt><trkpt lat="42.7429083" lon="11.3011533"><ele>291.0</ele><time>2026-04-12T08:11:08.985Z</time></trkpt><trkpt lat="42.7429283" lon="11.3012633"><ele>291.0</ele><time>2026-04-12T08:11:11.984Z</time></trkpt><trkpt lat="42.7429683" lon="11.3013683"><ele>291.0</ele><time>2026-04-12T08:11:14.984Z</time></trkpt><trkpt lat="42.743" lon="11.3014583"><ele>291.0</ele><time>2026-04-12T08:11:17.984Z</time></trkpt><trkpt lat="42.7430267" lon="11.301555"><ele>291.0</ele><time>2026-04-12T08:11:20.984Z</time></trkpt><trkpt lat="42.74306" lon="11.3016383"><ele>292.6666666666667</ele><time>2026-04-12T08:11:23.984Z</time></trkpt><trkpt lat="42.7431117" lon="11.3017217"><ele>294.3333333333333</ele><time>2026-04-12T08:11:27.984Z</time></trkpt><trkpt lat="42.7431517" lon="11.3018067"><ele>296.0</ele><time>2026-04-12T08:11:30.984Z</time></trkpt><trkpt lat="42.7432067" lon="11.3019017"><ele>297.66666666666663</ele><time>2026-04-12T08:11:34.984Z</time></trkpt><trkpt lat="42.7432417" lon="11.301985"><ele>299.3333333333333</ele><time>2026-04-12T08:11:37.984Z</time></trkpt><trkpt lat="42.7432883" lon="11.3020617"><ele>301.0</ele><time>2026-04-12T08:11:41.984Z</time></trkpt><trkpt lat="42.743345" lon="11.3021383"><ele>301.0</ele><time>2026-04-12T08:11:45.984Z</time></trkpt><trkpt lat="42.7433867" lon="11.3022067"><ele>301.0</ele><time>2026-04-12T08:11:48.984Z</time></trkpt><trkpt lat="42.7434417" lon="11.3022733"><ele>301.0</ele><time>2026-04-12T08:11:51.984Z</time></trkpt><trkpt lat="42.7435033" lon="11.302345"><ele>301.0</ele><time>2026-04-12T08:11:55.985Z</time></trkpt><trkpt lat="42.7435533" lon="11.3024167"><ele>301.0</ele><time>2026-04-12T08:11:58.984Z</time></trkpt><trkpt lat="42.7436067" lon="11.3024867"><ele>301.0</ele><time>2026-04-12T08:12:02.984Z</time></trkpt><trkpt lat="42.7436633" lon="11.3025633"><ele>301.0</ele><time>2026-04-12T08:12:06.984Z</time></trkpt><trkpt lat="42.7437017" lon="11.3026383"><ele>301.14285714285717</ele><time>2026-04-12T08:12:09.984Z</time></trkpt><trkpt lat="42.7437333" lon="11.302725"><ele>301.2857142857143</ele><time>2026-04-12T08:12:13.984Z</time></trkpt><trkpt lat="42.7437567" lon="11.3028267"><ele>301.42857142857144</ele><time>2026-04-12T08:12:17.985Z</time></trkpt><trkpt lat="42.74377" lon="11.302935"><ele>301.57142857142856</ele><time>2026-04-12T08:12:22.984Z</time></trkpt><trkpt lat="42.7437767" lon="11.3030283"><ele>301.7142857142857</ele><time>2026-04-12T08:12:26.984Z</time></trkpt><trkpt lat="42.7437683" lon="11.3031267"><ele>301.8571428571429</ele><time>2026-04-12T08:12:31.984Z</time></trkpt><trkpt lat="42.7437683" lon="11.303225"><ele>302.0</ele><time>2026-04-12T08:12:36.984Z</time></trkpt><trkpt lat="42.743785" lon="11.3033917"><ele>303.5</ele><time>2026-04-12T08:12:45.985Z</time></trkpt><trkpt lat="42.7437967" lon="11.30349"><ele>305.0</ele><time>2026-04-12T08:12:49.984Z</time></trkpt><trkpt lat="42.7438117" lon="11.3036333"><ele>306.5</ele><time>2026-04-12T08:12:57.985Z</time></trkpt><trkpt lat="42.7437783" lon="11.303765"><ele>308.0</ele><time>2026-04-12T08:13:02.984Z</time></trkpt><trkpt lat="42.7437733" lon="11.3038617"><ele>309.5</ele><time>2026-04-12T08:13:06.984Z</time></trkpt><trkpt lat="42.74377" lon="11.30395"><ele>311.0</ele><time>2026-04-12T08:13:10.984Z</time></trkpt><trkpt lat="42.7437817" lon="11.3040633"><ele>313.1666666666667</ele><time>2026-04-12T08:13:14.984Z</time></trkpt><trkpt lat="42.7437817" lon="11.304165"><ele>315.33333333333337</ele><time>2026-04-12T08:13:18.984Z</time></trkpt><trkpt lat="42.7437633" lon="11.30426"><ele>317.5</ele><time>2026-04-12T08:13:22.984Z</time></trkpt><trkpt lat="42.7437433" lon="11.30435"><ele>319.6666666666667</ele><time>2026-04-12T08:13:26.984Z</time></trkpt><trkpt lat="42.7437133" lon="11.3044617"><ele>321.8333333333333</ele><time>2026-04-12T08:13:31.985Z</time></trkpt><trkpt lat="42.743695" lon="11.3045633"><ele>324.0</ele><time>2026-04-12T08:13:35.984Z</time></trkpt><trkpt lat="42.743665" lon="11.3046533"><ele>324.0</ele><time>2026-04-12T08:13:40.984Z</time></trkpt><trkpt lat="42.7436283" lon="11.3047317"><ele>324.0</ele><time>2026-04-12T08:13:44.984Z</time></trkpt><trkpt lat="42.7435867" lon="11.3048"><ele>324.0</ele><time>2026-04-12T08:13:50.984Z</time></trkpt><trkpt lat="42.743535" lon="11.3048783"><ele>324.0</ele><time>2026-04-12T08:13:55.984Z</time></trkpt><trkpt lat="42.7434833" lon="11.3049617"><ele>324.0</ele><time>2026-04-12T08:13:59.984Z</time></trkpt><trkpt lat="42.74344" lon="11.3050683"><ele>324.0</ele><time>2026-04-12T08:14:06.984Z</time></trkpt><trkpt lat="42.7434067" lon="11.3051417"><ele>324.0</ele><time>2026-04-12T08:14:11.984Z</time></trkpt><trkpt lat="42.7433683" lon="11.3052117"><ele>326.8571428571429</ele><time>2026-04-12T08:14:15.984Z</time></trkpt><trkpt lat="42.7433483" lon="11.3052983"><ele>329.7142857142857</ele><time>2026-04-12T08:14:20.984Z</time></trkpt><trkpt lat="42.7433183" lon="11.3053867"><ele>332.57142857142856</ele><time>2026-04-12T08:14:25.985Z</time></trkpt><trkpt lat="42.7432933" lon="11.3054667"><ele>335.42857142857144</ele><time>2026-04-12T08:14:30.984Z</time></trkpt><trkpt lat="42.74326" lon="11.3055567"><ele>338.2857142857143</ele><time>2026-04-12T08:14:35.984Z</time></trkpt><trkpt lat="42.74324" lon="11.30568"><ele>341.14285714285717</ele><time>2026-04-12T08:14:41.984Z</time></trkpt><trkpt lat="42.7432617" lon="11.3057667"><ele>344.0</ele><time>2026-04-12T08:14:44.984Z</time></trkpt><trkpt lat="42.7432883" lon="11.3058533"><ele>344.7142857142857</ele><time>2026-04-12T08:14:48.984Z</time></trkpt><trkpt lat="42.743295" lon="11.30595"><ele>345.42857142857144</ele><time>2026-04-12T08:14:52.985Z</time></trkpt><trkpt lat="42.7433033" lon="11.3060517"><ele>346.1428571428571</ele><time>2026-04-12T08:14:56.985Z</time></trkpt><trkpt lat="42.743295" lon="11.3061417"><ele>346.8571428571429</ele><time>2026-04-12T08:15:00.984Z</time></trkpt><trkpt lat="42.7433017" lon="11.30624"><ele>347.57142857142856</ele><time>2026-04-12T08:15:04.984Z</time></trkpt><trkpt lat="42.7432867" lon="11.3063433"><ele>348.2857142857143</ele><time>2026-04-12T08:15:08.984Z</time></trkpt><trkpt lat="42.7432767" lon="11.3064367"><ele>349.0</ele><time>2026-04-12T08:15:12.985Z</time></trkpt><trkpt lat="42.74329" lon="11.3065233"><ele>350.1428571428571</ele><time>2026-04-12T08:15:16.984Z</time></trkpt><trkpt lat="42.743305" lon="11.306615"><ele>351.2857142857143</ele><time>2026-04-12T08:15:20.984Z</time></trkpt><trkpt lat="42.7433217" lon="11.3067033"><ele>352.42857142857144</ele><time>2026-04-12T08:15:26.984Z</time></trkpt><trkpt lat="42.7433317" lon="11.30679"><ele>353.57142857142856</ele><time>2026-04-12T08:15:30.985Z</time></trkpt><trkpt lat="42.7433383" lon="11.3068917"><ele>354.7142857142857</ele><time>2026-04-12T08:15:35.984Z</time></trkpt><trkpt lat="42.7433183" lon="11.3069767"><ele>355.85714285714283</ele><time>2026-04-12T08:15:40.984Z</time></trkpt><trkpt lat="42.7433217" lon="11.3070867"><ele>357.0</ele><time>2026-04-12T08:15:45.984Z</time></trkpt><trkpt lat="42.7433267" lon="11.3071783"><ele>358.14285714285717</ele><time>2026-04-12T08:15:48.984Z</time></trkpt><trkpt lat="42.7433117" lon="11.3072783"><ele>359.2857142857143</ele><time>2026-04-12T08:15:52.984Z</time></trkpt><trkpt lat="42.7433033" lon="11.3073717"><ele>360.42857142857144</ele><time>2026-04-12T08:15:56.984Z</time></trkpt><trkpt lat="42.7432817" lon="11.307455"><ele>361.57142857142856</ele><time>2026-04-12T08:16:00.984Z</time></trkpt><trkpt lat="42.7432683" lon="11.3075567"><ele>362.7142857142857</ele><time>2026-04-12T08:16:05.984Z</time></trkpt><trkpt lat="42.743245" lon="11.3076383"><ele>363.8571428571429</ele><time>2026-04-12T08:16:09.984Z</time></trkpt><trkpt lat="42.7432333" lon="11.3077333"><ele>365.0</ele><time>2026-04-12T08:16:13.984Z</time></trkpt><trkpt lat="42.7432167" lon="11.3078367"><ele>365.00000000000006</ele><time>2026-04-12T08:16:17.984Z</time></trkpt><trkpt lat="42.7432067" lon="11.3079267"><ele>365.0</ele><time>2026-04-12T08:16:20.984Z</time></trkpt><trkpt lat="42.7431867" lon="11.3080217"><ele>365.0</ele><time>2026-04-12T08:16:24.985Z</time></trkpt><trkpt lat="42.7431733" lon="11.308135"><ele>365.0</ele><time>2026-04-12T08:16:31.984Z</time></trkpt><trkpt lat="42.7432433" lon="11.3081417"><ele>365.0</ele><time>2026-04-12T08:16:44.984Z</time></trkpt><trkpt lat="42.7433183" lon="11.3081167"><ele>365.00000000000006</ele><time>2026-04-12T08:16:48.984Z</time></trkpt><trkpt lat="42.7433867" lon="11.30807"><ele>365.0</ele><time>2026-04-12T08:16:52.985Z</time></trkpt><trkpt lat="42.7434367" lon="11.3080033"><ele>365.0</ele><time>2026-04-12T08:16:56.985Z</time></trkpt><trkpt lat="42.7434967" lon="11.30792"><ele>365.0</ele><time>2026-04-12T08:17:00.984Z</time></trkpt><trkpt lat="42.7435683" lon="11.30785"><ele>365.0</ele><time>2026-04-12T08:17:03.985Z</time></trkpt><trkpt lat="42.7436367" lon="11.3077867"><ele>365.0</ele><time>2026-04-12T08:17:06.985Z</time></trkpt><trkpt lat="42.7437167" lon="11.30773"><ele>365.0</ele><time>2026-04-12T08:17:09.984Z</time></trkpt><trkpt lat="42.74379" lon="11.3076967"><ele>365.0</ele><time>2026-04-12T08:17:12.984Z</time></trkpt><trkpt lat="42.7438567" lon="11.3076717"><ele>366.42857142857144</ele><time>2026-04-12T08:17:15.984Z</time></trkpt><trkpt lat="42.74394" lon="11.30765"><ele>367.8571428571429</ele><time>2026-04-12T08:17:18.984Z</time></trkpt><trkpt lat="42.74401" lon="11.3076267"><ele>369.28571428571433</ele><time>2026-04-12T08:17:21.984Z</time></trkpt><trkpt lat="42.7440767" lon="11.30762"><ele>370.7142857142857</ele><time>2026-04-12T08:17:24.984Z</time></trkpt><trkpt lat="42.7441433" lon="11.3076267"><ele>372.1428571428571</ele><time>2026-04-12T08:17:27.984Z</time></trkpt><trkpt lat="42.74421" lon="11.3076333"><ele>373.5714285714286</ele><time>2026-04-12T08:17:30.985Z</time></trkpt><trkpt lat="42.7442867" lon="11.3076167"><ele>375.0</ele><time>2026-04-12T08:17:34.985Z</time></trkpt><trkpt lat="42.7443517" lon="11.3076017"><ele>376.5714285714286</ele><time>2026-04-12T08:17:38.985Z</time></trkpt><trkpt lat="42.7444283" lon="11.307585"><ele>378.1428571428571</ele><time>2026-04-12T08:17:42.983Z</time></trkpt><trkpt lat="42.7444933" lon="11.3075917"><ele>379.7142857142857</ele><time>2026-04-12T08:17:45.983Z</time></trkpt><trkpt lat="42.74457" lon="11.3075833"><ele>381.28571428571433</ele><time>2026-04-12T08:17:49.983Z</time></trkpt><trkpt lat="42.7446467" lon="11.3075667"><ele>382.8571428571429</ele><time>2026-04-12T08:17:53.983Z</time></trkpt><trkpt lat="42.7447267" lon="11.3075533"><ele>384.42857142857144</ele><time>2026-04-12T08:17:56.983Z</time></trkpt><trkpt lat="42.744795" lon="11.3075633"><ele>386.0</ele><time>2026-04-12T08:17:59.983Z</time></trkpt><trkpt lat="42.744865" lon="11.3075667"><ele>386.00000000000006</ele><time>2026-04-12T08:18:02.984Z</time></trkpt><trkpt lat="42.74493" lon="11.30757"><ele>386.0</ele><time>2026-04-12T08:18:05.983Z</time></trkpt><trkpt lat="42.7449967" lon="11.307565"><ele>386.0</ele><time>2026-04-12T08:18:08.983Z</time></trkpt><trkpt lat="42.745065" lon="11.3075417"><ele>386.0</ele><time>2026-04-12T08:18:11.983Z</time></trkpt><trkpt lat="42.7451217" lon="11.3075017"><ele>386.0</ele><time>2026-04-12T08:18:14.984Z</time></trkpt><trkpt lat="42.7451933" lon="11.3074567"><ele>386.00000000000006</ele><time>2026-04-12T08:18:18.983Z</time></trkpt><trkpt lat="42.745235" lon="11.3073633"><ele>386.0</ele><time>2026-04-12T08:18:23.983Z</time></trkpt><trkpt lat="42.74527" lon="11.30729"><ele>385.3333333333333</ele><time>2026-04-12T08:18:26.983Z</time></trkpt><trkpt lat="42.7453317" lon="11.307205"><ele>384.66666666666663</ele><time>2026-04-12T08:18:29.983Z</time></trkpt><trkpt lat="42.7453833" lon="11.307145"><ele>384.0</ele><time>2026-04-12T08:18:31.983Z</time></trkpt><trkpt lat="42.74545" lon="11.3070867"><ele>383.3333333333333</ele><time>2026-04-12T08:18:33.983Z</time></trkpt><trkpt lat="42.7455217" lon="11.30702"><ele>382.66666666666663</ele><time>2026-04-12T08:18:36.983Z</time></trkpt><trkpt lat="42.7455967" lon="11.3069983"><ele>382.0</ele><time>2026-04-12T08:18:39.983Z</time></trkpt><trkpt lat="42.7456683" lon="11.3069717"><ele>382.0</ele><time>2026-04-12T08:18:42.984Z</time></trkpt><trkpt lat="42.7457367" lon="11.3069917"><ele>382.0</ele><time>2026-04-12T08:18:45.983Z</time></trkpt><trkpt lat="42.7458017" lon="11.3069983"><ele>382.0</ele><time>2026-04-12T08:18:48.983Z</time></trkpt><trkpt lat="42.745875" lon="11.307015"><ele>382.0</ele><time>2026-04-12T08:18:52.984Z</time></trkpt><trkpt lat="42.745945" lon="11.3070283"><ele>382.0</ele><time>2026-04-12T08:18:56.984Z</time></trkpt><trkpt lat="42.7460167" lon="11.30708"><ele>382.0</ele><time>2026-04-12T08:19:00.983Z</time></trkpt><trkpt lat="42.7460867" lon="11.3071083"><ele>382.0</ele><time>2026-04-12T08:19:04.983Z</time></trkpt><trkpt lat="42.7461483" lon="11.3071367"><ele>382.0</ele><time>2026-04-12T08:19:07.983Z</time></trkpt><trkpt lat="42.7462083" lon="11.30717"><ele>382.0</ele><time>2026-04-12T08:19:11.984Z</time></trkpt><trkpt lat="42.7462767" lon="11.3072"><ele>382.0</ele><time>2026-04-12T08:19:14.983Z</time></trkpt><trkpt lat="42.7463383" lon="11.30722"><ele>382.0</ele><time>2026-04-12T08:19:17.983Z</time></trkpt><trkpt lat="42.7464167" lon="11.3072433"><ele>382.0</ele><time>2026-04-12T08:19:21.983Z</time></trkpt><trkpt lat="42.7464983" lon="11.3072733"><ele>382.0</ele><time>2026-04-12T08:19:25.983Z</time></trkpt><trkpt lat="42.7465733" lon="11.3072833"><ele>382.0</ele><time>2026-04-12T08:19:28.984Z</time></trkpt><trkpt lat="42.7466633" lon="11.3072733"><ele>382.0</ele><time>2026-04-12T08:19:31.983Z</time></trkpt><trkpt lat="42.7467383" lon="11.3072483"><ele>382.0</ele><time>2026-04-12T08:19:33.984Z</time></trkpt><trkpt lat="42.7468233" lon="11.3071933"><ele>382.0</ele><time>2026-04-12T08:19:35.983Z</time></trkpt><trkpt lat="42.74694" lon="11.307145"><ele>382.0</ele><time>2026-04-12T08:19:37.984Z</time></trkpt><trkpt lat="42.7470017" lon="11.307125"><ele>382.0</ele><time>2026-04-12T08:19:38.984Z</time></trkpt><trkpt lat="42.7470633" lon="11.3071033"><ele>382.0</ele><time>2026-04-12T08:19:39.983Z</time></trkpt><trkpt lat="42.7471417" lon="11.3070317"><ele>385.0</ele><time>2026-04-12T08:19:41.983Z</time></trkpt><trkpt lat="42.74717" lon="11.3069167"><ele>388.0</ele><time>2026-04-12T08:19:43.983Z</time></trkpt><trkpt lat="42.7471467" lon="11.3067767"><ele>391.0</ele><time>2026-04-12T08:19:45.983Z</time></trkpt><trkpt lat="42.74711" lon="11.30662"><ele>394.0</ele><time>2026-04-12T08:19:47.983Z</time></trkpt><trkpt lat="42.747095" lon="11.3064533"><ele>397.0</ele><time>2026-04-12T08:19:49.984Z</time></trkpt><trkpt lat="42.7471033" lon="11.3063567"><ele>397.00000000000006</ele><time>2026-04-12T08:19:50.983Z</time></trkpt><trkpt lat="42.7471167" lon="11.3062617"><ele>397.0</ele><time>2026-04-12T08:19:51.983Z</time></trkpt><trkpt lat="42.7471417" lon="11.3061683"><ele>397.0</ele><time>2026-04-12T08:19:52.983Z</time></trkpt><trkpt lat="42.7471717" lon="11.306065"><ele>397.0</ele><time>2026-04-12T08:19:53.984Z</time></trkpt><trkpt lat="42.7471883" lon="11.3059717"><ele>397.00000000000006</ele><time>2026-04-12T08:19:54.983Z</time></trkpt><trkpt lat="42.747205" lon="11.305885"><ele>397.0</ele><time>2026-04-12T08:19:55.983Z</time></trkpt><trkpt lat="42.7472367" lon="11.30573"><ele>397.00000000000006</ele><time>2026-04-12T08:19:57.984Z</time></trkpt><trkpt lat="42.747255" lon="11.3056467"><ele>397.0</ele><time>2026-04-12T08:19:58.983Z</time></trkpt><trkpt lat="42.7472967" lon="11.3055083"><ele>397.0</ele><time>2026-04-12T08:20:00.983Z</time></trkpt><trkpt lat="42.7473783" lon="11.305385"><ele>397.0</ele><time>2026-04-12T08:20:02.983Z</time></trkpt><trkpt lat="42.7474383" lon="11.3053317"><ele>397.00000000000006</ele><time>2026-04-12T08:20:03.983Z</time></trkpt><trkpt lat="42.747505" lon="11.30528"><ele>397.0</ele><time>2026-04-12T08:20:04.983Z</time></trkpt><trkpt lat="42.7475767" lon="11.3052233"><ele>396.00000000000006</ele><time>2026-04-12T08:20:05.984Z</time></trkpt><trkpt lat="42.7476467" lon="11.30517"><ele>395.0</ele><time>2026-04-12T08:20:06.983Z</time></trkpt><trkpt lat="42.7477167" lon="11.305115"><ele>394.0</ele><time>2026-04-12T08:20:07.984Z</time></trkpt><trkpt lat="42.7477817" lon="11.305065"><ele>393.0</ele><time>2026-04-12T08:20:08.983Z</time></trkpt><trkpt lat="42.7478467" lon="11.3050183"><ele>392.00000000000006</ele><time>2026-04-12T08:20:09.983Z</time></trkpt><trkpt lat="42.7479117" lon="11.3049667"><ele>391.0</ele><time>2026-04-12T08:20:10.983Z</time></trkpt><trkpt lat="42.7479817" lon="11.304905"><ele>391.00000000000006</ele><time>2026-04-12T08:20:11.983Z</time></trkpt><trkpt lat="42.7480483" lon="11.3048383"><ele>391.0</ele><time>2026-04-12T08:20:12.983Z</time></trkpt><trkpt lat="42.74811" lon="11.304775"><ele>391.0</ele><time>2026-04-12T08:20:13.984Z</time></trkpt><trkpt lat="42.7481617" lon="11.3047133"><ele>391.0</ele><time>2026-04-12T08:20:14.983Z</time></trkpt><trkpt lat="42.748205" lon="11.304635"><ele>391.00000000000006</ele><time>2026-04-12T08:20:15.984Z</time></trkpt><trkpt lat="42.74824" lon="11.3045583"><ele>391.0</ele><time>2026-04-12T08:20:16.983Z</time></trkpt><trkpt lat="42.7483067" lon="11.3044117"><ele>389.4</ele><time>2026-04-12T08:20:18.983Z</time></trkpt><trkpt lat="42.7483417" lon="11.3043383"><ele>387.8</ele><time>2026-04-12T08:20:19.983Z</time></trkpt><trkpt lat="42.7484" lon="11.3041833"><ele>386.2</ele><time>2026-04-12T08:20:21.983Z</time></trkpt><trkpt lat="42.7484567" lon="11.30404"><ele>384.59999999999997</ele><time>2026-04-12T08:20:23.983Z</time></trkpt><trkpt lat="42.7485017" lon="11.3038767"><ele>383.0</ele><time>2026-04-12T08:20:25.984Z</time></trkpt><trkpt lat="42.7485083" lon="11.3037883"><ele>383.0</ele><time>2026-04-12T08:20:26.983Z</time></trkpt><trkpt lat="42.7484867" lon="11.3036333"><ele>383.0</ele><time>2026-04-12T08:20:28.983Z</time></trkpt><trkpt lat="42.7484417" lon="11.3035233"><ele>383.0</ele><time>2026-04-12T08:20:30.983Z</time></trkpt><trkpt lat="42.7483983" lon="11.3034283"><ele>383.0</ele><time>2026-04-12T08:20:32.984Z</time></trkpt><trkpt lat="42.7483433" lon="11.3033233"><ele>383.0</ele><time>2026-04-12T08:20:34.983Z</time></trkpt><trkpt lat="42.74829" lon="11.3032017"><ele>382.83333333333337</ele><time>2026-04-12T08:20:36.983Z</time></trkpt><trkpt lat="42.74824" lon="11.303075"><ele>382.6666666666667</ele><time>2026-04-12T08:20:38.983Z</time></trkpt><trkpt lat="42.7482017" lon="11.3029517"><ele>382.5</ele><time>2026-04-12T08:20:40.983Z</time></trkpt><trkpt lat="42.7481717" lon="11.3028067"><ele>382.3333333333333</ele><time>2026-04-12T08:20:42.983Z</time></trkpt><trkpt lat="42.7481533" lon="11.3027233"><ele>382.16666666666663</ele><time>2026-04-12T08:20:43.983Z</time></trkpt><trkpt lat="42.7481367" lon="11.3026333"><ele>382.0</ele><time>2026-04-12T08:20:44.983Z</time></trkpt><trkpt lat="42.7481333" lon="11.3025333"><ele>382.0</ele><time>2026-04-12T08:20:45.983Z</time></trkpt><trkpt lat="42.7481417" lon="11.3024333"><ele>382.0</ele><time>2026-04-12T08:20:46.983Z</time></trkpt><trkpt lat="42.7481617" lon="11.3023333"><ele>382.0</ele><time>2026-04-12T08:20:47.983Z</time></trkpt><trkpt lat="42.7481883" lon="11.3022267"><ele>382.0</ele><time>2026-04-12T08:20:48.983Z</time></trkpt><trkpt lat="42.7482283" lon="11.3021067"><ele>382.0</ele><time>2026-04-12T08:20:49.983Z</time></trkpt><trkpt lat="42.748275" lon="11.30197"><ele>382.0</ele><time>2026-04-12T08:20:50.983Z</time></trkpt><trkpt lat="42.7483217" lon="11.3018333"><ele>380.40000000000003</ele><time>2026-04-12T08:20:51.984Z</time></trkpt><trkpt lat="42.7483567" lon="11.3017033"><ele>378.8</ele><time>2026-04-12T08:20:52.984Z</time></trkpt><trkpt lat="42.7483867" lon="11.3015733"><ele>377.2</ele><time>2026-04-12T08:20:53.983Z</time></trkpt><trkpt lat="42.7484283" lon="11.3014433"><ele>375.6</ele><time>2026-04-12T08:20:54.983Z</time></trkpt><trkpt lat="42.7484633" lon="11.3013183"><ele>374.0</ele><time>2026-04-12T08:20:55.984Z</time></trkpt><trkpt lat="42.7484933" lon="11.3011917"><ele>374.2</ele><time>2026-04-12T08:20:56.983Z</time></trkpt><trkpt lat="42.7485233" lon="11.3010717"><ele>374.4</ele><time>2026-04-12T08:20:57.984Z</time></trkpt><trkpt lat="42.74856" lon="11.30096"><ele>374.6</ele><time>2026-04-12T08:20:58.983Z</time></trkpt><trkpt lat="42.748615" lon="11.300855"><ele>374.8</ele><time>2026-04-12T08:20:59.983Z</time></trkpt><trkpt lat="42.7486683" lon="11.300745"><ele>375.0</ele><time>2026-04-12T08:21:00.984Z</time></trkpt><trkpt lat="42.7487367" lon="11.3006533"><ele>375.0</ele><time>2026-04-12T08:21:01.983Z</time></trkpt><trkpt lat="42.7488167" lon="11.300585"><ele>375.0</ele><time>2026-04-12T08:21:02.984Z</time></trkpt><trkpt lat="42.7489017" lon="11.3005117"><ele>375.0</ele><time>2026-04-12T08:21:03.983Z</time></trkpt><trkpt lat="42.748995" lon="11.3004533"><ele>375.0</ele><time>2026-04-12T08:21:04.983Z</time></trkpt><trkpt lat="42.7490833" lon="11.3003933"><ele>375.0</ele><time>2026-04-12T08:21:05.984Z</time></trkpt><trkpt lat="42.749175" lon="11.3003717"><ele>372.2</ele><time>2026-04-12T08:21:06.983Z</time></trkpt><trkpt lat="42.749265" lon="11.3003467"><ele>369.4</ele><time>2026-04-12T08:21:07.983Z</time></trkpt><trkpt lat="42.7493633" lon="11.3003567"><ele>366.6</ele><time>2026-04-12T08:21:08.984Z</time></trkpt><trkpt lat="42.7494633" lon="11.300375"><ele>363.8</ele><time>2026-04-12T08:21:09.983Z</time></trkpt><trkpt lat="42.7495617" lon="11.3004"><ele>361.0</ele><time>2026-04-12T08:21:10.983Z</time></trkpt><trkpt lat="42.7496633" lon="11.3004233"><ele>359.8</ele><time>2026-04-12T08:21:11.983Z</time></trkpt><trkpt lat="42.74976" lon="11.30045"><ele>358.6</ele><time>2026-04-12T08:21:12.983Z</time></trkpt><trkpt lat="42.7498533" lon="11.3004817"><ele>357.4</ele><time>2026-04-12T08:21:13.983Z</time></trkpt><trkpt lat="42.7499433" lon="11.3005017"><ele>356.2</ele><time>2026-04-12T08:21:14.983Z</time></trkpt><trkpt lat="42.75003" lon="11.3005267"><ele>355.0</ele><time>2026-04-12T08:21:15.983Z</time></trkpt><trkpt lat="42.7501167" lon="11.300525"><ele>355.0</ele><time>2026-04-12T08:21:16.983Z</time></trkpt><trkpt lat="42.7501967" lon="11.300525"><ele>355.0</ele><time>2026-04-12T08:21:17.983Z</time></trkpt><trkpt lat="42.750275" lon="11.3005317"><ele>355.0</ele><time>2026-04-12T08:21:18.983Z</time></trkpt><trkpt lat="42.7503517" lon="11.30054"><ele>355.0</ele><time>2026-04-12T08:21:19.984Z</time></trkpt><trkpt lat="42.7504317" lon="11.3005633"><ele>355.0</ele><time>2026-04-12T08:21:20.983Z</time></trkpt><trkpt lat="42.7505117" lon="11.3005833"><ele>355.0</ele><time>2026-04-12T08:21:21.983Z</time></trkpt><trkpt lat="42.750595" lon="11.3006083"><ele>355.16666666666663</ele><time>2026-04-12T08:21:22.983Z</time></trkpt><trkpt lat="42.7506767" lon="11.300645"><ele>355.3333333333333</ele><time>2026-04-12T08:21:23.983Z</time></trkpt><trkpt lat="42.7507583" lon="11.30068"><ele>355.5</ele><time>2026-04-12T08:21:24.983Z</time></trkpt><trkpt lat="42.750845" lon="11.3007183"><ele>355.6666666666667</ele><time>2026-04-12T08:21:25.983Z</time></trkpt><trkpt lat="42.75093" lon="11.3007433"><ele>355.83333333333337</ele><time>2026-04-12T08:21:26.983Z</time></trkpt><trkpt lat="42.7510267" lon="11.3007633"><ele>356.0</ele><time>2026-04-12T08:21:27.983Z</time></trkpt><trkpt lat="42.751115" lon="11.3007917"><ele>354.20000000000005</ele><time>2026-04-12T08:21:28.984Z</time></trkpt><trkpt lat="42.751205" lon="11.3008267"><ele>352.40000000000003</ele><time>2026-04-12T08:21:29.984Z</time></trkpt><trkpt lat="42.7512967" lon="11.3008683"><ele>350.6</ele><time>2026-04-12T08:21:30.983Z</time></trkpt><trkpt lat="42.751385" lon="11.300905"><ele>348.8</ele><time>2026-04-12T08:21:31.983Z</time></trkpt><trkpt lat="42.7514733" lon="11.300955"><ele>347.0</ele><time>2026-04-12T08:21:32.983Z</time></trkpt><trkpt lat="42.7515733" lon="11.3009967"><ele>347.0</ele><time>2026-04-12T08:21:33.983Z</time></trkpt><trkpt lat="42.75168" lon="11.301045"><ele>347.0</ele><time>2026-04-12T08:21:34.983Z</time></trkpt><trkpt lat="42.75178" lon="11.3011"><ele>347.0</ele><time>2026-04-12T08:21:35.983Z</time></trkpt><trkpt lat="42.7518783" lon="11.3011483"><ele>347.0</ele><time>2026-04-12T08:21:36.983Z</time></trkpt><trkpt lat="42.7519733" lon="11.3011967"><ele>347.0</ele><time>2026-04-12T08:21:37.983Z</time></trkpt><trkpt lat="42.75207" lon="11.3012533"><ele>344.8</ele><time>2026-04-12T08:21:38.984Z</time></trkpt><trkpt lat="42.7521633" lon="11.3013"><ele>342.6</ele><time>2026-04-12T08:21:39.983Z</time></trkpt><trkpt lat="42.7522567" lon="11.30134"><ele>340.40000000000003</ele><time>2026-04-12T08:21:40.984Z</time></trkpt><trkpt lat="42.75234" lon="11.3013883"><ele>338.20000000000005</ele><time>2026-04-12T08:21:41.983Z</time></trkpt><trkpt lat="42.7524217" lon="11.3014233"><ele>336.0</ele><time>2026-04-12T08:21:42.983Z</time></trkpt><trkpt lat="42.7525" lon="11.3014533"><ele>335.8333333333333</ele><time>2026-04-12T08:21:43.983Z</time></trkpt><trkpt lat="42.7525717" lon="11.30149"><ele>335.6666666666667</ele><time>2026-04-12T08:21:44.983Z</time></trkpt><trkpt lat="42.7526433" lon="11.3015283"><ele>335.5</ele><time>2026-04-12T08:21:45.983Z</time></trkpt><trkpt lat="42.752725" lon="11.301565"><ele>335.33333333333337</ele><time>2026-04-12T08:21:46.983Z</time></trkpt><trkpt lat="42.7527967" lon="11.3015933"><ele>335.1666666666667</ele><time>2026-04-12T08:21:47.983Z</time></trkpt><trkpt lat="42.7528717" lon="11.30162"><ele>335.0</ele><time>2026-04-12T08:21:48.983Z</time></trkpt><trkpt lat="42.7529483" lon="11.3016367"><ele>333.33333333333337</ele><time>2026-04-12T08:21:49.983Z</time></trkpt><trkpt lat="42.7530283" lon="11.30165"><ele>331.6666666666667</ele><time>2026-04-12T08:21:50.983Z</time></trkpt><trkpt lat="42.75312" lon="11.301675"><ele>330.0</ele><time>2026-04-12T08:21:51.983Z</time></trkpt><trkpt lat="42.75321" lon="11.3017"><ele>328.3333333333333</ele><time>2026-04-12T08:21:52.983Z</time></trkpt><trkpt lat="42.7533" lon="11.3017133"><ele>326.66666666666663</ele><time>2026-04-12T08:21:53.984Z</time></trkpt><trkpt lat="42.75338" lon="11.3017233"><ele>325.0</ele><time>2026-04-12T08:21:54.983Z</time></trkpt><trkpt lat="42.7534617" lon="11.3017217"><ele>325.0</ele><time>2026-04-12T08:21:55.983Z</time></trkpt><trkpt lat="42.7535367" lon="11.301715"><ele>325.0</ele><time>2026-04-12T08:21:56.983Z</time></trkpt><trkpt lat="42.7536117" lon="11.30171"><ele>325.0</ele><time>2026-04-12T08:21:57.983Z</time></trkpt><trkpt lat="42.753685" lon="11.3017"><ele>325.0</ele><time>2026-04-12T08:21:58.983Z</time></trkpt><trkpt lat="42.7537483" lon="11.3016917"><ele>325.0</ele><time>2026-04-12T08:21:59.983Z</time></trkpt><trkpt lat="42.753865" lon="11.3016617"><ele>325.0</ele><time>2026-04-12T08:22:01.984Z</time></trkpt><trkpt lat="42.7539283" lon="11.30165"><ele>325.2</ele><time>2026-04-12T08:22:02.984Z</time></trkpt><trkpt lat="42.754015" lon="11.301625"><ele>325.4</ele><time>2026-04-12T08:22:04.983Z</time></trkpt><trkpt lat="42.7541067" lon="11.3015883"><ele>325.6</ele><time>2026-04-12T08:22:06.983Z</time></trkpt><trkpt lat="42.7542067" lon="11.301565"><ele>325.8</ele><time>2026-04-12T08:22:08.983Z</time></trkpt><trkpt lat="42.7543033" lon="11.3015467"><ele>326.0</ele><time>2026-04-12T08:22:10.983Z</time></trkpt><trkpt lat="42.7544" lon="11.3015217"><ele>326.83333333333337</ele><time>2026-04-12T08:22:12.984Z</time></trkpt><trkpt lat="42.7544883" lon="11.301515"><ele>327.6666666666667</ele><time>2026-04-12T08:22:14.983Z</time></trkpt><trkpt lat="42.75457" lon="11.3015267"><ele>328.5</ele><time>2026-04-12T08:22:16.983Z</time></trkpt><trkpt lat="42.754655" lon="11.3015267"><ele>329.3333333333333</ele><time>2026-04-12T08:22:18.983Z</time></trkpt><trkpt lat="42.754735" lon="11.3015133"><ele>330.16666666666663</ele><time>2026-04-12T08:22:20.983Z</time></trkpt><trkpt lat="42.7548283" lon="11.30148"><ele>331.0</ele><time>2026-04-12T08:22:22.983Z</time></trkpt><trkpt lat="42.7549283" lon="11.3014717"><ele>331.0</ele><time>2026-04-12T08:22:24.984Z</time></trkpt><trkpt lat="42.75502" lon="11.3014567"><ele>331.0</ele><time>2026-04-12T08:22:26.984Z</time></trkpt><trkpt lat="42.75513" lon="11.3014617"><ele>331.0</ele><time>2026-04-12T08:22:28.983Z</time></trkpt><trkpt lat="42.7551983" lon="11.30146"><ele>331.0</ele><time>2026-04-12T08:22:29.983Z</time></trkpt><trkpt lat="42.755305" lon="11.30147"><ele>331.0</ele><time>2026-04-12T08:22:31.983Z</time></trkpt><trkpt lat="42.7554117" lon="11.30149"><ele>330.6</ele><time>2026-04-12T08:22:33.983Z</time></trkpt><trkpt lat="42.7555117" lon="11.3015"><ele>330.20000000000005</ele><time>2026-04-12T08:22:35.984Z</time></trkpt><trkpt lat="42.755605" lon="11.30151"><ele>329.79999999999995</ele><time>2026-04-12T08:22:37.984Z</time></trkpt><trkpt lat="42.755715" lon="11.301505"><ele>329.4</ele><time>2026-04-12T08:22:39.983Z</time></trkpt><trkpt lat="42.755825" lon="11.3015067"><ele>329.0</ele><time>2026-04-12T08:22:41.983Z</time></trkpt><trkpt lat="42.7559383" lon="11.301525"><ele>329.5</ele><time>2026-04-12T08:22:43.983Z</time></trkpt><trkpt lat="42.7560567" lon="11.301555"><ele>330.0</ele><time>2026-04-12T08:22:45.984Z</time></trkpt><trkpt lat="42.756165" lon="11.3015833"><ele>330.5</ele><time>2026-04-12T08:22:47.983Z</time></trkpt><trkpt lat="42.7562833" lon="11.3015967"><ele>331.0</ele><time>2026-04-12T08:22:49.983Z</time></trkpt><trkpt lat="42.75639" lon="11.3016283"><ele>331.0</ele><time>2026-04-12T08:22:51.983Z</time></trkpt><trkpt lat="42.7564917" lon="11.30165"><ele>331.0</ele><time>2026-04-12T08:22:53.984Z</time></trkpt><trkpt lat="42.7565917" lon="11.3016667"><ele>331.0</ele><time>2026-04-12T08:22:55.983Z</time></trkpt><trkpt lat="42.7566883" lon="11.3016833"><ele>331.0</ele><time>2026-04-12T08:22:57.983Z</time></trkpt><trkpt lat="42.7567817" lon="11.3017"><ele>331.0</ele><time>2026-04-12T08:22:59.983Z</time></trkpt><trkpt lat="42.7568833" lon="11.3017217"><ele>331.0</ele><time>2026-04-12T08:23:01.983Z</time></trkpt><trkpt lat="42.75699" lon="11.30175"><ele>331.0</ele><time>2026-04-12T08:23:03.983Z</time></trkpt><trkpt lat="42.757095" lon="11.3017633"><ele>331.0</ele><time>2026-04-12T08:23:05.983Z</time></trkpt><trkpt lat="42.7572033" lon="11.301785"><ele>331.0</ele><time>2026-04-12T08:23:07.983Z</time></trkpt><trkpt lat="42.7573217" lon="11.3018033"><ele>331.0</ele><time>2026-04-12T08:23:09.983Z</time></trkpt><trkpt lat="42.7574433" lon="11.30182"><ele>331.0</ele><time>2026-04-12T08:23:11.983Z</time></trkpt><trkpt lat="42.75751" lon="11.3018283"><ele>331.0</ele><time>2026-04-12T08:23:12.983Z</time></trkpt><trkpt lat="42.7575783" lon="11.3018267"><ele>331.0</ele><time>2026-04-12T08:23:13.983Z</time></trkpt><trkpt lat="42.7576417" lon="11.301825"><ele>331.0</ele><time>2026-04-12T08:23:14.983Z</time></trkpt><trkpt lat="42.7577133" lon="11.3018233"><ele>331.0</ele><time>2026-04-12T08:23:15.983Z</time></trkpt><trkpt lat="42.7577867" lon="11.3018317"><ele>331.0</ele><time>2026-04-12T08:23:16.983Z</time></trkpt><trkpt lat="42.7578633" lon="11.3018417"><ele>331.0</ele><time>2026-04-12T08:23:17.983Z</time></trkpt><trkpt lat="42.7579467" lon="11.3018583"><ele>329.6</ele><time>2026-04-12T08:23:18.984Z</time></trkpt><trkpt lat="42.7580317" lon="11.3018633"><ele>328.20000000000005</ele><time>2026-04-12T08:23:19.984Z</time></trkpt><trkpt lat="42.75812" lon="11.301875"><ele>326.79999999999995</ele><time>2026-04-12T08:23:20.983Z</time></trkpt><trkpt lat="42.7582183" lon="11.3018683"><ele>325.4</ele><time>2026-04-12T08:23:21.984Z</time></trkpt><trkpt lat="42.7583167" lon="11.30187"><ele>324.0</ele><time>2026-04-12T08:23:22.983Z</time></trkpt><trkpt lat="42.7584117" lon="11.30188"><ele>324.0</ele><time>2026-04-12T08:23:23.983Z</time></trkpt><trkpt lat="42.7585167" lon="11.3018967"><ele>324.0</ele><time>2026-04-12T08:23:24.983Z</time></trkpt><trkpt lat="42.758615" lon="11.3019083"><ele>324.0</ele><time>2026-04-12T08:23:25.984Z</time></trkpt><trkpt lat="42.7587133" lon="11.3019183"><ele>324.0</ele><time>2026-04-12T08:23:26.983Z</time></trkpt><trkpt lat="42.7587967" lon="11.3019367"><ele>324.0</ele><time>2026-04-12T08:23:27.984Z</time></trkpt><trkpt lat="42.75887" lon="11.301965"><ele>322.8</ele><time>2026-04-12T08:23:28.983Z</time></trkpt><trkpt lat="42.758925" lon="11.3020083"><ele>321.59999999999997</ele><time>2026-04-12T08:23:29.983Z</time></trkpt><trkpt lat="42.7589683" lon="11.3020783"><ele>320.4</ele><time>2026-04-12T08:23:30.984Z</time></trkpt><trkpt lat="42.759025" lon="11.3022317"><ele>319.2</ele><time>2026-04-12T08:23:32.983Z</time></trkpt><trkpt lat="42.75902" lon="11.302405"><ele>318.0</ele><time>2026-04-12T08:23:34.983Z</time></trkpt><trkpt lat="42.7589883" lon="11.30249"><ele>318.0</ele><time>2026-04-12T08:23:35.983Z</time></trkpt><trkpt lat="42.7589217" lon="11.3025533"><ele>318.0</ele><time>2026-04-12T08:23:36.983Z</time></trkpt><trkpt lat="42.7588383" lon="11.3025967"><ele>318.0</ele><time>2026-04-12T08:23:37.983Z</time></trkpt><trkpt lat="42.7587483" lon="11.3026317"><ele>318.0</ele><time>2026-04-12T08:23:38.983Z</time></trkpt><trkpt lat="42.7586583" lon="11.3026617"><ele>318.0</ele><time>2026-04-12T08:23:39.983Z</time></trkpt><trkpt lat="42.7585817" lon="11.3026567"><ele>318.0</ele><time>2026-04-12T08:23:40.984Z</time></trkpt><trkpt lat="42.758505" lon="11.30267"><ele>318.5</ele><time>2026-04-12T08:23:41.984Z</time></trkpt><trkpt lat="42.75843" lon="11.302675"><ele>319.0</ele><time>2026-04-12T08:23:42.983Z</time></trkpt><trkpt lat="42.7583567" lon="11.3026767"><ele>319.5</ele><time>2026-04-12T08:23:43.984Z</time></trkpt><trkpt lat="42.75828" lon="11.3026767"><ele>320.0</ele><time>2026-04-12T08:23:44.983Z</time></trkpt><trkpt lat="42.7581933" lon="11.3026967"><ele>320.5</ele><time>2026-04-12T08:23:45.983Z</time></trkpt><trkpt lat="42.7581167" lon="11.3027383"><ele>321.0</ele><time>2026-04-12T08:23:46.984Z</time></trkpt><trkpt lat="42.75805" lon="11.3027917"><ele>321.0</ele><time>2026-04-12T08:23:47.984Z</time></trkpt><trkpt lat="42.757985" lon="11.30286"><ele>321.0</ele><time>2026-04-12T08:23:48.983Z</time></trkpt><trkpt lat="42.7579133" lon="11.30293"><ele>321.0</ele><time>2026-04-12T08:23:49.983Z</time></trkpt><trkpt lat="42.7578417" lon="11.3030083"><ele>321.0</ele><time>2026-04-12T08:23:50.983Z</time></trkpt><trkpt lat="42.7577583" lon="11.30308"><ele>321.0</ele><time>2026-04-12T08:23:51.983Z</time></trkpt><trkpt lat="42.7576733" lon="11.3031433"><ele>317.6666666666667</ele><time>2026-04-12T08:23:52.983Z</time></trkpt><trkpt lat="42.7575983" lon="11.3032067"><ele>314.3333333333333</ele><time>2026-04-12T08:23:53.983Z</time></trkpt><trkpt lat="42.7575167" lon="11.3032583"><ele>311.0</ele><time>2026-04-12T08:23:54.984Z</time></trkpt><trkpt lat="42.7574333" lon="11.3032967"><ele>307.66666666666663</ele><time>2026-04-12T08:23:55.983Z</time></trkpt><trkpt lat="42.7573483" lon="11.303325"><ele>304.3333333333333</ele><time>2026-04-12T08:23:56.983Z</time></trkpt><trkpt lat="42.757265" lon="11.3033567"><ele>301.0</ele><time>2026-04-12T08:23:57.983Z</time></trkpt><trkpt lat="42.7571867" lon="11.3033983"><ele>301.0</ele><time>2026-04-12T08:23:58.983Z</time></trkpt><trkpt lat="42.7571033" lon="11.3034217"><ele>301.0</ele><time>2026-04-12T08:23:59.983Z</time></trkpt><trkpt lat="42.7570233" lon="11.3034367"><ele>301.0</ele><time>2026-04-12T08:24:00.983Z</time></trkpt><trkpt lat="42.7569533" lon="11.3034383"><ele>301.0</ele><time>2026-04-12T08:24:01.983Z</time></trkpt><trkpt lat="42.7568817" lon="11.3034433"><ele>301.0</ele><time>2026-04-12T08:24:02.983Z</time></trkpt><trkpt lat="42.7568067" lon="11.3034533"><ele>301.0</ele><time>2026-04-12T08:24:03.983Z</time></trkpt><trkpt lat="42.7567283" lon="11.303475"><ele>301.8</ele><time>2026-04-12T08:24:04.983Z</time></trkpt><trkpt lat="42.7566517" lon="11.3035017"><ele>302.6</ele><time>2026-04-12T08:24:05.983Z</time></trkpt><trkpt lat="42.756575" lon="11.3035283"><ele>303.4</ele><time>2026-04-12T08:24:06.983Z</time></trkpt><trkpt lat="42.7564667" lon="11.3035467"><ele>304.2</ele><time>2026-04-12T08:24:08.983Z</time></trkpt><trkpt lat="42.756435" lon="11.30367"><ele>305.0</ele><time>2026-04-12T08:24:11.983Z</time></trkpt><trkpt lat="42.7565133" lon="11.30378"><ele>305.0</ele><time>2026-04-12T08:24:13.983Z</time></trkpt><trkpt lat="42.7565733" lon="11.303835"><ele>305.0</ele><time>2026-04-12T08:24:14.983Z</time></trkpt><trkpt lat="42.7566383" lon="11.303885"><ele>305.0</ele><time>2026-04-12T08:24:15.984Z</time></trkpt><trkpt lat="42.7567167" lon="11.30393"><ele>305.0</ele><time>2026-04-12T08:24:16.983Z</time></trkpt><trkpt lat="42.7567983" lon="11.303965"><ele>305.0</ele><time>2026-04-12T08:24:17.984Z</time></trkpt><trkpt lat="42.756875" lon="11.3040167"><ele>305.0</ele><time>2026-04-12T08:24:18.983Z</time></trkpt><trkpt lat="42.75695" lon="11.3040767"><ele>300.6</ele><time>2026-04-12T08:24:19.984Z</time></trkpt><trkpt lat="42.75702" lon="11.304155"><ele>296.2</ele><time>2026-04-12T08:24:20.983Z</time></trkpt><trkpt lat="42.7571" lon="11.3042483"><ele>291.8</ele><time>2026-04-12T08:24:21.983Z</time></trkpt><trkpt lat="42.75717" lon="11.3043517"><ele>287.4</ele><time>2026-04-12T08:24:22.984Z</time></trkpt><trkpt lat="42.7572317" lon="11.3044583"><ele>283.0</ele><time>2026-04-12T08:24:23.984Z</time></trkpt><trkpt lat="42.7572967" lon="11.3045667"><ele>283.0</ele><time>2026-04-12T08:24:24.983Z</time></trkpt><trkpt lat="42.7573683" lon="11.30467"><ele>283.0</ele><time>2026-04-12T08:24:25.984Z</time></trkpt><trkpt lat="42.757445" lon="11.3047783"><ele>283.0</ele><time>2026-04-12T08:24:26.984Z</time></trkpt><trkpt lat="42.75752" lon="11.3048783"><ele>283.0</ele><time>2026-04-12T08:24:27.983Z</time></trkpt><trkpt lat="42.757595" lon="11.3049883"><ele>283.0</ele><time>2026-04-12T08:24:28.984Z</time></trkpt><trkpt lat="42.7576583" lon="11.305105"><ele>282.2</ele><time>2026-04-12T08:24:29.984Z</time></trkpt><trkpt lat="42.7577083" lon="11.30522"><ele>281.4</ele><time>2026-04-12T08:24:30.984Z</time></trkpt><trkpt lat="42.75775" lon="11.3053483"><ele>280.59999999999997</ele><time>2026-04-12T08:24:31.983Z</time></trkpt><trkpt lat="42.757785" lon="11.3054633"><ele>279.8</ele><time>2026-04-12T08:24:32.983Z</time></trkpt><trkpt lat="42.7578067" lon="11.3055683"><ele>279.0</ele><time>2026-04-12T08:24:33.984Z</time></trkpt><trkpt lat="42.757815" lon="11.3056833"><ele>279.0</ele><time>2026-04-12T08:24:34.983Z</time></trkpt><trkpt lat="42.7578083" lon="11.3057983"><ele>279.0</ele><time>2026-04-12T08:24:35.983Z</time></trkpt><trkpt lat="42.757785" lon="11.3059133"><ele>279.0</ele><time>2026-04-12T08:24:36.984Z</time></trkpt><trkpt lat="42.75775" lon="11.3060283"><ele>279.0</ele><time>2026-04-12T08:24:37.983Z</time></trkpt><trkpt lat="42.7577167" lon="11.30613"><ele>279.0</ele><time>2026-04-12T08:24:38.983Z</time></trkpt><trkpt lat="42.7576867" lon="11.3062267"><ele>279.0</ele><time>2026-04-12T08:24:39.983Z</time></trkpt><trkpt lat="42.7576667" lon="11.3063183"><ele>280.59999999999997</ele><time>2026-04-12T08:24:40.984Z</time></trkpt><trkpt lat="42.7576583" lon="11.3064033"><ele>282.2</ele><time>2026-04-12T08:24:41.983Z</time></trkpt><trkpt lat="42.7576783" lon="11.306555"><ele>283.79999999999995</ele><time>2026-04-12T08:24:43.983Z</time></trkpt><trkpt lat="42.7577517" lon="11.3066667"><ele>285.4</ele><time>2026-04-12T08:24:45.984Z</time></trkpt><trkpt lat="42.757845" lon="11.3066917"><ele>287.0</ele><time>2026-04-12T08:24:47.983Z</time></trkpt><trkpt lat="42.7579433" lon="11.3066833"><ele>287.0</ele><time>2026-04-12T08:24:49.984Z</time></trkpt><trkpt lat="42.7580333" lon="11.3066517"><ele>287.0</ele><time>2026-04-12T08:24:51.984Z</time></trkpt><trkpt lat="42.7581067" lon="11.3066117"><ele>287.0</ele><time>2026-04-12T08:24:53.984Z</time></trkpt><trkpt lat="42.7581717" lon="11.306575"><ele>287.0</ele><time>2026-04-12T08:24:55.983Z</time></trkpt><trkpt lat="42.7582333" lon="11.306545"><ele>287.0</ele><time>2026-04-12T08:24:57.983Z</time></trkpt><trkpt lat="42.758305" lon="11.30651"><ele>287.0</ele><time>2026-04-12T08:25:00.983Z</time></trkpt><trkpt lat="42.7583733" lon="11.3064417"><ele>287.0</ele><time>2026-04-12T08:25:03.983Z</time></trkpt><trkpt lat="42.7584367" lon="11.30642"><ele>287.0</ele><time>2026-04-12T08:25:05.983Z</time></trkpt><trkpt lat="42.7584983" lon="11.306375"><ele>287.0</ele><time>2026-04-12T08:25:08.983Z</time></trkpt><trkpt lat="42.7585717" lon="11.30633"><ele>287.0</ele><time>2026-04-12T08:25:11.983Z</time></trkpt><trkpt lat="42.75864" lon="11.3062767"><ele>287.0</ele><time>2026-04-12T08:25:14.983Z</time></trkpt><trkpt lat="42.758715" lon="11.306245"><ele>287.0</ele><time>2026-04-12T08:25:17.983Z</time></trkpt><trkpt lat="42.7588033" lon="11.3062367"><ele>287.6666666666667</ele><time>2026-04-12T08:25:20.983Z</time></trkpt><trkpt lat="42.7588767" lon="11.3062483"><ele>288.33333333333337</ele><time>2026-04-12T08:25:23.984Z</time></trkpt><trkpt lat="42.7589467" lon="11.3062767"><ele>289.0</ele><time>2026-04-12T08:25:26.983Z</time></trkpt><trkpt lat="42.75901" lon="11.3063467"><ele>289.6666666666667</ele><time>2026-04-12T08:25:30.983Z</time></trkpt><trkpt lat="42.759055" lon="11.3064333"><ele>290.3333333333333</ele><time>2026-04-12T08:25:34.983Z</time></trkpt><trkpt lat="42.759105" lon="11.3065183"><ele>291.0</ele><time>2026-04-12T08:25:39.983Z</time></trkpt><trkpt lat="42.7591567" lon="11.3065967"><ele>291.0</ele><time>2026-04-12T08:25:43.983Z</time></trkpt><trkpt lat="42.759185" lon="11.3066917"><ele>291.0</ele><time>2026-04-12T08:25:47.983Z</time></trkpt><trkpt lat="42.7592533" lon="11.3067817"><ele>291.0</ele><time>2026-04-12T08:25:54.983Z</time></trkpt><trkpt lat="42.75929" lon="11.3068533"><ele>291.0</ele><time>2026-04-12T08:25:57.983Z</time></trkpt><trkpt lat="42.759325" lon="11.30694"><ele>291.0</ele><time>2026-04-12T08:26:00.983Z</time></trkpt><trkpt lat="42.7593633" lon="11.3070417"><ele>291.0</ele><time>2026-04-12T08:26:04.984Z</time></trkpt><trkpt lat="42.7594033" lon="11.3071117"><ele>290.1666666666667</ele><time>2026-04-12T08:26:08.983Z</time></trkpt><trkpt lat="42.75945" lon="11.3072167"><ele>289.3333333333333</ele><time>2026-04-12T08:26:14.983Z</time></trkpt><trkpt lat="42.75949" lon="11.3073033"><ele>288.5</ele><time>2026-04-12T08:26:20.984Z</time></trkpt><trkpt lat="42.7595417" lon="11.30739"><ele>287.66666666666663</ele><time>2026-04-12T08:26:24.984Z</time></trkpt><trkpt lat="42.7595867" lon="11.30745"><ele>286.8333333333333</ele><time>2026-04-12T08:26:28.983Z</time></trkpt><trkpt lat="42.7596233" lon="11.3075433"><ele>286.0</ele><time>2026-04-12T08:26:34.983Z</time></trkpt><trkpt lat="42.7597017" lon="11.3077233"><ele>288.71428571428567</ele><time>2026-04-12T08:26:45.983Z</time></trkpt><trkpt lat="42.7597317" lon="11.3078033"><ele>291.42857142857144</ele><time>2026-04-12T08:26:48.984Z</time></trkpt><trkpt lat="42.7597467" lon="11.3078967"><ele>294.1428571428571</ele><time>2026-04-12T08:26:52.983Z</time></trkpt><trkpt lat="42.7597367" lon="11.3080033"><ele>296.85714285714283</ele><time>2026-04-12T08:26:59.983Z</time></trkpt><trkpt lat="42.7597417" lon="11.3081017"><ele>299.57142857142856</ele><time>2026-04-12T08:27:04.984Z</time></trkpt><trkpt lat="42.7597433" lon="11.30819"><ele>302.2857142857143</ele><time>2026-04-12T08:27:09.983Z</time></trkpt><trkpt lat="42.7597583" lon="11.3083083"><ele>305.0</ele><time>2026-04-12T08:27:16.983Z</time></trkpt><trkpt lat="42.7597533" lon="11.3084133"><ele>307.7142857142857</ele><time>2026-04-12T08:27:24.983Z</time></trkpt><trkpt lat="42.7597567" lon="11.3085133"><ele>310.4285714285714</ele><time>2026-04-12T08:27:28.983Z</time></trkpt><trkpt lat="42.7597417" lon="11.3085983"><ele>313.1428571428571</ele><time>2026-04-12T08:27:33.983Z</time></trkpt><trkpt lat="42.7597433" lon="11.3086967"><ele>315.8571428571429</ele><time>2026-04-12T08:27:39.982Z</time></trkpt><trkpt lat="42.75974" lon="11.3087833"><ele>318.57142857142856</ele><time>2026-04-12T08:27:44.983Z</time></trkpt><trkpt lat="42.7597267" lon="11.3088783"><ele>321.2857142857143</ele><time>2026-04-12T08:27:50.982Z</time></trkpt><trkpt lat="42.759725" lon="11.3089683"><ele>324.0</ele><time>2026-04-12T08:27:58.982Z</time></trkpt><trkpt lat="42.7597383" lon="11.309065"><ele>326.2</ele><time>2026-04-12T08:28:03.982Z</time></trkpt><trkpt lat="42.7597217" lon="11.3091567"><ele>328.4</ele><time>2026-04-12T08:28:10.983Z</time></trkpt><trkpt lat="42.7596967" lon="11.309245"><ele>330.6</ele><time>2026-04-12T08:28:14.982Z</time></trkpt><trkpt lat="42.7596967" lon="11.30935"><ele>332.8</ele><time>2026-04-12T08:28:22.982Z</time></trkpt><trkpt lat="42.759695" lon="11.3095617"><ele>335.0</ele><time>2026-04-12T08:28:34.982Z</time></trkpt><trkpt lat="42.7596917" lon="11.3096767"><ele>336.33333333333337</ele><time>2026-04-12T08:28:40.982Z</time></trkpt><trkpt lat="42.75969" lon="11.3097767"><ele>337.6666666666667</ele><time>2026-04-12T08:28:44.982Z</time></trkpt><trkpt lat="42.7596767" lon="11.30991"><ele>339.0</ele><time>2026-04-12T08:28:53.982Z</time></trkpt><trkpt lat="42.7596733" lon="11.3100067"><ele>340.3333333333333</ele><time>2026-04-12T08:28:57.982Z</time></trkpt><trkpt lat="42.75967" lon="11.3100983"><ele>341.66666666666663</ele><time>2026-04-12T08:29:02.982Z</time></trkpt><trkpt lat="42.7596567" lon="11.3101883"><ele>343.0</ele><time>2026-04-12T08:29:08.982Z</time></trkpt><trkpt lat="42.75966" lon="11.3102883"><ele>343.0</ele><time>2026-04-12T08:29:13.982Z</time></trkpt><trkpt lat="42.7596717" lon="11.3103883"><ele>343.0</ele><time>2026-04-12T08:29:17.982Z</time></trkpt><trkpt lat="42.7596567" lon="11.3104767"><ele>343.0</ele><time>2026-04-12T08:29:22.982Z</time></trkpt><trkpt lat="42.7596533" lon="11.3105833"><ele>343.0</ele><time>2026-04-12T08:29:28.982Z</time></trkpt><trkpt lat="42.7596467" lon="11.31068"><ele>343.0</ele><time>2026-04-12T08:29:32.982Z</time></trkpt><trkpt lat="42.7596483" lon="11.3107933"><ele>343.0</ele><time>2026-04-12T08:29:36.983Z</time></trkpt><trkpt lat="42.7596433" lon="11.3108883"><ele>343.0</ele><time>2026-04-12T08:29:40.982Z</time></trkpt><trkpt lat="42.7596433" lon="11.3109917"><ele>343.16666666666663</ele><time>2026-04-12T08:29:45.982Z</time></trkpt><trkpt lat="42.7596283" lon="11.3110767"><ele>343.3333333333333</ele><time>2026-04-12T08:29:49.982Z</time></trkpt><trkpt lat="42.75962" lon="11.3111667"><ele>343.5</ele><time>2026-04-12T08:29:54.982Z</time></trkpt><trkpt lat="42.7596233" lon="11.3112733"><ele>343.6666666666667</ele><time>2026-04-12T08:30:18.983Z</time></trkpt><trkpt lat="42.7595883" lon="11.3113833"><ele>343.83333333333337</ele><time>2026-04-12T08:30:22.982Z</time></trkpt><trkpt lat="42.7595433" lon="11.31149"><ele>344.0</ele><time>2026-04-12T08:30:25.983Z</time></trkpt><trkpt lat="42.7595183" lon="11.3115717"><ele>344.0</ele><time>2026-04-12T08:30:27.982Z</time></trkpt><trkpt lat="42.7594933" lon="11.311685"><ele>344.0</ele><time>2026-04-12T08:30:30.983Z</time></trkpt><trkpt lat="42.7594567" lon="11.3117667"><ele>344.0</ele><time>2026-04-12T08:30:32.982Z</time></trkpt><trkpt lat="42.7594067" lon="11.3118467"><ele>344.0</ele><time>2026-04-12T08:30:34.983Z</time></trkpt><trkpt lat="42.75935" lon="11.3119217"><ele>344.0</ele><time>2026-04-12T08:30:36.982Z</time></trkpt><trkpt lat="42.7592833" lon="11.3119917"><ele>344.0</ele><time>2026-04-12T08:30:38.983Z</time></trkpt><trkpt lat="42.7592083" lon="11.3120517"><ele>344.0</ele><time>2026-04-12T08:30:40.982Z</time></trkpt><trkpt lat="42.7591317" lon="11.3120883"><ele>344.0</ele><time>2026-04-12T08:30:42.982Z</time></trkpt><trkpt lat="42.7590517" lon="11.3121117"><ele>344.0</ele><time>2026-04-12T08:30:44.982Z</time></trkpt><trkpt lat="42.7589683" lon="11.3121483"><ele>344.0</ele><time>2026-04-12T08:30:46.982Z</time></trkpt><trkpt lat="42.7588933" lon="11.31217"><ele>344.0</ele><time>2026-04-12T08:30:48.982Z</time></trkpt><trkpt lat="42.75882" lon="11.3121883"><ele>344.0</ele><time>2026-04-12T08:30:50.983Z</time></trkpt><trkpt lat="42.75875" lon="11.3122117"><ele>344.00000000000006</ele><time>2026-04-12T08:30:52.982Z</time></trkpt><trkpt lat="42.7586667" lon="11.3122333"><ele>344.0</ele><time>2026-04-12T08:30:55.982Z</time></trkpt><trkpt lat="42.7586083" lon="11.3122817"><ele>344.0</ele><time>2026-04-12T08:30:58.982Z</time></trkpt><trkpt lat="42.758575" lon="11.3123583"><ele>344.0</ele><time>2026-04-12T08:31:01.982Z</time></trkpt><trkpt lat="42.7585517" lon="11.3124433"><ele>344.0</ele><time>2026-04-12T08:31:04.982Z</time></trkpt><trkpt lat="42.7585683" lon="11.3125533"><ele>344.00000000000006</ele><time>2026-04-12T08:31:08.982Z</time></trkpt><trkpt lat="42.7586333" lon="11.3126"><ele>344.0</ele><time>2026-04-12T08:31:11.982Z</time></trkpt><trkpt lat="42.7586817" lon="11.3126567"><ele>344.0</ele><time>2026-04-12T08:31:13.982Z</time></trkpt><trkpt lat="42.7587367" lon="11.3127283"><ele>344.0</ele><time>2026-04-12T08:31:16.983Z</time></trkpt><trkpt lat="42.7587867" lon="11.3127833"><ele>344.0</ele><time>2026-04-12T08:31:18.983Z</time></trkpt><trkpt lat="42.7588367" lon="11.31285"><ele>344.0</ele><time>2026-04-12T08:31:20.982Z</time></trkpt><trkpt lat="42.7589117" lon="11.31292"><ele>344.0</ele><time>2026-04-12T08:31:23.983Z</time></trkpt><trkpt lat="42.7589833" lon="11.3129717"><ele>344.0</ele><time>2026-04-12T08:31:26.982Z</time></trkpt><trkpt lat="42.75906" lon="11.3130367"><ele>344.83333333333337</ele><time>2026-04-12T08:31:29.982Z</time></trkpt><trkpt lat="42.7591267" lon="11.3131117"><ele>345.6666666666667</ele><time>2026-04-12T08:31:32.983Z</time></trkpt><trkpt lat="42.7591933" lon="11.3132067"><ele>346.5</ele><time>2026-04-12T08:31:35.982Z</time></trkpt><trkpt lat="42.759265" lon="11.3132783"><ele>347.3333333333333</ele><time>2026-04-12T08:31:37.982Z</time></trkpt><trkpt lat="42.7593233" lon="11.3133383"><ele>348.16666666666663</ele><time>2026-04-12T08:31:39.983Z</time></trkpt><trkpt lat="42.7593883" lon="11.3133933"><ele>349.0</ele><time>2026-04-12T08:31:41.982Z</time></trkpt><trkpt lat="42.7594567" lon="11.3134517"><ele>349.0</ele><time>2026-04-12T08:31:43.982Z</time></trkpt><trkpt lat="42.7595233" lon="11.3135367"><ele>349.0</ele><time>2026-04-12T08:31:45.982Z</time></trkpt><trkpt lat="42.75959" lon="11.31363"><ele>349.0</ele><time>2026-04-12T08:31:47.983Z</time></trkpt><trkpt lat="42.759665" lon="11.313735"><ele>349.0</ele><time>2026-04-12T08:31:49.982Z</time></trkpt><trkpt lat="42.7597467" lon="11.3138233"><ele>349.0</ele><time>2026-04-12T08:31:51.983Z</time></trkpt><trkpt lat="42.7598317" lon="11.3139117"><ele>349.66666666666663</ele><time>2026-04-12T08:31:53.983Z</time></trkpt><trkpt lat="42.7599183" lon="11.3139967"><ele>350.3333333333333</ele><time>2026-04-12T08:31:55.983Z</time></trkpt><trkpt lat="42.76001" lon="11.3140833"><ele>351.0</ele><time>2026-04-12T08:31:57.983Z</time></trkpt><trkpt lat="42.7600717" lon="11.3141283"><ele>351.6666666666667</ele><time>2026-04-12T08:31:58.982Z</time></trkpt><trkpt lat="42.7601317" lon="11.31418"><ele>352.33333333333337</ele><time>2026-04-12T08:31:59.982Z</time></trkpt><trkpt lat="42.7601983" lon="11.3142367"><ele>353.0</ele><time>2026-04-12T08:32:00.983Z</time></trkpt><trkpt lat="42.7602633" lon="11.3142917"><ele>351.7142857142857</ele><time>2026-04-12T08:32:01.982Z</time></trkpt><trkpt lat="42.76033" lon="11.3143417"><ele>350.42857142857144</ele><time>2026-04-12T08:32:02.982Z</time></trkpt><trkpt lat="42.7603933" lon="11.31439"><ele>349.14285714285717</ele><time>2026-04-12T08:32:03.983Z</time></trkpt><trkpt lat="42.760455" lon="11.314425"><ele>347.8571428571429</ele><time>2026-04-12T08:32:04.982Z</time></trkpt><trkpt lat="42.7605267" lon="11.3144333"><ele>346.57142857142856</ele><time>2026-04-12T08:32:05.983Z</time></trkpt><trkpt lat="42.7605967" lon="11.314405"><ele>345.28571428571433</ele><time>2026-04-12T08:32:06.982Z</time></trkpt><trkpt lat="42.76066" lon="11.314365"><ele>344.0</ele><time>2026-04-12T08:32:07.982Z</time></trkpt><trkpt lat="42.7607117" lon="11.314315"><ele>344.0</ele><time>2026-04-12T08:32:08.983Z</time></trkpt><trkpt lat="42.760815" lon="11.3141983"><ele>344.0</ele><time>2026-04-12T08:32:10.982Z</time></trkpt><trkpt lat="42.7608733" lon="11.314125"><ele>344.0</ele><time>2026-04-12T08:32:11.982Z</time></trkpt><trkpt lat="42.7609283" lon="11.3140617"><ele>344.0</ele><time>2026-04-12T08:32:12.983Z</time></trkpt><trkpt lat="42.7609767" lon="11.314005"><ele>344.0</ele><time>2026-04-12T08:32:13.983Z</time></trkpt><trkpt lat="42.7610383" lon="11.3139467"><ele>344.0</ele><time>2026-04-12T08:32:14.982Z</time></trkpt><trkpt lat="42.7611017" lon="11.3138917"><ele>342.1666666666667</ele><time>2026-04-12T08:32:15.983Z</time></trkpt><trkpt lat="42.761165" lon="11.3138433"><ele>340.33333333333337</ele><time>2026-04-12T08:32:16.982Z</time></trkpt><trkpt lat="42.7612433" lon="11.31382"><ele>338.5</ele><time>2026-04-12T08:32:17.982Z</time></trkpt><trkpt lat="42.7613233" lon="11.3138133"><ele>336.6666666666667</ele><time>2026-04-12T08:32:18.982Z</time></trkpt><trkpt lat="42.7614033" lon="11.313835"><ele>334.8333333333333</ele><time>2026-04-12T08:32:19.981Z</time></trkpt><trkpt lat="42.7614717" lon="11.3138783"><ele>333.0</ele><time>2026-04-12T08:32:20.982Z</time></trkpt><trkpt lat="42.76153" lon="11.3139483"><ele>333.0</ele><time>2026-04-12T08:32:21.982Z</time></trkpt><trkpt lat="42.761575" lon="11.3140267"><ele>333.0</ele><time>2026-04-12T08:32:22.982Z</time></trkpt><trkpt lat="42.7616217" lon="11.3141233"><ele>333.0</ele><time>2026-04-12T08:32:23.982Z</time></trkpt><trkpt lat="42.76167" lon="11.3142267"><ele>333.0</ele><time>2026-04-12T08:32:24.982Z</time></trkpt><trkpt lat="42.7617117" lon="11.314325"><ele>333.0</ele><time>2026-04-12T08:32:25.983Z</time></trkpt><trkpt lat="42.7617567" lon="11.3144317"><ele>333.0</ele><time>2026-04-12T08:32:26.982Z</time></trkpt><trkpt lat="42.76181" lon="11.3145383"><ele>333.0</ele><time>2026-04-12T08:32:27.982Z</time></trkpt><trkpt lat="42.76186" lon="11.3146467"><ele>333.0</ele><time>2026-04-12T08:32:28.983Z</time></trkpt><trkpt lat="42.7619083" lon="11.3147583"><ele>333.0</ele><time>2026-04-12T08:32:29.982Z</time></trkpt><trkpt lat="42.76196" lon="11.3148717"><ele>333.0</ele><time>2026-04-12T08:32:30.982Z</time></trkpt><trkpt lat="42.7620167" lon="11.3149833"><ele>333.0</ele><time>2026-04-12T08:32:31.982Z</time></trkpt><trkpt lat="42.7620717" lon="11.315095"><ele>331.79999999999995</ele><time>2026-04-12T08:32:32.982Z</time></trkpt><trkpt lat="42.7621317" lon="11.3152"><ele>330.6</ele><time>2026-04-12T08:32:33.982Z</time></trkpt><trkpt lat="42.7622033" lon="11.3153017"><ele>329.4</ele><time>2026-04-12T08:32:34.983Z</time></trkpt><trkpt lat="42.7622767" lon="11.3154"><ele>328.20000000000005</ele><time>2026-04-12T08:32:35.982Z</time></trkpt><trkpt lat="42.7623483" lon="11.3154983"><ele>327.0</ele><time>2026-04-12T08:32:36.982Z</time></trkpt><trkpt lat="42.7624017" lon="11.3155867"><ele>327.0</ele><time>2026-04-12T08:32:37.982Z</time></trkpt><trkpt lat="42.7624567" lon="11.3156733"><ele>327.0</ele><time>2026-04-12T08:32:38.982Z</time></trkpt><trkpt lat="42.7625167" lon="11.315735"><ele>327.0</ele><time>2026-04-12T08:32:39.982Z</time></trkpt><trkpt lat="42.762575" lon="11.3157767"><ele>327.0</ele><time>2026-04-12T08:32:40.982Z</time></trkpt><trkpt lat="42.76264" lon="11.315785"><ele>327.0</ele><time>2026-04-12T08:32:41.982Z</time></trkpt><trkpt lat="42.7627083" lon="11.3157417"><ele>327.0</ele><time>2026-04-12T08:32:42.982Z</time></trkpt><trkpt lat="42.7627733" lon="11.315665"><ele>321.8</ele><time>2026-04-12T08:32:43.983Z</time></trkpt><trkpt lat="42.7628383" lon="11.3155583"><ele>316.6</ele><time>2026-04-12T08:32:44.982Z</time></trkpt><trkpt lat="42.7629067" lon="11.315465"><ele>311.40000000000003</ele><time>2026-04-12T08:32:45.982Z</time></trkpt><trkpt lat="42.7629767" lon="11.3153817"><ele>306.20000000000005</ele><time>2026-04-12T08:32:46.982Z</time></trkpt><trkpt lat="42.7630583" lon="11.3153133"><ele>301.0</ele><time>2026-04-12T08:32:47.982Z</time></trkpt><trkpt lat="42.76315" lon="11.3152733"><ele>301.0</ele><time>2026-04-12T08:32:48.982Z</time></trkpt><trkpt lat="42.763245" lon="11.3152667"><ele>301.0</ele><time>2026-04-12T08:32:49.982Z</time></trkpt><trkpt lat="42.7633417" lon="11.3152967"><ele>301.0</ele><time>2026-04-12T08:32:50.983Z</time></trkpt><trkpt lat="42.7634417" lon="11.3153533"><ele>301.0</ele><time>2026-04-12T08:32:51.982Z</time></trkpt><trkpt lat="42.7635333" lon="11.3154367"><ele>301.0</ele><time>2026-04-12T08:32:52.983Z</time></trkpt><trkpt lat="42.763625" lon="11.3155233"><ele>300.40000000000003</ele><time>2026-04-12T08:32:53.983Z</time></trkpt><trkpt lat="42.7637133" lon="11.3156017"><ele>299.8</ele><time>2026-04-12T08:32:54.982Z</time></trkpt><trkpt lat="42.7638017" lon="11.3156833"><ele>299.20000000000005</ele><time>2026-04-12T08:32:55.982Z</time></trkpt><trkpt lat="42.7638883" lon="11.315765"><ele>298.6</ele><time>2026-04-12T08:32:56.982Z</time></trkpt><trkpt lat="42.7639833" lon="11.315845"><ele>298.0</ele><time>2026-04-12T08:32:57.982Z</time></trkpt><trkpt lat="42.76408" lon="11.315925"><ele>298.0</ele><time>2026-04-12T08:32:58.983Z</time></trkpt><trkpt lat="42.764175" lon="11.3159733"><ele>298.0</ele><time>2026-04-12T08:32:59.983Z</time></trkpt><trkpt lat="42.7642717" lon="11.3160183"><ele>298.0</ele><time>2026-04-12T08:33:00.982Z</time></trkpt><trkpt lat="42.764365" lon="11.3160617"><ele>298.0</ele><time>2026-04-12T08:33:01.982Z</time></trkpt><trkpt lat="42.7644683" lon="11.3160983"><ele>298.0</ele><time>2026-04-12T08:33:02.983Z</time></trkpt><trkpt lat="42.7645733" lon="11.3161117"><ele>296.2</ele><time>2026-04-12T08:33:03.982Z</time></trkpt><trkpt lat="42.7646733" lon="11.3160883"><ele>294.4</ele><time>2026-04-12T08:33:04.982Z</time></trkpt><trkpt lat="42.7647733" lon="11.3160617"><ele>292.59999999999997</ele><time>2026-04-12T08:33:05.982Z</time></trkpt><trkpt lat="42.7648717" lon="11.3160317"><ele>290.8</ele><time>2026-04-12T08:33:06.982Z</time></trkpt><trkpt lat="42.7649867" lon="11.3160167"><ele>289.0</ele><time>2026-04-12T08:33:07.982Z</time></trkpt><trkpt lat="42.7650983" lon="11.3159883"><ele>287.0</ele><time>2026-04-12T08:33:08.982Z</time></trkpt><trkpt lat="42.7652083" lon="11.3159533"><ele>285.0</ele><time>2026-04-12T08:33:09.982Z</time></trkpt><trkpt lat="42.7653183" lon="11.31593"><ele>283.0</ele><time>2026-04-12T08:33:10.983Z</time></trkpt><trkpt lat="42.765445" lon="11.3159217"><ele>281.0</ele><time>2026-04-12T08:33:11.983Z</time></trkpt><trkpt lat="42.7655683" lon="11.3159033"><ele>281.0</ele><time>2026-04-12T08:33:12.982Z</time></trkpt><trkpt lat="42.7656917" lon="11.3158883"><ele>281.0</ele><time>2026-04-12T08:33:13.982Z</time></trkpt><trkpt lat="42.7658083" lon="11.3158783"><ele>281.0</ele><time>2026-04-12T08:33:14.982Z</time></trkpt><trkpt lat="42.765915" lon="11.3158717"><ele>281.0</ele><time>2026-04-12T08:33:15.982Z</time></trkpt><trkpt lat="42.76602" lon="11.3158733"><ele>279.0</ele><time>2026-04-12T08:33:16.982Z</time></trkpt><trkpt lat="42.7661183" lon="11.31591"><ele>277.0</ele><time>2026-04-12T08:33:17.982Z</time></trkpt><trkpt lat="42.7662183" lon="11.3159517"><ele>275.0</ele><time>2026-04-12T08:33:18.982Z</time></trkpt><trkpt lat="42.7663117" lon="11.3160167"><ele>273.0</ele><time>2026-04-12T08:33:19.982Z</time></trkpt><trkpt lat="42.7663983" lon="11.3160867"><ele>271.0</ele><time>2026-04-12T08:33:20.982Z</time></trkpt><trkpt lat="42.766485" lon="11.3161717"><ele>271.0</ele><time>2026-04-12T08:33:21.982Z</time></trkpt><trkpt lat="42.7665717" lon="11.3162583"><ele>271.0</ele><time>2026-04-12T08:33:22.982Z</time></trkpt><trkpt lat="42.7666533" lon="11.3163433"><ele>271.0</ele><time>2026-04-12T08:33:23.982Z</time></trkpt><trkpt lat="42.7667383" lon="11.31643"><ele>271.0</ele><time>2026-04-12T08:33:24.982Z</time></trkpt><trkpt lat="42.7668267" lon="11.31652"><ele>271.0</ele><time>2026-04-12T08:33:25.982Z</time></trkpt><trkpt lat="42.766925" lon="11.3165967"><ele>272.0</ele><time>2026-04-12T08:33:26.983Z</time></trkpt><trkpt lat="42.767025" lon="11.3166567"><ele>273.0</ele><time>2026-04-12T08:33:27.982Z</time></trkpt><trkpt lat="42.7671133" lon="11.316705"><ele>274.0</ele><time>2026-04-12T08:33:28.982Z</time></trkpt><trkpt lat="42.7672067" lon="11.3167333"><ele>275.0</ele><time>2026-04-12T08:33:29.982Z</time></trkpt><trkpt lat="42.7673" lon="11.3167733"><ele>276.0</ele><time>2026-04-12T08:33:30.982Z</time></trkpt><trkpt lat="42.767385" lon="11.3168183"><ele>276.0</ele><time>2026-04-12T08:33:31.982Z</time></trkpt><trkpt lat="42.767465" lon="11.3168583"><ele>276.0</ele><time>2026-04-12T08:33:32.983Z</time></trkpt><trkpt lat="42.7675333" lon="11.3168917"><ele>276.0</ele><time>2026-04-12T08:33:33.982Z</time></trkpt><trkpt lat="42.7675983" lon="11.3169317"><ele>276.0</ele><time>2026-04-12T08:33:34.982Z</time></trkpt><trkpt lat="42.767655" lon="11.31697"><ele>276.0</ele><time>2026-04-12T08:33:35.983Z</time></trkpt><trkpt lat="42.767765" lon="11.3170317"><ele>276.0</ele><time>2026-04-12T08:33:37.982Z</time></trkpt><trkpt lat="42.767865" lon="11.3171117"><ele>274.8333333333333</ele><time>2026-04-12T08:33:39.982Z</time></trkpt><trkpt lat="42.7679117" lon="11.3171717"><ele>273.6666666666667</ele><time>2026-04-12T08:33:40.982Z</time></trkpt><trkpt lat="42.7679583" lon="11.3172417"><ele>272.5</ele><time>2026-04-12T08:33:41.982Z</time></trkpt><trkpt lat="42.767975" lon="11.3173367"><ele>271.33333333333337</ele><time>2026-04-12T08:33:42.982Z</time></trkpt><trkpt lat="42.7679867" lon="11.3174367"><ele>270.1666666666667</ele><time>2026-04-12T08:33:43.982Z</time></trkpt><trkpt lat="42.7679933" lon="11.3175583"><ele>269.0</ele><time>2026-04-12T08:33:44.982Z</time></trkpt><trkpt lat="42.7680067" lon="11.31768"><ele>268.8</ele><time>2026-04-12T08:33:45.982Z</time></trkpt><trkpt lat="42.76804" lon="11.3177933"><ele>268.59999999999997</ele><time>2026-04-12T08:33:46.982Z</time></trkpt><trkpt lat="42.7681" lon="11.3179"><ele>268.4</ele><time>2026-04-12T08:33:47.982Z</time></trkpt><trkpt lat="42.768165" lon="11.3179867"><ele>268.2</ele><time>2026-04-12T08:33:48.982Z</time></trkpt><trkpt lat="42.768235" lon="11.3180783"><ele>268.0</ele><time>2026-04-12T08:33:49.982Z</time></trkpt><trkpt lat="42.7683033" lon="11.3181583"><ele>268.5</ele><time>2026-04-12T08:33:50.983Z</time></trkpt><trkpt lat="42.76837" lon="11.318225"><ele>269.0</ele><time>2026-04-12T08:33:51.982Z</time></trkpt><trkpt lat="42.7684317" lon="11.3182917"><ele>269.5</ele><time>2026-04-12T08:33:52.982Z</time></trkpt><trkpt lat="42.7684967" lon="11.318365"><ele>270.0</ele><time>2026-04-12T08:33:53.982Z</time></trkpt><trkpt lat="42.768555" lon="11.3184417"><ele>270.5</ele><time>2026-04-12T08:33:54.982Z</time></trkpt><trkpt lat="42.7686117" lon="11.31852"><ele>271.0</ele><time>2026-04-12T08:33:55.983Z</time></trkpt><trkpt lat="42.7686683" lon="11.3186033"><ele>270.5</ele><time>2026-04-12T08:33:56.982Z</time></trkpt><trkpt lat="42.7687233" lon="11.318685"><ele>270.0</ele><time>2026-04-12T08:33:57.982Z</time></trkpt><trkpt lat="42.7687733" lon="11.3187667"><ele>269.5</ele><time>2026-04-12T08:33:58.982Z</time></trkpt><trkpt lat="42.7688217" lon="11.31885"><ele>269.0</ele><time>2026-04-12T08:33:59.982Z</time></trkpt><trkpt lat="42.7688667" lon="11.3189333"><ele>268.5</ele><time>2026-04-12T08:34:00.982Z</time></trkpt><trkpt lat="42.76891" lon="11.3190217"><ele>268.0</ele><time>2026-04-12T08:34:01.982Z</time></trkpt><trkpt lat="42.7689517" lon="11.3191083"><ele>268.0</ele><time>2026-04-12T08:34:02.983Z</time></trkpt><trkpt lat="42.7689917" lon="11.3191867"><ele>268.0</ele><time>2026-04-12T08:34:03.982Z</time></trkpt><trkpt lat="42.769035" lon="11.3192683"><ele>268.0</ele><time>2026-04-12T08:34:04.983Z</time></trkpt><trkpt lat="42.7690817" lon="11.3193283"><ele>268.0</ele><time>2026-04-12T08:34:05.983Z</time></trkpt><trkpt lat="42.7691883" lon="11.3194083"><ele>268.0</ele><time>2026-04-12T08:34:07.982Z</time></trkpt><trkpt lat="42.7692817" lon="11.3194133"><ele>268.0</ele><time>2026-04-12T08:34:09.982Z</time></trkpt><trkpt lat="42.7693683" lon="11.3193783"><ele>268.2857142857143</ele><time>2026-04-12T08:34:11.982Z</time></trkpt><trkpt lat="42.7694367" lon="11.3193283"><ele>268.57142857142856</ele><time>2026-04-12T08:34:14.983Z</time></trkpt><trkpt lat="42.7695067" lon="11.319305"><ele>268.85714285714283</ele><time>2026-04-12T08:34:17.982Z</time></trkpt><trkpt lat="42.769565" lon="11.319265"><ele>269.1428571428571</ele><time>2026-04-12T08:34:19.982Z</time></trkpt><trkpt lat="42.7696267" lon="11.3192433"><ele>269.4285714285714</ele><time>2026-04-12T08:34:21.982Z</time></trkpt><trkpt lat="42.7697" lon="11.31924"><ele>269.7142857142857</ele><time>2026-04-12T08:34:24.982Z</time></trkpt><trkpt lat="42.769785" lon="11.3192483"><ele>270.0</ele><time>2026-04-12T08:34:27.982Z</time></trkpt><trkpt lat="42.7698817" lon="11.3192367"><ele>270.0</ele><time>2026-04-12T08:34:30.982Z</time></trkpt><trkpt lat="42.7699483" lon="11.3192133"><ele>270.0</ele><time>2026-04-12T08:34:32.982Z</time></trkpt><trkpt lat="42.770015" lon="11.31917"><ele>270.0</ele><time>2026-04-12T08:34:34.983Z</time></trkpt><trkpt lat="42.7701117" lon="11.3191433"><ele>270.0</ele><time>2026-04-12T08:34:37.982Z</time></trkpt><trkpt lat="42.7701867" lon="11.319125"><ele>270.0</ele><time>2026-04-12T08:34:39.982Z</time></trkpt><trkpt lat="42.770265" lon="11.3191017"><ele>270.0</ele><time>2026-04-12T08:34:42.982Z</time></trkpt><trkpt lat="42.7703517" lon="11.319085"><ele>270.5</ele><time>2026-04-12T08:34:46.982Z</time></trkpt><trkpt lat="42.77043" lon="11.319045"><ele>271.0</ele><time>2026-04-12T08:34:49.982Z</time></trkpt><trkpt lat="42.7705217" lon="11.319025"><ele>271.5</ele><time>2026-04-12T08:34:52.982Z</time></trkpt><trkpt lat="42.7706033" lon="11.3190267"><ele>272.0</ele><time>2026-04-12T08:34:55.982Z</time></trkpt><trkpt lat="42.770685" lon="11.319005"><ele>272.5</ele><time>2026-04-12T08:34:59.982Z</time></trkpt><trkpt lat="42.77078" lon="11.3189633"><ele>273.0</ele><time>2026-04-12T08:35:02.983Z</time></trkpt><trkpt lat="42.77086" lon="11.3189417"><ele>273.0</ele><time>2026-04-12T08:35:05.983Z</time></trkpt><trkpt lat="42.7709217" lon="11.3189033"><ele>273.0</ele><time>2026-04-12T08:35:07.982Z</time></trkpt><trkpt lat="42.7709983" lon="11.3188667"><ele>273.0</ele><time>2026-04-12T08:35:10.982Z</time></trkpt><trkpt lat="42.7710533" lon="11.3188217"><ele>273.0</ele><time>2026-04-12T08:35:13.982Z</time></trkpt><trkpt lat="42.7711383" lon="11.3187967"><ele>273.0</ele><time>2026-04-12T08:35:17.982Z</time></trkpt><trkpt lat="42.7712033" lon="11.318765"><ele>273.0</ele><time>2026-04-12T08:35:19.982Z</time></trkpt><trkpt lat="42.7712683" lon="11.3187217"><ele>273.0</ele><time>2026-04-12T08:35:21.982Z</time></trkpt><trkpt lat="42.7713517" lon="11.3186783"><ele>272.6</ele><time>2026-04-12T08:35:23.982Z</time></trkpt><trkpt lat="42.77146" lon="11.3185967"><ele>272.20000000000005</ele><time>2026-04-12T08:35:25.982Z</time></trkpt><trkpt lat="42.7715283" lon="11.3185617"><ele>271.8</ele><time>2026-04-12T08:35:26.983Z</time></trkpt><trkpt lat="42.771595" lon="11.3185217"><ele>271.40000000000003</ele><time>2026-04-12T08:35:27.982Z</time></trkpt><trkpt lat="42.7716717" lon="11.3184833"><ele>271.0</ele><time>2026-04-12T08:35:28.983Z</time></trkpt><trkpt lat="42.7717683" lon="11.31843"><ele>269.8</ele><time>2026-04-12T08:35:29.982Z</time></trkpt><trkpt lat="42.7718683" lon="11.31837"><ele>268.6</ele><time>2026-04-12T08:35:30.982Z</time></trkpt><trkpt lat="42.7719667" lon="11.318325"><ele>267.4</ele><time>2026-04-12T08:35:31.982Z</time></trkpt><trkpt lat="42.77206" lon="11.318285"><ele>266.2</ele><time>2026-04-12T08:35:32.983Z</time></trkpt><trkpt lat="42.7721517" lon="11.3182367"><ele>265.0</ele><time>2026-04-12T08:35:33.982Z</time></trkpt><trkpt lat="42.7722467" lon="11.3181833"><ele>265.0</ele><time>2026-04-12T08:35:34.983Z</time></trkpt><trkpt lat="42.77233" lon="11.3181383"><ele>265.0</ele><time>2026-04-12T08:35:35.983Z</time></trkpt><trkpt lat="42.7724083" lon="11.318095"><ele>265.0</ele><time>2026-04-12T08:35:36.982Z</time></trkpt><trkpt lat="42.7724867" lon="11.318055"><ele>265.0</ele><time>2026-04-12T08:35:37.982Z</time></trkpt><trkpt lat="42.77257" lon="11.318025"><ele>265.0</ele><time>2026-04-12T08:35:38.982Z</time></trkpt><trkpt lat="42.77265" lon="11.3179983"><ele>265.0</ele><time>2026-04-12T08:35:39.982Z</time></trkpt><trkpt lat="42.7727333" lon="11.3179717"><ele>262.0</ele><time>2026-04-12T08:35:40.983Z</time></trkpt><trkpt lat="42.7728217" lon="11.3179583"><ele>259.0</ele><time>2026-04-12T08:35:41.982Z</time></trkpt><trkpt lat="42.7729033" lon="11.3179433"><ele>256.0</ele><time>2026-04-12T08:35:42.982Z</time></trkpt><trkpt lat="42.7729883" lon="11.3179483"><ele>253.0</ele><time>2026-04-12T08:35:43.983Z</time></trkpt><trkpt lat="42.773065" lon="11.3179633"><ele>249.99999999999997</ele><time>2026-04-12T08:35:44.982Z</time></trkpt><trkpt lat="42.7731417" lon="11.3179917"><ele>247.0</ele><time>2026-04-12T08:35:45.982Z</time></trkpt><trkpt lat="42.773225" lon="11.31803"><ele>246.99999999999997</ele><time>2026-04-12T08:35:46.983Z</time></trkpt><trkpt lat="42.773305" lon="11.3180517"><ele>247.0</ele><time>2026-04-12T08:35:47.982Z</time></trkpt><trkpt lat="42.773385" lon="11.318065"><ele>247.0</ele><time>2026-04-12T08:35:48.983Z</time></trkpt><trkpt lat="42.77346" lon="11.3180467"><ele>247.0</ele><time>2026-04-12T08:35:49.982Z</time></trkpt><trkpt lat="42.773525" lon="11.3179783"><ele>246.99999999999997</ele><time>2026-04-12T08:35:50.982Z</time></trkpt><trkpt lat="42.7735917" lon="11.3178917"><ele>247.0</ele><time>2026-04-12T08:35:51.983Z</time></trkpt><trkpt lat="42.7736733" lon="11.3178083"><ele>246.25</ele><time>2026-04-12T08:35:52.983Z</time></trkpt><trkpt lat="42.77377" lon="11.3177117"><ele>245.5</ele><time>2026-04-12T08:35:53.982Z</time></trkpt><trkpt lat="42.7738667" lon="11.3176217"><ele>244.75</ele><time>2026-04-12T08:35:54.982Z</time></trkpt><trkpt lat="42.7739567" lon="11.3175367"><ele>244.0</ele><time>2026-04-12T08:35:55.983Z</time></trkpt><trkpt lat="42.7740583" lon="11.31747"><ele>243.99999999999997</ele><time>2026-04-12T08:35:56.983Z</time></trkpt><trkpt lat="42.7741533" lon="11.3174067"><ele>244.0</ele><time>2026-04-12T08:35:57.982Z</time></trkpt><trkpt lat="42.7742283" lon="11.3173417"><ele>244.0</ele><time>2026-04-12T08:35:58.982Z</time></trkpt><trkpt lat="42.7743017" lon="11.3172883"><ele>244.0</ele><time>2026-04-12T08:35:59.982Z</time></trkpt><trkpt lat="42.7743767" lon="11.3172633"><ele>243.99999999999997</ele><time>2026-04-12T08:36:00.982Z</time></trkpt><trkpt lat="42.774455" lon="11.317265"><ele>244.0</ele><time>2026-04-12T08:36:01.982Z</time></trkpt><trkpt lat="42.7745333" lon="11.3172983"><ele>243.33333333333331</ele><time>2026-04-12T08:36:02.982Z</time></trkpt><trkpt lat="42.7746133" lon="11.3173567"><ele>242.66666666666666</ele><time>2026-04-12T08:36:03.982Z</time></trkpt><trkpt lat="42.7746917" lon="11.3174"><ele>242.0</ele><time>2026-04-12T08:36:04.982Z</time></trkpt><trkpt lat="42.7747667" lon="11.31743"><ele>241.33333333333331</ele><time>2026-04-12T08:36:05.982Z</time></trkpt><trkpt lat="42.7748367" lon="11.317445"><ele>240.66666666666666</ele><time>2026-04-12T08:36:06.982Z</time></trkpt><trkpt lat="42.774905" lon="11.3174383"><ele>240.0</ele><time>2026-04-12T08:36:07.982Z</time></trkpt><trkpt lat="42.7749667" lon="11.317415"><ele>240.0</ele><time>2026-04-12T08:36:08.982Z</time></trkpt><trkpt lat="42.7750283" lon="11.317385"><ele>240.0</ele><time>2026-04-12T08:36:09.982Z</time></trkpt><trkpt lat="42.775095" lon="11.3173417"><ele>240.0</ele><time>2026-04-12T08:36:10.983Z</time></trkpt><trkpt lat="42.7751733" lon="11.3172917"><ele>240.0</ele><time>2026-04-12T08:36:11.982Z</time></trkpt><trkpt lat="42.7752483" lon="11.3172417"><ele>240.0</ele><time>2026-04-12T08:36:12.982Z</time></trkpt><trkpt lat="42.7753217" lon="11.3171833"><ele>240.0</ele><time>2026-04-12T08:36:13.982Z</time></trkpt><trkpt lat="42.7754017" lon="11.3171267"><ele>236.33333333333334</ele><time>2026-04-12T08:36:14.982Z</time></trkpt><trkpt lat="42.7754783" lon="11.3170683"><ele>232.66666666666669</ele><time>2026-04-12T08:36:15.983Z</time></trkpt><trkpt lat="42.7755583" lon="11.3170133"><ele>229.0</ele><time>2026-04-12T08:36:16.982Z</time></trkpt><trkpt lat="42.7756383" lon="11.3169567"><ele>225.33333333333334</ele><time>2026-04-12T08:36:17.982Z</time></trkpt><trkpt lat="42.7757067" lon="11.3169167"><ele>221.66666666666669</ele><time>2026-04-12T08:36:18.982Z</time></trkpt><trkpt lat="42.775775" lon="11.31687"><ele>218.0</ele><time>2026-04-12T08:36:19.982Z</time></trkpt><trkpt lat="42.7758283" lon="11.31681"><ele>218.00000000000003</ele><time>2026-04-12T08:36:20.982Z</time></trkpt><trkpt lat="42.7758717" lon="11.3167467"><ele>218.0</ele><time>2026-04-12T08:36:21.983Z</time></trkpt><trkpt lat="42.775915" lon="11.3166833"><ele>218.0</ele><time>2026-04-12T08:36:22.982Z</time></trkpt><trkpt lat="42.7760233" lon="11.316585"><ele>218.0</ele><time>2026-04-12T08:36:24.983Z</time></trkpt><trkpt lat="42.776085" lon="11.3165583"><ele>218.00000000000003</ele><time>2026-04-12T08:36:25.983Z</time></trkpt><trkpt lat="42.7761533" lon="11.31655"><ele>218.0</ele><time>2026-04-12T08:36:26.983Z</time></trkpt><trkpt lat="42.7762267" lon="11.3165533"><ele>216.00000000000003</ele><time>2026-04-12T08:36:27.983Z</time></trkpt><trkpt lat="42.776295" lon="11.3165733"><ele>214.0</ele><time>2026-04-12T08:36:28.982Z</time></trkpt><trkpt lat="42.776365" lon="11.31661"><ele>212.0</ele><time>2026-04-12T08:36:29.982Z</time></trkpt><trkpt lat="42.77643" lon="11.316665"><ele>210.0</ele><time>2026-04-12T08:36:30.982Z</time></trkpt><trkpt lat="42.7765" lon="11.3167383"><ele>208.00000000000003</ele><time>2026-04-12T08:36:31.983Z</time></trkpt><trkpt lat="42.7765733" lon="11.3168133"><ele>206.0</ele><time>2026-04-12T08:36:32.982Z</time></trkpt><trkpt lat="42.7766517" lon="11.3168683"><ele>206.0</ele><time>2026-04-12T08:36:33.982Z</time></trkpt><trkpt lat="42.7767367" lon="11.3169217"><ele>206.0</ele><time>2026-04-12T08:36:34.983Z</time></trkpt><trkpt lat="42.7768217" lon="11.3169717"><ele>206.0</ele><time>2026-04-12T08:36:35.982Z</time></trkpt><trkpt lat="42.77691" lon="11.317005"><ele>206.0</ele><time>2026-04-12T08:36:36.982Z</time></trkpt><trkpt lat="42.7770017" lon="11.3170267"><ele>206.0</ele><time>2026-04-12T08:36:37.982Z</time></trkpt><trkpt lat="42.7770967" lon="11.3170317"><ele>203.8</ele><time>2026-04-12T08:36:38.981Z</time></trkpt><trkpt lat="42.777195" lon="11.3170167"><ele>201.60000000000002</ele><time>2026-04-12T08:36:39.981Z</time></trkpt><trkpt lat="42.7772967" lon="11.31698"><ele>199.4</ele><time>2026-04-12T08:36:40.981Z</time></trkpt><trkpt lat="42.7773933" lon="11.3169383"><ele>197.2</ele><time>2026-04-12T08:36:41.981Z</time></trkpt><trkpt lat="42.7774933" lon="11.3168967"><ele>195.0</ele><time>2026-04-12T08:36:42.982Z</time></trkpt><trkpt lat="42.7776017" lon="11.3168783"><ele>194.6</ele><time>2026-04-12T08:36:43.981Z</time></trkpt><trkpt lat="42.7777133" lon="11.3168733"><ele>194.2</ele><time>2026-04-12T08:36:44.982Z</time></trkpt><trkpt lat="42.7778183" lon="11.31688"><ele>193.8</ele><time>2026-04-12T08:36:45.981Z</time></trkpt><trkpt lat="42.7779217" lon="11.3168967"><ele>193.4</ele><time>2026-04-12T08:36:46.981Z</time></trkpt><trkpt lat="42.77802" lon="11.316915"><ele>193.0</ele><time>2026-04-12T08:36:47.981Z</time></trkpt><trkpt lat="42.7781217" lon="11.3169233"><ele>193.0</ele><time>2026-04-12T08:36:48.982Z</time></trkpt><trkpt lat="42.7782233" lon="11.3169167"><ele>193.0</ele><time>2026-04-12T08:36:49.981Z</time></trkpt><trkpt lat="42.7783267" lon="11.3168933"><ele>193.0</ele><time>2026-04-12T08:36:50.981Z</time></trkpt><trkpt lat="42.7784333" lon="11.31685"><ele>193.0</ele><time>2026-04-12T08:36:51.981Z</time></trkpt><trkpt lat="42.7785533" lon="11.3167983"><ele>193.0</ele><time>2026-04-12T08:36:52.981Z</time></trkpt><trkpt lat="42.7786717" lon="11.3167633"><ele>190.25</ele><time>2026-04-12T08:36:53.981Z</time></trkpt><trkpt lat="42.7787917" lon="11.3167483"><ele>187.5</ele><time>2026-04-12T08:36:54.981Z</time></trkpt><trkpt lat="42.7789133" lon="11.3167467"><ele>184.75</ele><time>2026-04-12T08:36:55.981Z</time></trkpt><trkpt lat="42.7790333" lon="11.316755"><ele>182.0</ele><time>2026-04-12T08:36:56.981Z</time></trkpt><trkpt lat="42.7791533" lon="11.3167683"><ele>182.0</ele><time>2026-04-12T08:36:57.981Z</time></trkpt><trkpt lat="42.7792683" lon="11.3167917"><ele>182.0</ele><time>2026-04-12T08:36:58.982Z</time></trkpt><trkpt lat="42.77938" lon="11.31681"><ele>182.0</ele><time>2026-04-12T08:36:59.981Z</time></trkpt><trkpt lat="42.779485" lon="11.316835"><ele>182.0</ele><time>2026-04-12T08:37:00.982Z</time></trkpt><trkpt lat="42.7795833" lon="11.3168617"><ele>182.0</ele><time>2026-04-12T08:37:01.982Z</time></trkpt><trkpt lat="42.7796917" lon="11.31688"><ele>180.39999999999998</ele><time>2026-04-12T08:37:02.982Z</time></trkpt><trkpt lat="42.7797933" lon="11.3169"><ele>178.79999999999998</ele><time>2026-04-12T08:37:03.981Z</time></trkpt><trkpt lat="42.77989" lon="11.3169"><ele>177.2</ele><time>2026-04-12T08:37:04.981Z</time></trkpt><trkpt lat="42.7799833" lon="11.3168783"><ele>175.6</ele><time>2026-04-12T08:37:05.981Z</time></trkpt><trkpt lat="42.7800783" lon="11.3168333"><ele>174.0</ele><time>2026-04-12T08:37:06.981Z</time></trkpt><trkpt lat="42.78015" lon="11.316745"><ele>171.66666666666666</ele><time>2026-04-12T08:37:07.981Z</time></trkpt><trkpt lat="42.7802033" lon="11.3166533"><ele>169.33333333333334</ele><time>2026-04-12T08:37:08.981Z</time></trkpt><trkpt lat="42.780255" lon="11.31658"><ele>167.0</ele><time>2026-04-12T08:37:09.981Z</time></trkpt><trkpt lat="42.7803067" lon="11.3165083"><ele>164.66666666666669</ele><time>2026-04-12T08:37:10.981Z</time></trkpt><trkpt lat="42.780385" lon="11.31645"><ele>162.33333333333334</ele><time>2026-04-12T08:37:11.982Z</time></trkpt><trkpt lat="42.7804933" lon="11.3164283"><ele>160.0</ele><time>2026-04-12T08:37:12.982Z</time></trkpt><trkpt lat="42.7806067" lon="11.31643"><ele>160.0</ele><time>2026-04-12T08:37:13.981Z</time></trkpt><trkpt lat="42.780725" lon="11.316445"><ele>160.0</ele><time>2026-04-12T08:37:14.981Z</time></trkpt><trkpt lat="42.780855" lon="11.316465"><ele>160.0</ele><time>2026-04-12T08:37:15.981Z</time></trkpt><trkpt lat="42.7809767" lon="11.316485"><ele>160.0</ele><time>2026-04-12T08:37:16.981Z</time></trkpt><trkpt lat="42.7810983" lon="11.3164883"><ele>158.25</ele><time>2026-04-12T08:37:17.981Z</time></trkpt><trkpt lat="42.7812183" lon="11.3165017"><ele>156.5</ele><time>2026-04-12T08:37:18.981Z</time></trkpt><trkpt lat="42.7813467" lon="11.31651"><ele>154.75</ele><time>2026-04-12T08:37:19.981Z</time></trkpt><trkpt lat="42.781465" lon="11.3165"><ele>153.0</ele><time>2026-04-12T08:37:20.981Z</time></trkpt><trkpt lat="42.7815867" lon="11.3164967"><ele>153.0</ele><time>2026-04-12T08:37:21.982Z</time></trkpt><trkpt lat="42.78171" lon="11.3164967"><ele>153.0</ele><time>2026-04-12T08:37:22.982Z</time></trkpt><trkpt lat="42.7818333" lon="11.31649"><ele>153.0</ele><time>2026-04-12T08:37:23.981Z</time></trkpt><trkpt lat="42.7819567" lon="11.3164983"><ele>153.0</ele><time>2026-04-12T08:37:24.981Z</time></trkpt><trkpt lat="42.7820767" lon="11.316515"><ele>151.8</ele><time>2026-04-12T08:37:25.981Z</time></trkpt><trkpt lat="42.7821933" lon="11.316555"><ele>150.60000000000002</ele><time>2026-04-12T08:37:26.981Z</time></trkpt><trkpt lat="42.7823083" lon="11.3166017"><ele>149.39999999999998</ele><time>2026-04-12T08:37:27.982Z</time></trkpt><trkpt lat="42.782405" lon="11.3166533"><ele>148.2</ele><time>2026-04-12T08:37:28.981Z</time></trkpt><trkpt lat="42.7825033" lon="11.3167"><ele>147.0</ele><time>2026-04-12T08:37:29.981Z</time></trkpt><trkpt lat="42.7826017" lon="11.3167317"><ele>146.0</ele><time>2026-04-12T08:37:30.982Z</time></trkpt><trkpt lat="42.7827" lon="11.316725"><ele>145.0</ele><time>2026-04-12T08:37:31.981Z</time></trkpt><trkpt lat="42.7827917" lon="11.31667"><ele>144.0</ele><time>2026-04-12T08:37:32.981Z</time></trkpt><trkpt lat="42.7828683" lon="11.3165817"><ele>143.0</ele><time>2026-04-12T08:37:33.981Z</time></trkpt><trkpt lat="42.7829617" lon="11.3165083"><ele>142.0</ele><time>2026-04-12T08:37:34.981Z</time></trkpt><trkpt lat="42.7830483" lon="11.31646"><ele>142.0</ele><time>2026-04-12T08:37:35.981Z</time></trkpt><trkpt lat="42.78314" lon="11.3164333"><ele>142.0</ele><time>2026-04-12T08:37:36.981Z</time></trkpt><trkpt lat="42.7832383" lon="11.316425"><ele>142.0</ele><time>2026-04-12T08:37:37.981Z</time></trkpt><trkpt lat="42.783335" lon="11.3164267"><ele>142.0</ele><time>2026-04-12T08:37:38.982Z</time></trkpt><trkpt lat="42.7834217" lon="11.3164267"><ele>142.0</ele><time>2026-04-12T08:37:39.981Z</time></trkpt><trkpt lat="42.7835033" lon="11.31643"><ele>137.79999999999998</ele><time>2026-04-12T08:37:40.981Z</time></trkpt><trkpt lat="42.783585" lon="11.3164417"><ele>133.6</ele><time>2026-04-12T08:37:41.982Z</time></trkpt><trkpt lat="42.7836717" lon="11.316475"><ele>129.39999999999998</ele><time>2026-04-12T08:37:42.981Z</time></trkpt><trkpt lat="42.7837567" lon="11.31652"><ele>125.19999999999999</ele><time>2026-04-12T08:37:43.981Z</time></trkpt><trkpt lat="42.7838433" lon="11.3165933"><ele>121.0</ele><time>2026-04-12T08:37:44.981Z</time></trkpt><trkpt lat="42.7839233" lon="11.31671"><ele>121.0</ele><time>2026-04-12T08:37:45.981Z</time></trkpt><trkpt lat="42.7839983" lon="11.3168417"><ele>121.0</ele><time>2026-04-12T08:37:46.981Z</time></trkpt><trkpt lat="42.78407" lon="11.316975"><ele>121.0</ele><time>2026-04-12T08:37:47.981Z</time></trkpt><trkpt lat="42.7841383" lon="11.3170983"><ele>121.0</ele><time>2026-04-12T08:37:48.981Z</time></trkpt><trkpt lat="42.78421" lon="11.3172183"><ele>121.4</ele><time>2026-04-12T08:37:49.982Z</time></trkpt><trkpt lat="42.78429" lon="11.31733"><ele>121.8</ele><time>2026-04-12T08:37:50.981Z</time></trkpt><trkpt lat="42.78438" lon="11.31744"><ele>122.20000000000002</ele><time>2026-04-12T08:37:51.981Z</time></trkpt><trkpt lat="42.7844583" lon="11.3175333"><ele>122.60000000000001</ele><time>2026-04-12T08:37:52.982Z</time></trkpt><trkpt lat="42.784535" lon="11.3176283"><ele>123.0</ele><time>2026-04-12T08:37:53.982Z</time></trkpt><trkpt lat="42.784605" lon="11.317715"><ele>120.2857142857143</ele><time>2026-04-12T08:37:54.981Z</time></trkpt><trkpt lat="42.7846633" lon="11.31779"><ele>117.57142857142858</ele><time>2026-04-12T08:37:55.981Z</time></trkpt><trkpt lat="42.78472" lon="11.3178533"><ele>114.85714285714286</ele><time>2026-04-12T08:37:56.981Z</time></trkpt><trkpt lat="42.7847733" lon="11.3179167"><ele>112.14285714285715</ele><time>2026-04-12T08:37:57.982Z</time></trkpt><trkpt lat="42.784825" lon="11.317975"><ele>109.42857142857144</ele><time>2026-04-12T08:37:58.982Z</time></trkpt><trkpt lat="42.7848767" lon="11.3180383"><ele>106.71428571428571</ele><time>2026-04-12T08:37:59.981Z</time></trkpt><trkpt lat="42.7849233" lon="11.3181083"><ele>104.0</ele><time>2026-04-12T08:38:00.981Z</time></trkpt><trkpt lat="42.784965" lon="11.3181967"><ele>103.49999999999999</ele><time>2026-04-12T08:38:01.982Z</time></trkpt><trkpt lat="42.7849983" lon="11.318295"><ele>103.0</ele><time>2026-04-12T08:38:02.982Z</time></trkpt><trkpt lat="42.7850233" lon="11.3184067"><ele>102.5</ele><time>2026-04-12T08:38:03.981Z</time></trkpt><trkpt lat="42.785035" lon="11.3185117"><ele>102.0</ele><time>2026-04-12T08:38:04.982Z</time></trkpt><trkpt lat="42.785045" lon="11.3186033"><ele>101.49999999999999</ele><time>2026-04-12T08:38:05.981Z</time></trkpt><trkpt lat="42.7850467" lon="11.3186967"><ele>101.0</ele><time>2026-04-12T08:38:06.982Z</time></trkpt><trkpt lat="42.7850683" lon="11.3188567"><ele>100.19999999999999</ele><time>2026-04-12T08:38:08.981Z</time></trkpt><trkpt lat="42.78511" lon="11.319"><ele>99.39999999999999</ele><time>2026-04-12T08:38:10.981Z</time></trkpt><trkpt lat="42.7851467" lon="11.3191433"><ele>98.6</ele><time>2026-04-12T08:38:12.981Z</time></trkpt><trkpt lat="42.7851967" lon="11.3192467"><ele>97.8</ele><time>2026-04-12T08:38:14.981Z</time></trkpt><trkpt lat="42.7852683" lon="11.319325"><ele>97.0</ele><time>2026-04-12T08:38:16.981Z</time></trkpt><trkpt lat="42.785335" lon="11.319365"><ele>96.16666666666667</ele><time>2026-04-12T08:38:18.982Z</time></trkpt><trkpt lat="42.7854067" lon="11.31942"><ele>95.33333333333334</ele><time>2026-04-12T08:38:20.981Z</time></trkpt><trkpt lat="42.7854683" lon="11.3194533"><ele>94.5</ele><time>2026-04-12T08:38:22.981Z</time></trkpt><trkpt lat="42.7855483" lon="11.3194983"><ele>93.66666666666667</ele><time>2026-04-12T08:38:25.981Z</time></trkpt><trkpt lat="42.785625" lon="11.3195433"><ele>92.83333333333334</ele><time>2026-04-12T08:38:28.981Z</time></trkpt><trkpt lat="42.7857067" lon="11.3195717"><ele>92.0</ele><time>2026-04-12T08:38:32.981Z</time></trkpt><trkpt lat="42.785775" lon="11.3195767"><ele>92.0</ele><time>2026-04-12T08:38:35.981Z</time></trkpt><trkpt lat="42.785845" lon="11.3196183"><ele>92.0</ele><time>2026-04-12T08:38:38.981Z</time></trkpt><trkpt lat="42.7859317" lon="11.3196633"><ele>92.0</ele><time>2026-04-12T08:38:41.981Z</time></trkpt><trkpt lat="42.7859983" lon="11.3196867"><ele>92.0</ele><time>2026-04-12T08:38:43.981Z</time></trkpt><trkpt lat="42.7860833" lon="11.3197167"><ele>92.0</ele><time>2026-04-12T08:38:46.981Z</time></trkpt><trkpt lat="42.7861467" lon="11.31973"><ele>92.0</ele><time>2026-04-12T08:38:48.981Z</time></trkpt><trkpt lat="42.7862167" lon="11.3197567"><ele>92.33333333333334</ele><time>2026-04-12T08:38:50.981Z</time></trkpt><trkpt lat="42.78629" lon="11.3197933"><ele>92.66666666666667</ele><time>2026-04-12T08:38:52.981Z</time></trkpt><trkpt lat="42.7863633" lon="11.3198067"><ele>93.0</ele><time>2026-04-12T08:38:54.981Z</time></trkpt><trkpt lat="42.7864233" lon="11.3198567"><ele>93.33333333333333</ele><time>2026-04-12T08:38:56.981Z</time></trkpt><trkpt lat="42.786465" lon="11.3199367"><ele>93.66666666666666</ele><time>2026-04-12T08:38:58.981Z</time></trkpt><trkpt lat="42.786505" lon="11.320035"><ele>94.0</ele><time>2026-04-12T08:39:00.982Z</time></trkpt><trkpt lat="42.786545" lon="11.3201317"><ele>94.0</ele><time>2026-04-12T08:39:02.981Z</time></trkpt><trkpt lat="42.7865967" lon="11.3201983"><ele>94.0</ele><time>2026-04-12T08:39:04.981Z</time></trkpt><trkpt lat="42.7866617" lon="11.3202667"><ele>94.0</ele><time>2026-04-12T08:39:06.981Z</time></trkpt><trkpt lat="42.78673" lon="11.3203267"><ele>94.0</ele><time>2026-04-12T08:39:08.981Z</time></trkpt><trkpt lat="42.786795" lon="11.3203583"><ele>94.0</ele><time>2026-04-12T08:39:10.981Z</time></trkpt><trkpt lat="42.7868733" lon="11.3203883"><ele>94.0</ele><time>2026-04-12T08:39:12.982Z</time></trkpt><trkpt lat="42.7869567" lon="11.32039"><ele>93.66666666666666</ele><time>2026-04-12T08:39:14.981Z</time></trkpt><trkpt lat="42.7870283" lon="11.320385"><ele>93.33333333333333</ele><time>2026-04-12T08:39:16.981Z</time></trkpt><trkpt lat="42.7870983" lon="11.3203633"><ele>93.0</ele><time>2026-04-12T08:39:18.981Z</time></trkpt><trkpt lat="42.7871817" lon="11.32034"><ele>92.66666666666667</ele><time>2026-04-12T08:39:20.981Z</time></trkpt><trkpt lat="42.787265" lon="11.320315"><ele>92.33333333333334</ele><time>2026-04-12T08:39:22.982Z</time></trkpt><trkpt lat="42.7873433" lon="11.3202967"><ele>92.0</ele><time>2026-04-12T08:39:24.981Z</time></trkpt><trkpt lat="42.7874233" lon="11.3203"><ele>92.0</ele><time>2026-04-12T08:39:26.982Z</time></trkpt><trkpt lat="42.7875" lon="11.3203417"><ele>92.0</ele><time>2026-04-12T08:39:28.981Z</time></trkpt><trkpt lat="42.7875617" lon="11.3204"><ele>92.0</ele><time>2026-04-12T08:39:30.982Z</time></trkpt><trkpt lat="42.7876217" lon="11.32047"><ele>92.0</ele><time>2026-04-12T08:39:32.981Z</time></trkpt><trkpt lat="42.7876867" lon="11.32054"><ele>92.0</ele><time>2026-04-12T08:39:34.981Z</time></trkpt><trkpt lat="42.7877533" lon="11.32057"><ele>92.0</ele><time>2026-04-12T08:39:36.982Z</time></trkpt><trkpt lat="42.78783" lon="11.3205733"><ele>91.83333333333334</ele><time>2026-04-12T08:39:38.981Z</time></trkpt><trkpt lat="42.7879033" lon="11.320565"><ele>91.66666666666667</ele><time>2026-04-12T08:39:40.981Z</time></trkpt><trkpt lat="42.78799" lon="11.320545"><ele>91.5</ele><time>2026-04-12T08:39:43.982Z</time></trkpt><trkpt lat="42.7880683" lon="11.3205367"><ele>91.33333333333333</ele><time>2026-04-12T08:39:46.981Z</time></trkpt><trkpt lat="42.7881467" lon="11.3205417"><ele>91.16666666666666</ele><time>2026-04-12T08:39:49.981Z</time></trkpt><trkpt lat="42.7882167" lon="11.3205367"><ele>91.0</ele><time>2026-04-12T08:39:52.981Z</time></trkpt><trkpt lat="42.7882817" lon="11.320525"><ele>91.0</ele><time>2026-04-12T08:39:55.981Z</time></trkpt><trkpt lat="42.7883483" lon="11.3205083"><ele>91.0</ele><time>2026-04-12T08:39:58.981Z</time></trkpt><trkpt lat="42.78842" lon="11.3204817"><ele>91.0</ele><time>2026-04-12T08:40:01.981Z</time></trkpt><trkpt lat="42.7885033" lon="11.3204433"><ele>91.0</ele><time>2026-04-12T08:40:04.981Z</time></trkpt><trkpt lat="42.7885633" lon="11.32041"><ele>91.0</ele><time>2026-04-12T08:40:06.982Z</time></trkpt><trkpt lat="42.7886333" lon="11.3203833"><ele>91.0</ele><time>2026-04-12T08:40:08.981Z</time></trkpt><trkpt lat="42.7887133" lon="11.32035"><ele>92.6</ele><time>2026-04-12T08:40:10.981Z</time></trkpt><trkpt lat="42.7887967" lon="11.3202867"><ele>94.19999999999999</ele><time>2026-04-12T08:40:12.981Z</time></trkpt><trkpt lat="42.7888633" lon="11.3201983"><ele>95.80000000000001</ele><time>2026-04-12T08:40:14.981Z</time></trkpt><trkpt lat="42.788915" lon="11.3200917"><ele>97.4</ele><time>2026-04-12T08:40:16.981Z</time></trkpt><trkpt lat="42.7889783" lon="11.3199983"><ele>99.0</ele><time>2026-04-12T08:40:18.981Z</time></trkpt><trkpt lat="42.7890467" lon="11.3199133"><ele>99.0</ele><time>2026-04-12T08:40:20.981Z</time></trkpt><trkpt lat="42.7891117" lon="11.3198233"><ele>99.0</ele><time>2026-04-12T08:40:22.981Z</time></trkpt><trkpt lat="42.7891783" lon="11.3197267"><ele>99.0</ele><time>2026-04-12T08:40:24.981Z</time></trkpt><trkpt lat="42.78924" lon="11.3196183"><ele>99.0</ele><time>2026-04-12T08:40:26.981Z</time></trkpt><trkpt lat="42.7892883" lon="11.3195133"><ele>99.0</ele><time>2026-04-12T08:40:28.981Z</time></trkpt><trkpt lat="42.7893417" lon="11.3194117"><ele>99.33333333333333</ele><time>2026-04-12T08:40:30.982Z</time></trkpt><trkpt lat="42.789385" lon="11.319315"><ele>99.66666666666666</ele><time>2026-04-12T08:40:32.981Z</time></trkpt><trkpt lat="42.78943" lon="11.3192117"><ele>100.0</ele><time>2026-04-12T08:40:34.981Z</time></trkpt><trkpt lat="42.7894783" lon="11.31911"><ele>100.33333333333333</ele><time>2026-04-12T08:40:36.981Z</time></trkpt><trkpt lat="42.7895333" lon="11.319005"><ele>100.66666666666666</ele><time>2026-04-12T08:40:38.981Z</time></trkpt><trkpt lat="42.7895833" lon="11.3188983"><ele>101.0</ele><time>2026-04-12T08:40:40.981Z</time></trkpt><trkpt lat="42.7896183" lon="11.31878"><ele>101.0</ele><time>2026-04-12T08:40:42.981Z</time></trkpt><trkpt lat="42.7896667" lon="11.3186417"><ele>101.0</ele><time>2026-04-12T08:40:44.982Z</time></trkpt><trkpt lat="42.7897083" lon="11.3185117"><ele>101.0</ele><time>2026-04-12T08:40:46.981Z</time></trkpt><trkpt lat="42.7897483" lon="11.3183917"><ele>101.0</ele><time>2026-04-12T08:40:48.981Z</time></trkpt><trkpt lat="42.7897817" lon="11.3182617"><ele>101.0</ele><time>2026-04-12T08:40:50.981Z</time></trkpt><trkpt lat="42.789815" lon="11.31814"><ele>99.6</ele><time>2026-04-12T08:40:52.981Z</time></trkpt><trkpt lat="42.7898383" lon="11.3180167"><ele>98.19999999999999</ele><time>2026-04-12T08:40:54.982Z</time></trkpt><trkpt lat="42.7898683" lon="11.3179"><ele>96.80000000000001</ele><time>2026-04-12T08:40:56.981Z</time></trkpt><trkpt lat="42.78992" lon="11.3177783"><ele>95.4</ele><time>2026-04-12T08:40:58.982Z</time></trkpt><trkpt lat="42.7899867" lon="11.3176433"><ele>94.0</ele><time>2026-04-12T08:41:00.982Z</time></trkpt><trkpt lat="42.7900233" lon="11.3175133"><ele>94.0</ele><time>2026-04-12T08:41:02.981Z</time></trkpt><trkpt lat="42.7900667" lon="11.317375"><ele>94.0</ele><time>2026-04-12T08:41:04.981Z</time></trkpt><trkpt lat="42.7901133" lon="11.31724"><ele>94.0</ele><time>2026-04-12T08:41:06.982Z</time></trkpt><trkpt lat="42.7901617" lon="11.317115"><ele>94.0</ele><time>2026-04-12T08:41:08.982Z</time></trkpt><trkpt lat="42.79021" lon="11.3169867"><ele>94.0</ele><time>2026-04-12T08:41:10.981Z</time></trkpt><trkpt lat="42.7902517" lon="11.3168767"><ele>96.4</ele><time>2026-04-12T08:41:12.981Z</time></trkpt><trkpt lat="42.7902933" lon="11.3167583"><ele>98.80000000000001</ele><time>2026-04-12T08:41:14.981Z</time></trkpt><trkpt lat="42.7903233" lon="11.3166367"><ele>101.19999999999999</ele><time>2026-04-12T08:41:16.982Z</time></trkpt><trkpt lat="42.7903333" lon="11.3164967"><ele>103.6</ele><time>2026-04-12T08:41:18.981Z</time></trkpt><trkpt lat="42.79034" lon="11.3163583"><ele>106.0</ele><time>2026-04-12T08:41:20.981Z</time></trkpt><trkpt lat="42.7903417" lon="11.3162233"><ele>106.19999999999999</ele><time>2026-04-12T08:41:22.981Z</time></trkpt><trkpt lat="42.7903567" lon="11.3161017"><ele>106.39999999999999</ele><time>2026-04-12T08:41:24.981Z</time></trkpt><trkpt lat="42.790375" lon="11.31597"><ele>106.6</ele><time>2026-04-12T08:41:26.981Z</time></trkpt><trkpt lat="42.7903833" lon="11.3158367"><ele>106.8</ele><time>2026-04-12T08:41:28.981Z</time></trkpt><trkpt lat="42.790395" lon="11.3157067"><ele>107.0</ele><time>2026-04-12T08:41:30.981Z</time></trkpt><trkpt lat="42.7904033" lon="11.3155917"><ele>106.71428571428572</ele><time>2026-04-12T08:41:32.982Z</time></trkpt><trkpt lat="42.7904017" lon="11.3154867"><ele>106.42857142857143</ele><time>2026-04-12T08:41:34.981Z</time></trkpt><trkpt lat="42.790405" lon="11.315395"><ele>106.14285714285714</ele><time>2026-04-12T08:41:36.981Z</time></trkpt><trkpt lat="42.790425" lon="11.31529"><ele>105.85714285714286</ele><time>2026-04-12T08:41:39.981Z</time></trkpt><trkpt lat="42.7904467" lon="11.3152017"><ele>105.57142857142857</ele><time>2026-04-12T08:41:42.981Z</time></trkpt><trkpt lat="42.7904733" lon="11.3151083"><ele>105.28571428571429</ele><time>2026-04-12T08:41:45.981Z</time></trkpt><trkpt lat="42.7905017" lon="11.3150267"><ele>105.0</ele><time>2026-04-12T08:41:48.981Z</time></trkpt><trkpt lat="42.7905167" lon="11.3149417"><ele>105.0</ele><time>2026-04-12T08:41:51.981Z</time></trkpt><trkpt lat="42.7905567" lon="11.3148533"><ele>105.0</ele><time>2026-04-12T08:41:55.981Z</time></trkpt><trkpt lat="42.7906033" lon="11.314775"><ele>105.0</ele><time>2026-04-12T08:41:59.981Z</time></trkpt><trkpt lat="42.7906383" lon="11.3146767"><ele>105.0</ele><time>2026-04-12T08:42:03.981Z</time></trkpt><trkpt lat="42.7906617" lon="11.3145883"><ele>105.0</ele><time>2026-04-12T08:42:06.982Z</time></trkpt><trkpt lat="42.79069" lon="11.314495"><ele>105.0</ele><time>2026-04-12T08:42:10.981Z</time></trkpt><trkpt lat="42.7907267" lon="11.3144183"><ele>105.0</ele><time>2026-04-12T08:42:14.982Z</time></trkpt><trkpt lat="42.7907683" lon="11.31433"><ele>105.28571428571429</ele><time>2026-04-12T08:42:19.981Z</time></trkpt><trkpt lat="42.79079" lon="11.31423"><ele>105.57142857142857</ele><time>2026-04-12T08:42:23.981Z</time></trkpt><trkpt lat="42.7908033" lon="11.3141333"><ele>105.85714285714286</ele><time>2026-04-12T08:42:27.981Z</time></trkpt><trkpt lat="42.790825" lon="11.3140383"><ele>106.14285714285714</ele><time>2026-04-12T08:42:31.981Z</time></trkpt><trkpt lat="42.7908583" lon="11.3139617"><ele>106.42857142857143</ele><time>2026-04-12T08:42:35.981Z</time></trkpt><trkpt lat="42.7909067" lon="11.3138933"><ele>106.71428571428572</ele><time>2026-04-12T08:42:39.981Z</time></trkpt><trkpt lat="42.7909733" lon="11.3138217"><ele>107.0</ele><time>2026-04-12T08:42:43.982Z</time></trkpt><trkpt lat="42.7910583" lon="11.3138067"><ele>106.99999999999999</ele><time>2026-04-12T08:42:47.981Z</time></trkpt><trkpt lat="42.7911233" lon="11.31378"><ele>107.0</ele><time>2026-04-12T08:42:50.981Z</time></trkpt><trkpt lat="42.791205" lon="11.3137467"><ele>107.0</ele><time>2026-04-12T08:42:53.981Z</time></trkpt><trkpt lat="42.7912867" lon="11.313705"><ele>107.0</ele><time>2026-04-12T08:42:56.982Z</time></trkpt><trkpt lat="42.7913517" lon="11.3136733"><ele>106.99999999999999</ele><time>2026-04-12T08:42:58.981Z</time></trkpt><trkpt lat="42.7914133" lon="11.3136433"><ele>107.0</ele><time>2026-04-12T08:43:00.981Z</time></trkpt><trkpt lat="42.7914967" lon="11.3136283"><ele>107.0</ele><time>2026-04-12T08:43:02.982Z</time></trkpt><trkpt lat="42.7915783" lon="11.3135933"><ele>106.99999999999999</ele><time>2026-04-12T08:43:04.981Z</time></trkpt><trkpt lat="42.7916617" lon="11.3135567"><ele>106.99999999999999</ele><time>2026-04-12T08:43:06.981Z</time></trkpt><trkpt lat="42.791755" lon="11.31352"><ele>107.0</ele><time>2026-04-12T08:43:08.981Z</time></trkpt><trkpt lat="42.79185" lon="11.3134883"><ele>107.0</ele><time>2026-04-12T08:43:10.981Z</time></trkpt><trkpt lat="42.7919433" lon="11.3134583"><ele>106.8</ele><time>2026-04-12T08:43:12.981Z</time></trkpt><trkpt lat="42.7920383" lon="11.313425"><ele>106.6</ele><time>2026-04-12T08:43:14.982Z</time></trkpt><trkpt lat="42.792125" lon="11.313395"><ele>106.39999999999999</ele><time>2026-04-12T08:43:16.981Z</time></trkpt><trkpt lat="42.79221" lon="11.313355"><ele>106.19999999999999</ele><time>2026-04-12T08:43:18.982Z</time></trkpt><trkpt lat="42.7923" lon="11.313335"><ele>106.0</ele><time>2026-04-12T08:43:20.982Z</time></trkpt><trkpt lat="42.7923883" lon="11.3133"><ele>106.00000000000001</ele><time>2026-04-12T08:43:22.981Z</time></trkpt><trkpt lat="42.7924817" lon="11.313265"><ele>106.0</ele><time>2026-04-12T08:43:24.981Z</time></trkpt><trkpt lat="42.79257" lon="11.3132283"><ele>106.0</ele><time>2026-04-12T08:43:26.981Z</time></trkpt><trkpt lat="42.79264" lon="11.313185"><ele>106.0</ele><time>2026-04-12T08:43:28.981Z</time></trkpt><trkpt lat="42.7927" lon="11.31315"><ele>106.00000000000001</ele><time>2026-04-12T08:43:31.981Z</time></trkpt><trkpt lat="42.7927633" lon="11.3130717"><ele>106.0</ele><time>2026-04-12T08:43:35.982Z</time></trkpt><trkpt lat="42.79277" lon="11.3129517"><ele>105.19999999999999</ele><time>2026-04-12T08:43:37.981Z</time></trkpt><trkpt lat="42.7927617" lon="11.3128417"><ele>104.39999999999999</ele><time>2026-04-12T08:43:39.981Z</time></trkpt><trkpt lat="42.7927467" lon="11.3127217"><ele>103.6</ele><time>2026-04-12T08:43:41.981Z</time></trkpt><trkpt lat="42.7927333" lon="11.3126"><ele>102.8</ele><time>2026-04-12T08:43:43.981Z</time></trkpt><trkpt lat="42.792725" lon="11.3124717"><ele>102.0</ele><time>2026-04-12T08:43:45.982Z</time></trkpt><trkpt lat="42.7927117" lon="11.312335"><ele>102.19999999999999</ele><time>2026-04-12T08:43:47.982Z</time></trkpt><trkpt lat="42.7927" lon="11.3121983"><ele>102.4</ele><time>2026-04-12T08:43:49.981Z</time></trkpt><trkpt lat="42.7926917" lon="11.3120667"><ele>102.6</ele><time>2026-04-12T08:43:51.981Z</time></trkpt><trkpt lat="42.7926817" lon="11.311925"><ele>102.80000000000001</ele><time>2026-04-12T08:43:53.981Z</time></trkpt><trkpt lat="42.7926683" lon="11.3117833"><ele>103.0</ele><time>2026-04-12T08:43:55.981Z</time></trkpt><trkpt lat="42.7926567" lon="11.3116433"><ele>103.2</ele><time>2026-04-12T08:43:57.981Z</time></trkpt><trkpt lat="42.79264" lon="11.311505"><ele>103.4</ele><time>2026-04-12T08:43:59.982Z</time></trkpt><trkpt lat="42.7926233" lon="11.3113533"><ele>103.60000000000001</ele><time>2026-04-12T08:44:01.981Z</time></trkpt><trkpt lat="42.7926083" lon="11.31121"><ele>103.80000000000001</ele><time>2026-04-12T08:44:03.981Z</time></trkpt><trkpt lat="42.7925967" lon="11.3110733"><ele>104.0</ele><time>2026-04-12T08:44:05.981Z</time></trkpt><trkpt lat="42.7925817" lon="11.3109367"><ele>104.0</ele><time>2026-04-12T08:44:07.982Z</time></trkpt><trkpt lat="42.7925633" lon="11.31081"><ele>104.0</ele><time>2026-04-12T08:44:09.981Z</time></trkpt><trkpt lat="42.792545" lon="11.3106733"><ele>104.0</ele><time>2026-04-12T08:44:11.981Z</time></trkpt><trkpt lat="42.7925283" lon="11.3105367"><ele>104.0</ele><time>2026-04-12T08:44:13.981Z</time></trkpt><trkpt lat="42.7925133" lon="11.3103867"><ele>104.0</ele><time>2026-04-12T08:44:15.982Z</time></trkpt><trkpt lat="42.7925067" lon="11.3102417"><ele>103.80000000000001</ele><time>2026-04-12T08:44:17.981Z</time></trkpt><trkpt lat="42.7925033" lon="11.310075"><ele>103.60000000000001</ele><time>2026-04-12T08:44:19.981Z</time></trkpt><trkpt lat="42.7924917" lon="11.3099283"><ele>103.4</ele><time>2026-04-12T08:44:21.981Z</time></trkpt><trkpt lat="42.7924683" lon="11.3097983"><ele>103.2</ele><time>2026-04-12T08:44:23.981Z</time></trkpt><trkpt lat="42.7924567" lon="11.309665"><ele>103.0</ele><time>2026-04-12T08:44:25.982Z</time></trkpt><trkpt lat="42.7924433" lon="11.309525"><ele>102.80000000000001</ele><time>2026-04-12T08:44:27.981Z</time></trkpt><trkpt lat="42.792425" lon="11.3093567"><ele>102.6</ele><time>2026-04-12T08:44:29.981Z</time></trkpt><trkpt lat="42.79241" lon="11.309205"><ele>102.4</ele><time>2026-04-12T08:44:31.982Z</time></trkpt><trkpt lat="42.79239" lon="11.3090667"><ele>102.19999999999999</ele><time>2026-04-12T08:44:33.981Z</time></trkpt><trkpt lat="42.792375" lon="11.308945"><ele>102.0</ele><time>2026-04-12T08:44:35.981Z</time></trkpt><trkpt lat="42.79236" lon="11.30882"><ele>102.0</ele><time>2026-04-12T08:44:37.981Z</time></trkpt><trkpt lat="42.7923467" lon="11.3086967"><ele>102.0</ele><time>2026-04-12T08:44:39.981Z</time></trkpt><trkpt lat="42.7923383" lon="11.30857"><ele>102.0</ele><time>2026-04-12T08:44:41.981Z</time></trkpt><trkpt lat="42.792325" lon="11.30842"><ele>102.0</ele><time>2026-04-12T08:44:43.982Z</time></trkpt><trkpt lat="42.7923217" lon="11.3082767"><ele>102.0</ele><time>2026-04-12T08:44:45.981Z</time></trkpt><trkpt lat="42.7923167" lon="11.308125"><ele>101.8</ele><time>2026-04-12T08:44:47.981Z</time></trkpt><trkpt lat="42.79231" lon="11.3079983"><ele>101.6</ele><time>2026-04-12T08:44:49.981Z</time></trkpt><trkpt lat="42.7923" lon="11.3078633"><ele>101.39999999999999</ele><time>2026-04-12T08:44:51.982Z</time></trkpt><trkpt lat="42.7922867" lon="11.3077183"><ele>101.19999999999999</ele><time>2026-04-12T08:44:53.981Z</time></trkpt><trkpt lat="42.79227" lon="11.307565"><ele>101.0</ele><time>2026-04-12T08:44:55.981Z</time></trkpt><trkpt lat="42.792255" lon="11.3074217"><ele>101.0</ele><time>2026-04-12T08:44:57.982Z</time></trkpt><trkpt lat="42.7922383" lon="11.3072867"><ele>101.0</ele><time>2026-04-12T08:44:59.981Z</time></trkpt><trkpt lat="42.792225" lon="11.3071567"><ele>101.0</ele><time>2026-04-12T08:45:01.981Z</time></trkpt><trkpt lat="42.7922067" lon="11.30702"><ele>101.0</ele><time>2026-04-12T08:45:03.982Z</time></trkpt><trkpt lat="42.792185" lon="11.306885"><ele>101.0</ele><time>2026-04-12T08:45:05.981Z</time></trkpt><trkpt lat="42.79217" lon="11.3067483"><ele>100.19999999999999</ele><time>2026-04-12T08:45:07.981Z</time></trkpt><trkpt lat="42.792165" lon="11.3066167"><ele>99.39999999999999</ele><time>2026-04-12T08:45:09.982Z</time></trkpt><trkpt lat="42.792155" lon="11.30647"><ele>98.6</ele><time>2026-04-12T08:45:11.981Z</time></trkpt><trkpt lat="42.7921417" lon="11.3063217"><ele>97.8</ele><time>2026-04-12T08:45:13.981Z</time></trkpt><trkpt lat="42.79212" lon="11.3061633"><ele>97.0</ele><time>2026-04-12T08:45:15.982Z</time></trkpt><trkpt lat="42.7921083" lon="11.3060167"><ele>96.6</ele><time>2026-04-12T08:45:17.982Z</time></trkpt><trkpt lat="42.7920917" lon="11.3058633"><ele>96.19999999999999</ele><time>2026-04-12T08:45:19.981Z</time></trkpt><trkpt lat="42.7920817" lon="11.3057183"><ele>95.8</ele><time>2026-04-12T08:45:21.981Z</time></trkpt><trkpt lat="42.7920683" lon="11.3055667"><ele>95.4</ele><time>2026-04-12T08:45:23.982Z</time></trkpt><trkpt lat="42.79206" lon="11.3054117"><ele>95.0</ele><time>2026-04-12T08:45:25.981Z</time></trkpt><trkpt lat="42.7920517" lon="11.305255"><ele>94.5</ele><time>2026-04-12T08:45:27.981Z</time></trkpt><trkpt lat="42.7920383" lon="11.305105"><ele>94.0</ele><time>2026-04-12T08:45:29.981Z</time></trkpt><trkpt lat="42.7920267" lon="11.3049467"><ele>93.5</ele><time>2026-04-12T08:45:31.981Z</time></trkpt><trkpt lat="42.792025" lon="11.3047917"><ele>93.0</ele><time>2026-04-12T08:45:33.982Z</time></trkpt><trkpt lat="42.792025" lon="11.3046417"><ele>92.25</ele><time>2026-04-12T08:45:35.981Z</time></trkpt><trkpt lat="42.79204" lon="11.304485"><ele>91.5</ele><time>2026-04-12T08:45:37.982Z</time></trkpt><trkpt lat="42.7920517" lon="11.30433"><ele>90.75</ele><time>2026-04-12T08:45:39.981Z</time></trkpt><trkpt lat="42.7920733" lon="11.3041733"><ele>90.0</ele><time>2026-04-12T08:45:41.981Z</time></trkpt><trkpt lat="42.7920917" lon="11.304"><ele>90.0</ele><time>2026-04-12T08:45:43.981Z</time></trkpt><trkpt lat="42.7920983" lon="11.30391"><ele>90.0</ele><time>2026-04-12T08:45:44.981Z</time></trkpt><trkpt lat="42.79211" lon="11.3038167"><ele>90.0</ele><time>2026-04-12T08:45:45.982Z</time></trkpt><trkpt lat="42.7921133" lon="11.30373"><ele>90.0</ele><time>2026-04-12T08:45:46.981Z</time></trkpt><trkpt lat="42.7921217" lon="11.3036433"><ele>90.0</ele><time>2026-04-12T08:45:47.982Z</time></trkpt><trkpt lat="42.7921317" lon="11.3035567"><ele>90.0</ele><time>2026-04-12T08:45:48.981Z</time></trkpt><trkpt lat="42.7921417" lon="11.3034667"><ele>90.0</ele><time>2026-04-12T08:45:49.982Z</time></trkpt><trkpt lat="42.7921533" lon="11.303375"><ele>90.0</ele><time>2026-04-12T08:45:50.981Z</time></trkpt><trkpt lat="42.7921633" lon="11.3032883"><ele>90.0</ele><time>2026-04-12T08:45:51.981Z</time></trkpt><trkpt lat="42.7921733" lon="11.3032017"><ele>90.0</ele><time>2026-04-12T08:45:52.981Z</time></trkpt><trkpt lat="42.792185" lon="11.3031133"><ele>90.0</ele><time>2026-04-12T08:45:53.981Z</time></trkpt><trkpt lat="42.792195" lon="11.3030183"><ele>90.0</ele><time>2026-04-12T08:45:54.981Z</time></trkpt><trkpt lat="42.792205" lon="11.3029217"><ele>90.0</ele><time>2026-04-12T08:45:55.981Z</time></trkpt><trkpt lat="42.79221" lon="11.3028267"><ele>90.0</ele><time>2026-04-12T08:45:56.982Z</time></trkpt><trkpt lat="42.79222" lon="11.30274"><ele>89.33333333333333</ele><time>2026-04-12T08:45:57.982Z</time></trkpt><trkpt lat="42.7922317" lon="11.3026533"><ele>88.66666666666667</ele><time>2026-04-12T08:45:58.981Z</time></trkpt><trkpt lat="42.792245" lon="11.3025617"><ele>88.0</ele><time>2026-04-12T08:45:59.981Z</time></trkpt><trkpt lat="42.7922583" lon="11.3023933"><ele>87.33333333333334</ele><time>2026-04-12T08:46:01.981Z</time></trkpt><trkpt lat="42.7922683" lon="11.3023033"><ele>86.66666666666667</ele><time>2026-04-12T08:46:02.981Z</time></trkpt><trkpt lat="42.7922783" lon="11.3021983"><ele>86.0</ele><time>2026-04-12T08:46:03.982Z</time></trkpt><trkpt lat="42.7923" lon="11.3020133"><ele>86.0</ele><time>2026-04-12T08:46:05.981Z</time></trkpt><trkpt lat="42.79231" lon="11.3019083"><ele>86.0</ele><time>2026-04-12T08:46:06.981Z</time></trkpt><trkpt lat="42.7923233" lon="11.301795"><ele>86.0</ele><time>2026-04-12T08:46:07.981Z</time></trkpt><trkpt lat="42.792335" lon="11.3016717"><ele>86.0</ele><time>2026-04-12T08:46:08.982Z</time></trkpt><trkpt lat="42.7923483" lon="11.3015617"><ele>86.0</ele><time>2026-04-12T08:46:09.982Z</time></trkpt><trkpt lat="42.7923583" lon="11.3014483"><ele>86.0</ele><time>2026-04-12T08:46:10.981Z</time></trkpt><trkpt lat="42.79237" lon="11.301335"><ele>86.0</ele><time>2026-04-12T08:46:11.981Z</time></trkpt><trkpt lat="42.7923767" lon="11.30123"><ele>86.0</ele><time>2026-04-12T08:46:12.982Z</time></trkpt><trkpt lat="42.7923933" lon="11.3011117"><ele>86.0</ele><time>2026-04-12T08:46:13.981Z</time></trkpt><trkpt lat="42.792405" lon="11.3009967"><ele>86.0</ele><time>2026-04-12T08:46:14.981Z</time></trkpt><trkpt lat="42.79241" lon="11.3008867"><ele>86.0</ele><time>2026-04-12T08:46:15.981Z</time></trkpt><trkpt lat="42.79242" lon="11.3007767"><ele>86.0</ele><time>2026-04-12T08:46:16.981Z</time></trkpt><trkpt lat="42.79243" lon="11.3006617"><ele>86.0</ele><time>2026-04-12T08:46:17.981Z</time></trkpt><trkpt lat="42.7924467" lon="11.3005467"><ele>86.0</ele><time>2026-04-12T08:46:18.981Z</time></trkpt><trkpt lat="42.792465" lon="11.30043"><ele>86.0</ele><time>2026-04-12T08:46:19.982Z</time></trkpt><trkpt lat="42.7924867" lon="11.3003167"><ele>86.0</ele><time>2026-04-12T08:46:20.981Z</time></trkpt><trkpt lat="42.7925" lon="11.3002117"><ele>86.0</ele><time>2026-04-12T08:46:21.981Z</time></trkpt><trkpt lat="42.792515" lon="11.3001083"><ele>86.0</ele><time>2026-04-12T08:46:22.982Z</time></trkpt><trkpt lat="42.7925333" lon="11.3000033"><ele>86.0</ele><time>2026-04-12T08:46:23.982Z</time></trkpt><trkpt lat="42.7925433" lon="11.2998983"><ele>86.0</ele><time>2026-04-12T08:46:24.981Z</time></trkpt><trkpt lat="42.7925533" lon="11.299805"><ele>86.0</ele><time>2026-04-12T08:46:25.981Z</time></trkpt><trkpt lat="42.7925617" lon="11.2996967"><ele>86.0</ele><time>2026-04-12T08:46:26.982Z</time></trkpt><trkpt lat="42.79257" lon="11.2995867"><ele>86.0</ele><time>2026-04-12T08:46:27.981Z</time></trkpt><trkpt lat="42.7925833" lon="11.299485"><ele>86.0</ele><time>2026-04-12T08:46:28.982Z</time></trkpt><trkpt lat="42.792595" lon="11.299385"><ele>85.42857142857143</ele><time>2026-04-12T08:46:29.981Z</time></trkpt><trkpt lat="42.7926067" lon="11.2992883"><ele>84.85714285714286</ele><time>2026-04-12T08:46:30.981Z</time></trkpt><trkpt lat="42.7926167" lon="11.29919"><ele>84.28571428571428</ele><time>2026-04-12T08:46:31.982Z</time></trkpt><trkpt lat="42.7926317" lon="11.2990967"><ele>83.71428571428572</ele><time>2026-04-12T08:46:32.981Z</time></trkpt><trkpt lat="42.79264" lon="11.299"><ele>83.14285714285714</ele><time>2026-04-12T08:46:33.981Z</time></trkpt><trkpt lat="42.792645" lon="11.2989033"><ele>82.57142857142857</ele><time>2026-04-12T08:46:34.981Z</time></trkpt><trkpt lat="42.792645" lon="11.298805"><ele>82.0</ele><time>2026-04-12T08:46:35.981Z</time></trkpt><trkpt lat="42.79264" lon="11.2987067"><ele>81.42857142857142</ele><time>2026-04-12T08:46:36.981Z</time></trkpt><trkpt lat="42.7926283" lon="11.2986183"><ele>80.85714285714286</ele><time>2026-04-12T08:46:37.982Z</time></trkpt><trkpt lat="42.7926083" lon="11.2985233"><ele>80.28571428571428</ele><time>2026-04-12T08:46:38.981Z</time></trkpt><trkpt lat="42.7925883" lon="11.2984367"><ele>79.71428571428571</ele><time>2026-04-12T08:46:39.982Z</time></trkpt><trkpt lat="42.7925667" lon="11.2983483"><ele>79.14285714285714</ele><time>2026-04-12T08:46:40.981Z</time></trkpt><trkpt lat="42.792535" lon="11.2982667"><ele>78.57142857142857</ele><time>2026-04-12T08:46:41.981Z</time></trkpt><trkpt lat="42.792505" lon="11.29818"><ele>78.0</ele><time>2026-04-12T08:46:42.981Z</time></trkpt><trkpt lat="42.7924767" lon="11.298095"><ele>77.71428571428572</ele><time>2026-04-12T08:46:43.981Z</time></trkpt><trkpt lat="42.7924467" lon="11.2980067"><ele>77.42857142857142</ele><time>2026-04-12T08:46:44.981Z</time></trkpt><trkpt lat="42.7924183" lon="11.2979217"><ele>77.14285714285714</ele><time>2026-04-12T08:46:45.981Z</time></trkpt><trkpt lat="42.79239" lon="11.2978317"><ele>76.85714285714286</ele><time>2026-04-12T08:46:46.981Z</time></trkpt><trkpt lat="42.7923567" lon="11.29774"><ele>76.57142857142858</ele><time>2026-04-12T08:46:47.981Z</time></trkpt><trkpt lat="42.7923233" lon="11.2976583"><ele>76.28571428571428</ele><time>2026-04-12T08:46:48.981Z</time></trkpt><trkpt lat="42.7922933" lon="11.297575"><ele>76.0</ele><time>2026-04-12T08:46:49.982Z</time></trkpt><trkpt lat="42.792265" lon="11.2974867"><ele>76.0</ele><time>2026-04-12T08:46:50.981Z</time></trkpt><trkpt lat="42.79224" lon="11.2974017"><ele>76.0</ele><time>2026-04-12T08:46:51.982Z</time></trkpt><trkpt lat="42.7922067" lon="11.2973217"><ele>76.0</ele><time>2026-04-12T08:46:52.981Z</time></trkpt><trkpt lat="42.7921817" lon="11.2972383"><ele>76.0</ele><time>2026-04-12T08:46:53.981Z</time></trkpt><trkpt lat="42.79215" lon="11.2971517"><ele>76.0</ele><time>2026-04-12T08:46:54.981Z</time></trkpt><trkpt lat="42.7921183" lon="11.2970633"><ele>76.0</ele><time>2026-04-12T08:46:55.981Z</time></trkpt><trkpt lat="42.7920867" lon="11.2969833"><ele>76.0</ele><time>2026-04-12T08:46:56.981Z</time></trkpt><trkpt lat="42.7920567" lon="11.2968967"><ele>76.14285714285714</ele><time>2026-04-12T08:46:57.981Z</time></trkpt><trkpt lat="42.7920283" lon="11.2968117"><ele>76.28571428571429</ele><time>2026-04-12T08:46:58.981Z</time></trkpt><trkpt lat="42.7920017" lon="11.29673"><ele>76.42857142857143</ele><time>2026-04-12T08:46:59.981Z</time></trkpt><trkpt lat="42.7919717" lon="11.2966533"><ele>76.57142857142857</ele><time>2026-04-12T08:47:00.982Z</time></trkpt><trkpt lat="42.7919417" lon="11.2965717"><ele>76.71428571428572</ele><time>2026-04-12T08:47:01.982Z</time></trkpt><trkpt lat="42.79191" lon="11.2964883"><ele>76.85714285714286</ele><time>2026-04-12T08:47:02.981Z</time></trkpt><trkpt lat="42.7918783" lon="11.2964067"><ele>77.0</ele><time>2026-04-12T08:47:03.981Z</time></trkpt><trkpt lat="42.79185" lon="11.29632"><ele>76.85714285714286</ele><time>2026-04-12T08:47:04.981Z</time></trkpt><trkpt lat="42.791825" lon="11.2962283"><ele>76.71428571428572</ele><time>2026-04-12T08:47:05.981Z</time></trkpt><trkpt lat="42.7917967" lon="11.2961333"><ele>76.57142857142857</ele><time>2026-04-12T08:47:06.981Z</time></trkpt><trkpt lat="42.7917617" lon="11.2960467"><ele>76.42857142857143</ele><time>2026-04-12T08:47:07.981Z</time></trkpt><trkpt lat="42.7917283" lon="11.2959567"><ele>76.28571428571429</ele><time>2026-04-12T08:47:08.981Z</time></trkpt><trkpt lat="42.7917" lon="11.29587"><ele>76.14285714285714</ele><time>2026-04-12T08:47:09.981Z</time></trkpt><trkpt lat="42.7916683" lon="11.2957767"><ele>76.0</ele><time>2026-04-12T08:47:10.982Z</time></trkpt><trkpt lat="42.7916333" lon="11.2956917"><ele>76.0</ele><time>2026-04-12T08:47:11.981Z</time></trkpt><trkpt lat="42.7915967" lon="11.2956017"><ele>76.0</ele><time>2026-04-12T08:47:12.982Z</time></trkpt><trkpt lat="42.7915683" lon="11.2955117"><ele>76.0</ele><time>2026-04-12T08:47:13.982Z</time></trkpt><trkpt lat="42.7915467" lon="11.2954183"><ele>76.0</ele><time>2026-04-12T08:47:14.982Z</time></trkpt><trkpt lat="42.7915233" lon="11.2953233"><ele>76.0</ele><time>2026-04-12T08:47:15.982Z</time></trkpt><trkpt lat="42.79149" lon="11.2952383"><ele>76.0</ele><time>2026-04-12T08:47:16.981Z</time></trkpt><trkpt lat="42.7914583" lon="11.29516"><ele>76.0</ele><time>2026-04-12T08:47:17.981Z</time></trkpt><trkpt lat="42.7914333" lon="11.2950733"><ele>75.57142857142857</ele><time>2026-04-12T08:47:18.981Z</time></trkpt><trkpt lat="42.7914017" lon="11.2949867"><ele>75.14285714285715</ele><time>2026-04-12T08:47:19.982Z</time></trkpt><trkpt lat="42.791375" lon="11.294895"><ele>74.71428571428572</ele><time>2026-04-12T08:47:20.981Z</time></trkpt><trkpt lat="42.791345" lon="11.2948083"><ele>74.28571428571428</ele><time>2026-04-12T08:47:21.981Z</time></trkpt><trkpt lat="42.791315" lon="11.2947217"><ele>73.85714285714286</ele><time>2026-04-12T08:47:22.981Z</time></trkpt><trkpt lat="42.79128" lon="11.2946417"><ele>73.42857142857143</ele><time>2026-04-12T08:47:23.981Z</time></trkpt><trkpt lat="42.7912483" lon="11.29456"><ele>73.0</ele><time>2026-04-12T08:47:24.982Z</time></trkpt><trkpt lat="42.7912183" lon="11.2944767"><ele>72.85714285714286</ele><time>2026-04-12T08:47:25.981Z</time></trkpt><trkpt lat="42.791185" lon="11.2943917"><ele>72.71428571428572</ele><time>2026-04-12T08:47:26.982Z</time></trkpt><trkpt lat="42.7911567" lon="11.2943033"><ele>72.57142857142858</ele><time>2026-04-12T08:47:27.981Z</time></trkpt><trkpt lat="42.791135" lon="11.2942133"><ele>72.42857142857143</ele><time>2026-04-12T08:47:28.981Z</time></trkpt><trkpt lat="42.7911083" lon="11.2941233"><ele>72.28571428571429</ele><time>2026-04-12T08:47:29.981Z</time></trkpt><trkpt lat="42.7910733" lon="11.294035"><ele>72.14285714285715</ele><time>2026-04-12T08:47:30.982Z</time></trkpt><trkpt lat="42.7910417" lon="11.2939467"><ele>72.0</ele><time>2026-04-12T08:47:31.981Z</time></trkpt><trkpt lat="42.7910117" lon="11.2938633"><ele>72.16666666666667</ele><time>2026-04-12T08:47:32.982Z</time></trkpt><trkpt lat="42.7909733" lon="11.2937833"><ele>72.33333333333333</ele><time>2026-04-12T08:47:33.979Z</time></trkpt><trkpt lat="42.790945" lon="11.2937017"><ele>72.5</ele><time>2026-04-12T08:47:34.981Z</time></trkpt><trkpt lat="42.7909183" lon="11.2936217"><ele>72.66666666666666</ele><time>2026-04-12T08:47:35.981Z</time></trkpt><trkpt lat="42.79086" lon="11.29347"><ele>72.83333333333333</ele><time>2026-04-12T08:47:37.981Z</time></trkpt><trkpt lat="42.7908333" lon="11.2933883"><ele>73.0</ele><time>2026-04-12T08:47:38.981Z</time></trkpt><trkpt lat="42.790805" lon="11.29331"><ele>73.0</ele><time>2026-04-12T08:47:39.982Z</time></trkpt><trkpt lat="42.7907533" lon="11.2931567"><ele>73.0</ele><time>2026-04-12T08:47:41.982Z</time></trkpt><trkpt lat="42.7907233" lon="11.2930783"><ele>73.0</ele><time>2026-04-12T08:47:42.981Z</time></trkpt><trkpt lat="42.79067" lon="11.29293"><ele>73.0</ele><time>2026-04-12T08:47:44.981Z</time></trkpt><trkpt lat="42.79062" lon="11.29279"><ele>73.0</ele><time>2026-04-12T08:47:46.981Z</time></trkpt><trkpt lat="42.7905767" lon="11.2926483"><ele>73.66666666666666</ele><time>2026-04-12T08:47:48.981Z</time></trkpt><trkpt lat="42.7905333" lon="11.2925333"><ele>74.33333333333333</ele><time>2026-04-12T08:47:50.981Z</time></trkpt><trkpt lat="42.7905017" lon="11.29243"><ele>75.0</ele><time>2026-04-12T08:47:52.981Z</time></trkpt><trkpt lat="42.79047" lon="11.2923283"><ele>75.66666666666667</ele><time>2026-04-12T08:47:54.982Z</time></trkpt><trkpt lat="42.790435" lon="11.2922367"><ele>76.33333333333334</ele><time>2026-04-12T08:47:56.981Z</time></trkpt><trkpt lat="42.790395" lon="11.292155"><ele>77.0</ele><time>2026-04-12T08:47:58.981Z</time></trkpt><trkpt lat="42.7903583" lon="11.2920733"><ele>76.85714285714286</ele><time>2026-04-12T08:48:00.981Z</time></trkpt><trkpt lat="42.79032" lon="11.2919817"><ele>76.71428571428572</ele><time>2026-04-12T08:48:02.981Z</time></trkpt><trkpt lat="42.790285" lon="11.2918967"><ele>76.57142857142857</ele><time>2026-04-12T08:48:04.981Z</time></trkpt><trkpt lat="42.790255" lon="11.2918133"><ele>76.42857142857143</ele><time>2026-04-12T08:48:06.982Z</time></trkpt><trkpt lat="42.79022" lon="11.2917283"><ele>76.28571428571429</ele><time>2026-04-12T08:48:08.981Z</time></trkpt><trkpt lat="42.790195" lon="11.2916467"><ele>76.14285714285714</ele><time>2026-04-12T08:48:10.981Z</time></trkpt><trkpt lat="42.79016" lon="11.291535"><ele>76.0</ele><time>2026-04-12T08:48:13.981Z</time></trkpt><trkpt lat="42.7901217" lon="11.29144"><ele>76.83333333333333</ele><time>2026-04-12T08:48:16.981Z</time></trkpt><trkpt lat="42.7900783" lon="11.2913417"><ele>77.66666666666666</ele><time>2026-04-12T08:48:19.981Z</time></trkpt><trkpt lat="42.7900517" lon="11.2912617"><ele>78.5</ele><time>2026-04-12T08:48:21.981Z</time></trkpt><trkpt lat="42.7900217" lon="11.2911567"><ele>79.33333333333333</ele><time>2026-04-12T08:48:24.982Z</time></trkpt><trkpt lat="42.7899917" lon="11.29104"><ele>80.16666666666667</ele><time>2026-04-12T08:48:27.982Z</time></trkpt><trkpt lat="42.7899817" lon="11.290955"><ele>81.0</ele><time>2026-04-12T08:48:29.982Z</time></trkpt><trkpt lat="42.7899633" lon="11.290835"><ele>81.0</ele><time>2026-04-12T08:48:32.981Z</time></trkpt><trkpt lat="42.7899467" lon="11.2907317"><ele>81.0</ele><time>2026-04-12T08:48:34.982Z</time></trkpt><trkpt lat="42.7899267" lon="11.2906117"><ele>81.0</ele><time>2026-04-12T08:48:37.981Z</time></trkpt><trkpt lat="42.7899283" lon="11.2905033"><ele>81.0</ele><time>2026-04-12T08:48:40.981Z</time></trkpt><trkpt lat="42.7899417" lon="11.2903767"><ele>81.0</ele><time>2026-04-12T08:48:43.981Z</time></trkpt><trkpt lat="42.7899583" lon="11.2902533"><ele>81.0</ele><time>2026-04-12T08:48:46.982Z</time></trkpt><trkpt lat="42.7899717" lon="11.290125"><ele>81.5</ele><time>2026-04-12T08:48:49.982Z</time></trkpt><trkpt lat="42.7899817" lon="11.290035"><ele>82.0</ele><time>2026-04-12T08:48:51.981Z</time></trkpt><trkpt lat="42.7899983" lon="11.2899433"><ele>82.5</ele><time>2026-04-12T08:48:53.981Z</time></trkpt><trkpt lat="42.79001" lon="11.2898233"><ele>83.0</ele><time>2026-04-12T08:48:56.981Z</time></trkpt><trkpt lat="42.7900233" lon="11.2897117"><ele>83.5</ele><time>2026-04-12T08:48:59.981Z</time></trkpt><trkpt lat="42.7900333" lon="11.289605"><ele>84.0</ele><time>2026-04-12T08:49:02.981Z</time></trkpt><trkpt lat="42.7900517" lon="11.2894983"><ele>85.33333333333333</ele><time>2026-04-12T08:49:05.981Z</time></trkpt><trkpt lat="42.790055" lon="11.2893783"><ele>86.66666666666667</ele><time>2026-04-12T08:49:08.981Z</time></trkpt><trkpt lat="42.7900667" lon="11.2892667"><ele>88.0</ele><time>2026-04-12T08:49:12.982Z</time></trkpt><trkpt lat="42.790085" lon="11.2891733"><ele>89.33333333333334</ele><time>2026-04-12T08:49:15.981Z</time></trkpt><trkpt lat="42.7900867" lon="11.2890483"><ele>90.66666666666667</ele><time>2026-04-12T08:49:18.982Z</time></trkpt><trkpt lat="42.7900933" lon="11.2889283"><ele>92.0</ele><time>2026-04-12T08:49:21.982Z</time></trkpt><trkpt lat="42.79011" lon="11.2888033"><ele>92.85714285714286</ele><time>2026-04-12T08:49:24.981Z</time></trkpt><trkpt lat="42.7901183" lon="11.2886883"><ele>93.71428571428571</ele><time>2026-04-12T08:49:27.982Z</time></trkpt><trkpt lat="42.790125" lon="11.2885783"><ele>94.57142857142857</ele><time>2026-04-12T08:49:30.982Z</time></trkpt><trkpt lat="42.7901433" lon="11.2884717"><ele>95.42857142857143</ele><time>2026-04-12T08:49:32.982Z</time></trkpt><trkpt lat="42.7901533" lon="11.288375"><ele>96.28571428571428</ele><time>2026-04-12T08:49:34.981Z</time></trkpt><trkpt lat="42.790155" lon="11.2882883"><ele>97.14285714285714</ele><time>2026-04-12T08:49:36.981Z</time></trkpt><trkpt lat="42.7901567" lon="11.2882017"><ele>98.0</ele><time>2026-04-12T08:49:38.981Z</time></trkpt><trkpt lat="42.790155" lon="11.2881033"><ele>99.49999999999999</ele><time>2026-04-12T08:49:41.981Z</time></trkpt><trkpt lat="42.79016" lon="11.288"><ele>101.0</ele><time>2026-04-12T08:49:44.982Z</time></trkpt><trkpt lat="42.7901667" lon="11.2878783"><ele>102.5</ele><time>2026-04-12T08:49:47.981Z</time></trkpt><trkpt lat="42.790175" lon="11.2877567"><ele>104.0</ele><time>2026-04-12T08:49:50.981Z</time></trkpt><trkpt lat="42.7901783" lon="11.2876517"><ele>105.49999999999999</ele><time>2026-04-12T08:49:52.981Z</time></trkpt><trkpt lat="42.79019" lon="11.2875667"><ele>107.0</ele><time>2026-04-12T08:49:54.981Z</time></trkpt><trkpt lat="42.790205" lon="11.28745"><ele>107.28571428571429</ele><time>2026-04-12T08:49:57.981Z</time></trkpt><trkpt lat="42.7901967" lon="11.2873633"><ele>107.57142857142857</ele><time>2026-04-12T08:49:59.981Z</time></trkpt><trkpt lat="42.7902067" lon="11.2872767"><ele>107.85714285714286</ele><time>2026-04-12T08:50:01.981Z</time></trkpt><trkpt lat="42.79022" lon="11.28718"><ele>108.14285714285714</ele><time>2026-04-12T08:50:03.981Z</time></trkpt><trkpt lat="42.79023" lon="11.287095"><ele>108.42857142857143</ele><time>2026-04-12T08:50:05.981Z</time></trkpt><trkpt lat="42.7902383" lon="11.2869967"><ele>108.71428571428572</ele><time>2026-04-12T08:50:07.982Z</time></trkpt><trkpt lat="42.79024" lon="11.2868983"><ele>109.0</ele><time>2026-04-12T08:50:09.981Z</time></trkpt><trkpt lat="42.7902467" lon="11.2867933"><ele>109.00000000000001</ele><time>2026-04-12T08:50:11.981Z</time></trkpt><trkpt lat="42.7902417" lon="11.2866867"><ele>109.0</ele><time>2026-04-12T08:50:13.982Z</time></trkpt><trkpt lat="42.7902433" lon="11.28657"><ele>109.0</ele><time>2026-04-12T08:50:15.982Z</time></trkpt><trkpt lat="42.79025" lon="11.2864533"><ele>109.0</ele><time>2026-04-12T08:50:17.981Z</time></trkpt><trkpt lat="42.7902583" lon="11.286335"><ele>109.00000000000001</ele><time>2026-04-12T08:50:19.982Z</time></trkpt><trkpt lat="42.7902767" lon="11.2862"><ele>109.0</ele><time>2026-04-12T08:50:21.982Z</time></trkpt><trkpt lat="42.7903033" lon="11.2860633"><ele>108.0</ele><time>2026-04-12T08:50:23.981Z</time></trkpt><trkpt lat="42.7903317" lon="11.285935"><ele>107.0</ele><time>2026-04-12T08:50:25.981Z</time></trkpt><trkpt lat="42.7903783" lon="11.285785"><ele>106.0</ele><time>2026-04-12T08:50:27.981Z</time></trkpt><trkpt lat="42.790405" lon="11.2857067"><ele>105.0</ele><time>2026-04-12T08:50:28.981Z</time></trkpt><trkpt lat="42.7904633" lon="11.2855733"><ele>104.0</ele><time>2026-04-12T08:50:30.981Z</time></trkpt><trkpt lat="42.7905467" lon="11.2854517"><ele>102.75</ele><time>2026-04-12T08:50:32.981Z</time></trkpt><trkpt lat="42.79062" lon="11.2853367"><ele>101.5</ele><time>2026-04-12T08:50:34.981Z</time></trkpt><trkpt lat="42.790715" lon="11.285235"><ele>100.25</ele><time>2026-04-12T08:50:36.981Z</time></trkpt><trkpt lat="42.7908017" lon="11.2851417"><ele>99.0</ele><time>2026-04-12T08:50:38.981Z</time></trkpt><trkpt lat="42.7908983" lon="11.2850417"><ele>99.0</ele><time>2026-04-12T08:50:40.981Z</time></trkpt><trkpt lat="42.7909483" lon="11.2849867"><ele>99.0</ele><time>2026-04-12T08:50:41.981Z</time></trkpt><trkpt lat="42.7910017" lon="11.28493"><ele>99.0</ele><time>2026-04-12T08:50:42.982Z</time></trkpt><trkpt lat="42.7910983" lon="11.2848217"><ele>99.0</ele><time>2026-04-12T08:50:44.981Z</time></trkpt><trkpt lat="42.7911483" lon="11.2847667"><ele>99.0</ele><time>2026-04-12T08:50:45.982Z</time></trkpt><trkpt lat="42.7912017" lon="11.2847117"><ele>99.0</ele><time>2026-04-12T08:50:46.981Z</time></trkpt><trkpt lat="42.791295" lon="11.284595"><ele>98.71428571428572</ele><time>2026-04-12T08:50:48.981Z</time></trkpt><trkpt lat="42.7913433" lon="11.2845367"><ele>98.42857142857142</ele><time>2026-04-12T08:50:49.981Z</time></trkpt><trkpt lat="42.791395" lon="11.2844733"><ele>98.14285714285714</ele><time>2026-04-12T08:50:50.981Z</time></trkpt><trkpt lat="42.791445" lon="11.2844083"><ele>97.85714285714286</ele><time>2026-04-12T08:50:51.981Z</time></trkpt><trkpt lat="42.7914933" lon="11.2843383"><ele>97.57142857142858</ele><time>2026-04-12T08:50:52.981Z</time></trkpt><trkpt lat="42.7915467" lon="11.2842683"><ele>97.28571428571428</ele><time>2026-04-12T08:50:53.981Z</time></trkpt><trkpt lat="42.7916" lon="11.284195"><ele>97.0</ele><time>2026-04-12T08:50:54.981Z</time></trkpt><trkpt lat="42.7916467" lon="11.28412"><ele>97.00000000000001</ele><time>2026-04-12T08:50:55.981Z</time></trkpt><trkpt lat="42.7917" lon="11.2840567"><ele>97.0</ele><time>2026-04-12T08:50:56.981Z</time></trkpt><trkpt lat="42.7917467" lon="11.2839867"><ele>97.0</ele><time>2026-04-12T08:50:57.981Z</time></trkpt><trkpt lat="42.7918017" lon="11.2839133"><ele>97.0</ele><time>2026-04-12T08:50:58.981Z</time></trkpt><trkpt lat="42.7918617" lon="11.2838333"><ele>97.00000000000001</ele><time>2026-04-12T08:50:59.981Z</time></trkpt><trkpt lat="42.7919183" lon="11.28375"><ele>97.0</ele><time>2026-04-12T08:51:00.981Z</time></trkpt><trkpt lat="42.7919767" lon="11.2836733"><ele>96.0</ele><time>2026-04-12T08:51:01.981Z</time></trkpt><trkpt lat="42.7920383" lon="11.283595"><ele>95.0</ele><time>2026-04-12T08:51:02.981Z</time></trkpt><trkpt lat="42.7921033" lon="11.2835017"><ele>94.0</ele><time>2026-04-12T08:51:03.982Z</time></trkpt><trkpt lat="42.7921633" lon="11.28341"><ele>93.0</ele><time>2026-04-12T08:51:04.981Z</time></trkpt><trkpt lat="42.7922367" lon="11.2833233"><ele>92.0</ele><time>2026-04-12T08:51:05.981Z</time></trkpt><trkpt lat="42.7923083" lon="11.2832383"><ele>92.0</ele><time>2026-04-12T08:51:06.981Z</time></trkpt><trkpt lat="42.7923767" lon="11.28316"><ele>92.0</ele><time>2026-04-12T08:51:07.981Z</time></trkpt><trkpt lat="42.7924417" lon="11.2830733"><ele>92.0</ele><time>2026-04-12T08:51:08.981Z</time></trkpt><trkpt lat="42.7925033" lon="11.2829867"><ele>92.0</ele><time>2026-04-12T08:51:09.981Z</time></trkpt><trkpt lat="42.792565" lon="11.2828967"><ele>92.0</ele><time>2026-04-12T08:51:10.98Z</time></trkpt><trkpt lat="42.7926283" lon="11.2828167"><ele>92.0</ele><time>2026-04-12T08:51:11.98Z</time></trkpt><trkpt lat="42.7926883" lon="11.2827383"><ele>92.33333333333334</ele><time>2026-04-12T08:51:12.98Z</time></trkpt><trkpt lat="42.7927533" lon="11.282655"><ele>92.66666666666667</ele><time>2026-04-12T08:51:13.98Z</time></trkpt><trkpt lat="42.79282" lon="11.2825767"><ele>93.0</ele><time>2026-04-12T08:51:14.98Z</time></trkpt><trkpt lat="42.7928883" lon="11.2824933"><ele>93.33333333333333</ele><time>2026-04-12T08:51:15.98Z</time></trkpt><trkpt lat="42.7929567" lon="11.2824233"><ele>93.66666666666666</ele><time>2026-04-12T08:51:16.98Z</time></trkpt><trkpt lat="42.79302" lon="11.2823567"><ele>94.0</ele><time>2026-04-12T08:51:17.98Z</time></trkpt><trkpt lat="42.7930833" lon="11.2822817"><ele>93.0</ele><time>2026-04-12T08:51:18.98Z</time></trkpt><trkpt lat="42.7931467" lon="11.2822033"><ele>92.0</ele><time>2026-04-12T08:51:19.981Z</time></trkpt><trkpt lat="42.7932133" lon="11.2821233"><ele>91.0</ele><time>2026-04-12T08:51:20.98Z</time></trkpt><trkpt lat="42.79328" lon="11.2820417"><ele>90.0</ele><time>2026-04-12T08:51:21.981Z</time></trkpt><trkpt lat="42.7933417" lon="11.28197"><ele>89.0</ele><time>2026-04-12T08:51:22.98Z</time></trkpt><trkpt lat="42.7934033" lon="11.2818983"><ele>88.0</ele><time>2026-04-12T08:51:23.98Z</time></trkpt><trkpt lat="42.7934667" lon="11.2818267"><ele>88.66666666666666</ele><time>2026-04-12T08:51:24.98Z</time></trkpt><trkpt lat="42.7935317" lon="11.28176"><ele>89.33333333333333</ele><time>2026-04-12T08:51:25.98Z</time></trkpt><trkpt lat="42.7935883" lon="11.281685"><ele>90.0</ele><time>2026-04-12T08:51:26.979Z</time></trkpt><trkpt lat="42.79364" lon="11.2816017"><ele>90.66666666666667</ele><time>2026-04-12T08:51:27.981Z</time></trkpt><trkpt lat="42.7936883" lon="11.281525"><ele>91.33333333333334</ele><time>2026-04-12T08:51:28.98Z</time></trkpt><trkpt lat="42.7937333" lon="11.28144"><ele>92.0</ele><time>2026-04-12T08:51:29.981Z</time></trkpt><trkpt lat="42.793775" lon="11.2813533"><ele>92.0</ele><time>2026-04-12T08:51:30.98Z</time></trkpt><trkpt lat="42.79381" lon="11.281265"><ele>92.0</ele><time>2026-04-12T08:51:31.981Z</time></trkpt><trkpt lat="42.7938533" lon="11.281185"><ele>92.0</ele><time>2026-04-12T08:51:32.98Z</time></trkpt><trkpt lat="42.793895" lon="11.2810967"><ele>92.0</ele><time>2026-04-12T08:51:33.98Z</time></trkpt><trkpt lat="42.7939333" lon="11.2810067"><ele>92.0</ele><time>2026-04-12T08:51:34.98Z</time></trkpt><trkpt lat="42.7939683" lon="11.28092"><ele>92.0</ele><time>2026-04-12T08:51:35.98Z</time></trkpt><trkpt lat="42.794005" lon="11.2808417"><ele>92.0</ele><time>2026-04-12T08:51:36.98Z</time></trkpt><trkpt lat="42.7940767" lon="11.2806967"><ele>92.0</ele><time>2026-04-12T08:51:38.98Z</time></trkpt><trkpt lat="42.79411" lon="11.2806183"><ele>92.0</ele><time>2026-04-12T08:51:39.98Z</time></trkpt><trkpt lat="42.7941467" lon="11.2805433"><ele>92.0</ele><time>2026-04-12T08:51:40.98Z</time></trkpt><trkpt lat="42.7941867" lon="11.280465"><ele>92.0</ele><time>2026-04-12T08:51:41.98Z</time></trkpt><trkpt lat="42.7942233" lon="11.280385"><ele>92.0</ele><time>2026-04-12T08:51:42.98Z</time></trkpt><trkpt lat="42.7942617" lon="11.2803067"><ele>92.0</ele><time>2026-04-12T08:51:43.98Z</time></trkpt><trkpt lat="42.7942933" lon="11.2802317"><ele>92.0</ele><time>2026-04-12T08:51:44.981Z</time></trkpt><trkpt lat="42.79436" lon="11.2800833"><ele>92.0</ele><time>2026-04-12T08:51:46.981Z</time></trkpt><trkpt lat="42.7943933" lon="11.2800067"><ele>92.0</ele><time>2026-04-12T08:51:47.981Z</time></trkpt><trkpt lat="42.79442" lon="11.2799267"><ele>92.0</ele><time>2026-04-12T08:51:48.98Z</time></trkpt><trkpt lat="42.794465" lon="11.279775"><ele>92.0</ele><time>2026-04-12T08:51:50.981Z</time></trkpt><trkpt lat="42.794505" lon="11.279635"><ele>92.0</ele><time>2026-04-12T08:51:52.98Z</time></trkpt><trkpt lat="42.7945433" lon="11.2794967"><ele>92.0</ele><time>2026-04-12T08:51:54.98Z</time></trkpt><trkpt lat="42.7945667" lon="11.2793417"><ele>92.0</ele><time>2026-04-12T08:51:56.981Z</time></trkpt><trkpt lat="42.794585" lon="11.27919"><ele>92.0</ele><time>2026-04-12T08:51:58.98Z</time></trkpt><trkpt lat="42.794605" lon="11.2790433"><ele>92.0</ele><time>2026-04-12T08:52:00.981Z</time></trkpt><trkpt lat="42.7946267" lon="11.2788917"><ele>92.6</ele><time>2026-04-12T08:52:02.98Z</time></trkpt><trkpt lat="42.794645" lon="11.278745"><ele>93.19999999999999</ele><time>2026-04-12T08:52:04.98Z</time></trkpt><trkpt lat="42.794665" lon="11.27859"><ele>93.8</ele><time>2026-04-12T08:52:06.98Z</time></trkpt><trkpt lat="42.7946883" lon="11.27844"><ele>94.4</ele><time>2026-04-12T08:52:08.98Z</time></trkpt><trkpt lat="42.7947083" lon="11.2782967"><ele>95.0</ele><time>2026-04-12T08:52:10.98Z</time></trkpt><trkpt lat="42.79472" lon="11.27816"><ele>96.0</ele><time>2026-04-12T08:52:12.981Z</time></trkpt><trkpt lat="42.7947383" lon="11.2780083"><ele>97.0</ele><time>2026-04-12T08:52:14.981Z</time></trkpt><trkpt lat="42.7947633" lon="11.2778583"><ele>98.0</ele><time>2026-04-12T08:52:16.98Z</time></trkpt><trkpt lat="42.7947833" lon="11.2777083"><ele>99.0</ele><time>2026-04-12T08:52:18.98Z</time></trkpt><trkpt lat="42.79481" lon="11.27756"><ele>99.0</ele><time>2026-04-12T08:52:20.98Z</time></trkpt><trkpt lat="42.79483" lon="11.2774117"><ele>99.0</ele><time>2026-04-12T08:52:22.981Z</time></trkpt><trkpt lat="42.7948533" lon="11.27727"><ele>99.0</ele><time>2026-04-12T08:52:24.98Z</time></trkpt><trkpt lat="42.79487" lon="11.2771367"><ele>99.0</ele><time>2026-04-12T08:52:26.98Z</time></trkpt><trkpt lat="42.79489" lon="11.2769967"><ele>99.0</ele><time>2026-04-12T08:52:28.981Z</time></trkpt><trkpt lat="42.7949183" lon="11.27687"><ele>98.80000000000001</ele><time>2026-04-12T08:52:30.981Z</time></trkpt><trkpt lat="42.7949417" lon="11.2767467"><ele>98.60000000000001</ele><time>2026-04-12T08:52:32.98Z</time></trkpt><trkpt lat="42.7949633" lon="11.276605"><ele>98.4</ele><time>2026-04-12T08:52:34.98Z</time></trkpt><trkpt lat="42.7949733" lon="11.2764717"><ele>98.2</ele><time>2026-04-12T08:52:36.981Z</time></trkpt><trkpt lat="42.79498" lon="11.276345"><ele>98.0</ele><time>2026-04-12T08:52:38.981Z</time></trkpt><trkpt lat="42.79499" lon="11.27623"><ele>97.71428571428571</ele><time>2026-04-12T08:52:40.98Z</time></trkpt><trkpt lat="42.79503" lon="11.2761183"><ele>97.42857142857143</ele><time>2026-04-12T08:52:42.98Z</time></trkpt><trkpt lat="42.7951033" lon="11.276095"><ele>97.14285714285714</ele><time>2026-04-12T08:52:44.98Z</time></trkpt><trkpt lat="42.7951683" lon="11.27611"><ele>96.85714285714286</ele><time>2026-04-12T08:52:46.98Z</time></trkpt><trkpt lat="42.79523" lon="11.2761433"><ele>96.57142857142857</ele><time>2026-04-12T08:52:49.981Z</time></trkpt><trkpt lat="42.79529" lon="11.27617"><ele>96.28571428571428</ele><time>2026-04-12T08:52:52.98Z</time></trkpt><trkpt lat="42.7953667" lon="11.2762"><ele>96.0</ele><time>2026-04-12T08:52:56.981Z</time></trkpt><trkpt lat="42.7954383" lon="11.2762333"><ele>97.71428571428571</ele><time>2026-04-12T08:53:00.98Z</time></trkpt><trkpt lat="42.79551" lon="11.2762717"><ele>99.42857142857143</ele><time>2026-04-12T08:53:04.981Z</time></trkpt><trkpt lat="42.7955817" lon="11.2763"><ele>101.14285714285714</ele><time>2026-04-12T08:53:08.981Z</time></trkpt><trkpt lat="42.7956517" lon="11.2763233"><ele>102.85714285714286</ele><time>2026-04-12T08:53:12.98Z</time></trkpt><trkpt lat="42.7957283" lon="11.2763583"><ele>104.57142857142857</ele><time>2026-04-12T08:53:16.98Z</time></trkpt><trkpt lat="42.7958" lon="11.2763667"><ele>106.28571428571428</ele><time>2026-04-12T08:53:20.981Z</time></trkpt><trkpt lat="42.7958683" lon="11.276395"><ele>108.0</ele><time>2026-04-12T08:53:24.981Z</time></trkpt><trkpt lat="42.795945" lon="11.27642"><ele>110.66666666666667</ele><time>2026-04-12T08:53:28.981Z</time></trkpt><trkpt lat="42.796015" lon="11.276455"><ele>113.33333333333334</ele><time>2026-04-12T08:53:32.98Z</time></trkpt><trkpt lat="42.796095" lon="11.276495"><ele>116.0</ele><time>2026-04-12T08:53:36.98Z</time></trkpt><trkpt lat="42.7961633" lon="11.2765217"><ele>118.66666666666667</ele><time>2026-04-12T08:53:39.981Z</time></trkpt><trkpt lat="42.7962283" lon="11.2765267"><ele>121.33333333333334</ele><time>2026-04-12T08:53:42.98Z</time></trkpt><trkpt lat="42.7963033" lon="11.2765083"><ele>124.0</ele><time>2026-04-12T08:53:46.981Z</time></trkpt><trkpt lat="42.79639" lon="11.276515"><ele>124.00000000000001</ele><time>2026-04-12T08:53:50.981Z</time></trkpt><trkpt lat="42.7964633" lon="11.2765133"><ele>124.0</ele><time>2026-04-12T08:53:53.98Z</time></trkpt><trkpt lat="42.79655" lon="11.2765167"><ele>124.0</ele><time>2026-04-12T08:53:57.98Z</time></trkpt><trkpt lat="42.7966133" lon="11.27653"><ele>124.0</ele><time>2026-04-12T08:54:00.981Z</time></trkpt><trkpt lat="42.7967" lon="11.2765483"><ele>124.00000000000001</ele><time>2026-04-12T08:54:04.98Z</time></trkpt><trkpt lat="42.79679" lon="11.2765833"><ele>124.0</ele><time>2026-04-12T08:54:07.98Z</time></trkpt><trkpt lat="42.7968533" lon="11.2766067"><ele>123.16666666666667</ele><time>2026-04-12T08:54:09.98Z</time></trkpt><trkpt lat="42.7969217" lon="11.276625"><ele>122.33333333333334</ele><time>2026-04-12T08:54:11.981Z</time></trkpt><trkpt lat="42.796985" lon="11.2766417"><ele>121.5</ele><time>2026-04-12T08:54:13.98Z</time></trkpt><trkpt lat="42.7970633" lon="11.27667"><ele>120.66666666666666</ele><time>2026-04-12T08:54:15.981Z</time></trkpt><trkpt lat="42.797155" lon="11.2767"><ele>119.83333333333333</ele><time>2026-04-12T08:54:17.98Z</time></trkpt><trkpt lat="42.7972417" lon="11.2767217"><ele>119.0</ele><time>2026-04-12T08:54:19.98Z</time></trkpt><trkpt lat="42.797335" lon="11.2767367"><ele>119.0</ele><time>2026-04-12T08:54:21.98Z</time></trkpt><trkpt lat="42.79744" lon="11.2767383"><ele>119.0</ele><time>2026-04-12T08:54:23.98Z</time></trkpt><trkpt lat="42.79756" lon="11.2767367"><ele>119.0</ele><time>2026-04-12T08:54:25.98Z</time></trkpt><trkpt lat="42.797685" lon="11.2767167"><ele>119.0</ele><time>2026-04-12T08:54:27.98Z</time></trkpt><trkpt lat="42.7978" lon="11.2766933"><ele>117.6</ele><time>2026-04-12T08:54:29.98Z</time></trkpt><trkpt lat="42.7979183" lon="11.2766533"><ele>116.2</ele><time>2026-04-12T08:54:31.98Z</time></trkpt><trkpt lat="42.7980383" lon="11.276625"><ele>114.79999999999998</ele><time>2026-04-12T08:54:33.98Z</time></trkpt><trkpt lat="42.7981067" lon="11.2766133"><ele>113.39999999999999</ele><time>2026-04-12T08:54:34.98Z</time></trkpt><trkpt lat="42.798185" lon="11.2766017"><ele>112.0</ele><time>2026-04-12T08:54:35.98Z</time></trkpt><trkpt lat="42.798255" lon="11.2765917"><ele>112.0</ele><time>2026-04-12T08:54:36.98Z</time></trkpt><trkpt lat="42.798325" lon="11.2765767"><ele>112.0</ele><time>2026-04-12T08:54:37.98Z</time></trkpt><trkpt lat="42.7983917" lon="11.2765683"><ele>112.0</ele><time>2026-04-12T08:54:38.98Z</time></trkpt><trkpt lat="42.7984633" lon="11.2765567"><ele>112.0</ele><time>2026-04-12T08:54:39.98Z</time></trkpt><trkpt lat="42.7985317" lon="11.27655"><ele>112.0</ele><time>2026-04-12T08:54:40.98Z</time></trkpt><trkpt lat="42.7985983" lon="11.2765417"><ele>112.0</ele><time>2026-04-12T08:54:41.98Z</time></trkpt><trkpt lat="42.798665" lon="11.276525"><ele>112.0</ele><time>2026-04-12T08:54:42.981Z</time></trkpt><trkpt lat="42.798735" lon="11.2765167"><ele>111.0</ele><time>2026-04-12T08:54:43.98Z</time></trkpt><trkpt lat="42.7988" lon="11.2765033"><ele>110.0</ele><time>2026-04-12T08:54:44.981Z</time></trkpt><trkpt lat="42.7988667" lon="11.27649"><ele>109.0</ele><time>2026-04-12T08:54:45.98Z</time></trkpt><trkpt lat="42.798935" lon="11.2764833"><ele>108.0</ele><time>2026-04-12T08:54:46.98Z</time></trkpt><trkpt lat="42.799005" lon="11.27648"><ele>107.0</ele><time>2026-04-12T08:54:47.98Z</time></trkpt><trkpt lat="42.7990783" lon="11.2764767"><ele>106.0</ele><time>2026-04-12T08:54:48.98Z</time></trkpt><trkpt lat="42.7991433" lon="11.2764683"><ele>105.0</ele><time>2026-04-12T08:54:49.98Z</time></trkpt><trkpt lat="42.7992133" lon="11.2764633"><ele>105.0</ele><time>2026-04-12T08:54:50.98Z</time></trkpt><trkpt lat="42.799285" lon="11.2764633"><ele>105.0</ele><time>2026-04-12T08:54:51.98Z</time></trkpt><trkpt lat="42.799355" lon="11.2764567"><ele>105.0</ele><time>2026-04-12T08:54:52.98Z</time></trkpt><trkpt lat="42.7994183" lon="11.276455"><ele>105.0</ele><time>2026-04-12T08:54:53.98Z</time></trkpt><trkpt lat="42.7994817" lon="11.2764533"><ele>105.0</ele><time>2026-04-12T08:54:54.98Z</time></trkpt><trkpt lat="42.7995833" lon="11.2764767"><ele>105.0</ele><time>2026-04-12T08:54:56.981Z</time></trkpt><trkpt lat="42.7996717" lon="11.2765233"><ele>106.0</ele><time>2026-04-12T08:54:58.98Z</time></trkpt><trkpt lat="42.7997517" lon="11.2765783"><ele>107.0</ele><time>2026-04-12T08:55:00.981Z</time></trkpt><trkpt lat="42.7998267" lon="11.2766283"><ele>108.0</ele><time>2026-04-12T08:55:02.98Z</time></trkpt><trkpt lat="42.7999067" lon="11.2766833"><ele>109.0</ele><time>2026-04-12T08:55:04.98Z</time></trkpt><trkpt lat="42.799975" lon="11.2767217"><ele>110.0</ele><time>2026-04-12T08:55:06.98Z</time></trkpt><trkpt lat="42.800055" lon="11.2767267"><ele>111.0</ele><time>2026-04-12T08:55:08.981Z</time></trkpt><trkpt lat="42.8001317" lon="11.276695"><ele>112.0</ele><time>2026-04-12T08:55:10.98Z</time></trkpt><trkpt lat="42.8001967" lon="11.27662"><ele>113.0</ele><time>2026-04-12T08:55:12.981Z</time></trkpt><trkpt lat="42.800255" lon="11.2765183"><ele>114.0</ele><time>2026-04-12T08:55:14.98Z</time></trkpt><trkpt lat="42.8003267" lon="11.2764183"><ele>115.0</ele><time>2026-04-12T08:55:16.981Z</time></trkpt><trkpt lat="42.8004067" lon="11.2763483"><ele>116.0</ele><time>2026-04-12T08:55:18.98Z</time></trkpt><trkpt lat="42.8004817" lon="11.27631"><ele>116.0</ele><time>2026-04-12T08:55:20.98Z</time></trkpt><trkpt lat="42.80056" lon="11.2762633"><ele>116.0</ele><time>2026-04-12T08:55:22.98Z</time></trkpt><trkpt lat="42.8006317" lon="11.2761983"><ele>116.0</ele><time>2026-04-12T08:55:24.98Z</time></trkpt><trkpt lat="42.8007167" lon="11.276135"><ele>116.0</ele><time>2026-04-12T08:55:26.98Z</time></trkpt><trkpt lat="42.8008083" lon="11.276065"><ele>116.0</ele><time>2026-04-12T08:55:28.981Z</time></trkpt><trkpt lat="42.8008917" lon="11.2759817"><ele>116.0</ele><time>2026-04-12T08:55:30.981Z</time></trkpt><trkpt lat="42.80098" lon="11.2759133"><ele>116.0</ele><time>2026-04-12T08:55:32.98Z</time></trkpt><trkpt lat="42.8010683" lon="11.2758567"><ele>116.0</ele><time>2026-04-12T08:55:34.98Z</time></trkpt><trkpt lat="42.8011567" lon="11.2758017"><ele>116.0</ele><time>2026-04-12T08:55:36.981Z</time></trkpt><trkpt lat="42.80125" lon="11.275735"><ele>116.0</ele><time>2026-04-12T08:55:38.98Z</time></trkpt><trkpt lat="42.8013383" lon="11.2756617"><ele>114.8</ele><time>2026-04-12T08:55:40.98Z</time></trkpt><trkpt lat="42.8014333" lon="11.2756033"><ele>113.6</ele><time>2026-04-12T08:55:42.98Z</time></trkpt><trkpt lat="42.8015267" lon="11.2755317"><ele>112.4</ele><time>2026-04-12T08:55:44.98Z</time></trkpt><trkpt lat="42.8016233" lon="11.275475"><ele>111.2</ele><time>2026-04-12T08:55:46.981Z</time></trkpt><trkpt lat="42.8017017" lon="11.2754267"><ele>110.0</ele><time>2026-04-12T08:55:48.98Z</time></trkpt><trkpt lat="42.8017317" lon="11.2753417"><ele>109.99999999999999</ele><time>2026-04-12T08:55:52.981Z</time></trkpt><trkpt lat="42.8018117" lon="11.2753583"><ele>110.0</ele><time>2026-04-12T08:56:01.98Z</time></trkpt><trkpt lat="42.8018817" lon="11.275415"><ele>110.0</ele><time>2026-04-12T08:56:03.98Z</time></trkpt><trkpt lat="42.8019683" lon="11.27544"><ele>110.0</ele><time>2026-04-12T08:56:05.98Z</time></trkpt><trkpt lat="42.8020867" lon="11.2754133"><ele>109.99999999999999</ele><time>2026-04-12T08:56:07.98Z</time></trkpt><trkpt lat="42.8021517" lon="11.2754"><ele>110.0</ele><time>2026-04-12T08:56:08.98Z</time></trkpt><trkpt lat="42.802225" lon="11.2753733"><ele>108.4</ele><time>2026-04-12T08:56:09.981Z</time></trkpt><trkpt lat="42.8022933" lon="11.275345"><ele>106.8</ele><time>2026-04-12T08:56:10.98Z</time></trkpt><trkpt lat="42.802355" lon="11.2753167"><ele>105.19999999999999</ele><time>2026-04-12T08:56:11.98Z</time></trkpt><trkpt lat="42.80247" lon="11.2752767"><ele>103.6</ele><time>2026-04-12T08:56:13.98Z</time></trkpt><trkpt lat="42.8025833" lon="11.27527"><ele>102.0</ele><time>2026-04-12T08:56:15.981Z</time></trkpt><trkpt lat="42.8026867" lon="11.2752517"><ele>101.25</ele><time>2026-04-12T08:56:17.98Z</time></trkpt><trkpt lat="42.8027867" lon="11.275225"><ele>100.5</ele><time>2026-04-12T08:56:19.98Z</time></trkpt><trkpt lat="42.8029017" lon="11.2752167"><ele>99.75</ele><time>2026-04-12T08:56:21.98Z</time></trkpt><trkpt lat="42.80302" lon="11.275185"><ele>99.0</ele><time>2026-04-12T08:56:23.98Z</time></trkpt><trkpt lat="42.8031283" lon="11.2751417"><ele>99.0</ele><time>2026-04-12T08:56:25.98Z</time></trkpt><trkpt lat="42.80325" lon="11.2751"><ele>99.0</ele><time>2026-04-12T08:56:27.98Z</time></trkpt><trkpt lat="42.8033683" lon="11.2750583"><ele>99.0</ele><time>2026-04-12T08:56:29.98Z</time></trkpt><trkpt lat="42.803485" lon="11.27502"><ele>99.0</ele><time>2026-04-12T08:56:31.98Z</time></trkpt><trkpt lat="42.8035967" lon="11.2749817"><ele>97.75</ele><time>2026-04-12T08:56:33.98Z</time></trkpt><trkpt lat="42.8037133" lon="11.2749333"><ele>96.5</ele><time>2026-04-12T08:56:35.98Z</time></trkpt><trkpt lat="42.80381" lon="11.2748517"><ele>95.25</ele><time>2026-04-12T08:56:37.98Z</time></trkpt><trkpt lat="42.8039067" lon="11.2747717"><ele>94.0</ele><time>2026-04-12T08:56:39.98Z</time></trkpt><trkpt lat="42.8039933" lon="11.27468"><ele>94.0</ele><time>2026-04-12T08:56:41.981Z</time></trkpt><trkpt lat="42.8040867" lon="11.274575"><ele>94.0</ele><time>2026-04-12T08:56:43.98Z</time></trkpt><trkpt lat="42.8041883" lon="11.2744983"><ele>94.0</ele><time>2026-04-12T08:56:45.98Z</time></trkpt><trkpt lat="42.804285" lon="11.2744283"><ele>94.0</ele><time>2026-04-12T08:56:47.981Z</time></trkpt><trkpt lat="42.804395" lon="11.27438"><ele>94.80000000000001</ele><time>2026-04-12T08:56:49.98Z</time></trkpt><trkpt lat="42.8045083" lon="11.27435"><ele>95.60000000000001</ele><time>2026-04-12T08:56:51.98Z</time></trkpt><trkpt lat="42.80463" lon="11.2743417"><ele>96.4</ele><time>2026-04-12T08:56:53.98Z</time></trkpt><trkpt lat="42.8047" lon="11.2743417"><ele>97.2</ele><time>2026-04-12T08:56:54.981Z</time></trkpt><trkpt lat="42.804815" lon="11.274345"><ele>98.0</ele><time>2026-04-12T08:56:56.98Z</time></trkpt><trkpt lat="42.80492" lon="11.2743417"><ele>98.0</ele><time>2026-04-12T08:56:58.98Z</time></trkpt><trkpt lat="42.805025" lon="11.27433"><ele>98.0</ele><time>2026-04-12T08:57:00.98Z</time></trkpt><trkpt lat="42.80513" lon="11.2742783"><ele>98.0</ele><time>2026-04-12T08:57:02.98Z</time></trkpt><trkpt lat="42.8052317" lon="11.27422"><ele>98.0</ele><time>2026-04-12T08:57:04.98Z</time></trkpt><trkpt lat="42.8053117" lon="11.274135"><ele>98.0</ele><time>2026-04-12T08:57:06.98Z</time></trkpt><trkpt lat="42.80539" lon="11.274065"><ele>97.60000000000001</ele><time>2026-04-12T08:57:08.98Z</time></trkpt><trkpt lat="42.8054517" lon="11.2739867"><ele>97.2</ele><time>2026-04-12T08:57:10.98Z</time></trkpt><trkpt lat="42.80551" lon="11.2738833"><ele>96.8</ele><time>2026-04-12T08:57:12.98Z</time></trkpt><trkpt lat="42.8055767" lon="11.2738017"><ele>96.4</ele><time>2026-04-12T08:57:14.98Z</time></trkpt><trkpt lat="42.80565" lon="11.27372"><ele>96.0</ele><time>2026-04-12T08:57:16.98Z</time></trkpt><trkpt lat="42.8057183" lon="11.273605"><ele>95.4</ele><time>2026-04-12T08:57:18.98Z</time></trkpt><trkpt lat="42.8057817" lon="11.2734733"><ele>94.8</ele><time>2026-04-12T08:57:20.98Z</time></trkpt><trkpt lat="42.8058367" lon="11.2733433"><ele>94.2</ele><time>2026-04-12T08:57:22.98Z</time></trkpt><trkpt lat="42.8058983" lon="11.2731983"><ele>93.60000000000001</ele><time>2026-04-12T08:57:24.98Z</time></trkpt><trkpt lat="42.805935" lon="11.2731167"><ele>93.0</ele><time>2026-04-12T08:57:25.98Z</time></trkpt><trkpt lat="42.8059717" lon="11.27303"><ele>92.16666666666667</ele><time>2026-04-12T08:57:26.981Z</time></trkpt><trkpt lat="42.8060133" lon="11.2729433"><ele>91.33333333333333</ele><time>2026-04-12T08:57:27.98Z</time></trkpt><trkpt lat="42.8060483" lon="11.2728533"><ele>90.5</ele><time>2026-04-12T08:57:28.981Z</time></trkpt><trkpt lat="42.8060833" lon="11.27277"><ele>89.66666666666666</ele><time>2026-04-12T08:57:29.981Z</time></trkpt><trkpt lat="42.8061167" lon="11.2726733"><ele>88.83333333333333</ele><time>2026-04-12T08:57:30.98Z</time></trkpt><trkpt lat="42.8061567" lon="11.27258"><ele>88.0</ele><time>2026-04-12T08:57:31.98Z</time></trkpt><trkpt lat="42.8062017" lon="11.27249"><ele>88.0</ele><time>2026-04-12T08:57:32.981Z</time></trkpt><trkpt lat="42.8062433" lon="11.2723967"><ele>88.0</ele><time>2026-04-12T08:57:33.98Z</time></trkpt><trkpt lat="42.806285" lon="11.2723017"><ele>88.0</ele><time>2026-04-12T08:57:34.98Z</time></trkpt><trkpt lat="42.8063267" lon="11.2722067"><ele>88.0</ele><time>2026-04-12T08:57:35.98Z</time></trkpt><trkpt lat="42.806365" lon="11.2721217"><ele>88.0</ele><time>2026-04-12T08:57:36.98Z</time></trkpt><trkpt lat="42.8064033" lon="11.2720433"><ele>88.0</ele><time>2026-04-12T08:57:37.981Z</time></trkpt><trkpt lat="42.806445" lon="11.2719583"><ele>87.85714285714286</ele><time>2026-04-12T08:57:38.98Z</time></trkpt><trkpt lat="42.80648" lon="11.2718717"><ele>87.71428571428571</ele><time>2026-04-12T08:57:39.981Z</time></trkpt><trkpt lat="42.806515" lon="11.271785"><ele>87.57142857142857</ele><time>2026-04-12T08:57:40.98Z</time></trkpt><trkpt lat="42.806555" lon="11.2716967"><ele>87.42857142857143</ele><time>2026-04-12T08:57:41.98Z</time></trkpt><trkpt lat="42.80659" lon="11.2716017"><ele>87.28571428571429</ele><time>2026-04-12T08:57:42.98Z</time></trkpt><trkpt lat="42.8066233" lon="11.2715183"><ele>87.14285714285714</ele><time>2026-04-12T08:57:43.981Z</time></trkpt><trkpt lat="42.8066583" lon="11.2714283"><ele>87.0</ele><time>2026-04-12T08:57:44.98Z</time></trkpt><trkpt lat="42.8066983" lon="11.271345"><ele>87.0</ele><time>2026-04-12T08:57:45.98Z</time></trkpt><trkpt lat="42.8067417" lon="11.27125"><ele>87.0</ele><time>2026-04-12T08:57:46.98Z</time></trkpt><trkpt lat="42.8067833" lon="11.2711567"><ele>87.0</ele><time>2026-04-12T08:57:47.98Z</time></trkpt><trkpt lat="42.8068233" lon="11.2710667"><ele>87.0</ele><time>2026-04-12T08:57:48.98Z</time></trkpt><trkpt lat="42.8068583" lon="11.2709717"><ele>87.0</ele><time>2026-04-12T08:57:49.981Z</time></trkpt><trkpt lat="42.8068983" lon="11.2708817"><ele>87.0</ele><time>2026-04-12T08:57:50.981Z</time></trkpt><trkpt lat="42.8069367" lon="11.2708033"><ele>87.0</ele><time>2026-04-12T08:57:51.98Z</time></trkpt><trkpt lat="42.80698" lon="11.2707217"><ele>87.0</ele><time>2026-04-12T08:57:52.98Z</time></trkpt><trkpt lat="42.8070183" lon="11.2706317"><ele>87.0</ele><time>2026-04-12T08:57:53.98Z</time></trkpt><trkpt lat="42.80706" lon="11.27054"><ele>87.0</ele><time>2026-04-12T08:57:54.98Z</time></trkpt><trkpt lat="42.8070883" lon="11.2704617"><ele>87.0</ele><time>2026-04-12T08:57:55.98Z</time></trkpt><trkpt lat="42.8071433" lon="11.2703183"><ele>87.0</ele><time>2026-04-12T08:57:57.98Z</time></trkpt><trkpt lat="42.8071917" lon="11.270185"><ele>86.25</ele><time>2026-04-12T08:57:59.98Z</time></trkpt><trkpt lat="42.8072783" lon="11.27006"><ele>85.5</ele><time>2026-04-12T08:58:01.981Z</time></trkpt><trkpt lat="42.8073317" lon="11.2699967"><ele>84.75</ele><time>2026-04-12T08:58:02.98Z</time></trkpt><trkpt lat="42.8074317" lon="11.26989"><ele>84.0</ele><time>2026-04-12T08:58:04.98Z</time></trkpt><trkpt lat="42.80753" lon="11.26977"><ele>83.0</ele><time>2026-04-12T08:58:06.981Z</time></trkpt><trkpt lat="42.80759" lon="11.2697067"><ele>82.0</ele><time>2026-04-12T08:58:07.981Z</time></trkpt><trkpt lat="42.8076433" lon="11.26964"><ele>81.0</ele><time>2026-04-12T08:58:08.98Z</time></trkpt><trkpt lat="42.8077117" lon="11.26955"><ele>80.0</ele><time>2026-04-12T08:58:09.98Z</time></trkpt><trkpt lat="42.807785" lon="11.2694617"><ele>79.0</ele><time>2026-04-12T08:58:10.981Z</time></trkpt><trkpt lat="42.807845" lon="11.2693833"><ele>78.0</ele><time>2026-04-12T08:58:11.98Z</time></trkpt><trkpt lat="42.8079" lon="11.2693"><ele>78.0</ele><time>2026-04-12T08:58:12.98Z</time></trkpt><trkpt lat="42.807965" lon="11.269235"><ele>78.0</ele><time>2026-04-12T08:58:13.98Z</time></trkpt><trkpt lat="42.8080267" lon="11.2691733"><ele>78.0</ele><time>2026-04-12T08:58:14.98Z</time></trkpt><trkpt lat="42.8080867" lon="11.2691033"><ele>78.0</ele><time>2026-04-12T08:58:15.98Z</time></trkpt><trkpt lat="42.8081467" lon="11.2690333"><ele>78.0</ele><time>2026-04-12T08:58:16.98Z</time></trkpt><trkpt lat="42.8081983" lon="11.2689667"><ele>78.0</ele><time>2026-04-12T08:58:17.98Z</time></trkpt><trkpt lat="42.8082567" lon="11.2689017"><ele>78.0</ele><time>2026-04-12T08:58:18.981Z</time></trkpt><trkpt lat="42.808315" lon="11.2688233"><ele>78.0</ele><time>2026-04-12T08:58:19.981Z</time></trkpt><trkpt lat="42.808375" lon="11.268745"><ele>78.0</ele><time>2026-04-12T08:58:20.98Z</time></trkpt><trkpt lat="42.8084333" lon="11.2686717"><ele>78.0</ele><time>2026-04-12T08:58:21.98Z</time></trkpt><trkpt lat="42.8084917" lon="11.2686017"><ele>78.0</ele><time>2026-04-12T08:58:22.981Z</time></trkpt><trkpt lat="42.8085533" lon="11.2685417"><ele>78.0</ele><time>2026-04-12T08:58:23.98Z</time></trkpt><trkpt lat="42.8086133" lon="11.2684817"><ele>78.0</ele><time>2026-04-12T08:58:24.98Z</time></trkpt><trkpt lat="42.8086617" lon="11.26841"><ele>78.0</ele><time>2026-04-12T08:58:25.98Z</time></trkpt><trkpt lat="42.808705" lon="11.2683317"><ele>78.0</ele><time>2026-04-12T08:58:26.98Z</time></trkpt><trkpt lat="42.80875" lon="11.2682633"><ele>78.0</ele><time>2026-04-12T08:58:27.98Z</time></trkpt><trkpt lat="42.8088" lon="11.2682017"><ele>78.0</ele><time>2026-04-12T08:58:28.98Z</time></trkpt><trkpt lat="42.808855" lon="11.2681383"><ele>78.0</ele><time>2026-04-12T08:58:29.981Z</time></trkpt><trkpt lat="42.808905" lon="11.2680783"><ele>78.0</ele><time>2026-04-12T08:58:30.98Z</time></trkpt><trkpt lat="42.8089483" lon="11.2680133"><ele>78.0</ele><time>2026-04-12T08:58:31.98Z</time></trkpt><trkpt lat="42.808995" lon="11.26794"><ele>78.0</ele><time>2026-04-12T08:58:32.98Z</time></trkpt><trkpt lat="42.809045" lon="11.267875"><ele>78.0</ele><time>2026-04-12T08:58:33.98Z</time></trkpt><trkpt lat="42.809095" lon="11.267815"><ele>78.0</ele><time>2026-04-12T08:58:34.98Z</time></trkpt><trkpt lat="42.8091467" lon="11.267755"><ele>78.0</ele><time>2026-04-12T08:58:35.98Z</time></trkpt><trkpt lat="42.8091967" lon="11.2676967"><ele>78.0</ele><time>2026-04-12T08:58:36.98Z</time></trkpt><trkpt lat="42.8092533" lon="11.2676433"><ele>78.0</ele><time>2026-04-12T08:58:37.981Z</time></trkpt><trkpt lat="42.809305" lon="11.26758"><ele>77.66666666666667</ele><time>2026-04-12T08:58:38.981Z</time></trkpt><trkpt lat="42.8093517" lon="11.267515"><ele>77.33333333333333</ele><time>2026-04-12T08:58:39.98Z</time></trkpt><trkpt lat="42.8094033" lon="11.267455"><ele>77.0</ele><time>2026-04-12T08:58:40.98Z</time></trkpt><trkpt lat="42.8094533" lon="11.2673983"><ele>76.66666666666666</ele><time>2026-04-12T08:58:41.98Z</time></trkpt><trkpt lat="42.8095617" lon="11.26732"><ele>76.33333333333333</ele><time>2026-04-12T08:58:43.981Z</time></trkpt><trkpt lat="42.8096133" lon="11.2672683"><ele>76.0</ele><time>2026-04-12T08:58:44.98Z</time></trkpt><trkpt lat="42.809675" lon="11.2672217"><ele>76.0</ele><time>2026-04-12T08:58:45.98Z</time></trkpt><trkpt lat="42.8097317" lon="11.267175"><ele>76.0</ele><time>2026-04-12T08:58:46.98Z</time></trkpt><trkpt lat="42.8098417" lon="11.2671183"><ele>76.0</ele><time>2026-04-12T08:58:48.981Z</time></trkpt><trkpt lat="42.80996" lon="11.267075"><ele>76.0</ele><time>2026-04-12T08:58:50.98Z</time></trkpt><trkpt lat="42.8100233" lon="11.2670533"><ele>76.0</ele><time>2026-04-12T08:58:51.98Z</time></trkpt><trkpt lat="42.8100867" lon="11.2670333"><ele>76.0</ele><time>2026-04-12T08:58:52.98Z</time></trkpt><trkpt lat="42.8101983" lon="11.2669867"><ele>76.39999999999999</ele><time>2026-04-12T08:58:54.98Z</time></trkpt><trkpt lat="42.8103017" lon="11.2669333"><ele>76.8</ele><time>2026-04-12T08:58:56.98Z</time></trkpt><trkpt lat="42.8103983" lon="11.2668683"><ele>77.19999999999999</ele><time>2026-04-12T08:58:58.981Z</time></trkpt><trkpt lat="42.81049" lon="11.2668"><ele>77.6</ele><time>2026-04-12T08:59:00.98Z</time></trkpt><trkpt lat="42.8105817" lon="11.2667283"><ele>78.0</ele><time>2026-04-12T08:59:02.981Z</time></trkpt><trkpt lat="42.8106733" lon="11.2666333"><ele>78.0</ele><time>2026-04-12T08:59:04.98Z</time></trkpt><trkpt lat="42.81072" lon="11.2665717"><ele>78.0</ele><time>2026-04-12T08:59:05.98Z</time></trkpt><trkpt lat="42.8108083" lon="11.2664783"><ele>78.0</ele><time>2026-04-12T08:59:07.981Z</time></trkpt><trkpt lat="42.8109067" lon="11.2664017"><ele>78.0</ele><time>2026-04-12T08:59:09.98Z</time></trkpt><trkpt lat="42.81099" lon="11.2663067"><ele>78.0</ele><time>2026-04-12T08:59:11.98Z</time></trkpt><trkpt lat="42.8110567" lon="11.266175"><ele>77.5</ele><time>2026-04-12T08:59:13.981Z</time></trkpt><trkpt lat="42.81109" lon="11.26604"><ele>77.0</ele><time>2026-04-12T08:59:15.98Z</time></trkpt><trkpt lat="42.81112" lon="11.2659133"><ele>76.5</ele><time>2026-04-12T08:59:17.98Z</time></trkpt><trkpt lat="42.8111317" lon="11.2657517"><ele>76.0</ele><time>2026-04-12T08:59:19.98Z</time></trkpt><trkpt lat="42.8111583" lon="11.26558"><ele>75.8</ele><time>2026-04-12T08:59:21.98Z</time></trkpt><trkpt lat="42.8111817" lon="11.265415"><ele>75.6</ele><time>2026-04-12T08:59:23.98Z</time></trkpt><trkpt lat="42.8112083" lon="11.26525"><ele>75.4</ele><time>2026-04-12T08:59:25.98Z</time></trkpt><trkpt lat="42.8112233" lon="11.26516"><ele>75.2</ele><time>2026-04-12T08:59:26.98Z</time></trkpt><trkpt lat="42.8112633" lon="11.2650117"><ele>75.0</ele><time>2026-04-12T08:59:28.98Z</time></trkpt><trkpt lat="42.811345" lon="11.2648833"><ele>75.0</ele><time>2026-04-12T08:59:30.98Z</time></trkpt><trkpt lat="42.81144" lon="11.264785"><ele>75.0</ele><time>2026-04-12T08:59:32.98Z</time></trkpt><trkpt lat="42.8114967" lon="11.2647417"><ele>75.0</ele><time>2026-04-12T08:59:33.98Z</time></trkpt><trkpt lat="42.8115917" lon="11.2646417"><ele>75.0</ele><time>2026-04-12T08:59:35.98Z</time></trkpt><trkpt lat="42.8116783" lon="11.2645333"><ele>75.0</ele><time>2026-04-12T08:59:37.98Z</time></trkpt><trkpt lat="42.8117667" lon="11.2644367"><ele>71.2</ele><time>2026-04-12T08:59:39.98Z</time></trkpt><trkpt lat="42.811865" lon="11.2643383"><ele>67.4</ele><time>2026-04-12T08:59:41.98Z</time></trkpt><trkpt lat="42.8119217" lon="11.2642983"><ele>63.599999999999994</ele><time>2026-04-12T08:59:42.981Z</time></trkpt><trkpt lat="42.8120117" lon="11.264175"><ele>59.8</ele><time>2026-04-12T08:59:44.98Z</time></trkpt><trkpt lat="42.8120483" lon="11.264095"><ele>56.0</ele><time>2026-04-12T08:59:45.98Z</time></trkpt><trkpt lat="42.8120733" lon="11.2640033"><ele>55.57142857142857</ele><time>2026-04-12T08:59:46.98Z</time></trkpt><trkpt lat="42.8120917" lon="11.2639117"><ele>55.14285714285714</ele><time>2026-04-12T08:59:47.98Z</time></trkpt><trkpt lat="42.8121" lon="11.2638167"><ele>54.714285714285715</ele><time>2026-04-12T08:59:48.981Z</time></trkpt><trkpt lat="42.8120967" lon="11.26372"><ele>54.285714285714285</ele><time>2026-04-12T08:59:49.98Z</time></trkpt><trkpt lat="42.8120917" lon="11.2636233"><ele>53.857142857142854</ele><time>2026-04-12T08:59:50.98Z</time></trkpt><trkpt lat="42.8120817" lon="11.2635283"><ele>53.42857142857143</ele><time>2026-04-12T08:59:51.981Z</time></trkpt><trkpt lat="42.8120767" lon="11.26342"><ele>53.0</ele><time>2026-04-12T08:59:52.98Z</time></trkpt><trkpt lat="42.8120717" lon="11.263305"><ele>53.00000000000001</ele><time>2026-04-12T08:59:53.98Z</time></trkpt><trkpt lat="42.8120683" lon="11.2631933"><ele>53.0</ele><time>2026-04-12T08:59:54.98Z</time></trkpt><trkpt lat="42.8120633" lon="11.26309"><ele>53.0</ele><time>2026-04-12T08:59:55.98Z</time></trkpt><trkpt lat="42.81206" lon="11.2629833"><ele>53.0</ele><time>2026-04-12T08:59:56.98Z</time></trkpt><trkpt lat="42.8120517" lon="11.2628783"><ele>53.00000000000001</ele><time>2026-04-12T08:59:57.98Z</time></trkpt><trkpt lat="42.81205" lon="11.26278"><ele>53.0</ele><time>2026-04-12T08:59:58.981Z</time></trkpt><trkpt lat="42.812045" lon="11.2626783"><ele>51.833333333333336</ele><time>2026-04-12T08:59:59.98Z</time></trkpt><trkpt lat="42.8120383" lon="11.26257"><ele>50.66666666666667</ele><time>2026-04-12T09:00:00.981Z</time></trkpt><trkpt lat="42.8120283" lon="11.2624617"><ele>49.5</ele><time>2026-04-12T09:00:01.981Z</time></trkpt><trkpt lat="42.8120167" lon="11.2623517"><ele>48.333333333333336</ele><time>2026-04-12T09:00:02.98Z</time></trkpt><trkpt lat="42.8120083" lon="11.2622383"><ele>47.16666666666667</ele><time>2026-04-12T09:00:03.98Z</time></trkpt><trkpt lat="42.8120033" lon="11.2621217"><ele>46.0</ele><time>2026-04-12T09:00:04.981Z</time></trkpt><trkpt lat="42.812" lon="11.26201"><ele>45.5</ele><time>2026-04-12T09:00:05.981Z</time></trkpt><trkpt lat="42.811995" lon="11.2618967"><ele>45.0</ele><time>2026-04-12T09:00:06.98Z</time></trkpt><trkpt lat="42.811975" lon="11.2618"><ele>44.5</ele><time>2026-04-12T09:00:07.98Z</time></trkpt><trkpt lat="42.8119633" lon="11.2617083"><ele>44.0</ele><time>2026-04-12T09:00:08.98Z</time></trkpt><trkpt lat="42.8119433" lon="11.2616167"><ele>43.5</ele><time>2026-04-12T09:00:09.981Z</time></trkpt><trkpt lat="42.8119117" lon="11.26153"><ele>43.0</ele><time>2026-04-12T09:00:10.98Z</time></trkpt><trkpt lat="42.8118933" lon="11.2613967"><ele>43.0</ele><time>2026-04-12T09:00:12.98Z</time></trkpt><trkpt lat="42.8119433" lon="11.2612917"><ele>43.0</ele><time>2026-04-12T09:00:14.98Z</time></trkpt><trkpt lat="42.8120533" lon="11.2612833"><ele>43.0</ele><time>2026-04-12T09:00:16.98Z</time></trkpt><trkpt lat="42.8121617" lon="11.2613733"><ele>43.0</ele><time>2026-04-12T09:00:18.98Z</time></trkpt><trkpt lat="42.8122117" lon="11.261445"><ele>43.0</ele><time>2026-04-12T09:00:19.98Z</time></trkpt><trkpt lat="42.8122767" lon="11.26157"><ele>43.0</ele><time>2026-04-12T09:00:21.981Z</time></trkpt><trkpt lat="42.812335" lon="11.261675"><ele>43.0</ele><time>2026-04-12T09:00:23.98Z</time></trkpt><trkpt lat="42.8124067" lon="11.2617133"><ele>43.0</ele><time>2026-04-12T09:00:25.98Z</time></trkpt><trkpt lat="42.812475" lon="11.2616717"><ele>43.0</ele><time>2026-04-12T09:00:27.98Z</time></trkpt><trkpt lat="42.8124717" lon="11.2615817"><ele>43.0</ele><time>2026-04-12T09:00:29.981Z</time></trkpt><trkpt lat="42.8124083" lon="11.2614883"><ele>43.0</ele><time>2026-04-12T09:00:31.981Z</time></trkpt><trkpt lat="42.812325" lon="11.2613967"><ele>41.25</ele><time>2026-04-12T09:00:33.98Z</time></trkpt><trkpt lat="42.81225" lon="11.261285"><ele>39.5</ele><time>2026-04-12T09:00:35.98Z</time></trkpt><trkpt lat="42.8122" lon="11.26114"><ele>37.75</ele><time>2026-04-12T09:00:37.981Z</time></trkpt><trkpt lat="42.8121533" lon="11.2609983"><ele>36.0</ele><time>2026-04-12T09:00:39.98Z</time></trkpt><trkpt lat="42.81208" lon="11.260855"><ele>36.0</ele><time>2026-04-12T09:00:41.98Z</time></trkpt><trkpt lat="42.8120467" lon="11.260765"><ele>36.0</ele><time>2026-04-12T09:00:42.98Z</time></trkpt><trkpt lat="42.812025" lon="11.2606767"><ele>36.0</ele><time>2026-04-12T09:00:43.981Z</time></trkpt><trkpt lat="42.8119917" lon="11.2605917"><ele>36.0</ele><time>2026-04-12T09:00:44.981Z</time></trkpt><trkpt lat="42.811925" lon="11.2604517"><ele>36.0</ele><time>2026-04-12T09:00:46.98Z</time></trkpt><trkpt lat="42.811865" lon="11.260315"><ele>35.833333333333336</ele><time>2026-04-12T09:00:48.98Z</time></trkpt><trkpt lat="42.811815" lon="11.26019"><ele>35.666666666666664</ele><time>2026-04-12T09:00:50.98Z</time></trkpt><trkpt lat="42.811785" lon="11.2601033"><ele>35.5</ele><time>2026-04-12T09:00:51.981Z</time></trkpt><trkpt lat="42.8117617" lon="11.2599467"><ele>35.33333333333333</ele><time>2026-04-12T09:00:53.98Z</time></trkpt><trkpt lat="42.8117733" lon="11.2598317"><ele>35.166666666666664</ele><time>2026-04-12T09:00:55.98Z</time></trkpt><trkpt lat="42.8118033" lon="11.2597517"><ele>35.0</ele><time>2026-04-12T09:00:58.98Z</time></trkpt><trkpt lat="42.811795" lon="11.2596517"><ele>35.0</ele><time>2026-04-12T09:01:02.98Z</time></trkpt><trkpt lat="42.8117367" lon="11.2595883"><ele>35.0</ele><time>2026-04-12T09:01:04.98Z</time></trkpt><trkpt lat="42.8116517" lon="11.2595217"><ele>35.0</ele><time>2026-04-12T09:01:06.98Z</time></trkpt><trkpt lat="42.81156" lon="11.2594333"><ele>35.0</ele><time>2026-04-12T09:01:08.98Z</time></trkpt><trkpt lat="42.8114617" lon="11.2593383"><ele>35.0</ele><time>2026-04-12T09:01:10.981Z</time></trkpt><trkpt lat="42.8114067" lon="11.2592933"><ele>35.0</ele><time>2026-04-12T09:01:11.98Z</time></trkpt><trkpt lat="42.81135" lon="11.2592517"><ele>35.0</ele><time>2026-04-12T09:01:12.98Z</time></trkpt><trkpt lat="42.8112433" lon="11.259165"><ele>35.0</ele><time>2026-04-12T09:01:14.98Z</time></trkpt><trkpt lat="42.8111883" lon="11.2591167"><ele>35.0</ele><time>2026-04-12T09:01:15.98Z</time></trkpt><trkpt lat="42.8111317" lon="11.2590733"><ele>35.0</ele><time>2026-04-12T09:01:16.98Z</time></trkpt><trkpt lat="42.8110783" lon="11.2590267"><ele>35.0</ele><time>2026-04-12T09:01:17.98Z</time></trkpt><trkpt lat="42.810985" lon="11.2589517"><ele>35.6</ele><time>2026-04-12T09:01:19.98Z</time></trkpt><trkpt lat="42.81089" lon="11.258875"><ele>36.2</ele><time>2026-04-12T09:01:21.981Z</time></trkpt><trkpt lat="42.8107983" lon="11.258795"><ele>36.8</ele><time>2026-04-12T09:01:23.98Z</time></trkpt><trkpt lat="42.8107117" lon="11.2587167"><ele>37.4</ele><time>2026-04-12T09:01:25.98Z</time></trkpt><trkpt lat="42.8106183" lon="11.258645"><ele>38.0</ele><time>2026-04-12T09:01:27.981Z</time></trkpt><trkpt lat="42.81053" lon="11.25857"><ele>38.0</ele><time>2026-04-12T09:01:29.98Z</time></trkpt><trkpt lat="42.81045" lon="11.258505"><ele>38.0</ele><time>2026-04-12T09:01:31.981Z</time></trkpt><trkpt lat="42.81036" lon="11.2584483"><ele>38.0</ele><time>2026-04-12T09:01:33.98Z</time></trkpt><trkpt lat="42.810275" lon="11.25838"><ele>38.0</ele><time>2026-04-12T09:01:35.98Z</time></trkpt><trkpt lat="42.81019" lon="11.2582917"><ele>38.0</ele><time>2026-04-12T09:01:37.98Z</time></trkpt><trkpt lat="42.8101" lon="11.258205"><ele>38.4</ele><time>2026-04-12T09:01:39.981Z</time></trkpt><trkpt lat="42.8100117" lon="11.2581233"><ele>38.8</ele><time>2026-04-12T09:01:41.98Z</time></trkpt><trkpt lat="42.8099233" lon="11.258045"><ele>39.2</ele><time>2026-04-12T09:01:43.98Z</time></trkpt><trkpt lat="42.809835" lon="11.2579583"><ele>39.6</ele><time>2026-04-12T09:01:45.98Z</time></trkpt><trkpt lat="42.809735" lon="11.257855"><ele>40.0</ele><time>2026-04-12T09:01:47.98Z</time></trkpt><trkpt lat="42.80964" lon="11.2577817"><ele>40.0</ele><time>2026-04-12T09:01:49.98Z</time></trkpt><trkpt lat="42.8095333" lon="11.2576983"><ele>40.0</ele><time>2026-04-12T09:01:51.98Z</time></trkpt><trkpt lat="42.8094383" lon="11.257605"><ele>40.0</ele><time>2026-04-12T09:01:53.981Z</time></trkpt><trkpt lat="42.809335" lon="11.257515"><ele>40.0</ele><time>2026-04-12T09:01:55.98Z</time></trkpt><trkpt lat="42.8092417" lon="11.2574283"><ele>39.8</ele><time>2026-04-12T09:01:57.981Z</time></trkpt><trkpt lat="42.809145" lon="11.2573367"><ele>39.6</ele><time>2026-04-12T09:01:59.98Z</time></trkpt><trkpt lat="42.8090517" lon="11.2572633"><ele>39.4</ele><time>2026-04-12T09:02:01.98Z</time></trkpt><trkpt lat="42.8089633" lon="11.2571767"><ele>39.2</ele><time>2026-04-12T09:02:03.981Z</time></trkpt><trkpt lat="42.8088733" lon="11.2570833"><ele>39.0</ele><time>2026-04-12T09:02:05.98Z</time></trkpt><trkpt lat="42.8087767" lon="11.25701"><ele>38.4</ele><time>2026-04-12T09:02:07.98Z</time></trkpt><trkpt lat="42.8086733" lon="11.2569417"><ele>37.8</ele><time>2026-04-12T09:02:09.98Z</time></trkpt><trkpt lat="42.8085767" lon="11.2568667"><ele>37.2</ele><time>2026-04-12T09:02:11.98Z</time></trkpt><trkpt lat="42.808485" lon="11.256785"><ele>36.6</ele><time>2026-04-12T09:02:13.98Z</time></trkpt><trkpt lat="42.80843" lon="11.256735"><ele>36.0</ele><time>2026-04-12T09:02:14.98Z</time></trkpt><trkpt lat="42.8083767" lon="11.2566833"><ele>36.0</ele><time>2026-04-12T09:02:15.98Z</time></trkpt><trkpt lat="42.8082817" lon="11.2565833"><ele>36.0</ele><time>2026-04-12T09:02:17.98Z</time></trkpt><trkpt lat="42.808185" lon="11.2564933"><ele>36.0</ele><time>2026-04-12T09:02:19.98Z</time></trkpt><trkpt lat="42.808085" lon="11.2564133"><ele>36.0</ele><time>2026-04-12T09:02:21.98Z</time></trkpt><trkpt lat="42.8079817" lon="11.2563417"><ele>36.25</ele><time>2026-04-12T09:02:23.98Z</time></trkpt><trkpt lat="42.8078767" lon="11.2562783"><ele>36.5</ele><time>2026-04-12T09:02:25.98Z</time></trkpt><trkpt lat="42.8077717" lon="11.2561967"><ele>36.75</ele><time>2026-04-12T09:02:27.98Z</time></trkpt><trkpt lat="42.8076717" lon="11.2561083"><ele>37.0</ele><time>2026-04-12T09:02:29.981Z</time></trkpt><trkpt lat="42.8075733" lon="11.2560267"><ele>37.0</ele><time>2026-04-12T09:02:31.98Z</time></trkpt><trkpt lat="42.8074667" lon="11.2559483"><ele>37.0</ele><time>2026-04-12T09:02:33.98Z</time></trkpt><trkpt lat="42.807375" lon="11.2558633"><ele>37.0</ele><time>2026-04-12T09:02:35.981Z</time></trkpt><trkpt lat="42.8072783" lon="11.25578"><ele>37.0</ele><time>2026-04-12T09:02:37.98Z</time></trkpt><trkpt lat="42.80719" lon="11.2557"><ele>37.0</ele><time>2026-04-12T09:02:39.981Z</time></trkpt><trkpt lat="42.8071083" lon="11.25563"><ele>37.0</ele><time>2026-04-12T09:02:41.981Z</time></trkpt><trkpt lat="42.80704" lon="11.2555617"><ele>37.0</ele><time>2026-04-12T09:02:43.98Z</time></trkpt><trkpt lat="42.8070067" lon="11.25548"><ele>37.0</ele><time>2026-04-12T09:02:45.98Z</time></trkpt><trkpt lat="42.8070767" lon="11.2554033"><ele>37.0</ele><time>2026-04-12T09:02:47.981Z</time></trkpt><trkpt lat="42.8071767" lon="11.255365"><ele>37.0</ele><time>2026-04-12T09:02:49.98Z</time></trkpt><trkpt lat="42.8072733" lon="11.25534"><ele>36.800000000000004</ele><time>2026-04-12T09:02:51.981Z</time></trkpt><trkpt lat="42.807365" lon="11.25531"><ele>36.6</ele><time>2026-04-12T09:02:53.98Z</time></trkpt><trkpt lat="42.8074617" lon="11.2552833"><ele>36.400000000000006</ele><time>2026-04-12T09:02:55.981Z</time></trkpt><trkpt lat="42.8075667" lon="11.25525"><ele>36.2</ele><time>2026-04-12T09:02:57.98Z</time></trkpt><trkpt lat="42.807675" lon="11.2552233"><ele>36.0</ele><time>2026-04-12T09:02:59.98Z</time></trkpt><trkpt lat="42.80777" lon="11.25519"><ele>36.0</ele><time>2026-04-12T09:03:01.98Z</time></trkpt><trkpt lat="42.8078683" lon="11.2551533"><ele>36.0</ele><time>2026-04-12T09:03:03.98Z</time></trkpt><trkpt lat="42.80796" lon="11.2551167"><ele>36.0</ele><time>2026-04-12T09:03:05.98Z</time></trkpt><trkpt lat="42.808055" lon="11.2550783"><ele>36.0</ele><time>2026-04-12T09:03:07.981Z</time></trkpt><trkpt lat="42.8081517" lon="11.2550433"><ele>36.0</ele><time>2026-04-12T09:03:09.98Z</time></trkpt><trkpt lat="42.80825" lon="11.2550067"><ele>36.0</ele><time>2026-04-12T09:03:11.981Z</time></trkpt><trkpt lat="42.8083533" lon="11.2549633"><ele>36.0</ele><time>2026-04-12T09:03:13.981Z</time></trkpt><trkpt lat="42.8084417" lon="11.2549283"><ele>36.0</ele><time>2026-04-12T09:03:15.98Z</time></trkpt><trkpt lat="42.80854" lon="11.254895"><ele>36.0</ele><time>2026-04-12T09:03:17.98Z</time></trkpt><trkpt lat="42.808635" lon="11.2548567"><ele>36.0</ele><time>2026-04-12T09:03:19.98Z</time></trkpt><trkpt lat="42.8087283" lon="11.2548267"><ele>35.8</ele><time>2026-04-12T09:03:21.98Z</time></trkpt><trkpt lat="42.80882" lon="11.254795"><ele>35.6</ele><time>2026-04-12T09:03:23.981Z</time></trkpt><trkpt lat="42.80892" lon="11.25477"><ele>35.4</ele><time>2026-04-12T09:03:25.981Z</time></trkpt><trkpt lat="42.80901" lon="11.254735"><ele>35.2</ele><time>2026-04-12T09:03:27.98Z</time></trkpt><trkpt lat="42.8091117" lon="11.2546817"><ele>35.0</ele><time>2026-04-12T09:03:29.98Z</time></trkpt><trkpt lat="42.8091983" lon="11.2546017"><ele>35.0</ele><time>2026-04-12T09:03:31.98Z</time></trkpt><trkpt lat="42.8092683" lon="11.2544983"><ele>35.0</ele><time>2026-04-12T09:03:33.98Z</time></trkpt><trkpt lat="42.809325" lon="11.254375"><ele>35.0</ele><time>2026-04-12T09:03:35.981Z</time></trkpt><trkpt lat="42.80937" lon="11.2542417"><ele>35.0</ele><time>2026-04-12T09:03:37.981Z</time></trkpt><trkpt lat="42.8094233" lon="11.2541067"><ele>35.0</ele><time>2026-04-12T09:03:39.98Z</time></trkpt><trkpt lat="42.80948" lon="11.253985"><ele>35.2</ele><time>2026-04-12T09:03:41.981Z</time></trkpt><trkpt lat="42.80954" lon="11.2538583"><ele>35.4</ele><time>2026-04-12T09:03:43.981Z</time></trkpt><trkpt lat="42.8095983" lon="11.253745"><ele>35.6</ele><time>2026-04-12T09:03:45.981Z</time></trkpt><trkpt lat="42.809645" lon="11.2536333"><ele>35.8</ele><time>2026-04-12T09:03:47.98Z</time></trkpt><trkpt lat="42.8096917" lon="11.25351"><ele>36.0</ele><time>2026-04-12T09:03:49.98Z</time></trkpt><trkpt lat="42.80974" lon="11.2533783"><ele>36.0</ele><time>2026-04-12T09:03:51.98Z</time></trkpt><trkpt lat="42.809775" lon="11.2532467"><ele>36.0</ele><time>2026-04-12T09:03:53.98Z</time></trkpt><trkpt lat="42.8098067" lon="11.2531167"><ele>36.0</ele><time>2026-04-12T09:03:55.98Z</time></trkpt><trkpt lat="42.8098517" lon="11.2529817"><ele>36.0</ele><time>2026-04-12T09:03:57.98Z</time></trkpt><trkpt lat="42.80989" lon="11.25284"><ele>36.0</ele><time>2026-04-12T09:03:59.98Z</time></trkpt><trkpt lat="42.8099217" lon="11.2527033"><ele>35.6</ele><time>2026-04-12T09:04:01.98Z</time></trkpt><trkpt lat="42.8099483" lon="11.2525617"><ele>35.2</ele><time>2026-04-12T09:04:03.981Z</time></trkpt><trkpt lat="42.8099817" lon="11.2524217"><ele>34.8</ele><time>2026-04-12T09:04:05.98Z</time></trkpt><trkpt lat="42.8100183" lon="11.25228"><ele>34.4</ele><time>2026-04-12T09:04:07.981Z</time></trkpt><trkpt lat="42.8100467" lon="11.252145"><ele>34.0</ele><time>2026-04-12T09:04:09.98Z</time></trkpt><trkpt lat="42.8100733" lon="11.25201"><ele>34.0</ele><time>2026-04-12T09:04:11.98Z</time></trkpt><trkpt lat="42.810105" lon="11.251875"><ele>34.0</ele><time>2026-04-12T09:04:13.98Z</time></trkpt><trkpt lat="42.81014" lon="11.2517283"><ele>34.0</ele><time>2026-04-12T09:04:15.98Z</time></trkpt><trkpt lat="42.8101683" lon="11.251595"><ele>34.0</ele><time>2026-04-12T09:04:17.98Z</time></trkpt><trkpt lat="42.8102" lon="11.25146"><ele>34.0</ele><time>2026-04-12T09:04:19.98Z</time></trkpt><trkpt lat="42.810235" lon="11.2513233"><ele>33.6</ele><time>2026-04-12T09:04:21.981Z</time></trkpt><trkpt lat="42.8102717" lon="11.2511817"><ele>33.2</ele><time>2026-04-12T09:04:23.98Z</time></trkpt><trkpt lat="42.8103" lon="11.2510367"><ele>32.800000000000004</ele><time>2026-04-12T09:04:25.98Z</time></trkpt><trkpt lat="42.810335" lon="11.2508967"><ele>32.4</ele><time>2026-04-12T09:04:27.979Z</time></trkpt><trkpt lat="42.8103683" lon="11.2507583"><ele>32.0</ele><time>2026-04-12T09:04:29.979Z</time></trkpt><trkpt lat="42.8104083" lon="11.2506167"><ele>31.6</ele><time>2026-04-12T09:04:31.979Z</time></trkpt><trkpt lat="42.810445" lon="11.2504783"><ele>31.200000000000003</ele><time>2026-04-12T09:04:33.979Z</time></trkpt><trkpt lat="42.810475" lon="11.2503383"><ele>30.8</ele><time>2026-04-12T09:04:35.979Z</time></trkpt><trkpt lat="42.8105067" lon="11.2502033"><ele>30.4</ele><time>2026-04-12T09:04:37.979Z</time></trkpt><trkpt lat="42.8105367" lon="11.2500717"><ele>30.0</ele><time>2026-04-12T09:04:39.979Z</time></trkpt><trkpt lat="42.8105633" lon="11.2499417"><ele>30.0</ele><time>2026-04-12T09:04:41.98Z</time></trkpt><trkpt lat="42.81059" lon="11.2498033"><ele>30.0</ele><time>2026-04-12T09:04:43.98Z</time></trkpt><trkpt lat="42.8106233" lon="11.2496633"><ele>30.0</ele><time>2026-04-12T09:04:45.979Z</time></trkpt><trkpt lat="42.810655" lon="11.2495233"><ele>30.0</ele><time>2026-04-12T09:04:47.979Z</time></trkpt><trkpt lat="42.8106983" lon="11.2493783"><ele>30.0</ele><time>2026-04-12T09:04:49.98Z</time></trkpt><trkpt lat="42.8107283" lon="11.2492317"><ele>30.4</ele><time>2026-04-12T09:04:51.979Z</time></trkpt><trkpt lat="42.8107433" lon="11.2490917"><ele>30.8</ele><time>2026-04-12T09:04:53.979Z</time></trkpt><trkpt lat="42.8107367" lon="11.2489517"><ele>31.200000000000003</ele><time>2026-04-12T09:04:55.979Z</time></trkpt><trkpt lat="42.81072" lon="11.248805"><ele>31.6</ele><time>2026-04-12T09:04:57.979Z</time></trkpt><trkpt lat="42.81071" lon="11.2486533"><ele>32.0</ele><time>2026-04-12T09:04:59.979Z</time></trkpt><trkpt lat="42.8106917" lon="11.2485083"><ele>32.2</ele><time>2026-04-12T09:05:01.979Z</time></trkpt><trkpt lat="42.8106817" lon="11.2483617"><ele>32.400000000000006</ele><time>2026-04-12T09:05:03.979Z</time></trkpt><trkpt lat="42.8106683" lon="11.2482183"><ele>32.599999999999994</ele><time>2026-04-12T09:05:05.979Z</time></trkpt><trkpt lat="42.8106617" lon="11.248065"><ele>32.8</ele><time>2026-04-12T09:05:07.979Z</time></trkpt><trkpt lat="42.8106617" lon="11.2479117"><ele>33.0</ele><time>2026-04-12T09:05:09.979Z</time></trkpt><trkpt lat="42.8106433" lon="11.24776"><ele>32.6</ele><time>2026-04-12T09:05:11.979Z</time></trkpt><trkpt lat="42.8106183" lon="11.2476283"><ele>32.199999999999996</ele><time>2026-04-12T09:05:13.979Z</time></trkpt><trkpt lat="42.810575" lon="11.2474783"><ele>31.8</ele><time>2026-04-12T09:05:15.98Z</time></trkpt><trkpt lat="42.8104983" lon="11.2473667"><ele>31.4</ele><time>2026-04-12T09:05:17.979Z</time></trkpt><trkpt lat="42.8103933" lon="11.2473283"><ele>31.0</ele><time>2026-04-12T09:05:19.979Z</time></trkpt><trkpt lat="42.8102867" lon="11.2473183"><ele>31.0</ele><time>2026-04-12T09:05:21.979Z</time></trkpt><trkpt lat="42.810175" lon="11.2473"><ele>31.0</ele><time>2026-04-12T09:05:23.979Z</time></trkpt><trkpt lat="42.8100583" lon="11.24729"><ele>31.0</ele><time>2026-04-12T09:05:25.979Z</time></trkpt><trkpt lat="42.8099583" lon="11.24727"><ele>31.0</ele><time>2026-04-12T09:05:27.979Z</time></trkpt><trkpt lat="42.8098517" lon="11.247245"><ele>31.0</ele><time>2026-04-12T09:05:29.979Z</time></trkpt><trkpt lat="42.80975" lon="11.2472183"><ele>30.200000000000003</ele><time>2026-04-12T09:05:31.979Z</time></trkpt><trkpt lat="42.8096583" lon="11.2471917"><ele>29.400000000000002</ele><time>2026-04-12T09:05:33.98Z</time></trkpt><trkpt lat="42.80956" lon="11.2471783"><ele>28.6</ele><time>2026-04-12T09:05:35.98Z</time></trkpt><trkpt lat="42.809465" lon="11.24714"><ele>27.8</ele><time>2026-04-12T09:05:37.979Z</time></trkpt><trkpt lat="42.8093767" lon="11.24711"><ele>27.0</ele><time>2026-04-12T09:05:39.979Z</time></trkpt><trkpt lat="42.80929" lon="11.2470867"><ele>27.0</ele><time>2026-04-12T09:05:41.979Z</time></trkpt><trkpt lat="42.8091933" lon="11.2470617"><ele>27.0</ele><time>2026-04-12T09:05:43.979Z</time></trkpt><trkpt lat="42.8091083" lon="11.247035"><ele>27.0</ele><time>2026-04-12T09:05:45.979Z</time></trkpt><trkpt lat="42.8090233" lon="11.247005"><ele>27.0</ele><time>2026-04-12T09:05:47.979Z</time></trkpt><trkpt lat="42.8089467" lon="11.2469833"><ele>27.0</ele><time>2026-04-12T09:05:49.979Z</time></trkpt><trkpt lat="42.8088833" lon="11.2469783"><ele>27.0</ele><time>2026-04-12T09:05:51.98Z</time></trkpt><trkpt lat="42.8088133" lon="11.2469883"><ele>27.0</ele><time>2026-04-12T09:05:54.979Z</time></trkpt></trkseg></trk></gpx>